Wetterdaten: Dienstag, 08.08.2017
Datum Zeit Temp. A. Temp. A. max Feuchte A. Luftdruck Regen Wind Richtung Richtung Sonnenschein ET UV Solar Taupunkt Windchill Windböen
08.08.2017 00:00 13,3 °C 13,3 °C 94 % 1013,1 hPa 0,0 mm 0,0 km/h (0 Bft) O-NO 77 ° 0 min 0,000 mm 0,0 UV-I 0 W/m² 12,4 °C 13,3 °C 0,0 km/h (0 Bft)
08.08.2017 00:01 13,3 °C 13,3 °C 94 % 1013,1 hPa 0,0 mm 0,0 km/h (0 Bft) O-NO 77 ° 0 min 0,000 mm 0,0 UV-I 0 W/m² 12,4 °C 13,3 °C 0,0 km/h (0 Bft)
08.08.2017 00:02 13,3 °C 13,3 °C 94 % 1013,2 hPa 0,0 mm 0,0 km/h (0 Bft) O-NO 77 ° 0 min 0,000 mm 0,0 UV-I 0 W/m² 12,4 °C 13,3 °C 0,0 km/h (0 Bft)
08.08.2017 00:03 13,2 °C 13,3 °C 94 % 1013,1 hPa 0,0 mm 0,0 km/h (0 Bft) O-NO 77 ° 0 min 0,000 mm 0,0 UV-I 0 W/m² 12,3 °C 13,2 °C 0,0 km/h (0 Bft)
08.08.2017 00:04 13,3 °C 13,3 °C 94 % 1013,1 hPa 0,0 mm 0,0 km/h (0 Bft) O-NO 77 ° 0 min 0,000 mm 0,0 UV-I 0 W/m² 12,4 °C 13,3 °C 0,0 km/h (0 Bft)
08.08.2017 00:05 13,3 °C 13,3 °C 94 % 1013,0 hPa 0,0 mm 0,0 km/h (0 Bft) O-NO 77 ° 0 min 0,000 mm 0,0 UV-I 0 W/m² 12,4 °C 13,3 °C 0,0 km/h (0 Bft)
08.08.2017 00:06 13,4 °C 13,4 °C 95 % 1013,0 hPa 0,0 mm 0,0 km/h (0 Bft) O-NO 77 ° 0 min 0,000 mm 0,0 UV-I 0 W/m² 12,6 °C 13,4 °C 0,0 km/h (0 Bft)
08.08.2017 00:07 13,3 °C 13,4 °C 94 % 1013,0 hPa 0,0 mm 0,0 km/h (0 Bft) O-NO 77 ° 0 min 0,000 mm 0,0 UV-I 0 W/m² 12,4 °C 13,3 °C 0,0 km/h (0 Bft)
08.08.2017 00:08 13,3 °C 13,3 °C 94 % 1013,0 hPa 0,0 mm 0,0 km/h (0 Bft) O-NO 77 ° 0 min 0,000 mm 0,0 UV-I 0 W/m² 12,4 °C 13,3 °C 0,0 km/h (0 Bft)
08.08.2017 00:09 13,2 °C 13,3 °C 95 % 1013,0 hPa 0,0 mm 0,0 km/h (0 Bft) O-NO 77 ° 0 min 0,000 mm 0,0 UV-I 0 W/m² 12,4 °C 13,2 °C 0,0 km/h (0 Bft)
08.08.2017 00:10 13,2 °C 13,2 °C 94 % 1012,9 hPa 0,0 mm 0,0 km/h (0 Bft) O-NO 77 ° 0 min 0,000 mm 0,0 UV-I 0 W/m² 12,3 °C 13,2 °C 0,0 km/h (0 Bft)
08.08.2017 00:11 13,2 °C 13,2 °C 95 % 1012,9 hPa 0,0 mm 0,0 km/h (0 Bft) O-NO 77 ° 0 min 0,000 mm 0,0 UV-I 0 W/m² 12,4 °C 13,2 °C 0,0 km/h (0 Bft)
08.08.2017 00:12 13,2 °C 13,2 °C 94 % 1012,9 hPa 0,0 mm 0,0 km/h (0 Bft) O-NO 77 ° 0 min 0,000 mm 0,0 UV-I 0 W/m² 12,3 °C 13,2 °C 0,0 km/h (0 Bft)
08.08.2017 00:13 13,2 °C 13,2 °C 95 % 1012,9 hPa 0,0 mm 0,0 km/h (0 Bft) O-NO 77 ° 0 min 0,000 mm 0,0 UV-I 0 W/m² 12,4 °C 13,2 °C 0,0 km/h (0 Bft)
08.08.2017 00:14 13,2 °C 13,2 °C 95 % 1012,9 hPa 0,0 mm 0,0 km/h (0 Bft) O-NO 77 ° 0 min 0,000 mm 0,0 UV-I 0 W/m² 12,4 °C 13,2 °C 0,0 km/h (0 Bft)
08.08.2017 00:15 13,2 °C 13,2 °C 95 % 1012,9 hPa 0,0 mm 0,0 km/h (0 Bft) O-NO 77 ° 0 min 0,000 mm 0,0 UV-I 0 W/m² 12,4 °C 13,2 °C 0,0 km/h (0 Bft)
08.08.2017 00:16 13,2 °C 13,2 °C 95 % 1012,9 hPa 0,0 mm 0,0 km/h (0 Bft) O-NO 77 ° 0 min 0,000 mm 0,0 UV-I 0 W/m² 12,4 °C 13,2 °C 0,0 km/h (0 Bft)
08.08.2017 00:17 13,2 °C 13,2 °C 95 % 1012,9 hPa 0,0 mm 0,0 km/h (0 Bft) O-NO 77 ° 0 min 0,000 mm 0,0 UV-I 0 W/m² 12,4 °C 13,2 °C 0,0 km/h (0 Bft)
08.08.2017 00:18 13,1 °C 13,2 °C 95 % 1012,9 hPa 0,0 mm 0,0 km/h (0 Bft) O-NO 77 ° 0 min 0,000 mm 0,0 UV-I 0 W/m² 12,3 °C 13,1 °C 0,0 km/h (0 Bft)
08.08.2017 00:19 13,1 °C 13,1 °C 94 % 1012,9 hPa 0,0 mm 0,0 km/h (0 Bft) O-NO 77 ° 0 min 0,000 mm 0,0 UV-I 0 W/m² 12,2 °C 13,1 °C 0,0 km/h (0 Bft)
08.08.2017 00:20 13,0 °C 13,1 °C 94 % 1012,9 hPa 0,0 mm 0,0 km/h (0 Bft) O-NO 77 ° 0 min 0,000 mm 0,0 UV-I 0 W/m² 12,1 °C 13,0 °C 0,0 km/h (0 Bft)
08.08.2017 00:21 13,0 °C 13,0 °C 94 % 1012,8 hPa 0,0 mm 0,0 km/h (0 Bft) O-NO 77 ° 0 min 0,000 mm 0,0 UV-I 0 W/m² 12,1 °C 13,0 °C 0,0 km/h (0 Bft)
08.08.2017 00:22 12,9 °C 13,0 °C 94 % 1012,8 hPa 0,0 mm 0,0 km/h (0 Bft) O-NO 77 ° 0 min 0,000 mm 0,0 UV-I 0 W/m² 12,0 °C 12,9 °C 0,0 km/h (0 Bft)
08.08.2017 00:23 12,9 °C 12,9 °C 94 % 1012,8 hPa 0,0 mm 0,0 km/h (0 Bft) O-NO 77 ° 0 min 0,000 mm 0,0 UV-I 0 W/m² 12,0 °C 12,9 °C 0,0 km/h (0 Bft)
08.08.2017 00:24 12,9 °C 12,9 °C 94 % 1012,8 hPa 0,0 mm 0,0 km/h (0 Bft) O-NO 77 ° 0 min 0,000 mm 0,0 UV-I 0 W/m² 12,0 °C 12,9 °C 0,0 km/h (0 Bft)
08.08.2017 00:25 12,9 °C 12,9 °C 95 % 1012,8 hPa 0,0 mm 0,0 km/h (0 Bft) O-NO 77 ° 0 min 0,000 mm 0,0 UV-I 0 W/m² 12,1 °C 12,9 °C 0,0 km/h (0 Bft)
08.08.2017 00:26 12,9 °C 12,9 °C 95 % 1012,8 hPa 0,0 mm 0,0 km/h (0 Bft) O-NO 77 ° 0 min 0,000 mm 0,0 UV-I 0 W/m² 12,1 °C 12,9 °C 0,0 km/h (0 Bft)
08.08.2017 00:27 12,9 °C 12,9 °C 95 % 1012,7 hPa 0,0 mm 0,0 km/h (0 Bft) O-NO 77 ° 0 min 0,000 mm 0,0 UV-I 0 W/m² 12,1 °C 12,9 °C 0,0 km/h (0 Bft)
08.08.2017 00:28 13,0 °C 13,0 °C 95 % 1012,7 hPa 0,0 mm 0,0 km/h (0 Bft) O-NO 77 ° 0 min 0,000 mm 0,0 UV-I 0 W/m² 12,2 °C 13,0 °C 0,0 km/h (0 Bft)
08.08.2017 00:29 13,0 °C 13,0 °C 95 % 1012,8 hPa 0,0 mm 0,0 km/h (0 Bft) O-NO 77 ° 0 min 0,000 mm 0,0 UV-I 0 W/m² 12,2 °C 13,0 °C 0,0 km/h (0 Bft)
08.08.2017 00:30 13,0 °C 13,0 °C 95 % 1012,7 hPa 0,0 mm 0,0 km/h (0 Bft) O-NO 77 ° 0 min 0,000 mm 0,0 UV-I 0 W/m² 12,2 °C 13,0 °C 0,0 km/h (0 Bft)
08.08.2017 00:31 13,0 °C 13,0 °C 95 % 1012,7 hPa 0,0 mm 0,0 km/h (0 Bft) O-NO 77 ° 0 min 0,000 mm 0,0 UV-I 0 W/m² 12,2 °C 13,0 °C 0,0 km/h (0 Bft)
08.08.2017 00:32 13,0 °C 13,0 °C 95 % 1012,7 hPa 0,0 mm 0,0 km/h (0 Bft) O-NO 77 ° 0 min 0,000 mm 0,0 UV-I 0 W/m² 12,2 °C 13,0 °C 0,0 km/h (0 Bft)
08.08.2017 00:33 13,1 °C 13,1 °C 95 % 1012,7 hPa 0,0 mm 0,0 km/h (0 Bft) O-NO 77 ° 0 min 0,000 mm 0,0 UV-I 0 W/m² 12,3 °C 13,1 °C 0,0 km/h (0 Bft)
08.08.2017 00:34 13,1 °C 13,1 °C 95 % 1012,7 hPa 0,0 mm 0,0 km/h (0 Bft) O-NO 77 ° 0 min 0,000 mm 0,0 UV-I 0 W/m² 12,3 °C 13,1 °C 0,0 km/h (0 Bft)
08.08.2017 00:35 13,2 °C 13,2 °C 95 % 1012,7 hPa 0,0 mm 0,0 km/h (0 Bft) O-NO 77 ° 0 min 0,000 mm 0,0 UV-I 0 W/m² 12,4 °C 13,2 °C 0,0 km/h (0 Bft)
08.08.2017 00:36 13,1 °C 13,2 °C 95 % 1012,7 hPa 0,0 mm 0,0 km/h (0 Bft) O-NO 77 ° 0 min 0,000 mm 0,0 UV-I 0 W/m² 12,3 °C 13,1 °C 0,0 km/h (0 Bft)
08.08.2017 00:37 13,1 °C 13,1 °C 95 % 1012,7 hPa 0,0 mm 0,0 km/h (0 Bft) O-NO 77 ° 0 min 0,000 mm 0,0 UV-I 0 W/m² 12,3 °C 13,1 °C 0,0 km/h (0 Bft)
08.08.2017 00:38 13,1 °C 13,1 °C 95 % 1012,7 hPa 0,0 mm 0,0 km/h (0 Bft) O-NO 77 ° 0 min 0,000 mm 0,0 UV-I 0 W/m² 12,3 °C 13,1 °C 0,0 km/h (0 Bft)
08.08.2017 00:39 13,1 °C 13,1 °C 95 % 1012,7 hPa 0,0 mm 0,0 km/h (0 Bft) O-NO 77 ° 0 min 0,000 mm 0,0 UV-I 0 W/m² 12,3 °C 13,1 °C 0,0 km/h (0 Bft)
08.08.2017 00:40 13,1 °C 13,1 °C 95 % 1012,7 hPa 0,0 mm 0,0 km/h (0 Bft) O-NO 77 ° 0 min 0,000 mm 0,0 UV-I 0 W/m² 12,3 °C 13,1 °C 0,0 km/h (0 Bft)
08.08.2017 00:41 13,1 °C 13,1 °C 95 % 1012,6 hPa 0,0 mm 0,0 km/h (0 Bft) O-NO 77 ° 0 min 0,000 mm 0,0 UV-I 0 W/m² 12,3 °C 13,1 °C 0,0 km/h (0 Bft)
08.08.2017 00:42 13,1 °C 13,1 °C 95 % 1012,7 hPa 0,0 mm 0,0 km/h (0 Bft) O-NO 77 ° 0 min 0,000 mm 0,0 UV-I 0 W/m² 12,3 °C 13,1 °C 0,0 km/h (0 Bft)
08.08.2017 00:43 13,1 °C 13,1 °C 95 % 1012,7 hPa 0,0 mm 0,0 km/h (0 Bft) O-NO 77 ° 0 min 0,000 mm 0,0 UV-I 0 W/m² 12,3 °C 13,1 °C 0,0 km/h (0 Bft)
08.08.2017 00:44 12,9 °C 13,1 °C 95 % 1012,6 hPa 0,0 mm 0,0 km/h (0 Bft) O-NO 77 ° 0 min 0,000 mm 0,0 UV-I 0 W/m² 12,1 °C 12,9 °C 0,0 km/h (0 Bft)
08.08.2017 00:45 12,9 °C 12,9 °C 94 % 1012,6 hPa 0,0 mm 0,0 km/h (0 Bft) O-NO 77 ° 0 min 0,000 mm 0,0 UV-I 0 W/m² 12,0 °C 12,9 °C 0,0 km/h (0 Bft)
08.08.2017 00:46 12,9 °C 13,0 °C 95 % 1012,5 hPa 0,0 mm 0,0 km/h (0 Bft) O-NO 77 ° 0 min 0,000 mm 0,0 UV-I 0 W/m² 12,1 °C 12,9 °C 0,0 km/h (0 Bft)
08.08.2017 00:47 13,1 °C 13,1 °C 95 % 1012,6 hPa 0,0 mm 0,0 km/h (0 Bft) O-NO 77 ° 0 min 0,000 mm 0,0 UV-I 0 W/m² 12,3 °C 13,1 °C 0,0 km/h (0 Bft)
08.08.2017 00:48 13,0 °C 13,1 °C 95 % 1012,6 hPa 0,0 mm 0,0 km/h (0 Bft) O-NO 77 ° 0 min 0,000 mm 0,0 UV-I 0 W/m² 12,2 °C 13,0 °C 0,0 km/h (0 Bft)
08.08.2017 00:49 13,0 °C 13,1 °C 95 % 1012,5 hPa 0,0 mm 0,0 km/h (0 Bft) O-NO 77 ° 0 min 0,000 mm 0,0 UV-I 0 W/m² 12,2 °C 13,0 °C 0,0 km/h (0 Bft)
08.08.2017 00:50 13,0 °C 13,1 °C 95 % 1012,5 hPa 0,0 mm 0,0 km/h (0 Bft) O-NO 77 ° 0 min 0,000 mm 0,0 UV-I 0 W/m² 12,2 °C 13,0 °C 0,0 km/h (0 Bft)
08.08.2017 00:51 12,9 °C 13,0 °C 95 % 1012,5 hPa 0,0 mm 0,0 km/h (0 Bft) O-NO 77 ° 0 min 0,000 mm 0,0 UV-I 0 W/m² 12,1 °C 12,9 °C 0,0 km/h (0 Bft)
08.08.2017 00:52 12,9 °C 12,9 °C 95 % 1012,5 hPa 0,0 mm 0,0 km/h (0 Bft) O-NO 77 ° 0 min 0,000 mm 0,0 UV-I 0 W/m² 12,1 °C 12,9 °C 0,0 km/h (0 Bft)
08.08.2017 00:53 12,8 °C 12,9 °C 95 % 1012,5 hPa 0,0 mm 0,0 km/h (0 Bft) O-NO 77 ° 0 min 0,000 mm 0,0 UV-I 0 W/m² 12,0 °C 12,8 °C 0,0 km/h (0 Bft)
08.08.2017 00:54 12,8 °C 12,8 °C 95 % 1012,5 hPa 0,0 mm 0,0 km/h (0 Bft) O-NO 77 ° 0 min 0,000 mm 0,0 UV-I 0 W/m² 12,0 °C 12,8 °C 0,0 km/h (0 Bft)
08.08.2017 00:55 12,8 °C 12,8 °C 95 % 1012,4 hPa 0,0 mm 0,0 km/h (0 Bft) O-NO 77 ° 0 min 0,000 mm 0,0 UV-I 0 W/m² 12,0 °C 12,8 °C 0,0 km/h (0 Bft)
08.08.2017 00:56 12,8 °C 12,8 °C 95 % 1012,4 hPa 0,0 mm 0,0 km/h (0 Bft) O-NO 77 ° 0 min 0,000 mm 0,0 UV-I 0 W/m² 12,0 °C 12,8 °C 0,0 km/h (0 Bft)
08.08.2017 00:57 12,8 °C 12,8 °C 95 % 1012,4 hPa 0,0 mm 0,0 km/h (0 Bft) O-NO 77 ° 0 min 0,000 mm 0,0 UV-I 0 W/m² 12,0 °C 12,8 °C 0,0 km/h (0 Bft)
08.08.2017 00:58 12,8 °C 12,9 °C 95 % 1012,4 hPa 0,0 mm 0,0 km/h (0 Bft) O-NO 77 ° 0 min 0,000 mm 0,0 UV-I 0 W/m² 12,0 °C 12,8 °C 0,0 km/h (0 Bft)
08.08.2017 00:59 12,8 °C 12,8 °C 95 % 1012,4 hPa 0,0 mm 0,0 km/h (0 Bft) O-NO 77 ° 0 min 0,000 mm 0,0 UV-I 0 W/m² 12,0 °C 12,8 °C 0,0 km/h (0 Bft)
08.08.2017 01:00 12,8 °C 12,8 °C 95 % 1012,4 hPa 0,0 mm 0,0 km/h (0 Bft) O-NO 77 ° 0 min 0,000 mm 0,0 UV-I 0 W/m² 12,0 °C 12,8 °C 0,0 km/h (0 Bft)
08.08.2017 01:01 12,7 °C 12,8 °C 95 % 1012,4 hPa 0,0 mm 0,0 km/h (0 Bft) O-NO 77 ° 0 min 0,000 mm 0,0 UV-I 0 W/m² 11,9 °C 12,7 °C 0,0 km/h (0 Bft)
08.08.2017 01:02 12,7 °C 12,8 °C 95 % 1012,4 hPa 0,0 mm 0,0 km/h (0 Bft) O-NO 77 ° 0 min 0,000 mm 0,0 UV-I 0 W/m² 11,9 °C 12,7 °C 0,0 km/h (0 Bft)
08.08.2017 01:03 12,6 °C 12,7 °C 95 % 1012,4 hPa 0,0 mm 0,0 km/h (0 Bft) O-NO 77 ° 0 min 0,000 mm 0,0 UV-I 0 W/m² 11,8 °C 12,6 °C 0,0 km/h (0 Bft)
08.08.2017 01:04 12,6 °C 12,7 °C 95 % 1012,4 hPa 0,0 mm 0,0 km/h (0 Bft) O-NO 77 ° 0 min 0,000 mm 0,0 UV-I 0 W/m² 11,8 °C 12,6 °C 0,0 km/h (0 Bft)
08.08.2017 01:05 12,6 °C 12,6 °C 95 % 1012,4 hPa 0,0 mm 0,0 km/h (0 Bft) O-NO 77 ° 0 min 0,000 mm 0,0 UV-I 0 W/m² 11,8 °C 12,6 °C 0,0 km/h (0 Bft)
08.08.2017 01:06 12,5 °C 12,6 °C 95 % 1012,4 hPa 0,0 mm 0,0 km/h (0 Bft) O-NO 77 ° 0 min 0,000 mm 0,0 UV-I 0 W/m² 11,7 °C 12,5 °C 0,0 km/h (0 Bft)
08.08.2017 01:07 12,4 °C 12,5 °C 95 % 1012,3 hPa 0,0 mm 0,0 km/h (0 Bft) O-NO 77 ° 0 min 0,000 mm 0,0 UV-I 0 W/m² 11,6 °C 12,4 °C 0,0 km/h (0 Bft)
08.08.2017 01:08 12,4 °C 12,4 °C 95 % 1012,3 hPa 0,0 mm 0,0 km/h (0 Bft) O-NO 77 ° 0 min 0,000 mm 0,0 UV-I 0 W/m² 11,6 °C 12,4 °C 0,0 km/h (0 Bft)
08.08.2017 01:09 12,4 °C 12,4 °C 95 % 1012,3 hPa 0,0 mm 0,0 km/h (0 Bft) O-NO 77 ° 0 min 0,000 mm 0,0 UV-I 0 W/m² 11,6 °C 12,4 °C 0,0 km/h (0 Bft)
08.08.2017 01:10 12,4 °C 12,4 °C 95 % 1012,3 hPa 0,0 mm 0,0 km/h (0 Bft) O-NO 77 ° 0 min 0,000 mm 0,0 UV-I 0 W/m² 11,6 °C 12,4 °C 0,0 km/h (0 Bft)
08.08.2017 01:11 12,5 °C 12,5 °C 95 % 1012,3 hPa 0,0 mm 0,0 km/h (0 Bft) O-NO 77 ° 0 min 0,000 mm 0,0 UV-I 0 W/m² 11,7 °C 12,5 °C 0,0 km/h (0 Bft)
08.08.2017 01:12 12,6 °C 12,6 °C 95 % 1012,3 hPa 0,0 mm 0,0 km/h (0 Bft) O-NO 77 ° 0 min 0,000 mm 0,0 UV-I 0 W/m² 11,8 °C 12,6 °C 0,0 km/h (0 Bft)
08.08.2017 01:13 12,6 °C 12,6 °C 95 % 1012,3 hPa 0,0 mm 0,0 km/h (0 Bft) O-NO 77 ° 0 min 0,000 mm 0,0 UV-I 0 W/m² 11,8 °C 12,6 °C 0,0 km/h (0 Bft)
08.08.2017 01:14 12,8 °C 12,8 °C 95 % 1012,3 hPa 0,0 mm 0,0 km/h (0 Bft) O-NO 77 ° 0 min 0,000 mm 0,0 UV-I 0 W/m² 12,0 °C 12,8 °C 0,0 km/h (0 Bft)
08.08.2017 01:15 12,8 °C 12,8 °C 95 % 1012,3 hPa 0,0 mm 0,0 km/h (0 Bft) O-NO 77 ° 0 min 0,000 mm 0,0 UV-I 0 W/m² 12,0 °C 12,8 °C 0,0 km/h (0 Bft)
08.08.2017 01:16 12,9 °C 12,9 °C 96 % 1012,3 hPa 0,0 mm 0,0 km/h (0 Bft) O-NO 77 ° 0 min 0,000 mm 0,0 UV-I 0 W/m² 12,3 °C 12,9 °C 0,0 km/h (0 Bft)
08.08.2017 01:17 13,1 °C 13,1 °C 96 % 1012,2 hPa 0,0 mm 0,0 km/h (0 Bft) O-NO 77 ° 0 min 0,000 mm 0,0 UV-I 0 W/m² 12,5 °C 13,1 °C 0,0 km/h (0 Bft)
08.08.2017 01:18 13,1 °C 13,2 °C 96 % 1012,2 hPa 0,0 mm 0,0 km/h (0 Bft) O-NO 77 ° 0 min 0,000 mm 0,0 UV-I 0 W/m² 12,5 °C 13,1 °C 0,0 km/h (0 Bft)
08.08.2017 01:19 13,1 °C 13,1 °C 96 % 1012,2 hPa 0,0 mm 0,0 km/h (0 Bft) O-NO 77 ° 0 min 0,000 mm 0,0 UV-I 0 W/m² 12,5 °C 13,1 °C 0,0 km/h (0 Bft)
08.08.2017 01:20 12,9 °C 13,1 °C 96 % 1012,2 hPa 0,0 mm 0,0 km/h (0 Bft) O-NO 77 ° 0 min 0,000 mm 0,0 UV-I 0 W/m² 12,3 °C 12,9 °C 0,0 km/h (0 Bft)
08.08.2017 01:21 12,7 °C 12,9 °C 95 % 1012,2 hPa 0,0 mm 0,0 km/h (0 Bft) O-NO 77 ° 0 min 0,000 mm 0,0 UV-I 0 W/m² 11,9 °C 12,7 °C 0,0 km/h (0 Bft)
08.08.2017 01:22 12,7 °C 12,7 °C 95 % 1012,2 hPa 0,0 mm 0,0 km/h (0 Bft) O-NO 77 ° 0 min 0,000 mm 0,0 UV-I 0 W/m² 11,9 °C 12,7 °C 0,0 km/h (0 Bft)
08.08.2017 01:23 12,6 °C 12,7 °C 95 % 1012,2 hPa 0,0 mm 0,0 km/h (0 Bft) O-NO 77 ° 0 min 0,000 mm 0,0 UV-I 0 W/m² 11,8 °C 12,6 °C 0,0 km/h (0 Bft)
08.08.2017 01:24 12,6 °C 12,6 °C 95 % 1012,2 hPa 0,0 mm 0,0 km/h (0 Bft) O-NO 77 ° 0 min 0,000 mm 0,0 UV-I 0 W/m² 11,8 °C 12,6 °C 0,0 km/h (0 Bft)
08.08.2017 01:25 12,7 °C 12,7 °C 95 % 1012,2 hPa 0,0 mm 0,0 km/h (0 Bft) O-NO 77 ° 0 min 0,000 mm 0,0 UV-I 0 W/m² 11,9 °C 12,7 °C 0,0 km/h (0 Bft)
08.08.2017 01:26 12,7 °C 12,7 °C 95 % 1012,1 hPa 0,0 mm 0,0 km/h (0 Bft) O-NO 77 ° 0 min 0,000 mm 0,0 UV-I 0 W/m² 11,9 °C 12,7 °C 0,0 km/h (0 Bft)
08.08.2017 01:27 12,7 °C 12,8 °C 95 % 1012,1 hPa 0,0 mm 0,0 km/h (0 Bft) O-NO 77 ° 0 min 0,000 mm 0,0 UV-I 0 W/m² 11,9 °C 12,7 °C 0,0 km/h (0 Bft)
08.08.2017 01:28 12,8 °C 12,8 °C 95 % 1012,1 hPa 0,0 mm 0,0 km/h (0 Bft) O-NO 77 ° 0 min 0,000 mm 0,0 UV-I 0 W/m² 12,0 °C 12,8 °C 0,0 km/h (0 Bft)
08.08.2017 01:29 12,8 °C 12,8 °C 95 % 1012,1 hPa 0,0 mm 0,0 km/h (0 Bft) O-NO 77 ° 0 min 0,000 mm 0,0 UV-I 0 W/m² 12,0 °C 12,8 °C 0,0 km/h (0 Bft)
08.08.2017 01:30 12,8 °C 12,8 °C 95 % 1012,0 hPa 0,0 mm 0,0 km/h (0 Bft) O-NO 77 ° 0 min 0,000 mm 0,0 UV-I 0 W/m² 12,0 °C 12,8 °C 0,0 km/h (0 Bft)
08.08.2017 01:31 12,8 °C 12,8 °C 95 % 1012,0 hPa 0,0 mm 0,0 km/h (0 Bft) O-NO 77 ° 0 min 0,000 mm 0,0 UV-I 0 W/m² 12,0 °C 12,8 °C 0,0 km/h (0 Bft)
08.08.2017 01:32 12,9 °C 12,9 °C 95 % 1012,0 hPa 0,0 mm 0,0 km/h (0 Bft) O-NO 77 ° 0 min 0,000 mm 0,0 UV-I 0 W/m² 12,1 °C 12,9 °C 0,0 km/h (0 Bft)
08.08.2017 01:33 12,9 °C 12,9 °C 96 % 1012,0 hPa 0,0 mm 0,0 km/h (0 Bft) O-NO 77 ° 0 min 0,000 mm 0,0 UV-I 0 W/m² 12,3 °C 12,9 °C 0,0 km/h (0 Bft)
08.08.2017 01:34 12,9 °C 12,9 °C 96 % 1012,0 hPa 0,0 mm 0,0 km/h (0 Bft) O-NO 77 ° 0 min 0,000 mm 0,0 UV-I 0 W/m² 12,3 °C 12,9 °C 0,0 km/h (0 Bft)
08.08.2017 01:35 12,9 °C 12,9 °C 96 % 1012,0 hPa 0,0 mm 0,0 km/h (0 Bft) O-NO 77 ° 0 min 0,000 mm 0,0 UV-I 0 W/m² 12,3 °C 12,9 °C 0,0 km/h (0 Bft)
08.08.2017 01:36 12,8 °C 12,9 °C 95 % 1012,0 hPa 0,0 mm 0,0 km/h (0 Bft) O-NO 77 ° 0 min 0,000 mm 0,0 UV-I 0 W/m² 12,0 °C 12,8 °C 0,0 km/h (0 Bft)
08.08.2017 01:37 12,8 °C 12,8 °C 95 % 1012,0 hPa 0,0 mm 0,0 km/h (0 Bft) O-NO 77 ° 0 min 0,000 mm 0,0 UV-I 0 W/m² 12,0 °C 12,8 °C 0,0 km/h (0 Bft)
08.08.2017 01:38 12,7 °C 12,8 °C 95 % 1012,0 hPa 0,0 mm 0,0 km/h (0 Bft) O-NO 77 ° 0 min 0,000 mm 0,0 UV-I 0 W/m² 11,9 °C 12,7 °C 0,0 km/h (0 Bft)
08.08.2017 01:39 12,7 °C 12,7 °C 95 % 1011,9 hPa 0,0 mm 0,0 km/h (0 Bft) O-NO 77 ° 0 min 0,000 mm 0,0 UV-I 0 W/m² 11,9 °C 12,7 °C 0,0 km/h (0 Bft)
08.08.2017 01:40 12,7 °C 12,7 °C 95 % 1011,9 hPa 0,0 mm 0,0 km/h (0 Bft) O-NO 77 ° 0 min 0,000 mm 0,0 UV-I 0 W/m² 11,9 °C 12,7 °C 0,0 km/h (0 Bft)
08.08.2017 01:41 12,7 °C 12,7 °C 95 % 1011,9 hPa 0,0 mm 0,0 km/h (0 Bft) O-NO 77 ° 0 min 0,000 mm 0,0 UV-I 0 W/m² 11,9 °C 12,7 °C 0,0 km/h (0 Bft)
08.08.2017 01:42 12,8 °C 12,8 °C 96 % 1011,9 hPa 0,0 mm 0,0 km/h (0 Bft) O-NO 77 ° 0 min 0,000 mm 0,0 UV-I 0 W/m² 12,2 °C 12,8 °C 0,0 km/h (0 Bft)
08.08.2017 01:43 12,9 °C 12,9 °C 96 % 1011,9 hPa 0,0 mm 0,0 km/h (0 Bft) O-NO 77 ° 0 min 0,000 mm 0,0 UV-I 0 W/m² 12,3 °C 12,9 °C 0,0 km/h (0 Bft)
08.08.2017 01:44 12,8 °C 12,9 °C 96 % 1011,9 hPa 0,0 mm 0,0 km/h (0 Bft) O-NO 77 ° 0 min 0,000 mm 0,0 UV-I 0 W/m² 12,2 °C 12,8 °C 0,0 km/h (0 Bft)
08.08.2017 01:45 12,9 °C 12,9 °C 96 % 1011,8 hPa 0,0 mm 0,0 km/h (0 Bft) O-NO 77 ° 0 min 0,000 mm 0,0 UV-I 0 W/m² 12,3 °C 12,9 °C 0,0 km/h (0 Bft)
08.08.2017 01:46 12,8 °C 12,9 °C 95 % 1011,8 hPa 0,0 mm 0,0 km/h (0 Bft) O-NO 77 ° 0 min 0,000 mm 0,0 UV-I 0 W/m² 12,0 °C 12,8 °C 0,0 km/h (0 Bft)
08.08.2017 01:47 12,8 °C 12,8 °C 95 % 1011,7 hPa 0,0 mm 0,0 km/h (0 Bft) O-NO 77 ° 0 min 0,000 mm 0,0 UV-I 0 W/m² 12,0 °C 12,8 °C 0,0 km/h (0 Bft)
08.08.2017 01:48 12,8 °C 12,8 °C 95 % 1011,7 hPa 0,0 mm 0,0 km/h (0 Bft) O-NO 77 ° 0 min 0,000 mm 0,0 UV-I 0 W/m² 12,0 °C 12,8 °C 0,0 km/h (0 Bft)
08.08.2017 01:49 12,8 °C 12,8 °C 95 % 1011,7 hPa 0,0 mm 0,0 km/h (0 Bft) O-NO 77 ° 0 min 0,000 mm 0,0 UV-I 0 W/m² 12,0 °C 12,8 °C 0,0 km/h (0 Bft)
08.08.2017 01:50 12,7 °C 12,8 °C 95 % 1011,7 hPa 0,0 mm 0,0 km/h (0 Bft) O-NO 77 ° 0 min 0,000 mm 0,0 UV-I 0 W/m² 11,9 °C 12,7 °C 0,0 km/h (0 Bft)
08.08.2017 01:51 12,8 °C 12,8 °C 95 % 1011,7 hPa 0,0 mm 0,0 km/h (0 Bft) O-NO 77 ° 0 min 0,000 mm 0,0 UV-I 0 W/m² 12,0 °C 12,8 °C 0,0 km/h (0 Bft)
08.08.2017 01:52 12,7 °C 12,8 °C 95 % 1011,7 hPa 0,0 mm 0,0 km/h (0 Bft) O-NO 77 ° 0 min 0,000 mm 0,0 UV-I 0 W/m² 11,9 °C 12,7 °C 0,0 km/h (0 Bft)
08.08.2017 01:53 12,7 °C 12,7 °C 95 % 1011,7 hPa 0,0 mm 0,0 km/h (0 Bft) O-NO 77 ° 0 min 0,000 mm 0,0 UV-I 0 W/m² 11,9 °C 12,7 °C 0,0 km/h (0 Bft)
08.08.2017 01:54 12,6 °C 12,7 °C 95 % 1011,7 hPa 0,0 mm 0,0 km/h (0 Bft) O-NO 77 ° 0 min 0,000 mm 0,0 UV-I 0 W/m² 11,8 °C 12,6 °C 0,0 km/h (0 Bft)
08.08.2017 01:55 12,6 °C 12,6 °C 95 % 1011,7 hPa 0,0 mm 0,0 km/h (0 Bft) O-NO 77 ° 0 min 0,000 mm 0,0 UV-I 0 W/m² 11,8 °C 12,6 °C 0,0 km/h (0 Bft)
08.08.2017 01:56 12,6 °C 12,6 °C 95 % 1011,7 hPa 0,0 mm 0,0 km/h (0 Bft) O-NO 77 ° 0 min 0,000 mm 0,0 UV-I 0 W/m² 11,8 °C 12,6 °C 0,0 km/h (0 Bft)
08.08.2017 01:57 12,6 °C 12,6 °C 96 % 1011,6 hPa 0,0 mm 0,0 km/h (0 Bft) O-NO 77 ° 0 min 0,000 mm 0,0 UV-I 0 W/m² 12,0 °C 12,6 °C 0,0 km/h (0 Bft)
08.08.2017 01:58 12,6 °C 12,6 °C 96 % 1011,6 hPa 0,0 mm 0,0 km/h (0 Bft) O-NO 77 ° 0 min 0,000 mm 0,0 UV-I 0 W/m² 12,0 °C 12,6 °C 0,0 km/h (0 Bft)
08.08.2017 01:59 12,7 °C 12,7 °C 96 % 1011,6 hPa 0,0 mm 0,0 km/h (0 Bft) O-NO 77 ° 0 min 0,000 mm 0,0 UV-I 0 W/m² 12,1 °C 12,7 °C 0,0 km/h (0 Bft)
08.08.2017 02:00 12,6 °C 12,7 °C 96 % 1011,6 hPa 0,0 mm 0,0 km/h (0 Bft) O-NO 77 ° 0 min 0,000 mm 0,0 UV-I 0 W/m² 12,0 °C 12,6 °C 0,0 km/h (0 Bft)
08.08.2017 02:01 12,5 °C 12,6 °C 95 % 1011,5 hPa 0,0 mm 0,0 km/h (0 Bft) O-NO 77 ° 0 min 0,000 mm 0,0 UV-I 0 W/m² 11,7 °C 12,5 °C 0,0 km/h (0 Bft)
08.08.2017 02:02 12,5 °C 12,5 °C 95 % 1011,5 hPa 0,0 mm 0,0 km/h (0 Bft) O-NO 77 ° 0 min 0,000 mm 0,0 UV-I 0 W/m² 11,7 °C 12,5 °C 0,0 km/h (0 Bft)
08.08.2017 02:03 12,6 °C 12,6 °C 96 % 1011,5 hPa 0,0 mm 0,0 km/h (0 Bft) O-NO 77 ° 0 min 0,000 mm 0,0 UV-I 0 W/m² 12,0 °C 12,6 °C 0,0 km/h (0 Bft)
08.08.2017 02:04 12,6 °C 12,6 °C 96 % 1011,5 hPa 0,0 mm 0,0 km/h (0 Bft) O-NO 77 ° 0 min 0,000 mm 0,0 UV-I 0 W/m² 12,0 °C 12,6 °C 0,0 km/h (0 Bft)
08.08.2017 02:05 12,7 °C 12,7 °C 96 % 1011,5 hPa 0,0 mm 0,0 km/h (0 Bft) O-NO 77 ° 0 min 0,000 mm 0,0 UV-I 0 W/m² 12,1 °C 12,7 °C 0,0 km/h (0 Bft)
08.08.2017 02:06 12,7 °C 12,7 °C 96 % 1011,5 hPa 0,0 mm 0,0 km/h (0 Bft) O-NO 77 ° 0 min 0,000 mm 0,0 UV-I 0 W/m² 12,1 °C 12,7 °C 0,0 km/h (0 Bft)
08.08.2017 02:07 12,6 °C 12,7 °C 96 % 1011,4 hPa 0,0 mm 0,0 km/h (0 Bft) O-NO 77 ° 0 min 0,000 mm 0,0 UV-I 0 W/m² 12,0 °C 12,6 °C 0,0 km/h (0 Bft)
08.08.2017 02:08 12,5 °C 12,6 °C 96 % 1011,4 hPa 0,0 mm 0,0 km/h (0 Bft) O-NO 77 ° 0 min 0,000 mm 0,0 UV-I 0 W/m² 11,9 °C 12,5 °C 0,0 km/h (0 Bft)
08.08.2017 02:09 12,5 °C 12,6 °C 96 % 1011,5 hPa 0,0 mm 0,0 km/h (0 Bft) O-NO 77 ° 0 min 0,000 mm 0,0 UV-I 0 W/m² 11,9 °C 12,5 °C 0,0 km/h (0 Bft)
08.08.2017 02:10 12,5 °C 12,5 °C 95 % 1011,5 hPa 0,0 mm 0,0 km/h (0 Bft) O-NO 77 ° 0 min 0,000 mm 0,0 UV-I 0 W/m² 11,7 °C 12,5 °C 0,0 km/h (0 Bft)
08.08.2017 02:11 12,4 °C 12,5 °C 95 % 1011,4 hPa 0,0 mm 0,0 km/h (0 Bft) O-NO 77 ° 0 min 0,000 mm 0,0 UV-I 0 W/m² 11,6 °C 12,4 °C 0,0 km/h (0 Bft)
08.08.2017 02:12 12,4 °C 12,4 °C 95 % 1011,4 hPa 0,0 mm 0,0 km/h (0 Bft) O-NO 77 ° 0 min 0,000 mm 0,0 UV-I 0 W/m² 11,6 °C 12,4 °C 0,0 km/h (0 Bft)
08.08.2017 02:13 12,2 °C 12,4 °C 95 % 1011,4 hPa 0,0 mm 0,0 km/h (0 Bft) O-NO 77 ° 0 min 0,000 mm 0,0 UV-I 0 W/m² 11,4 °C 12,2 °C 0,0 km/h (0 Bft)
08.08.2017 02:14 12,1 °C 12,2 °C 95 % 1011,4 hPa 0,0 mm 0,0 km/h (0 Bft) O-NO 77 ° 0 min 0,000 mm 0,0 UV-I 0 W/m² 11,3 °C 12,1 °C 0,0 km/h (0 Bft)
08.08.2017 02:15 11,9 °C 12,1 °C 95 % 1011,4 hPa 0,0 mm 0,0 km/h (0 Bft) O-NO 77 ° 0 min 0,000 mm 0,0 UV-I 0 W/m² 11,1 °C 11,9 °C 0,0 km/h (0 Bft)
08.08.2017 02:16 11,9 °C 11,9 °C 95 % 1011,4 hPa 0,0 mm 0,0 km/h (0 Bft) O-NO 77 ° 0 min 0,000 mm 0,0 UV-I 0 W/m² 11,1 °C 11,9 °C 0,0 km/h (0 Bft)
08.08.2017 02:17 11,8 °C 11,9 °C 95 % 1011,4 hPa 0,0 mm 0,0 km/h (0 Bft) O-NO 77 ° 0 min 0,000 mm 0,0 UV-I 0 W/m² 11,0 °C 11,8 °C 0,0 km/h (0 Bft)
08.08.2017 02:18 11,8 °C 11,8 °C 95 % 1011,4 hPa 0,0 mm 0,0 km/h (0 Bft) O-NO 77 ° 0 min 0,000 mm 0,0 UV-I 0 W/m² 11,0 °C 11,8 °C 0,0 km/h (0 Bft)
08.08.2017 02:19 11,9 °C 11,9 °C 95 % 1011,4 hPa 0,0 mm 0,0 km/h (0 Bft) O-NO 77 ° 0 min 0,000 mm 0,0 UV-I 0 W/m² 11,1 °C 11,9 °C 0,0 km/h (0 Bft)
08.08.2017 02:20 11,9 °C 11,9 °C 96 % 1011,4 hPa 0,0 mm 0,0 km/h (0 Bft) O-NO 77 ° 0 min 0,000 mm 0,0 UV-I 0 W/m² 11,3 °C 11,9 °C 0,0 km/h (0 Bft)
08.08.2017 02:21 11,9 °C 11,9 °C 96 % 1011,4 hPa 0,0 mm 0,0 km/h (0 Bft) O-NO 77 ° 0 min 0,000 mm 0,0 UV-I 0 W/m² 11,3 °C 11,9 °C 0,0 km/h (0 Bft)
08.08.2017 02:22 12,0 °C 12,0 °C 96 % 1011,4 hPa 0,0 mm 0,0 km/h (0 Bft) O-NO 77 ° 0 min 0,000 mm 0,0 UV-I 0 W/m² 11,4 °C 12,0 °C 0,0 km/h (0 Bft)
08.08.2017 02:23 12,0 °C 12,0 °C 96 % 1011,3 hPa 0,0 mm 0,0 km/h (0 Bft) O-NO 77 ° 0 min 0,000 mm 0,0 UV-I 0 W/m² 11,4 °C 12,0 °C 0,0 km/h (0 Bft)
08.08.2017 02:24 12,1 °C 12,1 °C 96 % 1011,3 hPa 0,0 mm 0,0 km/h (0 Bft) O-NO 77 ° 0 min 0,000 mm 0,0 UV-I 0 W/m² 11,5 °C 12,1 °C 0,0 km/h (0 Bft)
08.08.2017 02:25 12,2 °C 12,2 °C 96 % 1011,3 hPa 0,0 mm 0,0 km/h (0 Bft) O-NO 77 ° 0 min 0,000 mm 0,0 UV-I 0 W/m² 11,6 °C 12,2 °C 0,0 km/h (0 Bft)
08.08.2017 02:26 12,2 °C 12,3 °C 96 % 1011,3 hPa 0,0 mm 0,0 km/h (0 Bft) O-NO 77 ° 0 min 0,000 mm 0,0 UV-I 0 W/m² 11,6 °C 12,2 °C 0,0 km/h (0 Bft)
08.08.2017 02:27 12,2 °C 12,3 °C 96 % 1011,3 hPa 0,0 mm 0,0 km/h (0 Bft) O-NO 77 ° 0 min 0,000 mm 0,0 UV-I 0 W/m² 11,6 °C 12,2 °C 0,0 km/h (0 Bft)
08.08.2017 02:28 12,1 °C 12,2 °C 96 % 1011,3 hPa 0,0 mm 0,0 km/h (0 Bft) O-NO 77 ° 0 min 0,000 mm 0,0 UV-I 0 W/m² 11,5 °C 12,1 °C 0,0 km/h (0 Bft)
08.08.2017 02:29 11,9 °C 12,1 °C 95 % 1011,2 hPa 0,0 mm 0,0 km/h (0 Bft) O-NO 77 ° 0 min 0,000 mm 0,0 UV-I 0 W/m² 11,1 °C 11,9 °C 0,0 km/h (0 Bft)
08.08.2017 02:30 11,8 °C 11,9 °C 95 % 1011,3 hPa 0,0 mm 0,0 km/h (0 Bft) O-NO 77 ° 0 min 0,000 mm 0,0 UV-I 0 W/m² 11,0 °C 11,8 °C 0,0 km/h (0 Bft)
08.08.2017 02:31 11,7 °C 11,8 °C 95 % 1011,2 hPa 0,0 mm 0,0 km/h (0 Bft) O-NO 77 ° 0 min 0,000 mm 0,0 UV-I 0 W/m² 10,9 °C 11,7 °C 0,0 km/h (0 Bft)
08.08.2017 02:32 11,6 °C 11,7 °C 95 % 1011,3 hPa 0,0 mm 0,0 km/h (0 Bft) O-NO 77 ° 0 min 0,000 mm 0,0 UV-I 0 W/m² 10,8 °C 11,6 °C 0,0 km/h (0 Bft)
08.08.2017 02:33 11,6 °C 11,6 °C 95 % 1011,2 hPa 0,0 mm 0,0 km/h (0 Bft) O-NO 77 ° 0 min 0,000 mm 0,0 UV-I 0 W/m² 10,8 °C 11,6 °C 0,0 km/h (0 Bft)
08.08.2017 02:34 11,6 °C 11,6 °C 95 % 1011,2 hPa 0,0 mm 0,0 km/h (0 Bft) O-NO 77 ° 0 min 0,000 mm 0,0 UV-I 0 W/m² 10,8 °C 11,6 °C 0,0 km/h (0 Bft)
08.08.2017 02:35 11,6 °C 11,6 °C 95 % 1011,2 hPa 0,0 mm 0,0 km/h (0 Bft) O-NO 77 ° 0 min 0,000 mm 0,0 UV-I 0 W/m² 10,8 °C 11,6 °C 0,0 km/h (0 Bft)
08.08.2017 02:36 11,8 °C 11,8 °C 96 % 1011,2 hPa 0,0 mm 0,0 km/h (0 Bft) O-NO 77 ° 0 min 0,000 mm 0,0 UV-I 0 W/m² 11,2 °C 11,8 °C 0,0 km/h (0 Bft)
08.08.2017 02:37 12,1 °C 12,1 °C 96 % 1011,2 hPa 0,0 mm 0,0 km/h (0 Bft) O-NO 77 ° 0 min 0,000 mm 0,0 UV-I 0 W/m² 11,5 °C 12,1 °C 0,0 km/h (0 Bft)
08.08.2017 02:38 12,5 °C 12,5 °C 96 % 1011,2 hPa 0,0 mm 0,0 km/h (0 Bft) O-NO 77 ° 0 min 0,000 mm 0,0 UV-I 0 W/m² 11,9 °C 12,5 °C 0,0 km/h (0 Bft)
08.08.2017 02:39 12,6 °C 12,6 °C 96 % 1011,2 hPa 0,0 mm 0,0 km/h (0 Bft) O-NO 77 ° 0 min 0,000 mm 0,0 UV-I 0 W/m² 12,0 °C 12,6 °C 0,0 km/h (0 Bft)
08.08.2017 02:40 12,7 °C 12,7 °C 96 % 1011,2 hPa 0,0 mm 0,0 km/h (0 Bft) O-NO 77 ° 0 min 0,000 mm 0,0 UV-I 0 W/m² 12,1 °C 12,7 °C 0,0 km/h (0 Bft)
08.08.2017 02:41 12,7 °C 12,7 °C 96 % 1011,2 hPa 0,0 mm 0,0 km/h (0 Bft) O-NO 77 ° 0 min 0,000 mm 0,0 UV-I 0 W/m² 12,1 °C 12,7 °C 0,0 km/h (0 Bft)
08.08.2017 02:42 12,7 °C 12,7 °C 96 % 1011,2 hPa 0,0 mm 0,0 km/h (0 Bft) O-NO 77 ° 0 min 0,000 mm 0,0 UV-I 0 W/m² 12,1 °C 12,7 °C 0,0 km/h (0 Bft)
08.08.2017 02:43 12,7 °C 12,7 °C 96 % 1011,1 hPa 0,0 mm 0,0 km/h (0 Bft) O-NO 77 ° 0 min 0,000 mm 0,0 UV-I 0 W/m² 12,1 °C 12,7 °C 0,0 km/h (0 Bft)
08.08.2017 02:44 12,8 °C 12,8 °C 96 % 1011,1 hPa 0,0 mm 0,0 km/h (0 Bft) O-NO 77 ° 0 min 0,000 mm 0,0 UV-I 0 W/m² 12,2 °C 12,8 °C 0,0 km/h (0 Bft)
08.08.2017 02:45 12,9 °C 12,9 °C 96 % 1011,0 hPa 0,0 mm 0,0 km/h (0 Bft) O-NO 77 ° 0 min 0,000 mm 0,0 UV-I 0 W/m² 12,3 °C 12,9 °C 0,0 km/h (0 Bft)
08.08.2017 02:46 12,9 °C 13,0 °C 96 % 1011,0 hPa 0,0 mm 0,0 km/h (0 Bft) O-NO 77 ° 0 min 0,000 mm 0,0 UV-I 0 W/m² 12,3 °C 12,9 °C 0,0 km/h (0 Bft)
08.08.2017 02:47 12,9 °C 12,9 °C 96 % 1011,0 hPa 0,0 mm 0,0 km/h (0 Bft) O-NO 77 ° 0 min 0,000 mm 0,0 UV-I 0 W/m² 12,3 °C 12,9 °C 0,0 km/h (0 Bft)
08.08.2017 02:48 12,9 °C 13,0 °C 96 % 1010,9 hPa 0,0 mm 1,5 km/h (1 Bft) O-SO 113 ° 0 min 0,000 mm 0,0 UV-I 0 W/m² 12,3 °C 12,9 °C 4,8 km/h (1 Bft)
08.08.2017 02:49 12,9 °C 13,0 °C 96 % 1010,9 hPa 0,0 mm 0,0 km/h (0 Bft) O-SO 113 ° 0 min 0,000 mm 0,0 UV-I 0 W/m² 12,3 °C 12,9 °C 0,0 km/h (0 Bft)
08.08.2017 02:50 12,9 °C 12,9 °C 96 % 1011,0 hPa 0,0 mm 0,0 km/h (0 Bft) O-SO 113 ° 0 min 0,000 mm 0,0 UV-I 0 W/m² 12,3 °C 12,9 °C 0,0 km/h (0 Bft)
08.08.2017 02:51 12,8 °C 12,9 °C 96 % 1010,9 hPa 0,0 mm 0,0 km/h (0 Bft) O-SO 113 ° 0 min 0,000 mm 0,0 UV-I 0 W/m² 12,2 °C 12,8 °C 0,0 km/h (0 Bft)
08.08.2017 02:52 12,6 °C 12,8 °C 96 % 1011,0 hPa 0,0 mm 0,0 km/h (0 Bft) O-SO 113 ° 0 min 0,000 mm 0,0 UV-I 0 W/m² 12,0 °C 12,6 °C 0,0 km/h (0 Bft)
08.08.2017 02:53 12,4 °C 12,6 °C 95 % 1011,0 hPa 0,0 mm 0,0 km/h (0 Bft) O-SO 113 ° 0 min 0,000 mm 0,0 UV-I 0 W/m² 11,6 °C 12,4 °C 0,0 km/h (0 Bft)
08.08.2017 02:54 12,3 °C 12,4 °C 95 % 1011,0 hPa 0,0 mm 0,0 km/h (0 Bft) O-SO 113 ° 0 min 0,000 mm 0,0 UV-I 0 W/m² 11,5 °C 12,3 °C 0,0 km/h (0 Bft)
08.08.2017 02:55 12,3 °C 12,3 °C 95 % 1010,9 hPa 0,0 mm 0,0 km/h (0 Bft) O-SO 113 ° 0 min 0,000 mm 0,0 UV-I 0 W/m² 11,5 °C 12,3 °C 0,0 km/h (0 Bft)
08.08.2017 02:56 12,3 °C 12,3 °C 96 % 1010,9 hPa 0,0 mm 0,0 km/h (0 Bft) O-SO 113 ° 0 min 0,000 mm 0,0 UV-I 0 W/m² 11,7 °C 12,3 °C 0,0 km/h (0 Bft)
08.08.2017 02:57 12,4 °C 12,4 °C 96 % 1010,9 hPa 0,0 mm 0,0 km/h (0 Bft) O-SO 113 ° 0 min 0,000 mm 0,0 UV-I 0 W/m² 11,8 °C 12,4 °C 0,0 km/h (0 Bft)
08.08.2017 02:58 12,3 °C 12,4 °C 96 % 1010,9 hPa 0,0 mm 0,0 km/h (0 Bft) O-SO 113 ° 0 min 0,000 mm 0,0 UV-I 0 W/m² 11,7 °C 12,3 °C 0,0 km/h (0 Bft)
08.08.2017 02:59 12,3 °C 12,3 °C 96 % 1011,0 hPa 0,0 mm 0,0 km/h (0 Bft) O-SO 113 ° 0 min 0,000 mm 0,0 UV-I 0 W/m² 11,7 °C 12,3 °C 0,0 km/h (0 Bft)
08.08.2017 03:00 12,2 °C 12,3 °C 95 % 1011,0 hPa 0,0 mm 0,0 km/h (0 Bft) O-SO 113 ° 0 min 0,000 mm 0,0 UV-I 0 W/m² 11,4 °C 12,2 °C 0,0 km/h (0 Bft)
08.08.2017 03:01 12,3 °C 12,3 °C 95 % 1011,0 hPa 0,0 mm 0,0 km/h (0 Bft) O-SO 113 ° 0 min 0,000 mm 0,0 UV-I 0 W/m² 11,5 °C 12,3 °C 0,0 km/h (0 Bft)
08.08.2017 03:02 12,3 °C 12,3 °C 96 % 1011,0 hPa 0,0 mm 1,3 km/h (1 Bft) O-SO 113 ° 0 min 0,000 mm 0,0 UV-I 0 W/m² 11,7 °C 12,3 °C 3,2 km/h (1 Bft)
08.08.2017 03:03 12,6 °C 12,6 °C 96 % 1011,0 hPa 0,0 mm 0,7 km/h (0 Bft) O-SO 113 ° 0 min 0,000 mm 0,0 UV-I 0 W/m² 12,0 °C 12,6 °C 3,2 km/h (1 Bft)
08.08.2017 03:04 12,7 °C 12,7 °C 96 % 1011,0 hPa 0,0 mm 0,0 km/h (0 Bft) O-SO 113 ° 0 min 0,000 mm 0,0 UV-I 0 W/m² 12,1 °C 12,7 °C 0,0 km/h (0 Bft)
08.08.2017 03:05 12,8 °C 12,8 °C 96 % 1011,0 hPa 0,0 mm 0,0 km/h (0 Bft) O-SO 113 ° 0 min 0,000 mm 0,0 UV-I 0 W/m² 12,2 °C 12,8 °C 0,0 km/h (0 Bft)
08.08.2017 03:06 12,7 °C 12,8 °C 96 % 1011,0 hPa 0,0 mm 0,0 km/h (0 Bft) O-SO 113 ° 0 min 0,000 mm 0,0 UV-I 0 W/m² 12,1 °C 12,7 °C 0,0 km/h (0 Bft)
08.08.2017 03:07 12,5 °C 12,7 °C 96 % 1011,0 hPa 0,0 mm 0,0 km/h (0 Bft) O-SO 113 ° 0 min 0,000 mm 0,0 UV-I 0 W/m² 11,9 °C 12,5 °C 0,0 km/h (0 Bft)
08.08.2017 03:08 12,4 °C 12,5 °C 95 % 1011,0 hPa 0,0 mm 0,0 km/h (0 Bft) O-SO 113 ° 0 min 0,000 mm 0,0 UV-I 0 W/m² 11,6 °C 12,4 °C 0,0 km/h (0 Bft)
08.08.2017 03:09 12,2 °C 12,4 °C 95 % 1011,0 hPa 0,0 mm 0,0 km/h (0 Bft) O-SO 113 ° 0 min 0,000 mm 0,0 UV-I 0 W/m² 11,4 °C 12,2 °C 0,0 km/h (0 Bft)
08.08.2017 03:10 12,1 °C 12,2 °C 95 % 1011,0 hPa 0,0 mm 0,1 km/h (0 Bft) O-SO 113 ° 0 min 0,000 mm 0,0 UV-I 0 W/m² 11,3 °C 12,1 °C 1,6 km/h (1 Bft)
08.08.2017 03:11 12,1 °C 12,1 °C 95 % 1011,0 hPa 0,0 mm 0,0 km/h (0 Bft) O-SO 113 ° 0 min 0,000 mm 0,0 UV-I 0 W/m² 11,3 °C 12,1 °C 0,0 km/h (0 Bft)
08.08.2017 03:12 12,2 °C 12,2 °C 95 % 1011,0 hPa 0,0 mm 0,0 km/h (0 Bft) O-SO 113 ° 0 min 0,000 mm 0,0 UV-I 0 W/m² 11,4 °C 12,2 °C 0,0 km/h (0 Bft)
08.08.2017 03:13 12,1 °C 12,2 °C 95 % 1011,0 hPa 0,0 mm 0,0 km/h (0 Bft) O-SO 113 ° 0 min 0,000 mm 0,0 UV-I 0 W/m² 11,3 °C 12,1 °C 0,0 km/h (0 Bft)
08.08.2017 03:14 12,1 °C 12,1 °C 95 % 1011,0 hPa 0,0 mm 0,0 km/h (0 Bft) O-SO 113 ° 0 min 0,000 mm 0,0 UV-I 0 W/m² 11,3 °C 12,1 °C 0,0 km/h (0 Bft)
08.08.2017 03:15 11,9 °C 12,1 °C 95 % 1011,0 hPa 0,0 mm 0,0 km/h (0 Bft) O-SO 113 ° 0 min 0,000 mm 0,0 UV-I 0 W/m² 11,1 °C 11,9 °C 0,0 km/h (0 Bft)
08.08.2017 03:16 11,9 °C 12,0 °C 95 % 1011,0 hPa 0,0 mm 0,0 km/h (0 Bft) O-SO 113 ° 0 min 0,000 mm 0,0 UV-I 0 W/m² 11,1 °C 11,9 °C 0,0 km/h (0 Bft)
08.08.2017 03:17 12,0 °C 12,0 °C 95 % 1011,0 hPa 0,0 mm 0,0 km/h (0 Bft) O-SO 113 ° 0 min 0,000 mm 0,0 UV-I 0 W/m² 11,2 °C 12,0 °C 0,0 km/h (0 Bft)
08.08.2017 03:18 11,9 °C 12,0 °C 96 % 1011,0 hPa 0,0 mm 0,0 km/h (0 Bft) O-SO 113 ° 0 min 0,000 mm 0,0 UV-I 0 W/m² 11,3 °C 11,9 °C 0,0 km/h (0 Bft)
08.08.2017 03:19 11,8 °C 11,9 °C 95 % 1011,1 hPa 0,0 mm 0,0 km/h (0 Bft) O-SO 113 ° 0 min 0,000 mm 0,0 UV-I 0 W/m² 11,0 °C 11,8 °C 0,0 km/h (0 Bft)
08.08.2017 03:20 11,8 °C 11,8 °C 95 % 1011,1 hPa 0,0 mm 0,0 km/h (0 Bft) O-SO 113 ° 0 min 0,000 mm 0,0 UV-I 0 W/m² 11,0 °C 11,8 °C 0,0 km/h (0 Bft)
08.08.2017 03:21 11,8 °C 11,8 °C 95 % 1011,1 hPa 0,0 mm 2,1 km/h (1 Bft) O-SO 113 ° 0 min 0,000 mm 0,0 UV-I 0 W/m² 11,0 °C 11,8 °C 3,2 km/h (1 Bft)
08.08.2017 03:22 11,8 °C 11,8 °C 95 % 1011,2 hPa 0,0 mm 3,2 km/h (1 Bft) SW 234 ° 0 min 0,000 mm 0,0 UV-I 0 W/m² 11,0 °C 11,8 °C 4,8 km/h (1 Bft)
08.08.2017 03:23 11,8 °C 11,9 °C 96 % 1011,2 hPa 0,0 mm 1,8 km/h (1 Bft) SW 234 ° 0 min 0,000 mm 0,0 UV-I 0 W/m² 11,2 °C 11,8 °C 3,2 km/h (1 Bft)
08.08.2017 03:24 11,9 °C 11,9 °C 95 % 1011,2 hPa 0,0 mm 0,5 km/h (0 Bft) SW 234 ° 0 min 0,000 mm 0,0 UV-I 0 W/m² 11,1 °C 11,9 °C 1,6 km/h (1 Bft)
08.08.2017 03:25 11,8 °C 11,9 °C 96 % 1011,2 hPa 0,0 mm 0,0 km/h (0 Bft) SW 234 ° 0 min 0,000 mm 0,0 UV-I 0 W/m² 11,2 °C 11,8 °C 0,0 km/h (0 Bft)
08.08.2017 03:26 11,9 °C 11,9 °C 96 % 1011,2 hPa 0,0 mm 0,0 km/h (0 Bft) SW 234 ° 0 min 0,000 mm 0,0 UV-I 0 W/m² 11,3 °C 11,9 °C 0,0 km/h (0 Bft)
08.08.2017 03:27 11,9 °C 11,9 °C 96 % 1011,2 hPa 0,0 mm 0,0 km/h (0 Bft) SW 234 ° 0 min 0,000 mm 0,0 UV-I 0 W/m² 11,3 °C 11,9 °C 0,0 km/h (0 Bft)
08.08.2017 03:28 12,0 °C 12,0 °C 96 % 1011,2 hPa 0,0 mm 0,0 km/h (0 Bft) SW 234 ° 0 min 0,000 mm 0,0 UV-I 0 W/m² 11,4 °C 12,0 °C 0,0 km/h (0 Bft)
08.08.2017 03:29 12,0 °C 12,0 °C 96 % 1011,2 hPa 0,0 mm 0,7 km/h (0 Bft) SW 234 ° 0 min 0,000 mm 0,0 UV-I 0 W/m² 11,4 °C 12,0 °C 1,6 km/h (1 Bft)
08.08.2017 03:30 12,2 °C 12,2 °C 96 % 1011,2 hPa 0,0 mm 0,1 km/h (0 Bft) SW 234 ° 0 min 0,000 mm 0,0 UV-I 0 W/m² 11,6 °C 12,2 °C 1,6 km/h (1 Bft)
08.08.2017 03:31 12,4 °C 12,4 °C 96 % 1011,2 hPa 0,0 mm 0,0 km/h (0 Bft) SW 234 ° 0 min 0,000 mm 0,0 UV-I 0 W/m² 11,8 °C 12,4 °C 0,0 km/h (0 Bft)
08.08.2017 03:32 12,4 °C 12,4 °C 96 % 1011,2 hPa 0,0 mm 0,0 km/h (0 Bft) SW 234 ° 0 min 0,000 mm 0,0 UV-I 0 W/m² 11,8 °C 12,4 °C 0,0 km/h (0 Bft)
08.08.2017 03:33 12,3 °C 12,4 °C 96 % 1011,2 hPa 0,0 mm 0,0 km/h (0 Bft) SW 234 ° 0 min 0,000 mm 0,0 UV-I 0 W/m² 11,7 °C 12,3 °C 0,0 km/h (0 Bft)
08.08.2017 03:34 12,2 °C 12,3 °C 96 % 1011,2 hPa 0,0 mm 0,0 km/h (0 Bft) SW 234 ° 0 min 0,000 mm 0,0 UV-I 0 W/m² 11,6 °C 12,2 °C 0,0 km/h (0 Bft)
08.08.2017 03:35 12,1 °C 12,2 °C 96 % 1011,2 hPa 0,0 mm 0,0 km/h (0 Bft) SW 234 ° 0 min 0,000 mm 0,0 UV-I 0 W/m² 11,5 °C 12,1 °C 0,0 km/h (0 Bft)
08.08.2017 03:36 12,1 °C 12,1 °C 95 % 1011,1 hPa 0,0 mm 0,0 km/h (0 Bft) SW 234 ° 0 min 0,000 mm 0,0 UV-I 0 W/m² 11,3 °C 12,1 °C 0,0 km/h (0 Bft)
08.08.2017 03:37 11,9 °C 12,1 °C 95 % 1011,1 hPa 0,0 mm 0,0 km/h (0 Bft) SW 234 ° 0 min 0,000 mm 0,0 UV-I 0 W/m² 11,1 °C 11,9 °C 0,0 km/h (0 Bft)
08.08.2017 03:38 11,8 °C 11,9 °C 95 % 1011,2 hPa 0,0 mm 0,0 km/h (0 Bft) SW 234 ° 0 min 0,000 mm 0,0 UV-I 0 W/m² 11,0 °C 11,8 °C 0,0 km/h (0 Bft)
08.08.2017 03:39 11,7 °C 11,8 °C 95 % 1011,1 hPa 0,0 mm 0,0 km/h (0 Bft) SW 234 ° 0 min 0,000 mm 0,0 UV-I 0 W/m² 10,9 °C 11,7 °C 0,0 km/h (0 Bft)
08.08.2017 03:40 11,7 °C 11,7 °C 95 % 1011,1 hPa 0,0 mm 0,0 km/h (0 Bft) SW 234 ° 0 min 0,000 mm 0,0 UV-I 0 W/m² 10,9 °C 11,7 °C 0,0 km/h (0 Bft)
08.08.2017 03:41 11,6 °C 11,7 °C 95 % 1011,2 hPa 0,0 mm 0,0 km/h (0 Bft) SW 234 ° 0 min 0,000 mm 0,0 UV-I 0 W/m² 10,8 °C 11,6 °C 0,0 km/h (0 Bft)
08.08.2017 03:42 11,5 °C 11,6 °C 95 % 1011,1 hPa 0,0 mm 0,0 km/h (0 Bft) SW 234 ° 0 min 0,000 mm 0,0 UV-I 0 W/m² 10,7 °C 11,5 °C 0,0 km/h (0 Bft)
08.08.2017 03:43 11,4 °C 11,5 °C 95 % 1011,1 hPa 0,0 mm 0,0 km/h (0 Bft) SW 234 ° 0 min 0,000 mm 0,0 UV-I 0 W/m² 10,6 °C 11,4 °C 0,0 km/h (0 Bft)
08.08.2017 03:44 11,3 °C 11,4 °C 95 % 1011,1 hPa 0,0 mm 0,0 km/h (0 Bft) SW 234 ° 0 min 0,000 mm 0,0 UV-I 0 W/m² 10,5 °C 11,3 °C 0,0 km/h (0 Bft)
08.08.2017 03:45 11,4 °C 11,4 °C 95 % 1011,1 hPa 0,0 mm 0,0 km/h (0 Bft) SW 234 ° 0 min 0,000 mm 0,0 UV-I 0 W/m² 10,6 °C 11,4 °C 0,0 km/h (0 Bft)
08.08.2017 03:46 11,4 °C 11,4 °C 95 % 1011,1 hPa 0,0 mm 0,0 km/h (0 Bft) SW 234 ° 0 min 0,000 mm 0,0 UV-I 0 W/m² 10,6 °C 11,4 °C 0,0 km/h (0 Bft)
08.08.2017 03:47 11,5 °C 11,5 °C 95 % 1011,1 hPa 0,0 mm 0,0 km/h (0 Bft) SW 234 ° 0 min 0,000 mm 0,0 UV-I 0 W/m² 10,7 °C 11,5 °C 0,0 km/h (0 Bft)
08.08.2017 03:48 11,5 °C 11,5 °C 95 % 1011,2 hPa 0,0 mm 0,0 km/h (0 Bft) SW 234 ° 0 min 0,000 mm 0,0 UV-I 0 W/m² 10,7 °C 11,5 °C 0,0 km/h (0 Bft)
08.08.2017 03:49 11,6 °C 11,6 °C 96 % 1011,2 hPa 0,0 mm 0,0 km/h (0 Bft) SW 234 ° 0 min 0,000 mm 0,0 UV-I 0 W/m² 11,0 °C 11,6 °C 0,0 km/h (0 Bft)
08.08.2017 03:50 11,6 °C 11,6 °C 96 % 1011,1 hPa 0,0 mm 0,0 km/h (0 Bft) SW 234 ° 0 min 0,000 mm 0,0 UV-I 0 W/m² 11,0 °C 11,6 °C 0,0 km/h (0 Bft)
08.08.2017 03:51 11,7 °C 11,7 °C 96 % 1011,1 hPa 0,0 mm 0,0 km/h (0 Bft) SW 234 ° 0 min 0,000 mm 0,0 UV-I 0 W/m² 11,1 °C 11,7 °C 0,0 km/h (0 Bft)
08.08.2017 03:52 11,8 °C 11,8 °C 96 % 1011,1 hPa 0,0 mm 0,0 km/h (0 Bft) SW 234 ° 0 min 0,000 mm 0,0 UV-I 0 W/m² 11,2 °C 11,8 °C 0,0 km/h (0 Bft)
08.08.2017 03:53 11,8 °C 11,8 °C 96 % 1011,1 hPa 0,0 mm 0,0 km/h (0 Bft) SW 234 ° 0 min 0,000 mm 0,0 UV-I 0 W/m² 11,2 °C 11,8 °C 0,0 km/h (0 Bft)
08.08.2017 03:54 11,8 °C 11,8 °C 96 % 1011,1 hPa 0,0 mm 0,0 km/h (0 Bft) SW 234 ° 0 min 0,000 mm 0,0 UV-I 0 W/m² 11,2 °C 11,8 °C 0,0 km/h (0 Bft)
08.08.2017 03:55 11,8 °C 11,8 °C 96 % 1011,1 hPa 0,0 mm 0,0 km/h (0 Bft) SW 234 ° 0 min 0,000 mm 0,0 UV-I 0 W/m² 11,2 °C 11,8 °C 0,0 km/h (0 Bft)
08.08.2017 03:56 11,7 °C 11,8 °C 95 % 1011,1 hPa 0,0 mm 0,0 km/h (0 Bft) SW 234 ° 0 min 0,000 mm 0,0 UV-I 0 W/m² 10,9 °C 11,7 °C 0,0 km/h (0 Bft)
08.08.2017 03:57 11,6 °C 11,7 °C 95 % 1011,2 hPa 0,0 mm 0,0 km/h (0 Bft) SW 234 ° 0 min 0,000 mm 0,0 UV-I 0 W/m² 10,8 °C 11,6 °C 0,0 km/h (0 Bft)
08.08.2017 03:58 11,6 °C 11,6 °C 95 % 1011,2 hPa 0,0 mm 0,0 km/h (0 Bft) SW 234 ° 0 min 0,000 mm 0,0 UV-I 0 W/m² 10,8 °C 11,6 °C 0,0 km/h (0 Bft)
08.08.2017 03:59 11,4 °C 11,6 °C 95 % 1011,2 hPa 0,0 mm 0,0 km/h (0 Bft) SW 234 ° 0 min 0,000 mm 0,0 UV-I 0 W/m² 10,6 °C 11,4 °C 0,0 km/h (0 Bft)
08.08.2017 04:00 11,4 °C 11,5 °C 95 % 1011,2 hPa 0,0 mm 0,0 km/h (0 Bft) SW 234 ° 0 min 0,000 mm 0,0 UV-I 0 W/m² 10,6 °C 11,4 °C 0,0 km/h (0 Bft)
08.08.2017 04:01 11,4 °C 11,4 °C 95 % 1011,2 hPa 0,0 mm 0,0 km/h (0 Bft) SW 234 ° 0 min 0,000 mm 0,0 UV-I 0 W/m² 10,6 °C 11,4 °C 0,0 km/h (0 Bft)
08.08.2017 04:02 11,5 °C 11,5 °C 95 % 1011,2 hPa 0,0 mm 0,0 km/h (0 Bft) SW 234 ° 0 min 0,000 mm 0,0 UV-I 0 W/m² 10,7 °C 11,5 °C 0,0 km/h (0 Bft)
08.08.2017 04:03 11,6 °C 11,6 °C 96 % 1011,2 hPa 0,0 mm 0,0 km/h (0 Bft) SW 234 ° 0 min 0,000 mm 0,0 UV-I 0 W/m² 11,0 °C 11,6 °C 0,0 km/h (0 Bft)
08.08.2017 04:04 11,6 °C 11,6 °C 96 % 1011,2 hPa 0,0 mm 0,1 km/h (0 Bft) SW 234 ° 0 min 0,000 mm 0,0 UV-I 0 W/m² 11,0 °C 11,6 °C 1,6 km/h (1 Bft)
08.08.2017 04:05 11,6 °C 11,6 °C 96 % 1011,1 hPa 0,0 mm 0,0 km/h (0 Bft) SW 234 ° 0 min 0,000 mm 0,0 UV-I 0 W/m² 11,0 °C 11,6 °C 0,0 km/h (0 Bft)
08.08.2017 04:06 11,5 °C 11,6 °C 95 % 1011,2 hPa 0,0 mm 0,0 km/h (0 Bft) SW 234 ° 0 min 0,000 mm 0,0 UV-I 0 W/m² 10,7 °C 11,5 °C 0,0 km/h (0 Bft)
08.08.2017 04:07 11,4 °C 11,5 °C 95 % 1011,2 hPa 0,0 mm 0,0 km/h (0 Bft) SW 234 ° 0 min 0,000 mm 0,0 UV-I 0 W/m² 10,6 °C 11,4 °C 0,0 km/h (0 Bft)
08.08.2017 04:08 11,4 °C 11,4 °C 95 % 1011,2 hPa 0,0 mm 0,0 km/h (0 Bft) SW 234 ° 0 min 0,000 mm 0,0 UV-I 0 W/m² 10,6 °C 11,4 °C 0,0 km/h (0 Bft)
08.08.2017 04:09 11,4 °C 11,4 °C 95 % 1011,1 hPa 0,0 mm 0,0 km/h (0 Bft) SW 234 ° 0 min 0,000 mm 0,0 UV-I 0 W/m² 10,6 °C 11,4 °C 0,0 km/h (0 Bft)
08.08.2017 04:10 11,4 °C 11,4 °C 95 % 1011,2 hPa 0,0 mm 0,9 km/h (0 Bft) S-SW 210 ° 0 min 0,000 mm 0,0 UV-I 0 W/m² 10,6 °C 11,4 °C 3,2 km/h (1 Bft)
08.08.2017 04:11 11,9 °C 11,9 °C 96 % 1011,2 hPa 0,0 mm 0,2 km/h (0 Bft) S-SW 210 ° 0 min 0,000 mm 0,0 UV-I 0 W/m² 11,3 °C 11,9 °C 1,6 km/h (1 Bft)
08.08.2017 04:12 12,5 °C 12,5 °C 96 % 1011,2 hPa 0,0 mm 2,2 km/h (1 Bft) S 188 ° 0 min 0,000 mm 0,0 UV-I 0 W/m² 11,9 °C 12,5 °C 6,4 km/h (2 Bft)
08.08.2017 04:13 12,9 °C 12,9 °C 96 % 1011,2 hPa 0,0 mm 4,0 km/h (1 Bft) S 187 ° 0 min 0,000 mm 0,0 UV-I 0 W/m² 12,3 °C 12,9 °C 6,4 km/h (2 Bft)
08.08.2017 04:14 13,3 °C 13,3 °C 96 % 1011,2 hPa 0,0 mm 5,8 km/h (2 Bft) S 189 ° 0 min 0,000 mm 0,0 UV-I 0 W/m² 12,7 °C 13,3 °C 6,4 km/h (2 Bft)
08.08.2017 04:15 13,4 °C 13,4 °C 97 % 1011,2 hPa 0,0 mm 4,2 km/h (1 Bft) S 185 ° 0 min 0,000 mm 0,0 UV-I 0 W/m² 12,9 °C 13,4 °C 6,4 km/h (2 Bft)
08.08.2017 04:16 13,6 °C 13,6 °C 97 % 1011,2 hPa 0,0 mm 5,0 km/h (1 Bft) S-SO 166 ° 0 min 0,000 mm 0,0 UV-I 0 W/m² 13,1 °C 13,6 °C 8,0 km/h (2 Bft)
08.08.2017 04:17 13,8 °C 13,8 °C 96 % 1011,2 hPa 0,0 mm 1,8 km/h (1 Bft) S-SW 197 ° 0 min 0,000 mm 0,0 UV-I 0 W/m² 13,2 °C 13,8 °C 6,4 km/h (2 Bft)
08.08.2017 04:18 13,9 °C 13,9 °C 97 % 1011,2 hPa 0,0 mm 2,7 km/h (1 Bft) S 180 ° 0 min 0,000 mm 0,0 UV-I 0 W/m² 13,4 °C 13,9 °C 4,8 km/h (1 Bft)
08.08.2017 04:19 13,7 °C 13,9 °C 97 % 1011,2 hPa 0,0 mm 0,0 km/h (0 Bft) S 180 ° 0 min 0,000 mm 0,0 UV-I 0 W/m² 13,2 °C 13,7 °C 0,0 km/h (0 Bft)
08.08.2017 04:20 13,3 °C 13,7 °C 97 % 1011,1 hPa 0,0 mm 0,0 km/h (0 Bft) S 180 ° 0 min 0,000 mm 0,0 UV-I 0 W/m² 12,8 °C 13,3 °C 0,0 km/h (0 Bft)
08.08.2017 04:21 13,1 °C 13,3 °C 96 % 1011,1 hPa 0,0 mm 0,9 km/h (0 Bft) S 180 ° 0 min 0,000 mm 0,0 UV-I 0 W/m² 12,5 °C 13,1 °C 4,8 km/h (1 Bft)
08.08.2017 04:22 12,9 °C 13,1 °C 96 % 1011,1 hPa 0,0 mm 0,1 km/h (0 Bft) S 180 ° 0 min 0,000 mm 0,0 UV-I 0 W/m² 12,3 °C 12,9 °C 1,6 km/h (1 Bft)
08.08.2017 04:23 12,7 °C 12,9 °C 95 % 1011,1 hPa 0,0 mm 0,0 km/h (0 Bft) S 180 ° 0 min 0,000 mm 0,0 UV-I 0 W/m² 11,9 °C 12,7 °C 0,0 km/h (0 Bft)
08.08.2017 04:24 12,6 °C 12,7 °C 95 % 1011,1 hPa 0,0 mm 0,0 km/h (0 Bft) S 180 ° 0 min 0,000 mm 0,0 UV-I 0 W/m² 11,8 °C 12,6 °C 0,0 km/h (0 Bft)
08.08.2017 04:25 12,6 °C 12,6 °C 94 % 1011,1 hPa 0,0 mm 0,1 km/h (0 Bft) S 180 ° 0 min 0,000 mm 0,0 UV-I 0 W/m² 11,7 °C 12,6 °C 1,6 km/h (1 Bft)
08.08.2017 04:26 12,4 °C 12,6 °C 94 % 1011,1 hPa 0,0 mm 2,0 km/h (1 Bft) S-SW 200 ° 0 min 0,000 mm 0,0 UV-I 0 W/m² 11,5 °C 12,4 °C 4,8 km/h (1 Bft)
08.08.2017 04:27 12,6 °C 12,6 °C 95 % 1011,1 hPa 0,0 mm 2,8 km/h (1 Bft) S 188 ° 0 min 0,000 mm 0,0 UV-I 0 W/m² 11,8 °C 12,6 °C 4,8 km/h (1 Bft)
08.08.2017 04:28 12,8 °C 12,8 °C 95 % 1011,1 hPa 0,0 mm 1,0 km/h (0 Bft) S 188 ° 0 min 0,000 mm 0,0 UV-I 0 W/m² 12,0 °C 12,8 °C 1,6 km/h (1 Bft)
08.08.2017 04:29 12,9 °C 12,9 °C 96 % 1011,1 hPa 0,0 mm 0,7 km/h (0 Bft) S 180 ° 0 min 0,000 mm 0,0 UV-I 0 W/m² 12,3 °C 12,9 °C 3,2 km/h (1 Bft)
08.08.2017 04:30 13,2 °C 13,2 °C 96 % 1011,1 hPa 0,0 mm 0,8 km/h (0 Bft) S 180 ° 0 min 0,000 mm 0,0 UV-I 0 W/m² 12,6 °C 13,2 °C 3,2 km/h (1 Bft)
08.08.2017 04:31 13,1 °C 13,2 °C 96 % 1011,1 hPa 0,0 mm 0,1 km/h (0 Bft) S 180 ° 0 min 0,000 mm 0,0 UV-I 0 W/m² 12,5 °C 13,1 °C 1,6 km/h (1 Bft)
08.08.2017 04:32 13,1 °C 13,1 °C 95 % 1011,1 hPa 0,0 mm 0,0 km/h (0 Bft) S 180 ° 0 min 0,000 mm 0,0 UV-I 0 W/m² 12,3 °C 13,1 °C 0,0 km/h (0 Bft)
08.08.2017 04:33 12,8 °C 13,1 °C 94 % 1011,0 hPa 0,0 mm 0,0 km/h (0 Bft) S 180 ° 0 min 0,000 mm 0,0 UV-I 0 W/m² 11,9 °C 12,8 °C 0,0 km/h (0 Bft)
08.08.2017 04:34 12,6 °C 12,8 °C 94 % 1011,1 hPa 0,0 mm 0,0 km/h (0 Bft) S 180 ° 0 min 0,000 mm 0,0 UV-I 0 W/m² 11,7 °C 12,6 °C 0,0 km/h (0 Bft)
08.08.2017 04:35 12,3 °C 12,6 °C 93 % 1011,1 hPa 0,0 mm 0,0 km/h (0 Bft) S 180 ° 0 min 0,000 mm 0,0 UV-I 0 W/m² 11,2 °C 12,3 °C 0,0 km/h (0 Bft)
08.08.2017 04:36 12,2 °C 12,3 °C 94 % 1011,0 hPa 0,0 mm 0,0 km/h (0 Bft) S 180 ° 0 min 0,000 mm 0,0 UV-I 0 W/m² 11,3 °C 12,2 °C 0,0 km/h (0 Bft)
08.08.2017 04:37 12,1 °C 12,2 °C 94 % 1011,0 hPa 0,0 mm 0,0 km/h (0 Bft) S 180 ° 0 min 0,000 mm 0,0 UV-I 0 W/m² 11,2 °C 12,1 °C 0,0 km/h (0 Bft)
08.08.2017 04:38 12,1 °C 12,1 °C 94 % 1011,0 hPa 0,0 mm 0,0 km/h (0 Bft) S 180 ° 0 min 0,000 mm 0,0 UV-I 0 W/m² 11,2 °C 12,1 °C 0,0 km/h (0 Bft)
08.08.2017 04:39 12,1 °C 12,1 °C 94 % 1011,0 hPa 0,0 mm 0,0 km/h (0 Bft) S 180 ° 0 min 0,000 mm 0,0 UV-I 0 W/m² 11,2 °C 12,1 °C 0,0 km/h (0 Bft)
08.08.2017 04:40 12,1 °C 12,1 °C 94 % 1011,0 hPa 0,0 mm 0,0 km/h (0 Bft) S 180 ° 0 min 0,000 mm 0,0 UV-I 0 W/m² 11,2 °C 12,1 °C 0,0 km/h (0 Bft)
08.08.2017 04:41 12,0 °C 12,1 °C 94 % 1011,0 hPa 0,0 mm 0,3 km/h (0 Bft) S 180 ° 0 min 0,000 mm 0,0 UV-I 0 W/m² 11,1 °C 12,0 °C 1,6 km/h (1 Bft)
08.08.2017 04:42 12,0 °C 12,0 °C 94 % 1011,1 hPa 0,0 mm 0,0 km/h (0 Bft) S 180 ° 0 min 0,000 mm 0,0 UV-I 0 W/m² 11,1 °C 12,0 °C 0,0 km/h (0 Bft)
08.08.2017 04:43 12,1 °C 12,1 °C 95 % 1011,1 hPa 0,0 mm 0,0 km/h (0 Bft) S 180 ° 0 min 0,000 mm 0,0 UV-I 0 W/m² 11,3 °C 12,1 °C 0,0 km/h (0 Bft)
08.08.2017 04:44 12,2 °C 12,2 °C 95 % 1011,0 hPa 0,0 mm 0,0 km/h (0 Bft) S 180 ° 0 min 0,000 mm 0,0 UV-I 0 W/m² 11,4 °C 12,2 °C 0,0 km/h (0 Bft)
08.08.2017 04:45 12,1 °C 12,2 °C 95 % 1011,0 hPa 0,0 mm 0,0 km/h (0 Bft) S 180 ° 0 min 0,000 mm 0,0 UV-I 0 W/m² 11,3 °C 12,1 °C 0,0 km/h (0 Bft)
08.08.2017 04:46 12,2 °C 12,2 °C 95 % 1011,1 hPa 0,0 mm 0,0 km/h (0 Bft) S 180 ° 0 min 0,000 mm 0,0 UV-I 0 W/m² 11,4 °C 12,2 °C 0,0 km/h (0 Bft)
08.08.2017 04:47 12,2 °C 12,2 °C 95 % 1011,1 hPa 0,0 mm 0,0 km/h (0 Bft) S 180 ° 0 min 0,000 mm 0,0 UV-I 0 W/m² 11,4 °C 12,2 °C 0,0 km/h (0 Bft)
08.08.2017 04:48 12,3 °C 12,3 °C 95 % 1011,1 hPa 0,0 mm 0,0 km/h (0 Bft) S 180 ° 0 min 0,000 mm 0,0 UV-I 0 W/m² 11,5 °C 12,3 °C 0,0 km/h (0 Bft)
08.08.2017 04:49 12,4 °C 12,4 °C 95 % 1011,0 hPa 0,0 mm 0,0 km/h (0 Bft) S 180 ° 0 min 0,000 mm 0,0 UV-I 0 W/m² 11,6 °C 12,4 °C 0,0 km/h (0 Bft)
08.08.2017 04:50 12,6 °C 12,6 °C 95 % 1011,1 hPa 0,0 mm 0,0 km/h (0 Bft) S 180 ° 0 min 0,000 mm 0,0 UV-I 0 W/m² 11,8 °C 12,6 °C 0,0 km/h (0 Bft)
08.08.2017 04:51 12,8 °C 12,8 °C 96 % 1011,0 hPa 0,0 mm 0,0 km/h (0 Bft) S 180 ° 0 min 0,000 mm 0,0 UV-I 0 W/m² 12,2 °C 12,8 °C 0,0 km/h (0 Bft)
08.08.2017 04:52 12,8 °C 12,9 °C 96 % 1011,0 hPa 0,0 mm 0,0 km/h (0 Bft) S 180 ° 0 min 0,000 mm 0,0 UV-I 0 W/m² 12,2 °C 12,8 °C 0,0 km/h (0 Bft)
08.08.2017 04:53 12,8 °C 12,8 °C 95 % 1011,0 hPa 0,0 mm 0,0 km/h (0 Bft) S 180 ° 0 min 0,000 mm 0,0 UV-I 0 W/m² 12,0 °C 12,8 °C 0,0 km/h (0 Bft)
08.08.2017 04:54 12,6 °C 12,8 °C 95 % 1011,1 hPa 0,0 mm 0,0 km/h (0 Bft) S 180 ° 0 min 0,000 mm 0,0 UV-I 0 W/m² 11,8 °C 12,6 °C 0,0 km/h (0 Bft)
08.08.2017 04:55 12,4 °C 12,6 °C 94 % 1011,1 hPa 0,0 mm 1,1 km/h (1 Bft) S 180 ° 0 min 0,000 mm 0,0 UV-I 0 W/m² 11,5 °C 12,4 °C 3,2 km/h (1 Bft)
08.08.2017 04:56 12,2 °C 12,4 °C 94 % 1011,1 hPa 0,0 mm 0,0 km/h (0 Bft) S 180 ° 0 min 0,000 mm 0,0 UV-I 0 W/m² 11,3 °C 12,2 °C 0,0 km/h (0 Bft)
08.08.2017 04:57 12,1 °C 12,2 °C 94 % 1011,1 hPa 0,0 mm 0,0 km/h (0 Bft) S 180 ° 0 min 0,000 mm 0,0 UV-I 0 W/m² 11,2 °C 12,1 °C 0,0 km/h (0 Bft)
08.08.2017 04:58 11,9 °C 12,1 °C 94 % 1011,0 hPa 0,0 mm 0,0 km/h (0 Bft) S 180 ° 0 min 0,000 mm 0,0 UV-I 0 W/m² 11,0 °C 11,9 °C 0,0 km/h (0 Bft)
08.08.2017 04:59 11,9 °C 11,9 °C 94 % 1011,0 hPa 0,0 mm 0,0 km/h (0 Bft) S 180 ° 0 min 0,000 mm 0,0 UV-I 0 W/m² 11,0 °C 11,9 °C 0,0 km/h (0 Bft)
08.08.2017 05:00 11,8 °C 11,9 °C 94 % 1011,0 hPa 0,0 mm 0,0 km/h (0 Bft) S 180 ° 0 min 0,000 mm 0,0 UV-I 0 W/m² 10,9 °C 11,8 °C 0,0 km/h (0 Bft)
08.08.2017 05:01 11,8 °C 11,8 °C 95 % 1011,0 hPa 0,0 mm 0,0 km/h (0 Bft) S 180 ° 0 min 0,000 mm 0,0 UV-I 0 W/m² 11,0 °C 11,8 °C 0,0 km/h (0 Bft)
08.08.2017 05:02 11,8 °C 11,8 °C 95 % 1011,0 hPa 0,0 mm 1,3 km/h (1 Bft) S 177 ° 0 min 0,000 mm 0,0 UV-I 0 W/m² 11,0 °C 11,8 °C 4,8 km/h (1 Bft)
08.08.2017 05:03 12,0 °C 12,0 °C 95 % 1011,0 hPa 0,0 mm 3,6 km/h (1 Bft) S-SW 202 ° 0 min 0,000 mm 0,0 UV-I 0 W/m² 11,2 °C 12,0 °C 8,0 km/h (2 Bft)
08.08.2017 05:04 12,2 °C 12,2 °C 95 % 1010,9 hPa 0,0 mm 7,9 km/h (2 Bft) S-SW 208 ° 0 min 0,000 mm 0,0 UV-I 0 W/m² 11,4 °C 12,2 °C 11,3 km/h (2 Bft)
08.08.2017 05:05 12,3 °C 12,3 °C 96 % 1010,9 hPa 0,0 mm 3,2 km/h (1 Bft) S-SW 196 ° 0 min 0,000 mm 0,0 UV-I 0 W/m² 11,7 °C 12,3 °C 6,4 km/h (2 Bft)
08.08.2017 05:06 12,4 °C 12,4 °C 96 % 1010,9 hPa 0,0 mm 0,0 km/h (0 Bft) S-SW 196 ° 0 min 0,000 mm 0,0 UV-I 0 W/m² 11,8 °C 12,4 °C 0,0 km/h (0 Bft)
08.08.2017 05:07 12,5 °C 12,5 °C 95 % 1010,9 hPa 0,0 mm 0,0 km/h (0 Bft) S-SW 196 ° 0 min 0,000 mm 0,0 UV-I 0 W/m² 11,7 °C 12,5 °C 0,0 km/h (0 Bft)
08.08.2017 05:08 12,5 °C 12,6 °C 95 % 1010,9 hPa 0,0 mm 0,0 km/h (0 Bft) S-SW 196 ° 0 min 0,000 mm 0,0 UV-I 0 W/m² 11,7 °C 12,5 °C 0,0 km/h (0 Bft)
08.08.2017 05:09 12,6 °C 12,6 °C 95 % 1010,9 hPa 0,0 mm 0,0 km/h (0 Bft) S-SW 196 ° 0 min 0,000 mm 0,0 UV-I 0 W/m² 11,8 °C 12,6 °C 0,0 km/h (0 Bft)
08.08.2017 05:10 12,6 °C 12,6 °C 95 % 1010,9 hPa 0,0 mm 0,0 km/h (0 Bft) S-SW 196 ° 0 min 0,000 mm 0,0 UV-I 0 W/m² 11,8 °C 12,6 °C 0,0 km/h (0 Bft)
08.08.2017 05:11 12,7 °C 12,7 °C 95 % 1010,9 hPa 0,0 mm 0,5 km/h (0 Bft) S-SW 196 ° 0 min 0,000 mm 0,0 UV-I 0 W/m² 11,9 °C 12,7 °C 1,6 km/h (1 Bft)
08.08.2017 05:12 12,8 °C 12,8 °C 95 % 1010,9 hPa 0,0 mm 0,3 km/h (0 Bft) S-SW 196 ° 0 min 0,000 mm 0,0 UV-I 0 W/m² 12,0 °C 12,8 °C 1,6 km/h (1 Bft)
08.08.2017 05:13 12,8 °C 12,8 °C 95 % 1010,8 hPa 0,0 mm 0,0 km/h (0 Bft) S-SW 196 ° 0 min 0,000 mm 0,0 UV-I 0 W/m² 12,0 °C 12,8 °C 0,0 km/h (0 Bft)
08.08.2017 05:14 12,8 °C 12,8 °C 95 % 1010,8 hPa 0,0 mm 0,0 km/h (0 Bft) S-SW 196 ° 0 min 0,000 mm 0,0 UV-I 0 W/m² 12,0 °C 12,8 °C 0,0 km/h (0 Bft)
08.08.2017 05:15 12,8 °C 12,8 °C 95 % 1010,8 hPa 0,0 mm 1,9 km/h (1 Bft) S-SW 196 ° 0 min 0,000 mm 0,0 UV-I 0 W/m² 12,0 °C 12,8 °C 3,2 km/h (1 Bft)
08.08.2017 05:16 12,9 °C 12,9 °C 95 % 1010,8 hPa 0,0 mm 1,7 km/h (1 Bft) S-SW 196 ° 0 min 0,000 mm 0,0 UV-I 0 W/m² 12,1 °C 12,9 °C 3,2 km/h (1 Bft)
08.08.2017 05:17 12,9 °C 12,9 °C 94 % 1010,7 hPa 0,0 mm 0,1 km/h (0 Bft) S-SW 196 ° 0 min 0,000 mm 0,0 UV-I 0 W/m² 12,0 °C 12,9 °C 1,6 km/h (1 Bft)
08.08.2017 05:18 12,8 °C 12,9 °C 94 % 1010,7 hPa 0,0 mm 0,1 km/h (0 Bft) S-SW 196 ° 0 min 0,000 mm 0,0 UV-I 0 W/m² 11,9 °C 12,8 °C 1,6 km/h (1 Bft)
08.08.2017 05:19 12,7 °C 12,8 °C 94 % 1010,7 hPa 0,0 mm 0,9 km/h (0 Bft) S-SW 196 ° 0 min 0,000 mm 0,0 UV-I 0 W/m² 11,8 °C 12,7 °C 3,2 km/h (1 Bft)
08.08.2017 05:20 12,6 °C 12,7 °C 93 % 1010,8 hPa 0,0 mm 3,2 km/h (1 Bft) S-SW 196 ° 0 min 0,000 mm 0,0 UV-I 0 W/m² 11,5 °C 12,6 °C 4,8 km/h (1 Bft)
08.08.2017 05:21 12,6 °C 12,6 °C 93 % 1010,7 hPa 0,0 mm 3,1 km/h (1 Bft) S-SW 193 ° 0 min 0,000 mm 0,0 UV-I 0 W/m² 11,5 °C 12,6 °C 6,4 km/h (2 Bft)
08.08.2017 05:22 12,6 °C 12,6 °C 94 % 1010,7 hPa 0,0 mm 5,1 km/h (1 Bft) S 186 ° 0 min 0,000 mm 0,0 UV-I 0 W/m² 11,7 °C 12,6 °C 8,0 km/h (2 Bft)
08.08.2017 05:23 12,7 °C 12,7 °C 94 % 1010,7 hPa 0,0 mm 2,6 km/h (1 Bft) S 187 ° 0 min 0,000 mm 0,0 UV-I 0 W/m² 11,8 °C 12,7 °C 3,2 km/h (1 Bft)
08.08.2017 05:24 12,8 °C 12,8 °C 93 % 1010,7 hPa 0,0 mm 3,1 km/h (1 Bft) S 188 ° 0 min 0,000 mm 0,0 UV-I 0 W/m² 11,7 °C 12,8 °C 4,8 km/h (1 Bft)
08.08.2017 05:25 12,8 °C 12,8 °C 93 % 1010,7 hPa 0,0 mm 3,0 km/h (1 Bft) S 188 ° 0 min 0,000 mm 0,0 UV-I 0 W/m² 11,7 °C 12,8 °C 6,4 km/h (2 Bft)
08.08.2017 05:26 12,8 °C 12,8 °C 93 % 1010,6 hPa 0,0 mm 5,0 km/h (1 Bft) S-SW 201 ° 0 min 0,000 mm 0,0 UV-I 0 W/m² 11,7 °C 12,8 °C 8,0 km/h (2 Bft)
08.08.2017 05:27 12,8 °C 12,9 °C 93 % 1010,6 hPa 0,0 mm 2,3 km/h (1 Bft) S-SW 200 ° 0 min 0,000 mm 0,0 UV-I 0 W/m² 11,7 °C 12,8 °C 4,8 km/h (1 Bft)
08.08.2017 05:28 12,9 °C 12,9 °C 92 % 1010,6 hPa 0,0 mm 3,6 km/h (1 Bft) S-SW 196 ° 0 min 0,000 mm 0,0 UV-I 0 W/m² 11,6 °C 12,9 °C 4,8 km/h (1 Bft)
08.08.2017 05:29 12,9 °C 12,9 °C 92 % 1010,6 hPa 0,0 mm 4,1 km/h (1 Bft) S-SW 194 ° 0 min 0,000 mm 0,0 UV-I 0 W/m² 11,6 °C 12,9 °C 6,4 km/h (2 Bft)
08.08.2017 05:30 12,8 °C 12,9 °C 92 % 1010,6 hPa 0,0 mm 1,2 km/h (1 Bft) S-SW 194 ° 0 min 0,000 mm 0,0 UV-I 0 W/m² 11,5 °C 12,8 °C 3,2 km/h (1 Bft)
08.08.2017 05:31 12,8 °C 12,8 °C 92 % 1010,6 hPa 0,0 mm 0,0 km/h (0 Bft) S-SW 194 ° 0 min 0,000 mm 0,0 UV-I 0 W/m² 11,5 °C 12,8 °C 0,0 km/h (0 Bft)
08.08.2017 05:32 12,7 °C 12,8 °C 92 % 1010,6 hPa 0,0 mm 0,0 km/h (0 Bft) S-SW 194 ° 0 min 0,000 mm 0,0 UV-I 0 W/m² 11,4 °C 12,7 °C 0,0 km/h (0 Bft)
08.08.2017 05:33 12,7 °C 12,7 °C 92 % 1010,6 hPa 0,0 mm 0,0 km/h (0 Bft) S-SW 194 ° 0 min 0,000 mm 0,0 UV-I 0 W/m² 11,4 °C 12,7 °C 0,0 km/h (0 Bft)
08.08.2017 05:34 12,6 °C 12,7 °C 92 % 1010,5 hPa 0,0 mm 0,0 km/h (0 Bft) S-SW 194 ° 0 min 0,000 mm 0,0 UV-I 0 W/m² 11,3 °C 12,6 °C 0,0 km/h (0 Bft)
08.08.2017 05:35 12,5 °C 12,6 °C 92 % 1010,6 hPa 0,0 mm 0,0 km/h (0 Bft) S-SW 194 ° 0 min 0,000 mm 0,0 UV-I 0 W/m² 11,2 °C 12,5 °C 0,0 km/h (0 Bft)
08.08.2017 05:36 12,4 °C 12,5 °C 93 % 1010,5 hPa 0,0 mm 0,0 km/h (0 Bft) S-SW 194 ° 0 min 0,000 mm 0,0 UV-I 0 W/m² 11,3 °C 12,4 °C 0,0 km/h (0 Bft)
08.08.2017 05:37 12,3 °C 12,4 °C 93 % 1010,6 hPa 0,0 mm 0,0 km/h (0 Bft) S-SW 194 ° 0 min 0,000 mm 0,0 UV-I 0 W/m² 11,2 °C 12,3 °C 0,0 km/h (0 Bft)
08.08.2017 05:38 12,2 °C 12,3 °C 92 % 1010,6 hPa 0,0 mm 0,0 km/h (0 Bft) S-SW 194 ° 0 min 0,000 mm 0,0 UV-I 0 W/m² 10,9 °C 12,2 °C 0,0 km/h (0 Bft)
08.08.2017 05:39 12,2 °C 12,2 °C 93 % 1010,6 hPa 0,0 mm 0,0 km/h (0 Bft) S-SW 194 ° 0 min 0,000 mm 0,0 UV-I 0 W/m² 11,1 °C 12,2 °C 0,0 km/h (0 Bft)
08.08.2017 05:40 12,1 °C 12,2 °C 93 % 1010,5 hPa 0,0 mm 0,0 km/h (0 Bft) S-SW 194 ° 0 min 0,000 mm 0,0 UV-I 0 W/m² 11,0 °C 12,1 °C 0,0 km/h (0 Bft)
08.08.2017 05:41 12,2 °C 12,2 °C 94 % 1010,5 hPa 0,0 mm 0,0 km/h (0 Bft) S-SW 194 ° 0 min 0,000 mm 0,0 UV-I 0 W/m² 11,3 °C 12,2 °C 0,0 km/h (0 Bft)
08.08.2017 05:42 12,2 °C 12,2 °C 94 % 1010,5 hPa 0,0 mm 0,0 km/h (0 Bft) S-SW 194 ° 0 min 0,000 mm 0,0 UV-I 0 W/m² 11,3 °C 12,2 °C 0,0 km/h (0 Bft)
08.08.2017 05:43 12,3 °C 12,3 °C 94 % 1010,5 hPa 0,0 mm 0,0 km/h (0 Bft) S-SW 194 ° 0 min 0,000 mm 0,0 UV-I 0 W/m² 11,4 °C 12,3 °C 0,0 km/h (0 Bft)
08.08.2017 05:44 12,3 °C 12,3 °C 94 % 1010,4 hPa 0,0 mm 0,0 km/h (0 Bft) S-SW 194 ° 0 min 0,000 mm 0,0 UV-I 0 W/m² 11,4 °C 12,3 °C 0,0 km/h (0 Bft)
08.08.2017 05:45 12,3 °C 12,3 °C 94 % 1010,4 hPa 0,0 mm 0,0 km/h (0 Bft) S-SW 194 ° 0 min 0,000 mm 0,0 UV-I 0 W/m² 11,4 °C 12,3 °C 0,0 km/h (0 Bft)
08.08.2017 05:46 12,3 °C 12,3 °C 94 % 1010,3 hPa 0,0 mm 0,0 km/h (0 Bft) S-SW 194 ° 0 min 0,000 mm 0,0 UV-I 0 W/m² 11,4 °C 12,3 °C 0,0 km/h (0 Bft)
08.08.2017 05:47 12,3 °C 12,3 °C 94 % 1010,3 hPa 0,0 mm 0,0 km/h (0 Bft) S-SW 194 ° 0 min 0,000 mm 0,0 UV-I 0 W/m² 11,4 °C 12,3 °C 0,0 km/h (0 Bft)
08.08.2017 05:48 12,2 °C 12,3 °C 93 % 1010,3 hPa 0,0 mm 0,0 km/h (0 Bft) S-SW 194 ° 0 min 0,000 mm 0,0 UV-I 0 W/m² 11,1 °C 12,2 °C 0,0 km/h (0 Bft)
08.08.2017 05:49 12,2 °C 12,2 °C 93 % 1010,3 hPa 0,0 mm 0,0 km/h (0 Bft) S-SW 194 ° 0 min 0,000 mm 0,0 UV-I 0 W/m² 11,1 °C 12,2 °C 0,0 km/h (0 Bft)
08.08.2017 05:50 12,2 °C 12,2 °C 93 % 1010,2 hPa 0,0 mm 0,0 km/h (0 Bft) S-SW 194 ° 0 min 0,000 mm 0,0 UV-I 0 W/m² 11,1 °C 12,2 °C 0,0 km/h (0 Bft)
08.08.2017 05:51 12,2 °C 12,2 °C 94 % 1010,2 hPa 0,0 mm 0,0 km/h (0 Bft) S-SW 194 ° 0 min 0,000 mm 0,0 UV-I 0 W/m² 11,3 °C 12,2 °C 0,0 km/h (0 Bft)
08.08.2017 05:52 12,1 °C 12,2 °C 93 % 1010,1 hPa 0,0 mm 0,0 km/h (0 Bft) S-SW 194 ° 0 min 0,000 mm 0,0 UV-I 0 W/m² 11,0 °C 12,1 °C 0,0 km/h (0 Bft)
08.08.2017 05:53 12,1 °C 12,1 °C 93 % 1010,1 hPa 0,0 mm 0,0 km/h (0 Bft) S-SW 194 ° 0 min 0,000 mm 0,0 UV-I 0 W/m² 11,0 °C 12,1 °C 0,0 km/h (0 Bft)
08.08.2017 05:54 12,1 °C 12,1 °C 93 % 1010,1 hPa 0,0 mm 0,0 km/h (0 Bft) S-SW 194 ° 0 min 0,000 mm 0,0 UV-I 0 W/m² 11,0 °C 12,1 °C 0,0 km/h (0 Bft)
08.08.2017 05:55 12,1 °C 12,1 °C 93 % 1010,1 hPa 0,0 mm 0,0 km/h (0 Bft) S-SW 194 ° 0 min 0,000 mm 0,0 UV-I 0 W/m² 11,0 °C 12,1 °C 0,0 km/h (0 Bft)
08.08.2017 05:56 12,1 °C 12,1 °C 93 % 1010,1 hPa 0,0 mm 0,0 km/h (0 Bft) S-SW 194 ° 0 min 0,000 mm 0,0 UV-I 0 W/m² 11,0 °C 12,1 °C 0,0 km/h (0 Bft)
08.08.2017 05:57 12,1 °C 12,1 °C 93 % 1010,1 hPa 0,0 mm 0,0 km/h (0 Bft) S-SW 194 ° 0 min 0,000 mm 0,0 UV-I 0 W/m² 11,0 °C 12,1 °C 0,0 km/h (0 Bft)
08.08.2017 05:58 12,1 °C 12,1 °C 93 % 1010,1 hPa 0,0 mm 0,0 km/h (0 Bft) S-SW 194 ° 0 min 0,000 mm 0,0 UV-I 0 W/m² 11,0 °C 12,1 °C 0,0 km/h (0 Bft)
08.08.2017 05:59 11,9 °C 12,1 °C 93 % 1010,1 hPa 0,0 mm 0,0 km/h (0 Bft) S-SW 194 ° 0 min 0,000 mm 0,0 UV-I 0 W/m² 10,8 °C 11,9 °C 0,0 km/h (0 Bft)
08.08.2017 06:00 11,9 °C 11,9 °C 93 % 1010,1 hPa 0,0 mm 0,0 km/h (0 Bft) S-SW 194 ° 0 min 0,000 mm 0,0 UV-I 0 W/m² 10,8 °C 11,9 °C 0,0 km/h (0 Bft)
08.08.2017 06:01 11,8 °C 11,9 °C 93 % 1010,1 hPa 0,0 mm 0,0 km/h (0 Bft) S-SW 194 ° 0 min 0,000 mm 0,0 UV-I 0 W/m² 10,7 °C 11,8 °C 0,0 km/h (0 Bft)
08.08.2017 06:02 11,9 °C 11,9 °C 93 % 1010,1 hPa 0,0 mm 0,0 km/h (0 Bft) S-SW 194 ° 0 min 0,000 mm 0,0 UV-I 0 W/m² 10,8 °C 11,9 °C 0,0 km/h (0 Bft)
08.08.2017 06:03 11,9 °C 11,9 °C 94 % 1010,1 hPa 0,0 mm 0,0 km/h (0 Bft) S-SW 194 ° 0 min 0,000 mm 0,0 UV-I 0 W/m² 11,0 °C 11,9 °C 0,0 km/h (0 Bft)
08.08.2017 06:04 11,9 °C 11,9 °C 93 % 1010,1 hPa 0,0 mm 0,0 km/h (0 Bft) S-SW 194 ° 0 min 0,000 mm 0,0 UV-I 5 W/m² 10,8 °C 11,9 °C 0,0 km/h (0 Bft)
08.08.2017 06:05 11,9 °C 11,9 °C 93 % 1010,1 hPa 0,0 mm 0,0 km/h (0 Bft) S-SW 194 ° 0 min 0,000 mm 0,0 UV-I 5 W/m² 10,8 °C 11,9 °C 0,0 km/h (0 Bft)
08.08.2017 06:06 11,8 °C 11,9 °C 94 % 1010,0 hPa 0,0 mm 0,0 km/h (0 Bft) S-SW 194 ° 0 min 0,000 mm 0,0 UV-I 5 W/m² 10,9 °C 11,8 °C 0,0 km/h (0 Bft)
08.08.2017 06:07 11,8 °C 11,8 °C 94 % 1010,0 hPa 0,0 mm 0,0 km/h (0 Bft) S-SW 194 ° 0 min 0,000 mm 0,0 UV-I 5 W/m² 10,9 °C 11,8 °C 0,0 km/h (0 Bft)
08.08.2017 06:08 11,8 °C 11,8 °C 94 % 1010,0 hPa 0,0 mm 0,0 km/h (0 Bft) S-SW 194 ° 0 min 0,000 mm 0,0 UV-I 5 W/m² 10,9 °C 11,8 °C 0,0 km/h (0 Bft)
08.08.2017 06:09 11,7 °C 11,8 °C 93 % 1010,0 hPa 0,0 mm 0,0 km/h (0 Bft) S-SW 194 ° 0 min 0,000 mm 0,0 UV-I 7 W/m² 10,6 °C 11,7 °C 0,0 km/h (0 Bft)
08.08.2017 06:10 11,7 °C 11,7 °C 93 % 1010,0 hPa 0,0 mm 0,0 km/h (0 Bft) S-SW 194 ° 0 min 0,000 mm 0,0 UV-I 7 W/m² 10,6 °C 11,7 °C 0,0 km/h (0 Bft)
08.08.2017 06:11 11,7 °C 11,7 °C 94 % 1010,0 hPa 0,0 mm 0,0 km/h (0 Bft) S-SW 194 ° 0 min 0,000 mm 0,0 UV-I 7 W/m² 10,8 °C 11,7 °C 0,0 km/h (0 Bft)
08.08.2017 06:12 11,6 °C 11,7 °C 94 % 1010,0 hPa 0,0 mm 0,0 km/h (0 Bft) S-SW 194 ° 0 min 0,000 mm 0,0 UV-I 7 W/m² 10,7 °C 11,6 °C 0,0 km/h (0 Bft)
08.08.2017 06:13 11,6 °C 11,6 °C 94 % 1010,0 hPa 0,0 mm 0,0 km/h (0 Bft) S-SW 194 ° 0 min 0,000 mm 0,0 UV-I 9 W/m² 10,7 °C 11,6 °C 0,0 km/h (0 Bft)
08.08.2017 06:14 11,5 °C 11,6 °C 94 % 1010,0 hPa 0,0 mm 0,0 km/h (0 Bft) S-SW 194 ° 0 min 0,000 mm 0,0 UV-I 9 W/m² 10,6 °C 11,5 °C 0,0 km/h (0 Bft)
08.08.2017 06:15 11,4 °C 11,5 °C 93 % 1010,1 hPa 0,0 mm 0,0 km/h (0 Bft) S-SW 194 ° 0 min 0,000 mm 0,0 UV-I 9 W/m² 10,3 °C 11,4 °C 0,0 km/h (0 Bft)
08.08.2017 06:16 11,4 °C 11,4 °C 94 % 1010,0 hPa 0,0 mm 0,0 km/h (0 Bft) S-SW 194 ° 0 min 0,000 mm 0,0 UV-I 11 W/m² 10,5 °C 11,4 °C 0,0 km/h (0 Bft)
08.08.2017 06:17 11,3 °C 11,4 °C 94 % 1010,0 hPa 0,0 mm 0,0 km/h (0 Bft) S-SW 194 ° 0 min 0,000 mm 0,0 UV-I 11 W/m² 10,4 °C 11,3 °C 0,0 km/h (0 Bft)
08.08.2017 06:18 11,3 °C 11,3 °C 94 % 1010,0 hPa 0,0 mm 0,0 km/h (0 Bft) S-SW 194 ° 0 min 0,000 mm 0,0 UV-I 11 W/m² 10,4 °C 11,3 °C 0,0 km/h (0 Bft)
08.08.2017 06:19 11,3 °C 11,4 °C 94 % 1010,0 hPa 0,0 mm 0,0 km/h (0 Bft) S-SW 194 ° 0 min 0,000 mm 0,0 UV-I 11 W/m² 10,4 °C 11,3 °C 0,0 km/h (0 Bft)
08.08.2017 06:20 11,3 °C 11,4 °C 94 % 1010,1 hPa 0,0 mm 0,0 km/h (0 Bft) S-SW 194 ° 0 min 0,000 mm 0,0 UV-I 12 W/m² 10,4 °C 11,3 °C 0,0 km/h (0 Bft)
08.08.2017 06:21 11,3 °C 11,3 °C 94 % 1010,1 hPa 0,0 mm 0,0 km/h (0 Bft) S-SW 194 ° 0 min 0,000 mm 0,0 UV-I 12 W/m² 10,4 °C 11,3 °C 0,0 km/h (0 Bft)
08.08.2017 06:22 11,4 °C 11,4 °C 94 % 1010,0 hPa 0,0 mm 0,0 km/h (0 Bft) S-SW 194 ° 0 min 0,000 mm 0,0 UV-I 12 W/m² 10,5 °C 11,4 °C 0,0 km/h (0 Bft)
08.08.2017 06:23 11,4 °C 11,4 °C 95 % 1010,0 hPa 0,0 mm 0,0 km/h (0 Bft) S-SW 194 ° 0 min 0,000 mm 0,0 UV-I 12 W/m² 10,6 °C 11,4 °C 0,0 km/h (0 Bft)
08.08.2017 06:24 11,3 °C 11,4 °C 94 % 1010,1 hPa 0,0 mm 0,0 km/h (0 Bft) S-SW 194 ° 0 min 0,000 mm 0,0 UV-I 14 W/m² 10,4 °C 11,3 °C 0,0 km/h (0 Bft)
08.08.2017 06:25 11,3 °C 11,3 °C 94 % 1010,0 hPa 0,0 mm 0,0 km/h (0 Bft) S-SW 194 ° 0 min 0,000 mm 0,0 UV-I 14 W/m² 10,4 °C 11,3 °C 0,0 km/h (0 Bft)
08.08.2017 06:26 11,3 °C 11,3 °C 94 % 1010,0 hPa 0,0 mm 0,0 km/h (0 Bft) S-SW 194 ° 0 min 0,000 mm 0,0 UV-I 14 W/m² 10,4 °C 11,3 °C 0,0 km/h (0 Bft)
08.08.2017 06:27 11,3 °C 11,3 °C 94 % 1010,0 hPa 0,0 mm 0,0 km/h (0 Bft) S-SW 194 ° 0 min 0,000 mm 0,0 UV-I 16 W/m² 10,4 °C 11,3 °C 0,0 km/h (0 Bft)
08.08.2017 06:28 11,3 °C 11,3 °C 95 % 1010,0 hPa 0,0 mm 0,0 km/h (0 Bft) S-SW 194 ° 0 min 0,000 mm 0,0 UV-I 16 W/m² 10,5 °C 11,3 °C 0,0 km/h (0 Bft)
08.08.2017 06:29 11,4 °C 11,4 °C 95 % 1010,0 hPa 0,0 mm 0,0 km/h (0 Bft) S-SW 194 ° 0 min 0,000 mm 0,0 UV-I 18 W/m² 10,6 °C 11,4 °C 0,0 km/h (0 Bft)
08.08.2017 06:30 11,3 °C 11,4 °C 95 % 1010,1 hPa 0,0 mm 0,0 km/h (0 Bft) S-SW 194 ° 0 min 0,000 mm 0,0 UV-I 18 W/m² 10,5 °C 11,3 °C 0,0 km/h (0 Bft)
08.08.2017 06:31 11,3 °C 11,4 °C 95 % 1010,1 hPa 0,0 mm 0,0 km/h (0 Bft) S-SW 194 ° 0 min 0,000 mm 0,0 UV-I 18 W/m² 10,5 °C 11,3 °C 0,0 km/h (0 Bft)
08.08.2017 06:32 11,3 °C 11,3 °C 94 % 1010,1 hPa 0,0 mm 0,0 km/h (0 Bft) S-SW 194 ° 0 min 0,000 mm 0,0 UV-I 18 W/m² 10,4 °C 11,3 °C 0,0 km/h (0 Bft)
08.08.2017 06:33 11,3 °C 11,4 °C 95 % 1010,0 hPa 0,0 mm 0,0 km/h (0 Bft) S-SW 194 ° 0 min 0,000 mm 0,0 UV-I 19 W/m² 10,5 °C 11,3 °C 0,0 km/h (0 Bft)
08.08.2017 06:34 11,4 °C 11,4 °C 95 % 1010,0 hPa 0,0 mm 0,0 km/h (0 Bft) S-SW 194 ° 0 min 0,000 mm 0,0 UV-I 19 W/m² 10,6 °C 11,4 °C 0,0 km/h (0 Bft)
08.08.2017 06:35 11,4 °C 11,4 °C 95 % 1010,1 hPa 0,0 mm 0,0 km/h (0 Bft) S-SW 194 ° 0 min 0,000 mm 0,0 UV-I 21 W/m² 10,6 °C 11,4 °C 0,0 km/h (0 Bft)
08.08.2017 06:36 11,4 °C 11,4 °C 95 % 1010,1 hPa 0,0 mm 0,0 km/h (0 Bft) S-SW 194 ° 0 min 0,000 mm 0,0 UV-I 21 W/m² 10,6 °C 11,4 °C 0,0 km/h (0 Bft)
08.08.2017 06:37 11,5 °C 11,5 °C 95 % 1010,2 hPa 0,0 mm 0,0 km/h (0 Bft) S-SW 194 ° 0 min 0,000 mm 0,0 UV-I 21 W/m² 10,7 °C 11,5 °C 0,0 km/h (0 Bft)
08.08.2017 06:38 11,4 °C 11,5 °C 95 % 1010,2 hPa 0,0 mm 0,0 km/h (0 Bft) S-SW 194 ° 0 min 0,000 mm 0,0 UV-I 21 W/m² 10,6 °C 11,4 °C 0,0 km/h (0 Bft)
08.08.2017 06:39 11,5 °C 11,5 °C 95 % 1010,2 hPa 0,0 mm 0,0 km/h (0 Bft) S-SW 194 ° 0 min 0,000 mm 0,0 UV-I 21 W/m² 10,7 °C 11,5 °C 0,0 km/h (0 Bft)
08.08.2017 06:40 11,4 °C 11,5 °C 95 % 1010,2 hPa 0,0 mm 0,0 km/h (0 Bft) S-SW 194 ° 0 min 0,000 mm 0,0 UV-I 23 W/m² 10,6 °C 11,4 °C 0,0 km/h (0 Bft)
08.08.2017 06:41 11,4 °C 11,4 °C 95 % 1010,2 hPa 0,0 mm 0,0 km/h (0 Bft) S-SW 194 ° 0 min 0,000 mm 0,0 UV-I 25 W/m² 10,6 °C 11,4 °C 0,0 km/h (0 Bft)
08.08.2017 06:42 11,4 °C 11,4 °C 95 % 1010,2 hPa 0,0 mm 0,0 km/h (0 Bft) S-SW 194 ° 0 min 0,000 mm 0,0 UV-I 25 W/m² 10,6 °C 11,4 °C 0,0 km/h (0 Bft)
08.08.2017 06:43 11,4 °C 11,4 °C 95 % 1010,1 hPa 0,0 mm 0,0 km/h (0 Bft) S-SW 194 ° 0 min 0,000 mm 0,0 UV-I 25 W/m² 10,6 °C 11,4 °C 0,0 km/h (0 Bft)
08.08.2017 06:44 11,4 °C 11,4 °C 95 % 1010,2 hPa 0,0 mm 0,0 km/h (0 Bft) S-SW 194 ° 0 min 0,000 mm 0,0 UV-I 26 W/m² 10,6 °C 11,4 °C 0,0 km/h (0 Bft)
08.08.2017 06:45 11,4 °C 11,4 °C 95 % 1010,1 hPa 0,0 mm 0,0 km/h (0 Bft) S-SW 194 ° 0 min 0,000 mm 0,0 UV-I 26 W/m² 10,6 °C 11,4 °C 0,0 km/h (0 Bft)
08.08.2017 06:46 11,5 °C 11,5 °C 95 % 1010,1 hPa 0,0 mm 0,0 km/h (0 Bft) S-SW 194 ° 0 min 0,000 mm 0,0 UV-I 28 W/m² 10,7 °C 11,5 °C 0,0 km/h (0 Bft)
08.08.2017 06:47 11,6 °C 11,6 °C 95 % 1010,1 hPa 0,0 mm 0,0 km/h (0 Bft) S-SW 194 ° 0 min 0,000 mm 0,0 UV-I 30 W/m² 10,8 °C 11,6 °C 0,0 km/h (0 Bft)
08.08.2017 06:48 11,6 °C 11,6 °C 95 % 1010,2 hPa 0,0 mm 0,0 km/h (0 Bft) S-SW 194 ° 0 min 0,000 mm 0,0 UV-I 28 W/m² 10,8 °C 11,6 °C 0,0 km/h (0 Bft)
08.08.2017 06:49 11,5 °C 11,6 °C 95 % 1010,2 hPa 0,0 mm 0,0 km/h (0 Bft) S-SW 194 ° 0 min 0,000 mm 0,0 UV-I 28 W/m² 10,7 °C 11,5 °C 0,0 km/h (0 Bft)
08.08.2017 06:50 11,5 °C 11,5 °C 95 % 1010,2 hPa 0,0 mm 0,0 km/h (0 Bft) S-SW 194 ° 0 min 0,000 mm 0,0 UV-I 30 W/m² 10,7 °C 11,5 °C 0,0 km/h (0 Bft)
08.08.2017 06:51 11,5 °C 11,5 °C 95 % 1010,2 hPa 0,0 mm 0,0 km/h (0 Bft) S-SW 194 ° 0 min 0,000 mm 0,0 UV-I 30 W/m² 10,7 °C 11,5 °C 0,0 km/h (0 Bft)
08.08.2017 06:52 11,5 °C 11,5 °C 95 % 1010,1 hPa 0,0 mm 0,0 km/h (0 Bft) S-SW 194 ° 0 min 0,000 mm 0,0 UV-I 32 W/m² 10,7 °C 11,5 °C 0,0 km/h (0 Bft)
08.08.2017 06:53 11,5 °C 11,6 °C 95 % 1010,1 hPa 0,0 mm 0,0 km/h (0 Bft) S-SW 194 ° 0 min 0,000 mm 0,0 UV-I 35 W/m² 10,7 °C 11,5 °C 0,0 km/h (0 Bft)
08.08.2017 06:54 11,6 °C 11,6 °C 95 % 1010,1 hPa 0,0 mm 0,0 km/h (0 Bft) S-SW 194 ° 0 min 0,000 mm 0,0 UV-I 35 W/m² 10,8 °C 11,6 °C 0,0 km/h (0 Bft)
08.08.2017 06:55 11,6 °C 11,6 °C 95 % 1010,1 hPa 0,0 mm 0,0 km/h (0 Bft) S-SW 194 ° 0 min 0,000 mm 0,0 UV-I 33 W/m² 10,8 °C 11,6 °C 0,0 km/h (0 Bft)
08.08.2017 06:56 11,7 °C 11,7 °C 95 % 1010,1 hPa 0,0 mm 0,0 km/h (0 Bft) S-SW 194 ° 0 min 0,000 mm 0,0 UV-I 33 W/m² 10,9 °C 11,7 °C 0,0 km/h (0 Bft)
08.08.2017 06:57 11,7 °C 11,7 °C 95 % 1010,1 hPa 0,0 mm 0,0 km/h (0 Bft) S-SW 194 ° 0 min 0,000 mm 0,0 UV-I 33 W/m² 10,9 °C 11,7 °C 0,0 km/h (0 Bft)
08.08.2017 06:58 11,7 °C 11,7 °C 95 % 1010,1 hPa 0,0 mm 0,0 km/h (0 Bft) S-SW 194 ° 0 min 0,000 mm 0,0 UV-I 35 W/m² 10,9 °C 11,7 °C 0,0 km/h (0 Bft)
08.08.2017 06:59 11,8 °C 11,8 °C 95 % 1010,0 hPa 0,0 mm 0,0 km/h (0 Bft) S-SW 194 ° 0 min 0,000 mm 0,0 UV-I 35 W/m² 11,0 °C 11,8 °C 0,0 km/h (0 Bft)
08.08.2017 07:00 11,9 °C 11,9 °C 96 % 1010,0 hPa 0,0 mm 0,0 km/h (0 Bft) S-SW 194 ° 0 min 0,000 mm 0,0 UV-I 37 W/m² 11,3 °C 11,9 °C 0,0 km/h (0 Bft)
08.08.2017 07:01 11,9 °C 11,9 °C 95 % 1010,0 hPa 0,0 mm 0,0 km/h (0 Bft) S-SW 194 ° 0 min 0,000 mm 0,0 UV-I 39 W/m² 11,1 °C 11,9 °C 0,0 km/h (0 Bft)
08.08.2017 07:02 12,0 °C 12,0 °C 95 % 1010,0 hPa 0,0 mm 0,0 km/h (0 Bft) S-SW 194 ° 0 min 0,000 mm 0,0 UV-I 37 W/m² 11,2 °C 12,0 °C 0,0 km/h (0 Bft)
08.08.2017 07:03 12,0 °C 12,0 °C 95 % 1010,0 hPa 0,0 mm 0,0 km/h (0 Bft) S-SW 194 ° 0 min 0,000 mm 0,0 UV-I 37 W/m² 11,2 °C 12,0 °C 0,0 km/h (0 Bft)
08.08.2017 07:04 12,0 °C 12,0 °C 95 % 1010,0 hPa 0,0 mm 0,0 km/h (0 Bft) S-SW 194 ° 0 min 0,000 mm 0,0 UV-I 39 W/m² 11,2 °C 12,0 °C 0,0 km/h (0 Bft)
08.08.2017 07:05 12,1 °C 12,1 °C 95 % 1010,0 hPa 0,0 mm 0,0 km/h (0 Bft) S-SW 194 ° 0 min 0,000 mm 0,0 UV-I 53 W/m² 11,3 °C 12,1 °C 0,0 km/h (0 Bft)
08.08.2017 07:06 12,1 °C 12,1 °C 95 % 1010,0 hPa 0,0 mm 0,0 km/h (0 Bft) S-SW 194 ° 0 min 0,000 mm 0,0 UV-I 53 W/m² 11,3 °C 12,1 °C 0,0 km/h (0 Bft)
08.08.2017 07:07 12,1 °C 12,2 °C 95 % 1010,0 hPa 0,0 mm 0,0 km/h (0 Bft) S-SW 194 ° 0 min 0,000 mm 0,0 UV-I 47 W/m² 11,3 °C 12,1 °C 0,0 km/h (0 Bft)
08.08.2017 07:08 12,2 °C 12,2 °C 95 % 1009,9 hPa 0,0 mm 0,0 km/h (0 Bft) S-SW 194 ° 0 min 0,000 mm 0,0 UV-I 44 W/m² 11,4 °C 12,2 °C 0,0 km/h (0 Bft)
08.08.2017 07:09 12,2 °C 12,2 °C 95 % 1009,9 hPa 0,0 mm 0,0 km/h (0 Bft) S-SW 194 ° 0 min 0,000 mm 0,0 UV-I 42 W/m² 11,4 °C 12,2 °C 0,0 km/h (0 Bft)
08.08.2017 07:10 12,2 °C 12,3 °C 95 % 1009,9 hPa 0,0 mm 0,0 km/h (0 Bft) S-SW 194 ° 0 min 0,000 mm 0,0 UV-I 74 W/m² 11,4 °C 12,2 °C 0,0 km/h (0 Bft)
08.08.2017 07:11 12,3 °C 12,3 °C 95 % 1009,9 hPa 0,0 mm 0,0 km/h (0 Bft) S-SW 194 ° 0 min 0,000 mm 0,0 UV-I 77 W/m² 11,5 °C 12,3 °C 0,0 km/h (0 Bft)
08.08.2017 07:12 12,3 °C 12,3 °C 95 % 1009,9 hPa 0,0 mm 0,0 km/h (0 Bft) S-SW 194 ° 0 min 0,000 mm 0,0 UV-I 60 W/m² 11,5 °C 12,3 °C 0,0 km/h (0 Bft)
08.08.2017 07:13 12,4 °C 12,4 °C 95 % 1009,9 hPa 0,0 mm 0,0 km/h (0 Bft) S-SW 194 ° 0 min 0,000 mm 0,0 UV-I 40 W/m² 11,6 °C 12,4 °C 0,0 km/h (0 Bft)
08.08.2017 07:14 12,5 °C 12,5 °C 95 % 1009,9 hPa 0,0 mm 0,0 km/h (0 Bft) S-SW 194 ° 0 min 0,000 mm 0,0 UV-I 40 W/m² 11,7 °C 12,5 °C 0,0 km/h (0 Bft)
08.08.2017 07:15 12,6 °C 12,6 °C 95 % 1009,9 hPa 0,0 mm 0,0 km/h (0 Bft) S-SW 194 ° 0 min 0,000 mm 0,0 UV-I 40 W/m² 11,8 °C 12,6 °C 0,0 km/h (0 Bft)
08.08.2017 07:16 12,6 °C 12,6 °C 95 % 1009,9 hPa 0,0 mm 0,0 km/h (0 Bft) S-SW 194 ° 0 min 0,000 mm 0,0 UV-I 42 W/m² 11,8 °C 12,6 °C 0,0 km/h (0 Bft)
08.08.2017 07:17 12,6 °C 12,6 °C 95 % 1009,8 hPa 0,0 mm 0,0 km/h (0 Bft) S-SW 194 ° 0 min 0,000 mm 0,0 UV-I 44 W/m² 11,8 °C 12,6 °C 0,0 km/h (0 Bft)
08.08.2017 07:18 12,7 °C 12,7 °C 95 % 1009,8 hPa 0,0 mm 0,0 km/h (0 Bft) S-SW 194 ° 0 min 0,000 mm 0,0 UV-I 49 W/m² 11,9 °C 12,7 °C 0,0 km/h (0 Bft)
08.08.2017 07:19 12,7 °C 12,7 °C 95 % 1009,8 hPa 0,0 mm 0,0 km/h (0 Bft) S-SW 194 ° 0 min 0,000 mm 0,0 UV-I 51 W/m² 11,9 °C 12,7 °C 0,0 km/h (0 Bft)
08.08.2017 07:20 12,7 °C 12,7 °C 95 % 1009,8 hPa 0,0 mm 0,0 km/h (0 Bft) S-SW 194 ° 0 min 0,000 mm 0,0 UV-I 47 W/m² 11,9 °C 12,7 °C 0,0 km/h (0 Bft)
08.08.2017 07:21 12,8 °C 12,8 °C 95 % 1009,8 hPa 0,0 mm 0,0 km/h (0 Bft) S-SW 194 ° 0 min 0,000 mm 0,0 UV-I 40 W/m² 12,0 °C 12,8 °C 0,0 km/h (0 Bft)
08.08.2017 07:22 12,9 °C 12,9 °C 95 % 1009,8 hPa 0,0 mm 0,0 km/h (0 Bft) S-SW 194 ° 0 min 0,000 mm 0,0 UV-I 42 W/m² 12,1 °C 12,9 °C 0,0 km/h (0 Bft)
08.08.2017 07:23 12,9 °C 12,9 °C 95 % 1009,8 hPa 0,0 mm 0,0 km/h (0 Bft) S-SW 194 ° 0 min 0,000 mm 0,0 UV-I 42 W/m² 12,1 °C 12,9 °C 0,0 km/h (0 Bft)
08.08.2017 07:24 13,0 °C 13,0 °C 94 % 1009,8 hPa 0,0 mm 0,0 km/h (0 Bft) S-SW 194 ° 0 min 0,000 mm 0,0 UV-I 44 W/m² 12,1 °C 13,0 °C 0,0 km/h (0 Bft)
08.08.2017 07:25 13,1 °C 13,1 °C 94 % 1009,7 hPa 0,0 mm 0,0 km/h (0 Bft) S-SW 194 ° 0 min 0,000 mm 0,0 UV-I 44 W/m² 12,2 °C 13,1 °C 0,0 km/h (0 Bft)
08.08.2017 07:26 13,1 °C 13,1 °C 94 % 1009,7 hPa 0,0 mm 0,0 km/h (0 Bft) S-SW 194 ° 0 min 0,000 mm 0,0 UV-I 44 W/m² 12,2 °C 13,1 °C 0,0 km/h (0 Bft)
08.08.2017 07:27 13,2 °C 13,2 °C 94 % 1009,7 hPa 0,0 mm 0,0 km/h (0 Bft) S-SW 194 ° 0 min 0,000 mm 0,0 UV-I 44 W/m² 12,3 °C 13,2 °C 0,0 km/h (0 Bft)
08.08.2017 07:28 13,3 °C 13,3 °C 94 % 1009,7 hPa 0,0 mm 0,0 km/h (0 Bft) S-SW 194 ° 0 min 0,000 mm 0,0 UV-I 49 W/m² 12,4 °C 13,3 °C 0,0 km/h (0 Bft)
08.08.2017 07:29 13,4 °C 13,4 °C 94 % 1009,7 hPa 0,0 mm 0,0 km/h (0 Bft) S-SW 194 ° 0 min 0,000 mm 0,0 UV-I 53 W/m² 12,5 °C 13,4 °C 0,0 km/h (0 Bft)
08.08.2017 07:30 13,4 °C 13,4 °C 94 % 1009,7 hPa 0,0 mm 0,0 km/h (0 Bft) S-SW 194 ° 0 min 0,000 mm 0,6 UV-I 56 W/m² 12,5 °C 13,4 °C 0,0 km/h (0 Bft)
08.08.2017 07:31 13,4 °C 13,4 °C 94 % 1009,7 hPa 0,0 mm 0,0 km/h (0 Bft) S-SW 194 ° 0 min 0,000 mm 0,6 UV-I 67 W/m² 12,5 °C 13,4 °C 0,0 km/h (0 Bft)
08.08.2017 07:32 13,4 °C 13,4 °C 94 % 1009,7 hPa 0,0 mm 0,0 km/h (0 Bft) S-SW 194 ° 0 min 0,000 mm 0,6 UV-I 95 W/m² 12,5 °C 13,4 °C 0,0 km/h (0 Bft)
08.08.2017 07:33 13,4 °C 13,4 °C 94 % 1009,7 hPa 0,0 mm 0,0 km/h (0 Bft) S-SW 194 ° 0 min 0,000 mm 0,7 UV-I 132 W/m² 12,5 °C 13,4 °C 0,0 km/h (0 Bft)
08.08.2017 07:34 13,5 °C 13,5 °C 94 % 1009,7 hPa 0,0 mm 0,0 km/h (0 Bft) S-SW 194 ° 0 min 0,000 mm 0,7 UV-I 132 W/m² 12,6 °C 13,5 °C 0,0 km/h (0 Bft)
08.08.2017 07:35 13,5 °C 13,6 °C 94 % 1009,6 hPa 0,0 mm 0,0 km/h (0 Bft) S-SW 194 ° 0 min 0,000 mm 0,7 UV-I 132 W/m² 12,6 °C 13,5 °C 0,0 km/h (0 Bft)
08.08.2017 07:36 13,6 °C 13,6 °C 94 % 1009,6 hPa 0,0 mm 0,0 km/h (0 Bft) S-SW 194 ° 0 min 0,000 mm 0,7 UV-I 123 W/m² 12,7 °C 13,6 °C 0,0 km/h (0 Bft)
08.08.2017 07:37 13,6 °C 13,6 °C 94 % 1009,7 hPa 0,0 mm 0,0 km/h (0 Bft) S-SW 194 ° 0 min 0,000 mm 0,7 UV-I 125 W/m² 12,7 °C 13,6 °C 0,0 km/h (0 Bft)
08.08.2017 07:38 13,8 °C 13,8 °C 94 % 1009,7 hPa 0,0 mm 0,0 km/h (0 Bft) S-SW 194 ° 0 min 0,000 mm 0,7 UV-I 130 W/m² 12,9 °C 13,8 °C 0,0 km/h (0 Bft)
08.08.2017 07:39 13,9 °C 13,9 °C 93 % 1009,7 hPa 0,0 mm 0,0 km/h (0 Bft) S-SW 194 ° 0 min 0,000 mm 0,8 UV-I 135 W/m² 12,8 °C 13,9 °C 0,0 km/h (0 Bft)
08.08.2017 07:40 14,1 °C 14,1 °C 93 % 1009,7 hPa 0,0 mm 0,0 km/h (0 Bft) S-SW 194 ° 0 min 0,000 mm 0,8 UV-I 141 W/m² 13,0 °C 14,1 °C 0,0 km/h (0 Bft)
08.08.2017 07:41 14,1 °C 14,1 °C 93 % 1009,7 hPa 0,0 mm 0,0 km/h (0 Bft) S-SW 194 ° 0 min 0,000 mm 0,8 UV-I 146 W/m² 13,0 °C 14,1 °C 0,0 km/h (0 Bft)
08.08.2017 07:42 14,1 °C 14,1 °C 93 % 1009,7 hPa 0,0 mm 0,0 km/h (0 Bft) S-SW 194 ° 0 min 0,000 mm 0,8 UV-I 151 W/m² 13,0 °C 14,1 °C 0,0 km/h (0 Bft)
08.08.2017 07:43 14,1 °C 14,1 °C 92 % 1009,8 hPa 0,0 mm 0,0 km/h (0 Bft) S-SW 194 ° 0 min 0,000 mm 0,8 UV-I 158 W/m² 12,8 °C 14,1 °C 0,0 km/h (0 Bft)
08.08.2017 07:44 14,1 °C 14,1 °C 93 % 1009,7 hPa 0,0 mm 0,0 km/h (0 Bft) S-SW 194 ° 0 min 0,000 mm 0,8 UV-I 162 W/m² 13,0 °C 14,1 °C 0,0 km/h (0 Bft)
08.08.2017 07:45 14,2 °C 14,2 °C 93 % 1009,8 hPa 0,0 mm 0,0 km/h (0 Bft) S-SW 194 ° 0 min 0,000 mm 0,8 UV-I 169 W/m² 13,1 °C 14,2 °C 0,0 km/h (0 Bft)
08.08.2017 07:46 14,3 °C 14,3 °C 93 % 1009,7 hPa 0,0 mm 0,0 km/h (0 Bft) S-SW 194 ° 0 min 0,000 mm 0,8 UV-I 176 W/m² 13,2 °C 14,3 °C 0,0 km/h (0 Bft)
08.08.2017 07:47 14,4 °C 14,4 °C 93 % 1009,8 hPa 0,0 mm 0,0 km/h (0 Bft) S-SW 194 ° 0 min 0,000 mm 0,9 UV-I 181 W/m² 13,3 °C 14,4 °C 0,0 km/h (0 Bft)
08.08.2017 07:48 14,5 °C 14,5 °C 92 % 1009,8 hPa 0,0 mm 0,0 km/h (0 Bft) S-SW 194 ° 0 min 0,000 mm 0,9 UV-I 185 W/m² 13,2 °C 14,5 °C 0,0 km/h (0 Bft)
08.08.2017 07:49 14,6 °C 14,6 °C 92 % 1009,8 hPa 0,0 mm 0,0 km/h (0 Bft) S-SW 194 ° 0 min 0,000 mm 0,9 UV-I 188 W/m² 13,3 °C 14,6 °C 0,0 km/h (0 Bft)
08.08.2017 07:50 14,6 °C 14,6 °C 91 % 1009,8 hPa 0,0 mm 0,0 km/h (0 Bft) S-SW 194 ° 0 min 0,000 mm 0,9 UV-I 181 W/m² 13,1 °C 14,6 °C 0,0 km/h (0 Bft)
08.08.2017 07:51 14,7 °C 14,7 °C 92 % 1009,9 hPa 0,0 mm 0,0 km/h (0 Bft) S-SW 194 ° 0 min 0,000 mm 0,9 UV-I 192 W/m² 13,4 °C 14,7 °C 0,0 km/h (0 Bft)
08.08.2017 07:52 14,7 °C 14,7 °C 92 % 1009,9 hPa 0,0 mm 0,0 km/h (0 Bft) S-SW 194 ° 0 min 0,000 mm 0,9 UV-I 199 W/m² 13,4 °C 14,7 °C 0,0 km/h (0 Bft)
08.08.2017 07:53 14,9 °C 14,9 °C 92 % 1009,9 hPa 0,0 mm 0,0 km/h (0 Bft) S-SW 194 ° 0 min 0,000 mm 0,9 UV-I 214 W/m² 13,6 °C 14,9 °C 0,0 km/h (0 Bft)
08.08.2017 07:54 15,1 °C 15,1 °C 92 % 1010,0 hPa 0,0 mm 0,0 km/h (0 Bft) S-SW 194 ° 0 min 0,000 mm 0,9 UV-I 174 W/m² 13,8 °C 15,1 °C 0,0 km/h (0 Bft)
08.08.2017 07:55 15,3 °C 15,3 °C 91 % 1009,9 hPa 0,0 mm 0,0 km/h (0 Bft) S-SW 194 ° 0 min 0,000 mm 0,9 UV-I 181 W/m² 13,8 °C 15,3 °C 0,0 km/h (0 Bft)
08.08.2017 07:56 15,4 °C 15,4 °C 91 % 1009,9 hPa 0,0 mm 0,0 km/h (0 Bft) S-SW 194 ° 0 min 0,000 mm 0,9 UV-I 192 W/m² 13,9 °C 15,4 °C 0,0 km/h (0 Bft)
08.08.2017 07:57 15,6 °C 15,6 °C 91 % 1009,9 hPa 0,0 mm 0,0 km/h (0 Bft) S-SW 194 ° 0 min 0,000 mm 1,0 UV-I 190 W/m² 14,1 °C 15,6 °C 0,0 km/h (0 Bft)
08.08.2017 07:58 15,6 °C 15,6 °C 90 % 1009,9 hPa 0,0 mm 0,0 km/h (0 Bft) S-SW 194 ° 0 min 0,000 mm 1,0 UV-I 190 W/m² 14,0 °C 15,6 °C 0,0 km/h (0 Bft)
08.08.2017 07:59 15,4 °C 15,6 °C 89 % 1009,8 hPa 0,0 mm 1,8 km/h (1 Bft) S-SW 194 ° 0 min 0,000 mm 1,0 UV-I 193 W/m² 13,6 °C 15,4 °C 3,2 km/h (1 Bft)
08.08.2017 08:00 15,3 °C 15,4 °C 90 % 1009,8 hPa 0,0 mm 1,3 km/h (1 Bft) S-SW 194 ° 0 min 0,000 mm 1,0 UV-I 209 W/m² 13,7 °C 15,3 °C 3,2 km/h (1 Bft)
08.08.2017 08:01 15,3 °C 15,3 °C 90 % 1009,8 hPa 0,0 mm 0,1 km/h (0 Bft) S-SW 194 ° 0 min 0,051 mm 1,0 UV-I 207 W/m² 13,7 °C 15,3 °C 1,6 km/h (1 Bft)
08.08.2017 08:02 15,3 °C 15,3 °C 90 % 1009,8 hPa 0,0 mm 0,0 km/h (0 Bft) S-SW 194 ° 0 min 0,000 mm 1,0 UV-I 206 W/m² 13,7 °C 15,3 °C 0,0 km/h (0 Bft)
08.08.2017 08:03 15,4 °C 15,4 °C 90 % 1009,8 hPa 0,0 mm 0,0 km/h (0 Bft) S-SW 194 ° 0 min 0,000 mm 1,0 UV-I 218 W/m² 13,8 °C 15,4 °C 0,0 km/h (0 Bft)
08.08.2017 08:04 15,6 °C 15,6 °C 91 % 1009,7 hPa 0,0 mm 0,0 km/h (0 Bft) S-SW 194 ° 0 min 0,000 mm 1,1 UV-I 218 W/m² 14,1 °C 15,6 °C 0,0 km/h (0 Bft)
08.08.2017 08:05 15,8 °C 15,8 °C 91 % 1009,7 hPa 0,0 mm 0,0 km/h (0 Bft) S-SW 194 ° 0 min 0,000 mm 1,1 UV-I 209 W/m² 14,3 °C 15,8 °C 0,0 km/h (0 Bft)
08.08.2017 08:06 15,8 °C 15,8 °C 89 % 1009,8 hPa 0,0 mm 0,0 km/h (0 Bft) S-SW 194 ° 0 min 0,000 mm 1,1 UV-I 229 W/m² 14,0 °C 15,8 °C 0,0 km/h (0 Bft)
08.08.2017 08:07 15,9 °C 15,9 °C 89 % 1009,8 hPa 0,0 mm 0,0 km/h (0 Bft) S-SW 194 ° 0 min 0,000 mm 1,1 UV-I 232 W/m² 14,1 °C 15,9 °C 0,0 km/h (0 Bft)
08.08.2017 08:08 16,0 °C 16,0 °C 88 % 1009,7 hPa 0,0 mm 0,0 km/h (0 Bft) S-SW 194 ° 0 min 0,000 mm 1,1 UV-I 236 W/m² 14,0 °C 16,0 °C 0,0 km/h (0 Bft)
08.08.2017 08:09 16,1 °C 16,1 °C 88 % 1009,7 hPa 0,0 mm 0,0 km/h (0 Bft) S-SW 194 ° 0 min 0,000 mm 1,1 UV-I 230 W/m² 14,1 °C 16,1 °C 0,0 km/h (0 Bft)
08.08.2017 08:10 15,9 °C 16,1 °C 89 % 1009,6 hPa 0,0 mm 0,0 km/h (0 Bft) S-SW 194 ° 0 min 0,000 mm 1,2 UV-I 230 W/m² 14,1 °C 15,9 °C 0,0 km/h (0 Bft)
08.08.2017 08:11 15,9 °C 15,9 °C 89 % 1009,6 hPa 0,0 mm 0,0 km/h (0 Bft) S-SW 194 ° 0 min 0,000 mm 1,2 UV-I 234 W/m² 14,1 °C 15,9 °C 0,0 km/h (0 Bft)
08.08.2017 08:12 15,9 °C 15,9 °C 91 % 1009,7 hPa 0,0 mm 0,0 km/h (0 Bft) S-SW 194 ° 0 min 0,000 mm 1,2 UV-I 250 W/m² 14,4 °C 15,9 °C 0,0 km/h (0 Bft)
08.08.2017 08:13 16,1 °C 16,1 °C 90 % 1009,6 hPa 0,0 mm 0,0 km/h (0 Bft) S-SW 194 ° 0 min 0,000 mm 1,2 UV-I 246 W/m² 14,5 °C 16,1 °C 0,0 km/h (0 Bft)
08.08.2017 08:14 16,2 °C 16,2 °C 90 % 1009,6 hPa 0,0 mm 0,0 km/h (0 Bft) S-SW 194 ° 0 min 0,000 mm 1,3 UV-I 251 W/m² 14,6 °C 16,2 °C 0,0 km/h (0 Bft)
08.08.2017 08:15 16,3 °C 16,3 °C 89 % 1009,5 hPa 0,0 mm 0,0 km/h (0 Bft) S-SW 194 ° 0 min 0,000 mm 1,3 UV-I 251 W/m² 14,5 °C 16,3 °C 0,0 km/h (0 Bft)
08.08.2017 08:16 16,3 °C 16,3 °C 88 % 1009,5 hPa 0,0 mm 0,0 km/h (0 Bft) S-SW 194 ° 0 min 0,000 mm 1,4 UV-I 276 W/m² 14,3 °C 16,3 °C 0,0 km/h (0 Bft)
08.08.2017 08:17 16,3 °C 16,3 °C 88 % 1009,5 hPa 0,0 mm 0,0 km/h (0 Bft) S-SW 194 ° 0 min 0,000 mm 1,4 UV-I 283 W/m² 14,3 °C 16,3 °C 0,0 km/h (0 Bft)
08.08.2017 08:18 16,4 °C 16,4 °C 90 % 1009,5 hPa 0,0 mm 0,0 km/h (0 Bft) S-SW 194 ° 0 min 0,000 mm 1,4 UV-I 288 W/m² 14,8 °C 16,4 °C 0,0 km/h (0 Bft)
08.08.2017 08:19 16,7 °C 16,7 °C 90 % 1009,5 hPa 0,0 mm 0,0 km/h (0 Bft) S-SW 194 ° 0 min 0,000 mm 1,4 UV-I 274 W/m² 15,0 °C 16,7 °C 0,0 km/h (0 Bft)
08.08.2017 08:20 16,7 °C 16,7 °C 88 % 1009,6 hPa 0,0 mm 0,8 km/h (0 Bft) S-SW 194 ° 0 min 0,000 mm 1,4 UV-I 279 W/m² 14,7 °C 16,7 °C 3,2 km/h (1 Bft)
08.08.2017 08:21 16,7 °C 16,7 °C 88 % 1009,7 hPa 0,0 mm 3,4 km/h (1 Bft) S-SW 205 ° 0 min 0,000 mm 1,4 UV-I 265 W/m² 14,7 °C 16,7 °C 4,8 km/h (1 Bft)
08.08.2017 08:22 16,9 °C 16,9 °C 89 % 1009,7 hPa 0,0 mm 3,1 km/h (1 Bft) SW 227 ° 0 min 0,000 mm 1,4 UV-I 267 W/m² 15,1 °C 16,9 °C 4,8 km/h (1 Bft)
08.08.2017 08:23 16,9 °C 16,9 °C 88 % 1009,7 hPa 0,0 mm 2,4 km/h (1 Bft) SW 227 ° 0 min 0,000 mm 1,4 UV-I 257 W/m² 14,9 °C 16,9 °C 4,8 km/h (1 Bft)
08.08.2017 08:24 17,0 °C 17,0 °C 87 % 1009,7 hPa 0,0 mm 0,0 km/h (0 Bft) SW 227 ° 0 min 0,000 mm 1,3 UV-I 213 W/m² 14,8 °C 17,0 °C 0,0 km/h (0 Bft)
08.08.2017 08:25 17,1 °C 17,1 °C 86 % 1009,7 hPa 0,0 mm 1,9 km/h (1 Bft) SW 227 ° 0 min 0,000 mm 1,4 UV-I 188 W/m² 14,7 °C 17,1 °C 3,2 km/h (1 Bft)
08.08.2017 08:26 17,2 °C 17,2 °C 86 % 1009,7 hPa 0,0 mm 0,5 km/h (0 Bft) SW 227 ° 0 min 0,000 mm 1,5 UV-I 278 W/m² 14,8 °C 17,2 °C 1,6 km/h (1 Bft)
08.08.2017 08:27 17,2 °C 17,2 °C 86 % 1009,6 hPa 0,0 mm 0,0 km/h (0 Bft) SW 227 ° 0 min 0,000 mm 1,5 UV-I 230 W/m² 14,8 °C 17,2 °C 0,0 km/h (0 Bft)
08.08.2017 08:28 17,3 °C 17,3 °C 86 % 1009,6 hPa 0,0 mm 0,0 km/h (0 Bft) SW 227 ° 0 min 0,000 mm 1,5 UV-I 244 W/m² 14,9 °C 17,3 °C 0,0 km/h (0 Bft)
08.08.2017 08:29 17,3 °C 17,3 °C 88 % 1009,6 hPa 0,0 mm 0,0 km/h (0 Bft) SW 227 ° 0 min 0,000 mm 1,6 UV-I 288 W/m² 15,3 °C 17,3 °C 0,0 km/h (0 Bft)
08.08.2017 08:30 17,3 °C 17,3 °C 87 % 1009,5 hPa 0,0 mm 0,0 km/h (0 Bft) SW 227 ° 1 min 0,000 mm 1,6 UV-I 311 W/m² 15,1 °C 17,3 °C 0,0 km/h (0 Bft)
08.08.2017 08:31 17,4 °C 17,4 °C 88 % 1009,5 hPa 0,0 mm 0,0 km/h (0 Bft) SW 227 ° 1 min 0,000 mm 1,6 UV-I 301 W/m² 15,4 °C 17,4 °C 0,0 km/h (0 Bft)
08.08.2017 08:32 17,3 °C 17,4 °C 87 % 1009,5 hPa 0,0 mm 0,0 km/h (0 Bft) SW 227 ° 0 min 0,000 mm 1,6 UV-I 288 W/m² 15,1 °C 17,3 °C 0,0 km/h (0 Bft)
08.08.2017 08:33 17,2 °C 17,3 °C 87 % 1009,5 hPa 0,0 mm 0,0 km/h (0 Bft) SW 227 ° 0 min 0,000 mm 1,6 UV-I 264 W/m² 15,0 °C 17,2 °C 0,0 km/h (0 Bft)
08.08.2017 08:34 17,1 °C 17,2 °C 88 % 1009,4 hPa 0,0 mm 0,0 km/h (0 Bft) SW 227 ° 0 min 0,000 mm 1,5 UV-I 223 W/m² 15,1 °C 17,1 °C 0,0 km/h (0 Bft)
08.08.2017 08:35 17,1 °C 17,1 °C 89 % 1009,4 hPa 0,0 mm 0,0 km/h (0 Bft) SW 227 ° 0 min 0,000 mm 1,5 UV-I 232 W/m² 15,3 °C 17,1 °C 0,0 km/h (0 Bft)
08.08.2017 08:36 17,1 °C 17,1 °C 90 % 1009,4 hPa 0,0 mm 0,0 km/h (0 Bft) SW 227 ° 0 min 0,000 mm 1,5 UV-I 237 W/m² 15,4 °C 17,1 °C 0,0 km/h (0 Bft)
08.08.2017 08:37 17,2 °C 17,2 °C 91 % 1009,3 hPa 0,0 mm 0,0 km/h (0 Bft) SW 227 ° 0 min 0,000 mm 1,6 UV-I 227 W/m² 15,7 °C 17,2 °C 0,0 km/h (0 Bft)
08.08.2017 08:38 17,2 °C 17,2 °C 89 % 1009,3 hPa 0,0 mm 0,0 km/h (0 Bft) SW 227 ° 1 min 0,000 mm 1,7 UV-I 306 W/m² 15,4 °C 17,2 °C 0,0 km/h (0 Bft)
08.08.2017 08:39 17,2 °C 17,2 °C 88 % 1009,3 hPa 0,0 mm 0,0 km/h (0 Bft) SW 227 ° 1 min 0,000 mm 1,7 UV-I 294 W/m² 15,2 °C 17,2 °C 0,0 km/h (0 Bft)
08.08.2017 08:40 17,2 °C 17,2 °C 88 % 1009,3 hPa 0,0 mm 0,0 km/h (0 Bft) SW 227 ° 1 min 0,000 mm 1,8 UV-I 309 W/m² 15,2 °C 17,2 °C 0,0 km/h (0 Bft)
08.08.2017 08:41 17,2 °C 17,2 °C 89 % 1009,3 hPa 0,0 mm 0,0 km/h (0 Bft) SW 227 ° 0 min 0,000 mm 1,7 UV-I 278 W/m² 15,4 °C 17,2 °C 0,0 km/h (0 Bft)
08.08.2017 08:42 17,1 °C 17,2 °C 89 % 1009,3 hPa 0,0 mm 0,0 km/h (0 Bft) SW 227 ° 0 min 0,000 mm 1,8 UV-I 285 W/m² 15,3 °C 17,1 °C 0,0 km/h (0 Bft)
08.08.2017 08:43 17,1 °C 17,1 °C 90 % 1009,3 hPa 0,0 mm 0,0 km/h (0 Bft) SW 227 ° 1 min 0,000 mm 1,8 UV-I 304 W/m² 15,4 °C 17,1 °C 0,0 km/h (0 Bft)
08.08.2017 08:44 17,2 °C 17,2 °C 89 % 1009,1 hPa 0,0 mm 0,0 km/h (0 Bft) SW 227 ° 1 min 0,000 mm 1,9 UV-I 345 W/m² 15,4 °C 17,2 °C 0,0 km/h (0 Bft)
08.08.2017 08:45 17,3 °C 17,3 °C 88 % 1009,1 hPa 0,0 mm 0,0 km/h (0 Bft) SW 227 ° 1 min 0,000 mm 2,0 UV-I 352 W/m² 15,3 °C 17,3 °C 0,0 km/h (0 Bft)
08.08.2017 08:46 17,4 °C 17,4 °C 89 % 1009,1 hPa 0,0 mm 0,0 km/h (0 Bft) SW 227 ° 1 min 0,000 mm 2,0 UV-I 374 W/m² 15,6 °C 17,4 °C 0,0 km/h (0 Bft)
08.08.2017 08:47 17,4 °C 17,4 °C 88 % 1009,1 hPa 0,0 mm 0,0 km/h (0 Bft) SW 227 ° 1 min 0,000 mm 2,0 UV-I 371 W/m² 15,4 °C 17,4 °C 0,0 km/h (0 Bft)
08.08.2017 08:48 17,6 °C 17,6 °C 88 % 1009,1 hPa 0,0 mm 0,0 km/h (0 Bft) SW 227 ° 1 min 0,000 mm 2,0 UV-I 360 W/m² 15,6 °C 17,6 °C 0,0 km/h (0 Bft)
08.08.2017 08:49 17,7 °C 17,7 °C 89 % 1009,1 hPa 0,0 mm 0,0 km/h (0 Bft) SW 227 ° 1 min 0,000 mm 2,0 UV-I 323 W/m² 15,9 °C 17,7 °C 0,0 km/h (0 Bft)
08.08.2017 08:50 17,8 °C 17,8 °C 86 % 1009,0 hPa 0,0 mm 0,0 km/h (0 Bft) SW 227 ° 1 min 0,000 mm 2,0 UV-I 373 W/m² 15,4 °C 17,8 °C 0,0 km/h (0 Bft)
08.08.2017 08:51 17,9 °C 17,9 °C 87 % 1009,0 hPa 0,0 mm 0,0 km/h (0 Bft) SW 227 ° 1 min 0,000 mm 2,1 UV-I 381 W/m² 15,7 °C 17,9 °C 0,0 km/h (0 Bft)
08.08.2017 08:52 18,0 °C 18,0 °C 87 % 1009,0 hPa 0,0 mm 0,0 km/h (0 Bft) SW 227 ° 1 min 0,000 mm 2,2 UV-I 390 W/m² 15,8 °C 18,0 °C 0,0 km/h (0 Bft)
08.08.2017 08:53 18,1 °C 18,1 °C 87 % 1009,0 hPa 0,0 mm 0,0 km/h (0 Bft) SW 227 ° 1 min 0,000 mm 2,1 UV-I 381 W/m² 15,9 °C 18,1 °C 0,0 km/h (0 Bft)
08.08.2017 08:54 18,2 °C 18,2 °C 87 % 1008,9 hPa 0,0 mm 0,0 km/h (0 Bft) SW 227 ° 1 min 0,000 mm 2,1 UV-I 367 W/m² 16,0 °C 18,2 °C 0,0 km/h (0 Bft)
08.08.2017 08:55 18,3 °C 18,3 °C 87 % 1008,9 hPa 0,0 mm 0,0 km/h (0 Bft) SW 227 ° 1 min 0,000 mm 2,1 UV-I 352 W/m² 16,1 °C 18,3 °C 0,0 km/h (0 Bft)
08.08.2017 08:56 18,3 °C 18,3 °C 87 % 1008,9 hPa 0,0 mm 0,0 km/h (0 Bft) SW 227 ° 1 min 0,000 mm 2,2 UV-I 394 W/m² 16,1 °C 18,3 °C 0,0 km/h (0 Bft)
08.08.2017 08:57 18,4 °C 18,4 °C 88 % 1008,8 hPa 0,0 mm 0,0 km/h (0 Bft) SW 227 ° 1 min 0,000 mm 2,2 UV-I 413 W/m² 16,4 °C 18,4 °C 0,0 km/h (0 Bft)
08.08.2017 08:58 18,6 °C 18,6 °C 87 % 1008,8 hPa 0,0 mm 0,0 km/h (0 Bft) SW 227 ° 1 min 0,000 mm 2,3 UV-I 410 W/m² 16,4 °C 18,6 °C 0,0 km/h (0 Bft)
08.08.2017 08:59 18,6 °C 18,6 °C 86 % 1008,8 hPa 0,0 mm 0,0 km/h (0 Bft) SW 227 ° 1 min 0,000 mm 2,3 UV-I 422 W/m² 16,2 °C 18,6 °C 0,0 km/h (0 Bft)
08.08.2017 09:00 18,6 °C 18,7 °C 86 % 1008,8 hPa 0,0 mm 0,0 km/h (0 Bft) SW 227 ° 1 min 0,000 mm 2,3 UV-I 418 W/m² 16,2 °C 18,6 °C 0,0 km/h (0 Bft)
08.08.2017 09:01 18,7 °C 18,7 °C 86 % 1008,8 hPa 0,0 mm 0,0 km/h (0 Bft) SW 227 ° 1 min 0,152 mm 2,3 UV-I 411 W/m² 16,3 °C 18,7 °C 0,0 km/h (0 Bft)
08.08.2017 09:02 18,8 °C 18,8 °C 86 % 1008,7 hPa 0,0 mm 0,0 km/h (0 Bft) SW 227 ° 1 min 0,000 mm 2,4 UV-I 403 W/m² 16,4 °C 18,8 °C 0,0 km/h (0 Bft)
08.08.2017 09:03 19,1 °C 19,1 °C 85 % 1008,8 hPa 0,0 mm 0,0 km/h (0 Bft) SW 227 ° 1 min 0,000 mm 2,3 UV-I 376 W/m² 16,5 °C 19,1 °C 0,0 km/h (0 Bft)
08.08.2017 09:04 19,3 °C 19,3 °C 85 % 1008,8 hPa 0,0 mm 0,0 km/h (0 Bft) SW 227 ° 1 min 0,000 mm 2,3 UV-I 383 W/m² 16,7 °C 19,3 °C 0,0 km/h (0 Bft)
08.08.2017 09:05 19,5 °C 19,5 °C 84 % 1008,7 hPa 0,0 mm 0,0 km/h (0 Bft) SW 227 ° 1 min 0,000 mm 2,2 UV-I 334 W/m² 16,7 °C 19,5 °C 0,0 km/h (0 Bft)
08.08.2017 09:06 19,6 °C 19,6 °C 81 % 1008,7 hPa 0,0 mm 0,0 km/h (0 Bft) SW 227 ° 1 min 0,000 mm 2,3 UV-I 367 W/m² 16,2 °C 19,6 °C 0,0 km/h (0 Bft)
08.08.2017 09:07 19,7 °C 19,7 °C 82 % 1008,7 hPa 0,0 mm 0,0 km/h (0 Bft) SW 227 ° 1 min 0,000 mm 2,4 UV-I 413 W/m² 16,5 °C 19,7 °C 0,0 km/h (0 Bft)
08.08.2017 09:08 19,8 °C 19,8 °C 85 % 1008,6 hPa 0,0 mm 0,0 km/h (0 Bft) SW 227 ° 1 min 0,000 mm 2,5 UV-I 429 W/m² 17,2 °C 19,8 °C 0,0 km/h (0 Bft)
08.08.2017 09:09 19,7 °C 19,8 °C 83 % 1008,6 hPa 0,0 mm 0,0 km/h (0 Bft) SW 227 ° 1 min 0,000 mm 2,5 UV-I 406 W/m² 16,7 °C 19,7 °C 0,0 km/h (0 Bft)
08.08.2017 09:10 19,6 °C 19,7 °C 82 % 1008,6 hPa 0,0 mm 0,0 km/h (0 Bft) SW 227 ° 1 min 0,000 mm 2,4 UV-I 408 W/m² 16,4 °C 19,6 °C 0,0 km/h (0 Bft)
08.08.2017 09:11 19,5 °C 19,6 °C 85 % 1008,4 hPa 0,0 mm 0,0 km/h (0 Bft) SW 227 ° 1 min 0,000 mm 2,3 UV-I 362 W/m² 16,9 °C 19,5 °C 0,0 km/h (0 Bft)
08.08.2017 09:12 19,4 °C 19,5 °C 82 % 1008,4 hPa 0,0 mm 0,0 km/h (0 Bft) SW 227 ° 1 min 0,000 mm 2,6 UV-I 394 W/m² 16,2 °C 19,4 °C 0,0 km/h (0 Bft)
08.08.2017 09:13 19,3 °C 19,4 °C 84 % 1008,2 hPa 0,0 mm 1,8 km/h (1 Bft) SW 226 ° 1 min 0,000 mm 2,7 UV-I 466 W/m² 16,5 °C 19,3 °C 3,2 km/h (1 Bft)
08.08.2017 09:14 19,3 °C 19,3 °C 84 % 1008,3 hPa 0,0 mm 2,4 km/h (1 Bft) SW 226 ° 1 min 0,000 mm 2,7 UV-I 475 W/m² 16,5 °C 19,3 °C 3,2 km/h (1 Bft)
08.08.2017 09:15 19,4 °C 19,4 °C 86 % 1008,2 hPa 0,0 mm 0,2 km/h (0 Bft) SW 226 ° 1 min 0,000 mm 2,8 UV-I 480 W/m² 17,0 °C 19,4 °C 3,2 km/h (1 Bft)
08.08.2017 09:16 19,3 °C 19,4 °C 86 % 1008,2 hPa 0,0 mm 0,0 km/h (0 Bft) SW 226 ° 1 min 0,000 mm 2,8 UV-I 476 W/m² 16,9 °C 19,3 °C 0,0 km/h (0 Bft)
08.08.2017 09:17 19,2 °C 19,3 °C 85 % 1008,1 hPa 0,0 mm 0,0 km/h (0 Bft) SW 226 ° 1 min 0,000 mm 2,7 UV-I 473 W/m² 16,6 °C 19,2 °C 0,0 km/h (0 Bft)
08.08.2017 09:18 19,2 °C 19,2 °C 84 % 1008,1 hPa 0,0 mm 1,9 km/h (1 Bft) SW 221 ° 1 min 0,000 mm 2,7 UV-I 457 W/m² 16,4 °C 19,2 °C 3,2 km/h (1 Bft)
08.08.2017 09:19 19,2 °C 19,2 °C 84 % 1008,0 hPa 0,0 mm 0,1 km/h (0 Bft) SW 221 ° 1 min 0,000 mm 2,8 UV-I 478 W/m² 16,4 °C 19,2 °C 1,6 km/h (1 Bft)
08.08.2017 09:20 19,3 °C 19,3 °C 85 % 1008,1 hPa 0,0 mm 1,4 km/h (1 Bft) S 189 ° 1 min 0,000 mm 3,0 UV-I 504 W/m² 16,7 °C 19,3 °C 3,2 km/h (1 Bft)
08.08.2017 09:21 19,3 °C 19,3 °C 85 % 1008,1 hPa 0,0 mm 1,2 km/h (1 Bft) SO 125 ° 1 min 0,000 mm 2,9 UV-I 504 W/m² 16,7 °C 19,3 °C 3,2 km/h (1 Bft)
08.08.2017 09:22 19,6 °C 19,6 °C 86 % 1008,1 hPa 0,0 mm 2,3 km/h (1 Bft) SO 125 ° 1 min 0,000 mm 2,9 UV-I 461 W/m² 17,2 °C 19,6 °C 3,2 km/h (1 Bft)
08.08.2017 09:23 19,7 °C 19,7 °C 85 % 1008,1 hPa 0,0 mm 0,1 km/h (0 Bft) SO 125 ° 1 min 0,000 mm 3,0 UV-I 476 W/m² 17,1 °C 19,7 °C 1,6 km/h (1 Bft)
08.08.2017 09:24 20,0 °C 20,0 °C 86 % 1008,1 hPa 0,0 mm 0,7 km/h (0 Bft) SO 136 ° 1 min 0,000 mm 3,1 UV-I 522 W/m² 17,6 °C 20,0 °C 4,8 km/h (1 Bft)
08.08.2017 09:25 20,3 °C 20,3 °C 79 % 1008,0 hPa 0,0 mm 1,3 km/h (1 Bft) O 96 ° 1 min 0,000 mm 3,1 UV-I 533 W/m² 16,5 °C 20,3 °C 3,2 km/h (1 Bft)
08.08.2017 09:26 20,5 °C 20,5 °C 83 % 1008,0 hPa 0,0 mm 1,9 km/h (1 Bft) O 96 ° 1 min 0,000 mm 3,2 UV-I 540 W/m² 17,5 °C 20,5 °C 3,2 km/h (1 Bft)
08.08.2017 09:27 20,7 °C 20,7 °C 78 % 1008,0 hPa 0,0 mm 3,4 km/h (1 Bft) O-SO 113 ° 1 min 0,000 mm 3,3 UV-I 548 W/m² 16,7 °C 20,7 °C 6,4 km/h (2 Bft)
08.08.2017 09:28 20,9 °C 20,9 °C 77 % 1008,0 hPa 0,0 mm 3,9 km/h (1 Bft) O 98 ° 1 min 0,000 mm 3,3 UV-I 555 W/m² 16,7 °C 20,9 °C 6,4 km/h (2 Bft)
08.08.2017 09:29 21,1 °C 21,1 °C 77 % 1008,0 hPa 0,0 mm 2,0 km/h (1 Bft) O 100 ° 1 min 0,000 mm 3,3 UV-I 552 W/m² 16,9 °C 21,1 °C 4,8 km/h (1 Bft)
08.08.2017 09:30 21,1 °C 21,1 °C 80 % 1008,0 hPa 0,0 mm 1,9 km/h (1 Bft) O-SO 106 ° 1 min 0,000 mm 3,3 UV-I 522 W/m² 17,5 °C 21,1 °C 3,2 km/h (1 Bft)
08.08.2017 09:31 21,2 °C 21,2 °C 78 % 1008,0 hPa 0,0 mm 3,7 km/h (1 Bft) O-NO 71 ° 1 min 0,000 mm 3,3 UV-I 566 W/m² 17,2 °C 21,2 °C 6,4 km/h (2 Bft)
08.08.2017 09:32 21,3 °C 21,3 °C 77 % 1008,0 hPa 0,0 mm 3,0 km/h (1 Bft) O-NO 71 ° 1 min 0,000 mm 3,3 UV-I 577 W/m² 17,1 °C 21,3 °C 4,8 km/h (1 Bft)
08.08.2017 09:33 21,6 °C 21,6 °C 75 % 1008,0 hPa 0,0 mm 2,0 km/h (1 Bft) O-NO 58 ° 1 min 0,000 mm 3,1 UV-I 536 W/m² 17,0 °C 21,6 °C 6,4 km/h (2 Bft)
08.08.2017 09:34 21,7 °C 21,7 °C 80 % 1008,0 hPa 0,0 mm 2,3 km/h (1 Bft) O-NO 78 ° 1 min 0,000 mm 3,0 UV-I 476 W/m² 18,1 °C 21,7 °C 4,8 km/h (1 Bft)
08.08.2017 09:35 21,8 °C 21,8 °C 79 % 1008,0 hPa 0,0 mm 1,4 km/h (1 Bft) O-NO 66 ° 1 min 0,000 mm 3,0 UV-I 471 W/m² 18,0 °C 21,8 °C 3,2 km/h (1 Bft)
08.08.2017 09:36 21,8 °C 21,8 °C 77 % 1008,1 hPa 0,0 mm 3,7 km/h (1 Bft) O-NO 65 ° 1 min 0,000 mm 3,1 UV-I 425 W/m² 17,6 °C 21,8 °C 8,0 km/h (2 Bft)
08.08.2017 09:37 21,8 °C 21,8 °C 74 % 1008,1 hPa 0,0 mm 5,1 km/h (1 Bft) N-NO 28 ° 1 min 0,000 mm 3,1 UV-I 577 W/m² 17,0 °C 21,8 °C 8,0 km/h (2 Bft)
08.08.2017 09:38 21,8 °C 21,8 °C 72 % 1008,1 hPa 0,0 mm 4,1 km/h (1 Bft) O-NO 74 ° 1 min 0,000 mm 3,5 UV-I 585 W/m² 16,5 °C 21,8 °C 6,4 km/h (2 Bft)
08.08.2017 09:39 21,8 °C 21,8 °C 69 % 1008,0 hPa 0,0 mm 3,9 km/h (1 Bft) NO 46 ° 1 min 0,000 mm 3,5 UV-I 585 W/m² 15,9 °C 21,8 °C 4,8 km/h (1 Bft)
08.08.2017 09:40 21,9 °C 21,9 °C 69 % 1008,0 hPa 0,0 mm 5,2 km/h (1 Bft) N-NO 31 ° 1 min 0,000 mm 3,1 UV-I 554 W/m² 15,9 °C 21,9 °C 8,0 km/h (2 Bft)
08.08.2017 09:41 22,1 °C 22,1 °C 72 % 1008,0 hPa 0,0 mm 4,8 km/h (1 Bft) O 88 ° 1 min 0,000 mm 3,4 UV-I 547 W/m² 16,8 °C 22,1 °C 6,4 km/h (2 Bft)
08.08.2017 09:42 22,2 °C 22,2 °C 72 % 1007,9 hPa 0,0 mm 3,3 km/h (1 Bft) O 85 ° 1 min 0,000 mm 3,4 UV-I 548 W/m² 16,9 °C 22,2 °C 4,8 km/h (1 Bft)
08.08.2017 09:43 22,2 °C 22,3 °C 73 % 1008,0 hPa 0,0 mm 2,1 km/h (1 Bft) O 85 ° 1 min 0,000 mm 3,5 UV-I 589 W/m² 17,1 °C 22,2 °C 4,8 km/h (1 Bft)
08.08.2017 09:44 22,2 °C 22,2 °C 74 % 1008,0 hPa 0,0 mm 0,5 km/h (0 Bft) O 85 ° 1 min 0,000 mm 3,6 UV-I 575 W/m² 17,3 °C 22,2 °C 1,6 km/h (1 Bft)
08.08.2017 09:45 22,1 °C 22,2 °C 74 % 1007,9 hPa 0,0 mm 3,2 km/h (1 Bft) O-NO 61 ° 1 min 0,000 mm 3,7 UV-I 589 W/m² 17,2 °C 22,1 °C 4,8 km/h (1 Bft)
08.08.2017 09:46 22,1 °C 22,1 °C 74 % 1008,0 hPa 0,0 mm 1,3 km/h (1 Bft) O-NO 61 ° 1 min 0,000 mm 3,7 UV-I 598 W/m² 17,2 °C 22,1 °C 3,2 km/h (1 Bft)
08.08.2017 09:47 22,1 °C 22,1 °C 71 % 1008,0 hPa 0,0 mm 0,1 km/h (0 Bft) O-NO 61 ° 1 min 0,000 mm 3,7 UV-I 587 W/m² 16,6 °C 22,1 °C 1,6 km/h (1 Bft)
08.08.2017 09:48 22,2 °C 22,2 °C 73 % 1008,0 hPa 0,0 mm 0,0 km/h (0 Bft) O-NO 61 ° 1 min 0,000 mm 3,8 UV-I 612 W/m² 17,1 °C 22,2 °C 0,0 km/h (0 Bft)
08.08.2017 09:49 22,1 °C 22,2 °C 73 % 1008,0 hPa 0,0 mm 0,6 km/h (0 Bft) O-NO 61 ° 1 min 0,000 mm 3,1 UV-I 612 W/m² 17,0 °C 22,1 °C 1,6 km/h (1 Bft)
08.08.2017 09:50 22,1 °C 22,1 °C 71 % 1008,0 hPa 0,0 mm 0,0 km/h (0 Bft) O-NO 61 ° 1 min 0,000 mm 3,5 UV-I 431 W/m² 16,6 °C 22,1 °C 0,0 km/h (0 Bft)
08.08.2017 09:51 22,1 °C 22,1 °C 76 % 1008,0 hPa 0,0 mm 0,0 km/h (0 Bft) O-NO 61 ° 1 min 0,000 mm 3,9 UV-I 431 W/m² 17,7 °C 22,1 °C 0,0 km/h (0 Bft)
08.08.2017 09:52 22,0 °C 22,1 °C 74 % 1008,0 hPa 0,0 mm 0,0 km/h (0 Bft) O-NO 61 ° 1 min 0,000 mm 3,9 UV-I 635 W/m² 17,1 °C 22,0 °C 0,0 km/h (0 Bft)
08.08.2017 09:53 22,2 °C 22,2 °C 75 % 1007,9 hPa 0,0 mm 3,1 km/h (1 Bft) N 360 ° 1 min 0,000 mm 3,7 UV-I 575 W/m² 17,5 °C 22,2 °C 6,4 km/h (2 Bft)
08.08.2017 09:54 22,3 °C 22,3 °C 72 % 1008,0 hPa 0,0 mm 1,6 km/h (1 Bft) N 360 ° 1 min 0,000 mm 3,9 UV-I 652 W/m² 17,0 °C 22,3 °C 3,2 km/h (1 Bft)
08.08.2017 09:55 22,4 °C 22,4 °C 72 % 1007,9 hPa 0,0 mm 1,8 km/h (1 Bft) N 360 ° 1 min 0,000 mm 4,1 UV-I 647 W/m² 17,1 °C 22,4 °C 3,2 km/h (1 Bft)
08.08.2017 09:56 22,6 °C 22,6 °C 71 % 1008,0 hPa 0,0 mm 2,8 km/h (1 Bft) N 355 ° 1 min 0,000 mm 4,2 UV-I 652 W/m² 17,1 °C 22,6 °C 3,2 km/h (1 Bft)
08.08.2017 09:57 22,7 °C 22,7 °C 71 % 1008,0 hPa 0,0 mm 4,6 km/h (1 Bft) NO 43 ° 1 min 0,000 mm 4,2 UV-I 657 W/m² 17,2 °C 22,7 °C 6,4 km/h (2 Bft)
08.08.2017 09:58 22,7 °C 22,7 °C 69 % 1007,9 hPa 0,0 mm 3,4 km/h (1 Bft) NO 36 ° 1 min 0,000 mm 4,2 UV-I 668 W/m² 16,7 °C 22,7 °C 4,8 km/h (1 Bft)
08.08.2017 09:59 22,7 °C 22,8 °C 67 % 1007,9 hPa 0,0 mm 2,5 km/h (1 Bft) NO 36 ° 1 min 0,000 mm 4,2 UV-I 670 W/m² 16,2 °C 22,7 °C 3,2 km/h (1 Bft)
08.08.2017 10:00 22,8 °C 22,8 °C 68 % 1007,9 hPa 0,0 mm 5,3 km/h (1 Bft) N-NW 342 ° 1 min 0,000 mm 4,2 UV-I 664 W/m² 16,6 °C 22,8 °C 8,0 km/h (2 Bft)
08.08.2017 10:01 22,8 °C 22,8 °C 69 % 1008,0 hPa 0,0 mm 4,5 km/h (1 Bft) N 355 ° 1 min 0,305 mm 4,2 UV-I 663 W/m² 16,8 °C 22,8 °C 6,4 km/h (2 Bft)
08.08.2017 10:02 22,8 °C 22,8 °C 68 % 1008,0 hPa 0,0 mm 4,7 km/h (1 Bft) N 355 ° 1 min 0,000 mm 4,4 UV-I 682 W/m² 16,6 °C 22,8 °C 6,4 km/h (2 Bft)
08.08.2017 10:03 22,8 °C 22,9 °C 69 % 1008,0 hPa 0,0 mm 4,8 km/h (1 Bft) NO 44 ° 1 min 0,000 mm 4,4 UV-I 684 W/m² 16,8 °C 22,8 °C 6,4 km/h (2 Bft)
08.08.2017 10:04 22,8 °C 22,9 °C 68 % 1008,0 hPa 0,0 mm 3,0 km/h (1 Bft) NO 44 ° 1 min 0,000 mm 4,4 UV-I 694 W/m² 16,6 °C 22,8 °C 4,8 km/h (1 Bft)
08.08.2017 10:05 22,8 °C 22,8 °C 69 % 1008,0 hPa 0,0 mm 2,4 km/h (1 Bft) NO 44 ° 1 min 0,000 mm 4,4 UV-I 693 W/m² 16,8 °C 22,8 °C 4,8 km/h (1 Bft)
08.08.2017 10:06 22,8 °C 22,8 °C 72 % 1008,0 hPa 0,0 mm 2,8 km/h (1 Bft) N-NO 22 ° 1 min 0,000 mm 4,3 UV-I 691 W/m² 17,5 °C 22,8 °C 3,2 km/h (1 Bft)
08.08.2017 10:07 22,9 °C 22,9 °C 72 % 1008,0 hPa 0,0 mm 2,9 km/h (1 Bft) N-NO 16 ° 1 min 0,000 mm 2,8 UV-I 691 W/m² 17,6 °C 22,9 °C 4,8 km/h (1 Bft)
08.08.2017 10:08 23,0 °C 23,0 °C 70 % 1008,0 hPa 0,0 mm 3,6 km/h (1 Bft) N 11 ° 1 min 0,000 mm 3,8 UV-I 691 W/m² 17,2 °C 23,0 °C 4,8 km/h (1 Bft)
08.08.2017 10:09 23,1 °C 23,1 °C 69 % 1008,0 hPa 0,0 mm 1,5 km/h (1 Bft) N 11 ° 1 min 0,000 mm 3,6 UV-I 691 W/m² 17,1 °C 23,1 °C 3,2 km/h (1 Bft)
08.08.2017 10:10 22,9 °C 23,1 °C 70 % 1008,0 hPa 0,0 mm 0,3 km/h (0 Bft) NO 38 ° 1 min 0,000 mm 3,4 UV-I 691 W/m² 17,1 °C 22,9 °C 3,2 km/h (1 Bft)
08.08.2017 10:11 22,7 °C 22,9 °C 70 % 1008,0 hPa 0,0 mm 2,9 km/h (1 Bft) NO 49 ° 1 min 0,000 mm 3,4 UV-I 691 W/m² 16,9 °C 22,7 °C 3,2 km/h (1 Bft)
08.08.2017 10:12 22,6 °C 22,7 °C 68 % 1008,0 hPa 0,0 mm 1,4 km/h (1 Bft) NO 50 ° 1 min 0,000 mm 4,6 UV-I 722 W/m² 16,4 °C 22,6 °C 3,2 km/h (1 Bft)
08.08.2017 10:13 22,6 °C 22,6 °C 69 % 1008,0 hPa 0,0 mm 2,3 km/h (1 Bft) NO 51 ° 1 min 0,000 mm 4,7 UV-I 682 W/m² 16,6 °C 22,6 °C 4,8 km/h (1 Bft)
08.08.2017 10:14 22,6 °C 22,6 °C 70 % 1008,0 hPa 0,0 mm 2,9 km/h (1 Bft) NO 51 ° 1 min 0,000 mm 4,4 UV-I 670 W/m² 16,8 °C 22,6 °C 4,8 km/h (1 Bft)
08.08.2017 10:15 22,7 °C 22,7 °C 73 % 1007,9 hPa 0,0 mm 2,9 km/h (1 Bft) NO 50 ° 1 min 0,000 mm 4,6 UV-I 714 W/m² 17,6 °C 22,7 °C 4,8 km/h (1 Bft)
08.08.2017 10:16 22,7 °C 22,7 °C 72 % 1007,9 hPa 0,0 mm 2,0 km/h (1 Bft) NO 50 ° 1 min 0,000 mm 4,5 UV-I 684 W/m² 17,4 °C 22,7 °C 3,2 km/h (1 Bft)
08.08.2017 10:17 22,8 °C 22,8 °C 75 % 1007,9 hPa 0,0 mm 0,1 km/h (0 Bft) NO 50 ° 1 min 0,000 mm 4,8 UV-I 721 W/m² 18,1 °C 22,8 °C 1,6 km/h (1 Bft)
08.08.2017 10:18 22,9 °C 22,9 °C 75 % 1008,0 hPa 0,0 mm 2,3 km/h (1 Bft) NO 51 ° 1 min 0,000 mm 4,8 UV-I 745 W/m² 18,2 °C 22,9 °C 3,2 km/h (1 Bft)
08.08.2017 10:19 22,9 °C 22,9 °C 70 % 1007,9 hPa 0,0 mm 2,7 km/h (1 Bft) O-NO 59 ° 1 min 0,000 mm 4,4 UV-I 714 W/m² 17,1 °C 22,9 °C 4,8 km/h (1 Bft)
08.08.2017 10:20 23,0 °C 23,0 °C 73 % 1008,0 hPa 0,0 mm 1,3 km/h (1 Bft) N-NO 25 ° 1 min 0,000 mm 5,0 UV-I 745 W/m² 17,9 °C 23,0 °C 6,4 km/h (2 Bft)
08.08.2017 10:21 23,1 °C 23,1 °C 71 % 1007,9 hPa 0,0 mm 5,5 km/h (1 Bft) O-NO 63 ° 1 min 0,000 mm 5,0 UV-I 773 W/m² 17,5 °C 23,1 °C 8,0 km/h (2 Bft)
08.08.2017 10:22 23,3 °C 23,3 °C 69 % 1007,9 hPa 0,0 mm 3,1 km/h (1 Bft) N-NO 33 ° 1 min 0,000 mm 5,1 UV-I 782 W/m² 17,3 °C 23,3 °C 4,8 km/h (1 Bft)
08.08.2017 10:23 23,6 °C 23,6 °C 71 % 1007,9 hPa 0,0 mm 3,4 km/h (1 Bft) N 9 ° 1 min 0,000 mm 4,9 UV-I 751 W/m² 18,0 °C 23,6 °C 4,8 km/h (1 Bft)
08.08.2017 10:24 23,7 °C 23,7 °C 69 % 1008,0 hPa 0,0 mm 3,9 km/h (1 Bft) NO 37 ° 1 min 0,000 mm 4,1 UV-I 751 W/m² 17,7 °C 23,7 °C 6,4 km/h (2 Bft)
08.08.2017 10:25 23,7 °C 23,7 °C 68 % 1007,9 hPa 0,0 mm 3,7 km/h (1 Bft) NO 37 ° 1 min 0,000 mm 3,1 UV-I 751 W/m² 17,4 °C 23,7 °C 4,8 km/h (1 Bft)
08.08.2017 10:26 23,7 °C 23,7 °C 69 % 1007,9 hPa 0,0 mm 2,9 km/h (1 Bft) NO 37 ° 1 min 0,000 mm 3,2 UV-I 436 W/m² 17,7 °C 23,7 °C 4,8 km/h (1 Bft)
08.08.2017 10:27 23,7 °C 23,7 °C 69 % 1007,9 hPa 0,0 mm 4,6 km/h (1 Bft) N-NO 26 ° 1 min 0,000 mm 3,6 UV-I 432 W/m² 17,7 °C 23,7 °C 6,4 km/h (2 Bft)
08.08.2017 10:28 23,7 °C 23,8 °C 68 % 1007,9 hPa 0,0 mm 4,3 km/h (1 Bft) N-NO 20 ° 1 min 0,000 mm 5,0 UV-I 432 W/m² 17,4 °C 23,7 °C 8,0 km/h (2 Bft)
08.08.2017 10:29 23,7 °C 23,7 °C 70 % 1007,9 hPa 0,0 mm 4,3 km/h (1 Bft) N-NO 17 ° 1 min 0,000 mm 3,5 UV-I 432 W/m² 17,9 °C 23,7 °C 8,0 km/h (2 Bft)
08.08.2017 10:30 23,6 °C 23,7 °C 69 % 1008,0 hPa 0,0 mm 6,2 km/h (2 Bft) N-NO 32 ° 1 min 0,000 mm 4,8 UV-I 438 W/m² 17,6 °C 23,6 °C 8,0 km/h (2 Bft)
08.08.2017 10:31 23,6 °C 23,6 °C 69 % 1007,9 hPa 0,0 mm 4,8 km/h (1 Bft) N-NO 12 ° 1 min 0,000 mm 5,1 UV-I 810 W/m² 17,6 °C 23,6 °C 6,4 km/h (2 Bft)
08.08.2017 10:32 23,6 °C 23,6 °C 70 % 1007,9 hPa 0,0 mm 5,8 km/h (2 Bft) N-NO 13 ° 1 min 0,000 mm 3,6 UV-I 810 W/m² 17,8 °C 23,6 °C 8,0 km/h (2 Bft)
08.08.2017 10:33 23,7 °C 23,7 °C 67 % 1007,9 hPa 0,0 mm 4,6 km/h (1 Bft) N-NO 15 ° 1 min 0,000 mm 3,1 UV-I 810 W/m² 17,2 °C 23,7 °C 6,4 km/h (2 Bft)
08.08.2017 10:34 23,7 °C 23,7 °C 68 % 1007,9 hPa 0,0 mm 3,8 km/h (1 Bft) N 350 ° 1 min 0,000 mm 3,8 UV-I 810 W/m² 17,4 °C 23,7 °C 8,0 km/h (2 Bft)
08.08.2017 10:35 23,7 °C 23,7 °C 72 % 1007,9 hPa 0,0 mm 3,6 km/h (1 Bft) N-NO 15 ° 1 min 0,000 mm 5,0 UV-I 754 W/m² 18,3 °C 23,7 °C 6,4 km/h (2 Bft)
08.08.2017 10:36 23,7 °C 23,7 °C 68 % 1007,9 hPa 0,0 mm 3,4 km/h (1 Bft) N 355 ° 1 min 0,000 mm 4,5 UV-I 754 W/m² 17,4 °C 23,7 °C 8,0 km/h (2 Bft)
08.08.2017 10:37 23,7 °C 23,7 °C 68 % 1007,9 hPa 0,0 mm 3,1 km/h (1 Bft) N 360 ° 1 min 0,000 mm 4,1 UV-I 512 W/m² 17,4 °C 23,7 °C 4,8 km/h (1 Bft)
08.08.2017 10:38 23,7 °C 23,7 °C 68 % 1007,8 hPa 0,0 mm 4,0 km/h (1 Bft) O-NO 77 ° 1 min 0,000 mm 4,5 UV-I 512 W/m² 17,4 °C 23,7 °C 4,8 km/h (1 Bft)
08.08.2017 10:39 23,8 °C 23,8 °C 69 % 1007,8 hPa 0,0 mm 5,4 km/h (1 Bft) NO 40 ° 1 min 0,000 mm 5,0 UV-I 765 W/m² 17,8 °C 23,8 °C 6,4 km/h (2 Bft)
08.08.2017 10:40 23,7 °C 23,8 °C 67 % 1007,8 hPa 0,0 mm 3,6 km/h (1 Bft) O-NO 58 ° 1 min 0,000 mm 4,8 UV-I 740 W/m² 17,2 °C 23,7 °C 4,8 km/h (1 Bft)
08.08.2017 10:41 23,7 °C 23,7 °C 68 % 1007,7 hPa 0,0 mm 4,2 km/h (1 Bft) NO 56 ° 1 min 0,000 mm 4,5 UV-I 740 W/m² 17,4 °C 23,7 °C 6,4 km/h (2 Bft)
08.08.2017 10:42 23,6 °C 23,7 °C 67 % 1007,7 hPa 0,0 mm 6,4 km/h (2 Bft) O-NO 58 ° 1 min 0,000 mm 5,0 UV-I 715 W/m² 17,1 °C 23,6 °C 9,7 km/h (2 Bft)
08.08.2017 10:43 23,6 °C 23,6 °C 66 % 1007,8 hPa 0,0 mm 4,4 km/h (1 Bft) O-NO 66 ° 1 min 0,000 mm 5,2 UV-I 621 W/m² 16,9 °C 23,6 °C 6,4 km/h (2 Bft)
08.08.2017 10:44 23,6 °C 23,7 °C 67 % 1007,7 hPa 0,0 mm 5,5 km/h (1 Bft) NO 37 ° 1 min 0,000 mm 4,6 UV-I 621 W/m² 17,1 °C 23,6 °C 8,0 km/h (2 Bft)
08.08.2017 10:45 23,7 °C 23,7 °C 66 % 1007,7 hPa 0,0 mm 5,0 km/h (1 Bft) O-NO 63 ° 1 min 0,000 mm 3,1 UV-I 621 W/m² 17,0 °C 23,7 °C 6,4 km/h (2 Bft)
08.08.2017 10:46 23,6 °C 23,7 °C 67 % 1007,6 hPa 0,0 mm 3,2 km/h (1 Bft) NO 38 ° 1 min 0,000 mm 3,1 UV-I 311 W/m² 17,1 °C 23,6 °C 6,4 km/h (2 Bft)
08.08.2017 10:47 23,6 °C 23,6 °C 65 % 1007,7 hPa 0,0 mm 3,8 km/h (1 Bft) O-NO 66 ° 1 min 0,000 mm 4,0 UV-I 311 W/m² 16,6 °C 23,6 °C 6,4 km/h (2 Bft)
08.08.2017 10:48 23,6 °C 23,6 °C 67 % 1007,7 hPa 0,0 mm 2,8 km/h (1 Bft) NO 49 ° 1 min 0,000 mm 5,5 UV-I 311 W/m² 17,1 °C 23,6 °C 6,4 km/h (2 Bft)
08.08.2017 10:49 23,7 °C 23,7 °C 66 % 1007,7 hPa 0,0 mm 3,0 km/h (1 Bft) O-NO 67 ° 1 min 0,000 mm 5,5 UV-I 817 W/m² 17,0 °C 23,7 °C 6,4 km/h (2 Bft)
08.08.2017 10:50 23,8 °C 23,8 °C 68 % 1007,7 hPa 0,0 mm 3,8 km/h (1 Bft) NO 50 ° 1 min 0,000 mm 5,1 UV-I 728 W/m² 17,5 °C 23,8 °C 8,0 km/h (2 Bft)
08.08.2017 10:51 23,9 °C 23,9 °C 65 % 1007,6 hPa 0,0 mm 7,4 km/h (2 Bft) NO 44 ° 1 min 0,000 mm 5,3 UV-I 754 W/m² 16,9 °C 23,9 °C 11,3 km/h (2 Bft)
08.08.2017 10:52 24,1 °C 24,1 °C 66 % 1007,6 hPa 0,0 mm 5,6 km/h (1 Bft) O-NO 68 ° 1 min 0,000 mm 5,4 UV-I 788 W/m² 17,3 °C 24,1 °C 8,0 km/h (2 Bft)
08.08.2017 10:53 24,2 °C 24,2 °C 65 % 1007,6 hPa 0,0 mm 5,8 km/h (2 Bft) NO 40 ° 1 min 0,000 mm 5,5 UV-I 810 W/m² 17,2 °C 24,2 °C 9,7 km/h (2 Bft)
08.08.2017 10:54 24,2 °C 24,2 °C 63 % 1007,5 hPa 0,0 mm 6,8 km/h (2 Bft) N-NO 28 ° 1 min 0,000 mm 5,3 UV-I 786 W/m² 16,7 °C 24,2 °C 9,7 km/h (2 Bft)
08.08.2017 10:55 24,2 °C 24,2 °C 62 % 1007,5 hPa 0,0 mm 5,2 km/h (1 Bft) NO 45 ° 1 min 0,000 mm 5,5 UV-I 772 W/m² 16,4 °C 24,2 °C 6,4 km/h (2 Bft)
08.08.2017 10:56 24,2 °C 24,2 °C 64 % 1007,5 hPa 0,0 mm 4,2 km/h (1 Bft) NO 37 ° 1 min 0,000 mm 5,4 UV-I 793 W/m² 16,9 °C 24,2 °C 8,0 km/h (2 Bft)
08.08.2017 10:57 24,3 °C 24,3 °C 63 % 1007,5 hPa 0,0 mm 9,0 km/h (2 Bft) NO 51 ° 1 min 0,000 mm 5,3 UV-I 791 W/m² 16,8 °C 24,3 °C 14,5 km/h (3 Bft)
08.08.2017 10:58 24,2 °C 24,3 °C 63 % 1007,5 hPa 0,0 mm 6,6 km/h (2 Bft) NO 44 ° 1 min 0,000 mm 5,6 UV-I 830 W/m² 16,7 °C 24,2 °C 11,3 km/h (2 Bft)
08.08.2017 10:59 24,3 °C 24,3 °C 64 % 1007,5 hPa 0,0 mm 5,4 km/h (1 Bft) O-NO 63 ° 1 min 0,000 mm 5,5 UV-I 826 W/m² 17,0 °C 24,3 °C 6,4 km/h (2 Bft)
08.08.2017 11:00 24,2 °C 24,3 °C 64 % 1007,5 hPa 0,0 mm 4,3 km/h (1 Bft) N-NW 331 ° 1 min 0,000 mm 3,6 UV-I 826 W/m² 16,9 °C 24,2 °C 6,4 km/h (2 Bft)
08.08.2017 11:01 24,2 °C 24,2 °C 68 % 1007,4 hPa 0,0 mm 6,1 km/h (2 Bft) NO 42 ° 1 min 0,406 mm 2,8 UV-I 826 W/m² 17,9 °C 24,2 °C 8,0 km/h (2 Bft)
08.08.2017 11:02 24,2 °C 24,3 °C 66 % 1007,5 hPa 0,0 mm 3,6 km/h (1 Bft) NO 46 ° 0 min 0,000 mm 3,0 UV-I 274 W/m² 17,4 °C 24,2 °C 8,0 km/h (2 Bft)
08.08.2017 11:03 24,2 °C 24,2 °C 64 % 1007,5 hPa 0,0 mm 7,3 km/h (2 Bft) O-NO 63 ° 1 min 0,000 mm 2,9 UV-I 322 W/m² 16,9 °C 24,2 °C 11,3 km/h (2 Bft)
08.08.2017 11:04 24,1 °C 24,2 °C 64 % 1007,4 hPa 0,0 mm 3,0 km/h (1 Bft) O-NO 59 ° 1 min 0,000 mm 3,4 UV-I 322 W/m² 16,9 °C 24,1 °C 6,4 km/h (2 Bft)
08.08.2017 11:05 24,1 °C 24,1 °C 64 % 1007,5 hPa 0,0 mm 5,7 km/h (1 Bft) O-NO 74 ° 0 min 0,000 mm 3,1 UV-I 216 W/m² 16,9 °C 24,1 °C 11,3 km/h (2 Bft)
08.08.2017 11:06 23,9 °C 24,1 °C 68 % 1007,5 hPa 0,0 mm 4,8 km/h (1 Bft) NO 36 ° 0 min 0,000 mm 3,1 UV-I 216 W/m² 17,6 °C 23,9 °C 8,0 km/h (2 Bft)
08.08.2017 11:07 23,7 °C 23,9 °C 69 % 1007,5 hPa 0,0 mm 4,2 km/h (1 Bft) O-NO 65 ° 1 min 0,000 mm 3,1 UV-I 294 W/m² 17,7 °C 23,7 °C 6,4 km/h (2 Bft)
08.08.2017 11:08 23,4 °C 23,7 °C 72 % 1007,5 hPa 0,0 mm 2,6 km/h (1 Bft) O 81 ° 1 min 0,000 mm 4,2 UV-I 294 W/m² 18,1 °C 23,4 °C 3,2 km/h (1 Bft)
08.08.2017 11:09 23,3 °C 23,4 °C 72 % 1007,5 hPa 0,0 mm 3,1 km/h (1 Bft) O 86 ° 1 min 0,000 mm 4,2 UV-I 492 W/m² 18,0 °C 23,3 °C 8,0 km/h (2 Bft)
08.08.2017 11:10 23,4 °C 23,4 °C 71 % 1007,5 hPa 0,0 mm 4,5 km/h (1 Bft) NO 46 ° 1 min 0,000 mm 5,3 UV-I 492 W/m² 17,8 °C 23,4 °C 6,4 km/h (2 Bft)
08.08.2017 11:11 23,6 °C 23,6 °C 67 % 1007,6 hPa 0,0 mm 3,3 km/h (1 Bft) O-NO 67 ° 1 min 0,000 mm 2,9 UV-I 492 W/m² 17,1 °C 23,6 °C 4,8 km/h (1 Bft)
08.08.2017 11:12 23,6 °C 23,6 °C 65 % 1007,5 hPa 0,0 mm 1,1 km/h (1 Bft) O-NO 63 ° 0 min 0,000 mm 2,7 UV-I 220 W/m² 16,6 °C 23,6 °C 3,2 km/h (1 Bft)
08.08.2017 11:13 23,6 °C 23,6 °C 66 % 1007,5 hPa 0,0 mm 1,0 km/h (0 Bft) O-NO 76 ° 0 min 0,000 mm 3,6 UV-I 220 W/m² 16,9 °C 23,6 °C 3,2 km/h (1 Bft)
08.08.2017 11:14 23,6 °C 23,6 °C 69 % 1007,6 hPa 0,0 mm 1,9 km/h (1 Bft) O-NO 76 ° 1 min 0,000 mm 3,3 UV-I 352 W/m² 17,6 °C 23,6 °C 4,8 km/h (1 Bft)
08.08.2017 11:15 23,5 °C 23,6 °C 67 % 1007,6 hPa 0,0 mm 0,4 km/h (0 Bft) O-NO 58 ° 1 min 0,000 mm 4,1 UV-I 376 W/m² 17,0 °C 23,5 °C 1,6 km/h (1 Bft)
08.08.2017 11:16 23,5 °C 23,5 °C 69 % 1007,5 hPa 0,0 mm 0,5 km/h (0 Bft) O-NO 58 ° 1 min 0,000 mm 4,6 UV-I 376 W/m² 17,5 °C 23,5 °C 1,6 km/h (1 Bft)
08.08.2017 11:17 23,6 °C 23,6 °C 69 % 1007,5 hPa 0,0 mm 0,0 km/h (0 Bft) O-NO 58 ° 1 min 0,000 mm 5,5 UV-I 671 W/m² 17,6 °C 23,6 °C 0,0 km/h (0 Bft)
08.08.2017 11:18 23,6 °C 23,6 °C 74 % 1007,5 hPa 0,0 mm 0,5 km/h (0 Bft) O-NO 58 ° 1 min 0,000 mm 5,8 UV-I 671 W/m² 18,7 °C 23,6 °C 1,6 km/h (1 Bft)
08.08.2017 11:19 23,6 °C 23,6 °C 69 % 1007,6 hPa 0,0 mm 5,1 km/h (1 Bft) O 81 ° 1 min 0,000 mm 3,6 UV-I 671 W/m² 17,6 °C 23,6 °C 8,0 km/h (2 Bft)
08.08.2017 11:20 23,6 °C 23,6 °C 67 % 1007,6 hPa 0,0 mm 4,0 km/h (1 Bft) N 355 ° 1 min 0,000 mm 3,7 UV-I 671 W/m² 17,1 °C 23,6 °C 4,8 km/h (1 Bft)
08.08.2017 11:21 23,7 °C 23,7 °C 69 % 1007,6 hPa 0,0 mm 3,6 km/h (1 Bft) O 89 ° 1 min 0,000 mm 3,1 UV-I 350 W/m² 17,7 °C 23,7 °C 6,4 km/h (2 Bft)
08.08.2017 11:22 23,7 °C 23,7 °C 67 % 1007,6 hPa 0,0 mm 3,9 km/h (1 Bft) NO 39 ° 0 min 0,000 mm 2,9 UV-I 285 W/m² 17,2 °C 23,7 °C 6,4 km/h (2 Bft)
08.08.2017 11:23 23,8 °C 23,8 °C 65 % 1007,6 hPa 0,0 mm 7,0 km/h (2 Bft) NO 42 ° 0 min 0,000 mm 4,3 UV-I 285 W/m² 16,8 °C 23,8 °C 8,0 km/h (2 Bft)
08.08.2017 11:24 23,9 °C 23,9 °C 65 % 1007,5 hPa 0,0 mm 4,7 km/h (1 Bft) NO 53 ° 1 min 0,000 mm 4,1 UV-I 424 W/m² 16,9 °C 23,9 °C 8,0 km/h (2 Bft)
08.08.2017 11:25 23,7 °C 23,9 °C 71 % 1007,6 hPa 0,0 mm 0,7 km/h (0 Bft) NO 53 ° 1 min 0,000 mm 5,3 UV-I 424 W/m² 18,1 °C 23,7 °C 1,6 km/h (1 Bft)
08.08.2017 11:26 23,7 °C 23,7 °C 75 % 1007,6 hPa 0,0 mm 3,2 km/h (1 Bft) O 82 ° 1 min 0,000 mm 5,8 UV-I 424 W/m² 19,0 °C 23,7 °C 6,4 km/h (2 Bft)
08.08.2017 11:27 23,7 °C 23,7 °C 71 % 1007,6 hPa 0,0 mm 4,4 km/h (1 Bft) O-NO 57 ° 1 min 0,000 mm 5,5 UV-I 424 W/m² 18,1 °C 23,7 °C 8,0 km/h (2 Bft)
08.08.2017 11:28 23,8 °C 23,8 °C 68 % 1007,6 hPa 0,0 mm 6,2 km/h (2 Bft) NO 41 ° 1 min 0,000 mm 5,3 UV-I 673 W/m² 17,5 °C 23,8 °C 8,0 km/h (2 Bft)
08.08.2017 11:29 24,0 °C 24,0 °C 66 % 1007,6 hPa 0,0 mm 4,8 km/h (1 Bft) NO 51 ° 1 min 0,000 mm 5,9 UV-I 784 W/m² 17,2 °C 24,0 °C 6,4 km/h (2 Bft)
08.08.2017 11:30 24,2 °C 24,2 °C 66 % 1007,6 hPa 0,0 mm 2,6 km/h (1 Bft) NO 50 ° 1 min 0,000 mm 5,9 UV-I 777 W/m² 17,4 °C 24,2 °C 4,8 km/h (1 Bft)
08.08.2017 11:31 24,3 °C 24,3 °C 65 % 1007,7 hPa 0,0 mm 3,2 km/h (1 Bft) N 9 ° 1 min 0,000 mm 5,9 UV-I 777 W/m² 17,3 °C 24,3 °C 4,8 km/h (1 Bft)
08.08.2017 11:32 24,4 °C 24,4 °C 69 % 1007,6 hPa 0,0 mm 1,9 km/h (1 Bft) N 9 ° 1 min 0,000 mm 5,9 UV-I 779 W/m² 18,3 °C 24,4 °C 4,8 km/h (1 Bft)
08.08.2017 11:33 24,6 °C 24,6 °C 68 % 1007,6 hPa 0,0 mm 0,5 km/h (0 Bft) O-NO 63 ° 1 min 0,000 mm 5,9 UV-I 779 W/m² 18,3 °C 24,6 °C 4,8 km/h (1 Bft)
08.08.2017 11:34 24,5 °C 24,6 °C 67 % 1007,6 hPa 0,0 mm 5,9 km/h (2 Bft) O-NO 60 ° 1 min 0,000 mm 5,9 UV-I 779 W/m² 18,0 °C 24,5 °C 8,0 km/h (2 Bft)
08.08.2017 11:35 24,6 °C 24,6 °C 64 % 1007,7 hPa 0,0 mm 4,2 km/h (1 Bft) O 85 ° 1 min 0,000 mm 6,0 UV-I 780 W/m² 17,3 °C 24,6 °C 8,0 km/h (2 Bft)
08.08.2017 11:36 24,5 °C 24,6 °C 63 % 1007,7 hPa 0,0 mm 5,6 km/h (1 Bft) N-NO 26 ° 1 min 0,000 mm 6,0 UV-I 782 W/m² 17,0 °C 24,5 °C 8,0 km/h (2 Bft)
08.08.2017 11:37 24,5 °C 24,5 °C 65 % 1007,7 hPa 0,0 mm 3,0 km/h (1 Bft) O-NO 61 ° 1 min 0,000 mm 6,0 UV-I 784 W/m² 17,5 °C 24,5 °C 4,8 km/h (1 Bft)
08.08.2017 11:38 24,6 °C 24,6 °C 65 % 1007,7 hPa 0,0 mm 3,8 km/h (1 Bft) N-NO 27 ° 1 min 0,000 mm 6,0 UV-I 786 W/m² 17,6 °C 24,6 °C 6,4 km/h (2 Bft)
08.08.2017 11:39 24,7 °C 24,7 °C 66 % 1007,6 hPa 0,0 mm 4,9 km/h (1 Bft) NO 40 ° 1 min 0,000 mm 6,0 UV-I 788 W/m² 17,9 °C 24,7 °C 6,4 km/h (2 Bft)
08.08.2017 11:40 24,8 °C 24,8 °C 67 % 1007,6 hPa 0,0 mm 4,6 km/h (1 Bft) N-NO 24 ° 1 min 0,000 mm 6,0 UV-I 789 W/m² 18,2 °C 24,8 °C 6,4 km/h (2 Bft)
08.08.2017 11:41 24,8 °C 24,8 °C 65 % 1007,6 hPa 0,0 mm 4,2 km/h (1 Bft) O-NO 64 ° 1 min 0,000 mm 6,1 UV-I 796 W/m² 17,8 °C 24,8 °C 6,4 km/h (2 Bft)
08.08.2017 11:42 24,9 °C 24,9 °C 65 % 1007,6 hPa 0,0 mm 2,0 km/h (1 Bft) O-NO 63 ° 1 min 0,000 mm 6,2 UV-I 800 W/m² 17,9 °C 24,9 °C 4,8 km/h (1 Bft)
08.08.2017 11:44 24,8 °C 24,9 °C 64 % 1007,6 hPa 0,0 mm 2,9 km/h (1 Bft) N 5 ° 2 min 0,000 mm 6,2 UV-I 788 W/m² 17,5 °C 24,8 °C 6,4 km/h (2 Bft)
08.08.2017 11:45 24,9 °C 24,9 °C 65 % 1007,6 hPa 0,0 mm 5,3 km/h (1 Bft) N 350 ° 1 min 0,000 mm 6,1 UV-I 788 W/m² 17,9 °C 24,9 °C 8,0 km/h (2 Bft)
08.08.2017 11:46 25,1 °C 25,1 °C 65 % 1007,6 hPa 0,0 mm 3,9 km/h (1 Bft) O-NO 61 ° 1 min 0,000 mm 6,2 UV-I 819 W/m² 18,0 °C 25,1 °C 8,0 km/h (2 Bft)
08.08.2017 11:47 25,1 °C 25,1 °C 62 % 1007,6 hPa 0,0 mm 5,4 km/h (1 Bft) N-NO 20 ° 1 min 0,000 mm 6,3 UV-I 821 W/m² 17,3 °C 25,1 °C 6,4 km/h (2 Bft)
08.08.2017 11:48 25,1 °C 25,1 °C 64 % 1007,6 hPa 0,0 mm 3,8 km/h (1 Bft) NO 37 ° 1 min 0,000 mm 6,2 UV-I 802 W/m² 17,8 °C 25,1 °C 6,4 km/h (2 Bft)
08.08.2017 11:49 25,0 °C 25,1 °C 61 % 1007,6 hPa 0,0 mm 0,1 km/h (0 Bft) NO 37 ° 1 min 0,000 mm 6,1 UV-I 761 W/m² 16,9 °C 25,0 °C 1,6 km/h (1 Bft)
08.08.2017 11:50 25,1 °C 25,1 °C 67 % 1007,6 hPa 0,0 mm 1,2 km/h (1 Bft) N-NO 17 ° 1 min 0,000 mm 6,2 UV-I 796 W/m² 18,5 °C 25,1 °C 3,2 km/h (1 Bft)
08.08.2017 11:51 25,1 °C 25,1 °C 66 % 1007,7 hPa 0,0 mm 1,0 km/h (0 Bft) N-NO 17 ° 1 min 0,000 mm 6,3 UV-I 795 W/m² 18,3 °C 25,1 °C 1,6 km/h (1 Bft)
08.08.2017 11:52 25,2 °C 25,2 °C 69 % 1007,8 hPa 0,0 mm 0,3 km/h (0 Bft) N-NO 17 ° 1 min 0,000 mm 6,3 UV-I 805 W/m² 19,1 °C 25,2 °C 3,2 km/h (1 Bft)
08.08.2017 11:53 25,4 °C 25,4 °C 66 % 1007,7 hPa 0,0 mm 2,1 km/h (1 Bft) N-NO 17 ° 1 min 0,000 mm 6,4 UV-I 816 W/m² 18,6 °C 25,4 °C 3,2 km/h (1 Bft)
08.08.2017 11:54 25,4 °C 25,4 °C 65 % 1007,7 hPa 0,0 mm 1,6 km/h (1 Bft) O-NO 68 ° 1 min 0,000 mm 6,2 UV-I 798 W/m² 18,3 °C 25,4 °C 3,2 km/h (1 Bft)
08.08.2017 11:55 25,4 °C 25,4 °C 62 % 1007,8 hPa 0,0 mm 2,7 km/h (1 Bft) O-NO 59 ° 1 min 0,000 mm 6,4 UV-I 793 W/m² 17,6 °C 25,4 °C 4,8 km/h (1 Bft)
08.08.2017 11:56 25,3 °C 25,4 °C 62 % 1007,8 hPa 0,0 mm 4,3 km/h (1 Bft) NO 56 ° 1 min 0,000 mm 6,4 UV-I 846 W/m² 17,5 °C 25,3 °C 4,8 km/h (1 Bft)
08.08.2017 11:57 25,4 °C 25,4 °C 68 % 1007,7 hPa 0,0 mm 4,6 km/h (1 Bft) O 86 ° 1 min 0,000 mm 6,5 UV-I 773 W/m² 19,1 °C 25,4 °C 6,4 km/h (2 Bft)
08.08.2017 11:58 25,3 °C 25,4 °C 61 % 1007,7 hPa 0,0 mm 2,4 km/h (1 Bft) O 87 ° 1 min 0,000 mm 6,5 UV-I 830 W/m² 17,2 °C 25,3 °C 3,2 km/h (1 Bft)
08.08.2017 11:59 25,3 °C 25,4 °C 61 % 1007,7 hPa 0,0 mm 1,9 km/h (1 Bft) NO 48 ° 1 min 0,000 mm 3,9 UV-I 830 W/m² 17,2 °C 25,3 °C 4,8 km/h (1 Bft)
08.08.2017 12:00 25,2 °C 25,3 °C 61 % 1007,8 hPa 0,0 mm 2,3 km/h (1 Bft) N-NO 14 ° 1 min 0,000 mm 5,8 UV-I 385 W/m² 17,1 °C 25,2 °C 4,8 km/h (1 Bft)
08.08.2017 12:01 25,3 °C 25,3 °C 62 % 1007,8 hPa 0,0 mm 3,6 km/h (1 Bft) N-NW 348 ° 1 min 0,407 mm 3,9 UV-I 343 W/m² 17,5 °C 25,3 °C 4,8 km/h (1 Bft)
08.08.2017 12:02 25,3 °C 25,3 °C 64 % 1007,7 hPa 0,0 mm 3,2 km/h (1 Bft) N-NW 344 ° 1 min 0,000 mm 3,7 UV-I 323 W/m² 18,0 °C 25,3 °C 4,8 km/h (1 Bft)
08.08.2017 12:03 25,2 °C 25,3 °C 63 % 1007,8 hPa 0,0 mm 3,6 km/h (1 Bft) N-NW 338 ° 1 min 0,000 mm 3,8 UV-I 362 W/m² 17,6 °C 25,2 °C 6,4 km/h (2 Bft)
08.08.2017 12:04 25,1 °C 25,2 °C 63 % 1007,7 hPa 0,0 mm 4,2 km/h (1 Bft) N-NW 329 ° 1 min 0,000 mm 5,1 UV-I 445 W/m² 17,5 °C 25,1 °C 4,8 km/h (1 Bft)
08.08.2017 12:05 25,1 °C 25,1 °C 64 % 1007,7 hPa 0,0 mm 3,9 km/h (1 Bft) NW 325 ° 1 min 0,000 mm 6,8 UV-I 536 W/m² 17,8 °C 25,1 °C 4,8 km/h (1 Bft)
08.08.2017 12:06 25,1 °C 25,1 °C 64 % 1007,8 hPa 0,0 mm 4,2 km/h (1 Bft) W-NW 298 ° 1 min 0,000 mm 6,4 UV-I 524 W/m² 17,8 °C 25,1 °C 6,4 km/h (2 Bft)
08.08.2017 12:07 25,1 °C 25,1 °C 63 % 1007,8 hPa 0,0 mm 8,3 km/h (2 Bft) W-NW 282 ° 1 min 0,000 mm 6,4 UV-I 524 W/m² 17,5 °C 25,1 °C 12,9 km/h (3 Bft)
08.08.2017 12:08 25,1 °C 25,1 °C 64 % 1007,8 hPa 0,0 mm 5,8 km/h (2 Bft) W 275 ° 1 min 0,000 mm 3,9 UV-I 524 W/m² 17,8 °C 25,1 °C 9,7 km/h (2 Bft)
08.08.2017 12:09 25,0 °C 25,1 °C 65 % 1007,8 hPa 0,0 mm 5,6 km/h (1 Bft) NW 319 ° 1 min 0,000 mm 3,7 UV-I 403 W/m² 17,9 °C 25,0 °C 6,4 km/h (2 Bft)
08.08.2017 12:10 25,0 °C 25,0 °C 63 % 1007,8 hPa 0,0 mm 5,0 km/h (1 Bft) W-NW 302 ° 1 min 0,000 mm 4,8 UV-I 403 W/m² 17,5 °C 25,0 °C 6,4 km/h (2 Bft)
08.08.2017 12:11 25,1 °C 25,1 °C 65 % 1007,8 hPa 0,0 mm 4,5 km/h (1 Bft) NW 321 ° 1 min 0,000 mm 4,3 UV-I 531 W/m² 18,0 °C 25,1 °C 6,4 km/h (2 Bft)
08.08.2017 12:12 25,1 °C 25,1 °C 68 % 1007,7 hPa 0,0 mm 3,6 km/h (1 Bft) NW 315 ° 1 min 0,000 mm 4,2 UV-I 492 W/m² 18,8 °C 25,1 °C 6,4 km/h (2 Bft)
08.08.2017 12:13 25,1 °C 25,1 °C 67 % 1007,7 hPa 0,0 mm 5,9 km/h (2 Bft) W 281 ° 1 min 0,000 mm 3,9 UV-I 399 W/m² 18,5 °C 25,1 °C 9,7 km/h (2 Bft)
08.08.2017 12:14 25,1 °C 25,1 °C 66 % 1007,7 hPa 0,0 mm 4,5 km/h (1 Bft) NW 313 ° 1 min 0,000 mm 3,9 UV-I 413 W/m² 18,3 °C 25,1 °C 8,0 km/h (2 Bft)
08.08.2017 12:15 25,1 °C 25,1 °C 64 % 1007,7 hPa 0,0 mm 4,8 km/h (1 Bft) NW 307 ° 1 min 0,000 mm 3,6 UV-I 359 W/m² 17,8 °C 25,1 °C 8,0 km/h (2 Bft)
08.08.2017 12:16 25,0 °C 25,1 °C 65 % 1007,8 hPa 0,0 mm 4,3 km/h (1 Bft) W-NW 302 ° 1 min 0,000 mm 3,9 UV-I 410 W/m² 17,9 °C 25,0 °C 6,4 km/h (2 Bft)
08.08.2017 12:17 24,9 °C 25,0 °C 66 % 1007,8 hPa 0,0 mm 5,1 km/h (1 Bft) N-NW 328 ° 1 min 0,000 mm 3,6 UV-I 367 W/m² 18,1 °C 24,9 °C 8,0 km/h (2 Bft)
08.08.2017 12:18 24,9 °C 24,9 °C 63 % 1007,8 hPa 0,0 mm 1,9 km/h (1 Bft) N-NW 327 ° 1 min 0,000 mm 4,0 UV-I 383 W/m² 17,4 °C 24,9 °C 3,2 km/h (1 Bft)
08.08.2017 12:19 24,9 °C 24,9 °C 63 % 1007,8 hPa 0,0 mm 1,3 km/h (1 Bft) N-NW 327 ° 1 min 0,000 mm 4,1 UV-I 483 W/m² 17,4 °C 24,9 °C 4,8 km/h (1 Bft)
08.08.2017 12:20 24,9 °C 24,9 °C 67 % 1007,8 hPa 0,0 mm 4,7 km/h (1 Bft) NW 316 ° 1 min 0,000 mm 4,1 UV-I 399 W/m² 18,3 °C 24,9 °C 8,0 km/h (2 Bft)
08.08.2017 12:21 24,9 °C 24,9 °C 68 % 1007,8 hPa 0,0 mm 6,0 km/h (2 Bft) NW 321 ° 1 min 0,000 mm 4,0 UV-I 455 W/m² 18,6 °C 24,9 °C 8,0 km/h (2 Bft)
08.08.2017 12:22 24,8 °C 24,9 °C 70 % 1007,8 hPa 0,0 mm 6,0 km/h (2 Bft) W-NW 302 ° 1 min 0,000 mm 5,0 UV-I 550 W/m² 18,9 °C 24,8 °C 8,0 km/h (2 Bft)
08.08.2017 12:23 24,8 °C 24,9 °C 71 % 1007,8 hPa 0,0 mm 5,6 km/h (1 Bft) N-NW 335 ° 1 min 0,000 mm 4,8 UV-I 531 W/m² 19,2 °C 24,8 °C 9,7 km/h (2 Bft)
08.08.2017 12:24 24,9 °C 24,9 °C 72 % 1007,8 hPa 0,0 mm 4,6 km/h (1 Bft) NW 325 ° 1 min 0,000 mm 4,8 UV-I 504 W/m² 19,5 °C 24,9 °C 6,4 km/h (2 Bft)
08.08.2017 12:25 24,9 °C 24,9 °C 74 % 1007,8 hPa 0,0 mm 6,4 km/h (2 Bft) W-NW 300 ° 1 min 0,000 mm 5,6 UV-I 589 W/m² 19,9 °C 24,9 °C 8,0 km/h (2 Bft)
08.08.2017 12:26 25,0 °C 25,0 °C 72 % 1007,8 hPa 0,0 mm 5,2 km/h (1 Bft) W 278 ° 1 min 0,000 mm 6,3 UV-I 589 W/m² 19,6 °C 25,0 °C 11,3 km/h (2 Bft)
08.08.2017 12:27 25,1 °C 25,1 °C 68 % 1007,8 hPa 0,0 mm 6,1 km/h (2 Bft) W-NW 294 ° 1 min 0,000 mm 6,6 UV-I 842 W/m² 18,8 °C 25,1 °C 11,3 km/h (2 Bft)
08.08.2017 12:28 25,2 °C 25,2 °C 71 % 1007,9 hPa 0,0 mm 6,6 km/h (2 Bft) NW 319 ° 1 min 0,000 mm 6,4 UV-I 775 W/m² 19,6 °C 25,2 °C 8,0 km/h (2 Bft)
08.08.2017 12:29 25,2 °C 25,2 °C 68 % 1007,9 hPa 0,0 mm 6,9 km/h (2 Bft) W 273 ° 1 min 0,000 mm 6,4 UV-I 773 W/m² 18,9 °C 25,2 °C 11,3 km/h (2 Bft)
08.08.2017 12:30 25,2 °C 25,2 °C 67 % 1007,9 hPa 0,0 mm 8,8 km/h (2 Bft) NW 306 ° 1 min 0,000 mm 6,4 UV-I 798 W/m² 18,6 °C 25,2 °C 16,1 km/h (3 Bft)
08.08.2017 12:31 25,3 °C 25,3 °C 66 % 1008,0 hPa 0,0 mm 11,0 km/h (2 Bft) NW 315 ° 1 min 0,000 mm 6,4 UV-I 800 W/m² 18,5 °C 25,3 °C 16,1 km/h (3 Bft)
08.08.2017 12:32 25,3 °C 25,3 °C 65 % 1007,9 hPa 0,0 mm 11,8 km/h (2 Bft) NW 319 ° 1 min 0,000 mm 6,3 UV-I 744 W/m² 18,2 °C 25,3 °C 16,1 km/h (3 Bft)
08.08.2017 12:33 25,3 °C 25,3 °C 67 % 1008,0 hPa 0,0 mm 7,0 km/h (2 Bft) NW 317 ° 1 min 0,000 mm 6,2 UV-I 789 W/m² 18,7 °C 25,3 °C 11,3 km/h (2 Bft)
08.08.2017 12:34 25,3 °C 25,3 °C 66 % 1008,0 hPa 0,0 mm 8,1 km/h (2 Bft) W 281 ° 1 min 0,000 mm 6,4 UV-I 775 W/m² 18,5 °C 25,3 °C 12,9 km/h (3 Bft)
08.08.2017 12:35 25,3 °C 25,3 °C 66 % 1007,9 hPa 0,0 mm 5,9 km/h (2 Bft) N-NW 342 ° 1 min 0,000 mm 6,4 UV-I 770 W/m² 18,5 °C 25,3 °C 9,7 km/h (2 Bft)
08.08.2017 12:36 25,3 °C 25,3 °C 67 % 1007,9 hPa 0,0 mm 4,4 km/h (1 Bft) W-NW 284 ° 1 min 0,000 mm 5,8 UV-I 770 W/m² 18,7 °C 25,3 °C 9,7 km/h (2 Bft)
08.08.2017 12:37 25,4 °C 25,4 °C 65 % 1007,9 hPa 0,0 mm 2,2 km/h (1 Bft) NW 325 ° 1 min 0,000 mm 5,6 UV-I 650 W/m² 18,3 °C 25,4 °C 4,8 km/h (1 Bft)
08.08.2017 12:38 25,4 °C 25,4 °C 69 % 1007,9 hPa 0,0 mm 7,5 km/h (2 Bft) W 270 ° 1 min 0,000 mm 5,4 UV-I 656 W/m² 19,3 °C 25,4 °C 16,1 km/h (3 Bft)
08.08.2017 12:39 25,4 °C 25,4 °C 65 % 1007,9 hPa 0,0 mm 7,8 km/h (2 Bft) W 276 ° 1 min 0,000 mm 5,4 UV-I 696 W/m² 18,3 °C 25,4 °C 14,5 km/h (3 Bft)
08.08.2017 12:40 25,3 °C 25,4 °C 63 % 1007,9 hPa 0,0 mm 5,6 km/h (1 Bft) W 261 ° 1 min 0,000 mm 5,9 UV-I 737 W/m² 17,7 °C 25,3 °C 9,7 km/h (2 Bft)
08.08.2017 12:41 25,3 °C 25,3 °C 64 % 1007,9 hPa 0,0 mm 7,4 km/h (2 Bft) W 281 ° 1 min 0,000 mm 4,8 UV-I 659 W/m² 18,0 °C 25,3 °C 11,3 km/h (2 Bft)
08.08.2017 12:42 25,2 °C 25,3 °C 64 % 1008,0 hPa 0,0 mm 9,2 km/h (2 Bft) W-SW 250 ° 1 min 0,000 mm 5,8 UV-I 701 W/m² 17,9 °C 25,2 °C 16,1 km/h (3 Bft)
08.08.2017 12:43 25,2 °C 25,3 °C 64 % 1008,0 hPa 0,0 mm 12,4 km/h (3 Bft) W 271 ° 1 min 0,000 mm 6,0 UV-I 714 W/m² 17,9 °C 25,2 °C 17,7 km/h (3 Bft)
08.08.2017 12:44 25,2 °C 25,2 °C 66 % 1008,0 hPa 0,0 mm 13,5 km/h (3 Bft) W 268 ° 1 min 0,000 mm 6,0 UV-I 729 W/m² 18,4 °C 25,2 °C 19,3 km/h (3 Bft)
08.08.2017 12:45 25,1 °C 25,2 °C 69 % 1008,0 hPa 0,0 mm 12,3 km/h (3 Bft) W 265 ° 1 min 0,000 mm 6,0 UV-I 700 W/m² 19,0 °C 25,1 °C 17,7 km/h (3 Bft)
08.08.2017 12:46 25,1 °C 25,1 °C 66 % 1008,0 hPa 0,0 mm 12,1 km/h (2 Bft) W-SW 242 ° 1 min 0,000 mm 5,9 UV-I 726 W/m² 18,3 °C 25,1 °C 14,5 km/h (3 Bft)
08.08.2017 12:47 24,9 °C 25,1 °C 67 % 1008,1 hPa 0,0 mm 15,8 km/h (3 Bft) W-SW 252 ° 1 min 0,000 mm 6,2 UV-I 768 W/m² 18,3 °C 24,9 °C 22,5 km/h (4 Bft)
08.08.2017 12:48 24,8 °C 24,9 °C 68 % 1008,0 hPa 0,0 mm 13,5 km/h (3 Bft) W 270 ° 1 min 0,000 mm 6,2 UV-I 796 W/m² 18,5 °C 24,8 °C 19,3 km/h (3 Bft)
08.08.2017 12:49 24,8 °C 24,8 °C 68 % 1008,0 hPa 0,0 mm 12,5 km/h (3 Bft) W-SW 254 ° 1 min 0,000 mm 5,7 UV-I 796 W/m² 18,5 °C 24,8 °C 16,1 km/h (3 Bft)
08.08.2017 12:50 24,7 °C 24,8 °C 69 % 1008,1 hPa 0,0 mm 15,1 km/h (3 Bft) W 263 ° 1 min 0,000 mm 5,1 UV-I 587 W/m² 18,6 °C 24,7 °C 22,5 km/h (4 Bft)
08.08.2017 12:51 24,5 °C 24,7 °C 66 % 1008,0 hPa 0,0 mm 14,1 km/h (3 Bft) N-NW 336 ° 1 min 0,000 mm 4,7 UV-I 489 W/m² 17,7 °C 24,5 °C 20,9 km/h (4 Bft)
08.08.2017 12:52 24,4 °C 24,5 °C 67 % 1008,1 hPa 0,0 mm 11,2 km/h (2 Bft) W-NW 298 ° 1 min 0,000 mm 4,3 UV-I 439 W/m² 17,9 °C 24,4 °C 19,3 km/h (3 Bft)
08.08.2017 12:53 24,3 °C 24,4 °C 67 % 1008,1 hPa 0,0 mm 10,1 km/h (2 Bft) W-NW 298 ° 1 min 0,000 mm 4,4 UV-I 341 W/m² 17,8 °C 24,3 °C 16,1 km/h (3 Bft)
08.08.2017 12:54 24,1 °C 24,3 °C 68 % 1008,1 hPa 0,0 mm 9,7 km/h (2 Bft) W 261 ° 1 min 0,000 mm 4,5 UV-I 369 W/m² 17,8 °C 24,1 °C 14,5 km/h (3 Bft)
08.08.2017 12:55 23,9 °C 24,1 °C 69 % 1008,2 hPa 0,0 mm 16,7 km/h (3 Bft) W-SW 239 ° 1 min 0,000 mm 5,4 UV-I 369 W/m² 17,9 °C 23,9 °C 29,0 km/h (5 Bft)
08.08.2017 12:56 23,9 °C 23,9 °C 69 % 1008,2 hPa 0,0 mm 12,0 km/h (2 Bft) W 277 ° 1 min 0,000 mm 5,6 UV-I 694 W/m² 17,9 °C 23,9 °C 14,5 km/h (3 Bft)
08.08.2017 12:57 23,9 °C 23,9 °C 69 % 1008,2 hPa 0,0 mm 13,3 km/h (3 Bft) W-NW 298 ° 1 min 0,000 mm 5,9 UV-I 742 W/m² 17,9 °C 23,9 °C 19,3 km/h (3 Bft)
08.08.2017 12:58 23,9 °C 23,9 °C 70 % 1008,2 hPa 0,0 mm 18,1 km/h (3 Bft) W 265 ° 1 min 0,000 mm 6,0 UV-I 761 W/m² 18,1 °C 23,9 °C 25,7 km/h (4 Bft)
08.08.2017 12:59 23,9 °C 23,9 °C 70 % 1008,2 hPa 0,0 mm 15,9 km/h (3 Bft) W 262 ° 1 min 0,000 mm 5,7 UV-I 724 W/m² 18,1 °C 23,9 °C 20,9 km/h (4 Bft)
08.08.2017 13:00 23,8 °C 23,9 °C 69 % 1008,2 hPa 0,0 mm 14,5 km/h (3 Bft) NW 309 ° 1 min 0,000 mm 5,4 UV-I 643 W/m² 17,8 °C 23,8 °C 17,7 km/h (3 Bft)
08.08.2017 13:01 23,9 °C 23,9 °C 68 % 1008,2 hPa 0,0 mm 14,1 km/h (3 Bft) W-NW 292 ° 1 min 0,406 mm 5,4 UV-I 555 W/m² 17,6 °C 23,9 °C 24,1 km/h (4 Bft)
08.08.2017 13:02 23,9 °C 23,9 °C 68 % 1008,2 hPa 0,0 mm 13,8 km/h (3 Bft) W 269 ° 1 min 0,000 mm 5,3 UV-I 555 W/m² 17,6 °C 23,9 °C 19,3 km/h (3 Bft)
08.08.2017 13:03 23,9 °C 23,9 °C 70 % 1008,2 hPa 0,0 mm 7,9 km/h (2 Bft) NW 309 ° 1 min 0,000 mm 5,8 UV-I 719 W/m² 18,1 °C 23,9 °C 16,1 km/h (3 Bft)
08.08.2017 13:04 23,9 °C 23,9 °C 71 % 1008,2 hPa 0,0 mm 12,9 km/h (3 Bft) W 276 ° 1 min 0,000 mm 5,8 UV-I 726 W/m² 18,3 °C 23,9 °C 20,9 km/h (4 Bft)
08.08.2017 13:05 24,1 °C 24,1 °C 71 % 1008,3 hPa 0,0 mm 7,6 km/h (2 Bft) W 265 ° 1 min 0,000 mm 5,2 UV-I 726 W/m² 18,5 °C 24,1 °C 14,5 km/h (3 Bft)
08.08.2017 13:06 24,0 °C 24,1 °C 70 % 1008,4 hPa 0,0 mm 15,1 km/h (3 Bft) W-SW 240 ° 1 min 0,000 mm 5,1 UV-I 531 W/m² 18,2 °C 24,0 °C 17,7 km/h (3 Bft)
08.08.2017 13:07 23,9 °C 24,0 °C 71 % 1008,3 hPa 0,0 mm 14,8 km/h (3 Bft) W-NW 292 ° 1 min 0,000 mm 5,9 UV-I 742 W/m² 18,3 °C 23,9 °C 19,3 km/h (3 Bft)
08.08.2017 13:08 23,8 °C 23,9 °C 69 % 1008,5 hPa 0,0 mm 19,5 km/h (3 Bft) W-NW 287 ° 1 min 0,000 mm 6,2 UV-I 745 W/m² 17,8 °C 23,8 °C 27,4 km/h (4 Bft)
08.08.2017 13:09 23,8 °C 23,8 °C 70 % 1008,5 hPa 0,0 mm 13,7 km/h (3 Bft) W-NW 296 ° 1 min 0,000 mm 6,1 UV-I 726 W/m² 18,0 °C 23,8 °C 19,3 km/h (3 Bft)
08.08.2017 13:10 23,8 °C 23,8 °C 71 % 1008,5 hPa 0,0 mm 12,8 km/h (3 Bft) W-NW 291 ° 1 min 0,000 mm 6,3 UV-I 745 W/m² 18,2 °C 23,8 °C 20,9 km/h (4 Bft)
08.08.2017 13:11 23,7 °C 23,8 °C 70 % 1008,5 hPa 0,0 mm 15,4 km/h (3 Bft) W-NW 301 ° 1 min 0,000 mm 6,1 UV-I 761 W/m² 17,9 °C 23,7 °C 22,5 km/h (4 Bft)
08.08.2017 13:12 23,7 °C 23,8 °C 71 % 1008,5 hPa 0,0 mm 14,6 km/h (3 Bft) W 275 ° 1 min 0,000 mm 5,8 UV-I 691 W/m² 18,1 °C 23,7 °C 17,7 km/h (3 Bft)
08.08.2017 13:13 23,7 °C 23,7 °C 70 % 1008,7 hPa 0,0 mm 17,7 km/h (3 Bft) W-NW 288 ° 1 min 0,000 mm 5,9 UV-I 745 W/m² 17,9 °C 23,7 °C 25,7 km/h (4 Bft)
08.08.2017 13:14 23,6 °C 23,7 °C 69 % 1008,6 hPa 0,0 mm 18,1 km/h (3 Bft) W 277 ° 1 min 0,000 mm 6,1 UV-I 791 W/m² 17,6 °C 23,6 °C 22,5 km/h (4 Bft)
08.08.2017 13:15 23,6 °C 23,6 °C 70 % 1008,7 hPa 0,0 mm 17,5 km/h (3 Bft) W 267 ° 1 min 0,000 mm 5,6 UV-I 791 W/m² 17,8 °C 23,6 °C 25,7 km/h (4 Bft)
08.08.2017 13:16 23,6 °C 23,6 °C 71 % 1008,7 hPa 0,0 mm 16,6 km/h (3 Bft) W-SW 252 ° 1 min 0,000 mm 6,4 UV-I 777 W/m² 18,0 °C 23,6 °C 22,5 km/h (4 Bft)
08.08.2017 13:17 23,6 °C 23,6 °C 70 % 1008,7 hPa 0,0 mm 13,0 km/h (3 Bft) W 273 ° 1 min 0,000 mm 6,3 UV-I 742 W/m² 17,8 °C 23,6 °C 20,9 km/h (4 Bft)
08.08.2017 13:18 23,7 °C 23,7 °C 70 % 1008,7 hPa 0,0 mm 11,3 km/h (2 Bft) NW 315 ° 1 min 0,000 mm 6,6 UV-I 793 W/m² 17,9 °C 23,7 °C 19,3 km/h (3 Bft)
08.08.2017 13:19 23,8 °C 23,8 °C 74 % 1008,7 hPa 0,0 mm 10,1 km/h (2 Bft) SW 228 ° 1 min 0,000 mm 6,7 UV-I 789 W/m² 18,9 °C 23,8 °C 19,3 km/h (3 Bft)
08.08.2017 13:20 23,8 °C 23,8 °C 70 % 1008,7 hPa 0,0 mm 10,3 km/h (2 Bft) W 273 ° 1 min 0,000 mm 6,4 UV-I 788 W/m² 18,0 °C 23,8 °C 17,7 km/h (3 Bft)
08.08.2017 13:21 23,9 °C 23,9 °C 72 % 1008,7 hPa 0,0 mm 11,7 km/h (2 Bft) W-NW 294 ° 1 min 0,000 mm 5,0 UV-I 788 W/m² 18,5 °C 23,9 °C 20,9 km/h (4 Bft)
08.08.2017 13:22 23,9 °C 23,9 °C 71 % 1008,7 hPa 0,0 mm 9,9 km/h (2 Bft) W 273 ° 1 min 0,000 mm 4,3 UV-I 788 W/m² 18,3 °C 23,9 °C 12,9 km/h (3 Bft)
08.08.2017 13:23 23,9 °C 23,9 °C 68 % 1008,8 hPa 0,0 mm 11,3 km/h (2 Bft) W-NW 287 ° 1 min 0,000 mm 6,1 UV-I 424 W/m² 17,6 °C 23,9 °C 16,1 km/h (3 Bft)
08.08.2017 13:24 23,8 °C 23,9 °C 66 % 1008,9 hPa 0,0 mm 12,9 km/h (3 Bft) W-NW 292 ° 1 min 0,000 mm 6,5 UV-I 424 W/m² 17,1 °C 23,8 °C 17,7 km/h (3 Bft)
08.08.2017 13:25 23,7 °C 23,8 °C 67 % 1008,9 hPa 0,0 mm 14,3 km/h (3 Bft) W-NW 291 ° 1 min 0,000 mm 6,7 UV-I 997 W/m² 17,2 °C 23,7 °C 20,9 km/h (4 Bft)
08.08.2017 13:26 23,7 °C 23,7 °C 67 % 1009,0 hPa 0,0 mm 16,4 km/h (3 Bft) W-SW 255 ° 1 min 0,000 mm 7,2 UV-I 670 W/m² 17,2 °C 23,7 °C 29,0 km/h (5 Bft)
08.08.2017 13:27 23,7 °C 23,7 °C 66 % 1009,1 hPa 0,0 mm 19,2 km/h (3 Bft) W 267 ° 1 min 0,000 mm 7,4 UV-I 621 W/m² 17,0 °C 23,7 °C 27,4 km/h (4 Bft)
08.08.2017 13:28 23,6 °C 23,7 °C 66 % 1009,1 hPa 0,0 mm 15,4 km/h (3 Bft) W-NW 292 ° 1 min 0,000 mm 7,1 UV-I 621 W/m² 16,9 °C 23,6 °C 20,9 km/h (4 Bft)
08.08.2017 13:29 23,6 °C 23,6 °C 69 % 1009,1 hPa 0,0 mm 14,3 km/h (3 Bft) W-SW 253 ° 1 min 0,000 mm 5,0 UV-I 621 W/m² 17,6 °C 23,6 °C 19,3 km/h (3 Bft)
08.08.2017 13:30 23,6 °C 23,6 °C 69 % 1009,1 hPa 0,0 mm 18,4 km/h (3 Bft) NW 307 ° 1 min 0,000 mm 4,6 UV-I 596 W/m² 17,6 °C 23,6 °C 24,1 km/h (4 Bft)
08.08.2017 13:31 23,5 °C 23,6 °C 69 % 1009,2 hPa 0,0 mm 14,9 km/h (3 Bft) W-NW 300 ° 1 min 0,000 mm 4,0 UV-I 422 W/m² 17,5 °C 23,5 °C 19,3 km/h (3 Bft)
08.08.2017 13:32 23,4 °C 23,5 °C 68 % 1009,1 hPa 0,0 mm 12,3 km/h (3 Bft) W-SW 247 ° 1 min 0,000 mm 5,8 UV-I 471 W/m² 17,1 °C 23,4 °C 25,7 km/h (4 Bft)
08.08.2017 13:33 23,4 °C 23,4 °C 69 % 1009,2 hPa 0,0 mm 19,6 km/h (3 Bft) W-NW 288 ° 1 min 0,000 mm 4,8 UV-I 550 W/m² 17,4 °C 23,4 °C 30,6 km/h (5 Bft)
08.08.2017 13:34 23,3 °C 23,4 °C 68 % 1009,1 hPa 0,0 mm 14,9 km/h (3 Bft) W 281 ° 1 min 0,000 mm 4,9 UV-I 482 W/m² 17,1 °C 23,3 °C 24,1 km/h (4 Bft)
08.08.2017 13:35 23,3 °C 23,3 °C 69 % 1009,1 hPa 0,0 mm 10,1 km/h (2 Bft) W-NW 293 ° 1 min 0,000 mm 6,0 UV-I 482 W/m² 17,3 °C 23,3 °C 17,7 km/h (3 Bft)
08.08.2017 13:36 23,3 °C 23,3 °C 70 % 1009,1 hPa 0,0 mm 13,6 km/h (3 Bft) W 264 ° 1 min 0,000 mm 4,5 UV-I 482 W/m² 17,5 °C 23,3 °C 19,3 km/h (3 Bft)
08.08.2017 13:37 23,3 °C 23,3 °C 68 % 1009,1 hPa 0,0 mm 13,5 km/h (3 Bft) W 276 ° 1 min 0,000 mm 4,2 UV-I 434 W/m² 17,1 °C 23,3 °C 19,3 km/h (3 Bft)
08.08.2017 13:38 23,3 °C 23,3 °C 67 % 1009,2 hPa 0,0 mm 12,8 km/h (3 Bft) W 264 ° 1 min 0,000 mm 4,8 UV-I 480 W/m² 16,8 °C 23,3 °C 29,0 km/h (5 Bft)
08.08.2017 13:39 23,2 °C 23,3 °C 67 % 1009,2 hPa 0,0 mm 11,7 km/h (2 Bft) W-NW 288 ° 1 min 0,000 mm 6,2 UV-I 480 W/m² 16,7 °C 23,2 °C 16,1 km/h (3 Bft)
08.08.2017 13:40 23,2 °C 23,2 °C 68 % 1009,2 hPa 0,0 mm 19,8 km/h (3 Bft) W-SW 256 ° 1 min 0,000 mm 5,0 UV-I 480 W/m² 17,0 °C 23,2 °C 32,2 km/h (5 Bft)
08.08.2017 13:41 23,2 °C 23,2 °C 66 % 1009,3 hPa 0,0 mm 20,1 km/h (4 Bft) W-NW 284 ° 1 min 0,000 mm 4,5 UV-I 480 W/m² 16,5 °C 23,2 °C 30,6 km/h (5 Bft)
08.08.2017 13:42 23,1 °C 23,2 °C 68 % 1009,3 hPa 0,0 mm 14,7 km/h (3 Bft) W-NW 286 ° 1 min 0,000 mm 5,2 UV-I 480 W/m² 16,9 °C 23,1 °C 19,3 km/h (3 Bft)
08.08.2017 13:43 23,1 °C 23,1 °C 67 % 1009,3 hPa 0,0 mm 19,5 km/h (3 Bft) W-SW 246 ° 1 min 0,000 mm 4,3 UV-I 406 W/m² 16,6 °C 23,1 °C 29,0 km/h (5 Bft)
08.08.2017 13:44 22,9 °C 23,1 °C 66 % 1009,3 hPa 0,0 mm 19,4 km/h (3 Bft) W 281 ° 1 min 0,000 mm 4,1 UV-I 410 W/m² 16,2 °C 22,9 °C 27,4 km/h (4 Bft)
08.08.2017 13:45 22,8 °C 22,9 °C 66 % 1009,4 hPa 0,0 mm 17,0 km/h (3 Bft) W 263 ° 1 min 0,000 mm 4,1 UV-I 392 W/m² 16,1 °C 22,8 °C 25,7 km/h (4 Bft)
08.08.2017 13:46 22,7 °C 22,8 °C 68 % 1009,4 hPa 0,0 mm 16,8 km/h (3 Bft) W 262 ° 1 min 0,000 mm 4,0 UV-I 387 W/m² 16,5 °C 22,7 °C 25,7 km/h (4 Bft)
08.08.2017 13:47 22,6 °C 22,7 °C 68 % 1009,3 hPa 0,0 mm 18,2 km/h (3 Bft) W-NW 284 ° 1 min 0,000 mm 4,0 UV-I 371 W/m² 16,4 °C 22,6 °C 29,0 km/h (5 Bft)
08.08.2017 13:48 22,4 °C 22,6 °C 67 % 1009,2 hPa 0,0 mm 16,8 km/h (3 Bft) W 267 ° 1 min 0,000 mm 4,2 UV-I 431 W/m² 16,0 °C 22,4 °C 30,6 km/h (5 Bft)
08.08.2017 13:49 22,3 °C 22,4 °C 68 % 1009,2 hPa 0,0 mm 15,8 km/h (3 Bft) W-NW 292 ° 1 min 0,000 mm 5,0 UV-I 367 W/m² 16,1 °C 22,3 °C 24,1 km/h (4 Bft)
08.08.2017 13:50 22,2 °C 22,3 °C 66 % 1009,2 hPa 0,0 mm 13,7 km/h (3 Bft) W-SW 249 ° 1 min 0,000 mm 6,8 UV-I 367 W/m² 15,5 °C 22,2 °C 20,9 km/h (4 Bft)
08.08.2017 13:51 22,2 °C 22,2 °C 68 % 1009,2 hPa 0,0 mm 10,4 km/h (2 Bft) SW 232 ° 1 min 0,000 mm 6,8 UV-I 888 W/m² 16,0 °C 22,2 °C 16,1 km/h (3 Bft)
08.08.2017 13:52 22,3 °C 22,3 °C 69 % 1009,2 hPa 0,0 mm 11,0 km/h (2 Bft) W-NW 302 ° 1 min 0,000 mm 6,7 UV-I 810 W/m² 16,3 °C 22,3 °C 17,7 km/h (3 Bft)
08.08.2017 13:53 22,4 °C 22,4 °C 70 % 1009,1 hPa 0,0 mm 10,0 km/h (2 Bft) W-NW 288 ° 1 min 0,000 mm 6,7 UV-I 833 W/m² 16,7 °C 22,4 °C 16,1 km/h (3 Bft)
08.08.2017 13:54 22,6 °C 22,6 °C 71 % 1009,3 hPa 0,0 mm 7,9 km/h (2 Bft) SW 225 ° 1 min 0,000 mm 6,5 UV-I 744 W/m² 17,1 °C 22,6 °C 17,7 km/h (3 Bft)
08.08.2017 13:55 22,7 °C 22,7 °C 69 % 1009,2 hPa 0,0 mm 10,5 km/h (2 Bft) W 267 ° 1 min 0,000 mm 6,4 UV-I 809 W/m² 16,7 °C 22,7 °C 14,5 km/h (3 Bft)
08.08.2017 13:56 22,8 °C 22,8 °C 70 % 1009,3 hPa 0,0 mm 16,2 km/h (3 Bft) W 261 ° 1 min 0,000 mm 6,4 UV-I 805 W/m² 17,0 °C 22,8 °C 27,4 km/h (4 Bft)
08.08.2017 13:57 22,8 °C 22,8 °C 68 % 1009,4 hPa 0,0 mm 14,1 km/h (3 Bft) W 261 ° 1 min 0,000 mm 6,2 UV-I 766 W/m² 16,6 °C 22,8 °C 19,3 km/h (3 Bft)
08.08.2017 13:58 22,8 °C 22,8 °C 67 % 1009,4 hPa 0,0 mm 16,4 km/h (3 Bft) NW 315 ° 1 min 0,000 mm 6,2 UV-I 759 W/m² 16,3 °C 22,8 °C 25,7 km/h (4 Bft)
08.08.2017 13:59 22,8 °C 22,8 °C 67 % 1009,5 hPa 0,0 mm 13,5 km/h (3 Bft) NW 305 ° 1 min 0,000 mm 6,3 UV-I 800 W/m² 16,3 °C 22,8 °C 20,9 km/h (4 Bft)
08.08.2017 14:00 22,8 °C 22,8 °C 67 % 1009,4 hPa 0,0 mm 13,9 km/h (3 Bft) N-NW 330 ° 1 min 0,000 mm 6,2 UV-I 780 W/m² 16,3 °C 22,8 °C 20,9 km/h (4 Bft)
08.08.2017 14:01 22,7 °C 22,8 °C 69 % 1009,4 hPa 0,0 mm 8,1 km/h (2 Bft) W 281 ° 1 min 0,457 mm 6,3 UV-I 737 W/m² 16,7 °C 22,7 °C 17,7 km/h (3 Bft)
08.08.2017 14:02 22,8 °C 22,8 °C 69 % 1009,4 hPa 0,0 mm 11,6 km/h (2 Bft) NW 325 ° 1 min 0,000 mm 5,8 UV-I 765 W/m² 16,8 °C 22,8 °C 22,5 km/h (4 Bft)
08.08.2017 14:03 22,9 °C 22,9 °C 68 % 1009,4 hPa 0,0 mm 14,7 km/h (3 Bft) W-NW 292 ° 1 min 0,000 mm 6,3 UV-I 777 W/m² 16,7 °C 22,9 °C 20,9 km/h (4 Bft)
08.08.2017 14:04 22,8 °C 22,9 °C 69 % 1009,5 hPa 0,0 mm 13,8 km/h (3 Bft) W-SW 257 ° 1 min 0,000 mm 6,3 UV-I 784 W/m² 16,8 °C 22,8 °C 20,9 km/h (4 Bft)
08.08.2017 14:05 22,9 °C 22,9 °C 70 % 1009,5 hPa 0,0 mm 11,4 km/h (2 Bft) W-NW 300 ° 1 min 0,000 mm 6,2 UV-I 754 W/m² 17,1 °C 22,9 °C 17,7 km/h (3 Bft)
08.08.2017 14:06 23,0 °C 23,0 °C 72 % 1009,5 hPa 0,0 mm 6,5 km/h (2 Bft) W 269 ° 1 min 0,000 mm 5,7 UV-I 729 W/m² 17,7 °C 23,0 °C 14,5 km/h (3 Bft)
08.08.2017 14:07 23,0 °C 23,0 °C 69 % 1009,5 hPa 0,0 mm 11,9 km/h (2 Bft) W 270 ° 1 min 0,000 mm 6,4 UV-I 800 W/m² 17,0 °C 23,0 °C 17,7 km/h (3 Bft)
08.08.2017 14:08 23,1 °C 23,1 °C 70 % 1009,5 hPa 0,0 mm 9,5 km/h (2 Bft) W 268 ° 1 min 0,000 mm 6,4 UV-I 800 W/m² 17,3 °C 23,1 °C 14,5 km/h (3 Bft)
08.08.2017 14:09 23,1 °C 23,1 °C 69 % 1009,4 hPa 0,0 mm 12,1 km/h (2 Bft) W-NW 302 ° 1 min 0,000 mm 6,4 UV-I 800 W/m² 17,1 °C 23,1 °C 19,3 km/h (3 Bft)
08.08.2017 14:10 23,2 °C 23,2 °C 67 % 1009,5 hPa 0,0 mm 10,3 km/h (2 Bft) W-NW 294 ° 1 min 0,000 mm 6,3 UV-I 731 W/m² 16,7 °C 23,2 °C 19,3 km/h (3 Bft)
08.08.2017 14:11 23,1 °C 23,2 °C 67 % 1009,5 hPa 0,0 mm 4,9 km/h (1 Bft) W-NW 288 ° 1 min 0,000 mm 6,3 UV-I 731 W/m² 16,6 °C 23,1 °C 9,7 km/h (2 Bft)
08.08.2017 14:12 23,0 °C 23,1 °C 69 % 1009,5 hPa 0,0 mm 9,4 km/h (2 Bft) N-NW 332 ° 1 min 0,000 mm 6,4 UV-I 868 W/m² 17,0 °C 23,0 °C 14,5 km/h (3 Bft)
08.08.2017 14:13 23,1 °C 23,1 °C 69 % 1009,6 hPa 0,0 mm 9,7 km/h (2 Bft) W-SW 256 ° 1 min 0,000 mm 5,4 UV-I 868 W/m² 17,1 °C 23,1 °C 16,1 km/h (3 Bft)
08.08.2017 14:14 23,1 °C 23,1 °C 70 % 1009,6 hPa 0,0 mm 12,5 km/h (3 Bft) W-SW 257 ° 1 min 0,000 mm 5,4 UV-I 868 W/m² 17,3 °C 23,1 °C 22,5 km/h (4 Bft)
08.08.2017 14:15 23,0 °C 23,1 °C 67 % 1009,7 hPa 0,0 mm 14,7 km/h (3 Bft) NW 321 ° 1 min 0,000 mm 6,0 UV-I 868 W/m² 16,5 °C 23,0 °C 20,9 km/h (4 Bft)
08.08.2017 14:16 22,9 °C 23,0 °C 70 % 1009,6 hPa 0,0 mm 8,3 km/h (2 Bft) W-NW 288 ° 1 min 0,000 mm 5,1 UV-I 868 W/m² 17,1 °C 22,9 °C 12,9 km/h (3 Bft)
08.08.2017 14:17 22,9 °C 22,9 °C 72 % 1009,6 hPa 0,0 mm 7,7 km/h (2 Bft) W-NW 296 ° 1 min 0,000 mm 6,0 UV-I 868 W/m² 17,6 °C 22,9 °C 11,3 km/h (2 Bft)
08.08.2017 14:18 22,9 °C 22,9 °C 69 % 1009,5 hPa 0,0 mm 5,2 km/h (1 Bft) NW 305 ° 1 min 0,000 mm 6,5 UV-I 842 W/m² 16,9 °C 22,9 °C 6,4 km/h (2 Bft)
08.08.2017 14:19 23,1 °C 23,1 °C 71 % 1009,6 hPa 0,0 mm 10,1 km/h (2 Bft) W-NW 295 ° 1 min 0,000 mm 6,6 UV-I 870 W/m² 17,5 °C 23,1 °C 17,7 km/h (3 Bft)
08.08.2017 14:20 23,2 °C 23,2 °C 70 % 1009,5 hPa 0,0 mm 4,7 km/h (1 Bft) W 265 ° 1 min 0,000 mm 6,4 UV-I 853 W/m² 17,4 °C 23,2 °C 9,7 km/h (2 Bft)
08.08.2017 14:21 23,3 °C 23,3 °C 70 % 1009,5 hPa 0,0 mm 12,5 km/h (3 Bft) N-NW 341 ° 1 min 0,000 mm 6,5 UV-I 877 W/m² 17,5 °C 23,3 °C 20,9 km/h (4 Bft)
08.08.2017 14:22 23,4 °C 23,4 °C 70 % 1009,5 hPa 0,0 mm 13,7 km/h (3 Bft) W 261 ° 1 min 0,000 mm 4,8 UV-I 877 W/m² 17,6 °C 23,4 °C 20,9 km/h (4 Bft)
08.08.2017 14:23 23,4 °C 23,4 °C 70 % 1009,5 hPa 0,0 mm 14,4 km/h (3 Bft) W-SW 252 ° 1 min 0,000 mm 3,8 UV-I 301 W/m² 17,6 °C 23,4 °C 19,3 km/h (3 Bft)
08.08.2017 14:24 23,3 °C 23,4 °C 71 % 1009,5 hPa 0,0 mm 13,7 km/h (3 Bft) W 268 ° 1 min 0,000 mm 3,9 UV-I 290 W/m² 17,7 °C 23,3 °C 17,7 km/h (3 Bft)
08.08.2017 14:25 23,2 °C 23,3 °C 69 % 1009,5 hPa 0,0 mm 9,9 km/h (2 Bft) W 270 ° 1 min 0,000 mm 3,4 UV-I 290 W/m² 17,2 °C 23,2 °C 12,9 km/h (3 Bft)
08.08.2017 14:26 23,1 °C 23,2 °C 70 % 1009,7 hPa 0,0 mm 7,6 km/h (2 Bft) W 281 ° 0 min 0,000 mm 3,2 UV-I 237 W/m² 17,3 °C 23,1 °C 11,3 km/h (2 Bft)
08.08.2017 14:27 23,0 °C 23,1 °C 68 % 1009,7 hPa 0,0 mm 11,0 km/h (2 Bft) W-SW 257 ° 0 min 0,000 mm 3,1 UV-I 239 W/m² 16,8 °C 23,0 °C 19,3 km/h (3 Bft)
08.08.2017 14:28 22,9 °C 23,0 °C 68 % 1009,8 hPa 0,0 mm 14,1 km/h (3 Bft) W 269 ° 0 min 0,000 mm 3,2 UV-I 262 W/m² 16,7 °C 22,9 °C 20,9 km/h (4 Bft)
08.08.2017 14:29 22,7 °C 22,9 °C 66 % 1009,9 hPa 0,0 mm 15,4 km/h (3 Bft) W-NW 291 ° 0 min 0,000 mm 3,2 UV-I 257 W/m² 16,0 °C 22,7 °C 20,9 km/h (4 Bft)
08.08.2017 14:30 22,5 °C 22,7 °C 67 % 1009,8 hPa 0,0 mm 11,8 km/h (2 Bft) W 261 ° 0 min 0,000 mm 3,1 UV-I 246 W/m² 16,1 °C 22,5 °C 19,3 km/h (3 Bft)
08.08.2017 14:31 22,3 °C 22,5 °C 66 % 1009,9 hPa 0,0 mm 10,9 km/h (2 Bft) W-NW 288 ° 0 min 0,000 mm 2,9 UV-I 248 W/m² 15,6 °C 22,3 °C 17,7 km/h (3 Bft)
08.08.2017 14:32 22,2 °C 22,3 °C 66 % 1009,9 hPa 0,0 mm 9,3 km/h (2 Bft) NW 311 ° 0 min 0,000 mm 2,8 UV-I 250 W/m² 15,5 °C 22,2 °C 14,5 km/h (3 Bft)
08.08.2017 14:33 22,1 °C 22,2 °C 68 % 1009,9 hPa 0,0 mm 10,7 km/h (2 Bft) NW 309 ° 1 min 0,000 mm 2,8 UV-I 294 W/m² 15,9 °C 22,1 °C 14,5 km/h (3 Bft)
08.08.2017 14:34 22,0 °C 22,1 °C 69 % 1009,9 hPa 0,0 mm 6,3 km/h (2 Bft) W 263 ° 0 min 0,000 mm 2,8 UV-I 258 W/m² 16,0 °C 22,0 °C 12,9 km/h (3 Bft)
08.08.2017 14:35 22,0 °C 22,0 °C 69 % 1009,9 hPa 0,0 mm 14,3 km/h (3 Bft) W 268 ° 0 min 0,000 mm 2,7 UV-I 239 W/m² 16,0 °C 22,0 °C 19,3 km/h (3 Bft)
08.08.2017 14:36 21,9 °C 22,0 °C 69 % 1010,0 hPa 0,0 mm 13,2 km/h (3 Bft) NW 310 ° 0 min 0,000 mm 2,4 UV-I 227 W/m² 15,9 °C 21,9 °C 19,3 km/h (3 Bft)
08.08.2017 14:37 21,9 °C 21,9 °C 69 % 1010,0 hPa 0,0 mm 12,4 km/h (3 Bft) W 273 ° 0 min 0,000 mm 2,3 UV-I 221 W/m² 15,9 °C 21,9 °C 17,7 km/h (3 Bft)
08.08.2017 14:38 21,8 °C 21,9 °C 71 % 1010,0 hPa 0,0 mm 17,8 km/h (3 Bft) NW 311 ° 0 min 0,000 mm 2,3 UV-I 218 W/m² 16,3 °C 21,8 °C 25,7 km/h (4 Bft)
08.08.2017 14:39 21,8 °C 21,8 °C 69 % 1009,9 hPa 0,0 mm 10,6 km/h (2 Bft) W-SW 258 ° 0 min 0,000 mm 2,2 UV-I 220 W/m² 15,9 °C 21,8 °C 14,5 km/h (3 Bft)
08.08.2017 14:40 21,7 °C 21,8 °C 68 % 1010,0 hPa 0,0 mm 9,7 km/h (2 Bft) W-SW 240 ° 0 min 0,000 mm 2,2 UV-I 218 W/m² 15,5 °C 21,7 °C 16,1 km/h (3 Bft)
08.08.2017 14:41 21,7 °C 21,8 °C 69 % 1009,9 hPa 0,0 mm 14,5 km/h (3 Bft) W 267 ° 0 min 0,000 mm 2,2 UV-I 206 W/m² 15,8 °C 21,7 °C 17,7 km/h (3 Bft)
08.08.2017 14:42 21,7 °C 21,7 °C 69 % 1010,0 hPa 0,0 mm 14,3 km/h (3 Bft) W-SW 252 ° 0 min 0,000 mm 2,0 UV-I 199 W/m² 15,8 °C 21,7 °C 22,5 km/h (4 Bft)
08.08.2017 14:43 21,7 °C 21,7 °C 68 % 1010,0 hPa 0,0 mm 18,5 km/h (3 Bft) W 273 ° 0 min 0,000 mm 1,9 UV-I 193 W/m² 15,5 °C 21,7 °C 27,4 km/h (4 Bft)
08.08.2017 14:44 21,6 °C 21,7 °C 68 % 1010,0 hPa 0,0 mm 12,5 km/h (3 Bft) W 273 ° 0 min 0,000 mm 1,9 UV-I 185 W/m² 15,4 °C 21,6 °C 19,3 km/h (3 Bft)
08.08.2017 14:45 21,6 °C 21,6 °C 70 % 1010,0 hPa 0,0 mm 14,6 km/h (3 Bft) W-NW 289 ° 0 min 0,000 mm 1,8 UV-I 116 W/m² 15,9 °C 21,6 °C 20,9 km/h (4 Bft)
08.08.2017 14:46 21,5 °C 21,6 °C 69 % 1010,0 hPa 0,0 mm 11,9 km/h (2 Bft) W 280 ° 0 min 0,000 mm 1,8 UV-I 118 W/m² 15,6 °C 21,5 °C 16,1 km/h (3 Bft)
08.08.2017 14:47 21,4 °C 21,5 °C 71 % 1010,0 hPa 0,0 mm 5,0 km/h (1 Bft) W 274 ° 0 min 0,000 mm 1,8 UV-I 116 W/m² 15,9 °C 21,4 °C 12,9 km/h (3 Bft)
08.08.2017 14:48 21,4 °C 21,4 °C 71 % 1010,1 hPa 0,0 mm 8,6 km/h (2 Bft) W-SW 258 ° 0 min 0,000 mm 1,8 UV-I 139 W/m² 15,9 °C 21,4 °C 14,5 km/h (3 Bft)
08.08.2017 14:49 21,4 °C 21,4 °C 70 % 1010,0 hPa 0,0 mm 10,7 km/h (2 Bft) W-NW 296 ° 0 min 0,000 mm 1,9 UV-I 123 W/m² 15,7 °C 21,4 °C 17,7 km/h (3 Bft)
08.08.2017 14:50 21,4 °C 21,4 °C 70 % 1010,0 hPa 0,0 mm 8,4 km/h (2 Bft) W 280 ° 0 min 0,000 mm 1,9 UV-I 132 W/m² 15,7 °C 21,4 °C 11,3 km/h (2 Bft)
08.08.2017 14:51 21,4 °C 21,4 °C 72 % 1010,0 hPa 0,0 mm 6,8 km/h (2 Bft) W 259 ° 0 min 0,000 mm 1,9 UV-I 188 W/m² 16,1 °C 21,4 °C 9,7 km/h (2 Bft)
08.08.2017 14:52 21,4 °C 21,4 °C 70 % 1010,1 hPa 0,0 mm 13,6 km/h (3 Bft) W 281 ° 0 min 0,000 mm 1,9 UV-I 190 W/m² 15,7 °C 21,4 °C 19,3 km/h (3 Bft)
08.08.2017 14:53 21,3 °C 21,4 °C 69 % 1010,1 hPa 0,0 mm 11,9 km/h (2 Bft) SW 232 ° 0 min 0,000 mm 1,9 UV-I 197 W/m² 15,4 °C 21,3 °C 19,3 km/h (3 Bft)
08.08.2017 14:54 21,3 °C 21,3 °C 69 % 1010,1 hPa 0,0 mm 5,6 km/h (1 Bft) W 259 ° 0 min 0,000 mm 1,9 UV-I 202 W/m² 15,4 °C 21,3 °C 11,3 km/h (2 Bft)
08.08.2017 14:55 21,3 °C 21,3 °C 70 % 1010,1 hPa 0,0 mm 8,1 km/h (2 Bft) W-SW 258 ° 0 min 0,000 mm 1,9 UV-I 204 W/m² 15,6 °C 21,3 °C 16,1 km/h (3 Bft)
08.08.2017 14:56 21,3 °C 21,3 °C 70 % 1010,2 hPa 0,0 mm 8,7 km/h (2 Bft) W 277 ° 0 min 0,000 mm 1,9 UV-I 206 W/m² 15,6 °C 21,3 °C 14,5 km/h (3 Bft)
08.08.2017 14:57 21,3 °C 21,3 °C 70 % 1010,2 hPa 0,0 mm 11,1 km/h (2 Bft) W 263 ° 0 min 0,000 mm 2,0 UV-I 213 W/m² 15,6 °C 21,3 °C 16,1 km/h (3 Bft)
08.08.2017 14:58 21,2 °C 21,3 °C 70 % 1010,2 hPa 0,0 mm 10,9 km/h (2 Bft) W 264 ° 0 min 0,000 mm 2,1 UV-I 221 W/m² 15,5 °C 21,2 °C 20,9 km/h (4 Bft)
08.08.2017 14:59 21,2 °C 21,3 °C 71 % 1010,2 hPa 0,0 mm 11,0 km/h (2 Bft) W 271 ° 0 min 0,000 mm 2,2 UV-I 267 W/m² 15,7 °C 21,2 °C 14,5 km/h (3 Bft)
08.08.2017 15:00 21,2 °C 21,3 °C 71 % 1010,2 hPa 0,0 mm 9,0 km/h (2 Bft) W 267 ° 0 min 0,000 mm 2,6 UV-I 281 W/m² 15,7 °C 21,2 °C 14,5 km/h (3 Bft)
08.08.2017 15:01 21,3 °C 21,3 °C 70 % 1010,2 hPa 0,0 mm 15,2 km/h (3 Bft) NW 309 ° 0 min 0,305 mm 3,0 UV-I 281 W/m² 15,6 °C 21,3 °C 19,3 km/h (3 Bft)
08.08.2017 15:02 21,3 °C 21,3 °C 70 % 1010,2 hPa 0,0 mm 13,4 km/h (3 Bft) W 271 ° 0 min 0,000 mm 2,6 UV-I 281 W/m² 15,6 °C 21,3 °C 20,9 km/h (4 Bft)
08.08.2017 15:03 21,3 °C 21,3 °C 69 % 1010,2 hPa 0,0 mm 9,5 km/h (2 Bft) NW 316 ° 1 min 0,000 mm 2,9 UV-I 325 W/m² 15,4 °C 21,3 °C 14,5 km/h (3 Bft)
08.08.2017 15:04 21,3 °C 21,3 °C 72 % 1010,2 hPa 0,0 mm 8,4 km/h (2 Bft) W 261 ° 1 min 0,000 mm 3,1 UV-I 403 W/m² 16,0 °C 21,3 °C 14,5 km/h (3 Bft)
08.08.2017 15:05 21,4 °C 21,4 °C 71 % 1010,3 hPa 0,0 mm 11,3 km/h (2 Bft) W-NW 292 ° 1 min 0,000 mm 2,9 UV-I 292 W/m² 15,9 °C 21,4 °C 14,5 km/h (3 Bft)
08.08.2017 15:06 21,4 °C 21,4 °C 70 % 1010,2 hPa 0,0 mm 7,3 km/h (2 Bft) W 279 ° 0 min 0,000 mm 2,5 UV-I 257 W/m² 15,7 °C 21,4 °C 16,1 km/h (3 Bft)
08.08.2017 15:07 21,4 °C 21,4 °C 72 % 1010,3 hPa 0,0 mm 12,9 km/h (3 Bft) W-NW 290 ° 0 min 0,000 mm 2,3 UV-I 225 W/m² 16,1 °C 21,4 °C 19,3 km/h (3 Bft)
08.08.2017 15:08 21,4 °C 21,4 °C 68 % 1010,3 hPa 0,0 mm 10,4 km/h (2 Bft) W-SW 244 ° 0 min 0,000 mm 2,1 UV-I 202 W/m² 15,2 °C 21,4 °C 14,5 km/h (3 Bft)
08.08.2017 15:09 21,4 °C 21,4 °C 70 % 1010,4 hPa 0,0 mm 8,0 km/h (2 Bft) W 259 ° 0 min 0,000 mm 1,9 UV-I 188 W/m² 15,7 °C 21,4 °C 12,9 km/h (3 Bft)
08.08.2017 15:10 21,3 °C 21,4 °C 68 % 1010,3 hPa 0,0 mm 14,0 km/h (3 Bft) W 267 ° 0 min 0,000 mm 1,8 UV-I 167 W/m² 15,1 °C 21,3 °C 25,7 km/h (4 Bft)
08.08.2017 15:11 21,2 °C 21,3 °C 67 % 1010,4 hPa 0,0 mm 19,7 km/h (3 Bft) W 259 ° 0 min 0,000 mm 1,6 UV-I 151 W/m² 14,8 °C 21,2 °C 29,0 km/h (5 Bft)
08.08.2017 15:12 21,1 °C 21,2 °C 69 % 1010,4 hPa 0,0 mm 14,0 km/h (3 Bft) NW 315 ° 0 min 0,000 mm 1,4 UV-I 137 W/m² 15,2 °C 21,1 °C 19,3 km/h (3 Bft)
08.08.2017 15:13 20,9 °C 21,1 °C 68 % 1010,4 hPa 0,0 mm 15,2 km/h (3 Bft) W-NW 302 ° 0 min 0,000 mm 1,3 UV-I 128 W/m² 14,8 °C 20,9 °C 20,9 km/h (4 Bft)
08.08.2017 15:14 20,8 °C 20,9 °C 69 % 1010,5 hPa 0,0 mm 10,8 km/h (2 Bft) W-NW 292 ° 0 min 0,000 mm 1,2 UV-I 121 W/m² 14,9 °C 20,8 °C 19,3 km/h (3 Bft)
08.08.2017 15:15 20,8 °C 20,8 °C 68 % 1010,4 hPa 0,0 mm 16,9 km/h (3 Bft) W-SW 247 ° 0 min 0,000 mm 1,1 UV-I 114 W/m² 14,7 °C 20,8 °C 30,6 km/h (5 Bft)
08.08.2017 15:16 20,7 °C 20,8 °C 69 % 1010,4 hPa 0,0 mm 12,3 km/h (3 Bft) S-SW 211 ° 0 min 0,000 mm 1,1 UV-I 114 W/m² 14,8 °C 20,7 °C 22,5 km/h (4 Bft)
08.08.2017 15:17 20,6 °C 20,7 °C 69 % 1010,4 hPa 0,0 mm 13,9 km/h (3 Bft) W-SW 258 ° 0 min 0,000 mm 1,1 UV-I 128 W/m² 14,7 °C 20,6 °C 17,7 km/h (3 Bft)
08.08.2017 15:18 20,5 °C 20,6 °C 68 % 1010,4 hPa 0,0 mm 9,9 km/h (2 Bft) W 269 ° 0 min 0,000 mm 1,5 UV-I 153 W/m² 14,4 °C 20,5 °C 17,7 km/h (3 Bft)
08.08.2017 15:19 20,4 °C 20,5 °C 68 % 1010,5 hPa 0,0 mm 9,1 km/h (2 Bft) S 180 ° 0 min 0,000 mm 1,7 UV-I 181 W/m² 14,3 °C 20,4 °C 14,5 km/h (3 Bft)
08.08.2017 15:20 20,4 °C 20,4 °C 70 % 1010,5 hPa 0,0 mm 8,2 km/h (2 Bft) W-SW 248 ° 0 min 0,000 mm 1,8 UV-I 195 W/m² 14,7 °C 20,4 °C 22,5 km/h (4 Bft)
08.08.2017 15:21 20,3 °C 20,4 °C 69 % 1010,6 hPa 0,0 mm 9,4 km/h (2 Bft) S 184 ° 0 min 0,000 mm 1,8 UV-I 195 W/m² 14,4 °C 20,3 °C 20,9 km/h (4 Bft)
08.08.2017 15:22 20,3 °C 20,4 °C 71 % 1010,5 hPa 0,0 mm 6,7 km/h (2 Bft) SW 218 ° 0 min 0,000 mm 1,8 UV-I 188 W/m² 14,9 °C 20,3 °C 12,9 km/h (3 Bft)
08.08.2017 15:23 20,3 °C 20,3 °C 70 % 1010,6 hPa 0,0 mm 9,5 km/h (2 Bft) W 265 ° 0 min 0,000 mm 1,8 UV-I 190 W/m² 14,6 °C 20,3 °C 16,1 km/h (3 Bft)
08.08.2017 15:24 20,3 °C 20,3 °C 72 % 1010,6 hPa 0,0 mm 17,6 km/h (3 Bft) W 259 ° 0 min 0,000 mm 1,9 UV-I 195 W/m² 15,1 °C 20,3 °C 22,5 km/h (4 Bft)
08.08.2017 15:25 20,3 °C 20,3 °C 70 % 1010,5 hPa 0,0 mm 11,3 km/h (2 Bft) W 275 ° 0 min 0,000 mm 1,9 UV-I 197 W/m² 14,6 °C 20,3 °C 17,7 km/h (3 Bft)
08.08.2017 15:26 20,3 °C 20,3 °C 70 % 1010,6 hPa 0,0 mm 11,1 km/h (2 Bft) W 261 ° 0 min 0,000 mm 1,9 UV-I 193 W/m² 14,6 °C 20,3 °C 17,7 km/h (3 Bft)
08.08.2017 15:27 20,3 °C 20,3 °C 71 % 1010,6 hPa 0,0 mm 7,0 km/h (2 Bft) W-NW 299 ° 0 min 0,000 mm 1,8 UV-I 185 W/m² 14,9 °C 20,3 °C 11,3 km/h (2 Bft)
08.08.2017 15:28 20,3 °C 20,3 °C 71 % 1010,6 hPa 0,0 mm 5,8 km/h (2 Bft) W 270 ° 0 min 0,000 mm 1,7 UV-I 165 W/m² 14,9 °C 20,3 °C 9,7 km/h (2 Bft)
08.08.2017 15:29 20,3 °C 20,3 °C 69 % 1010,6 hPa 0,0 mm 9,5 km/h (2 Bft) W-NW 289 ° 0 min 0,000 mm 1,5 UV-I 156 W/m² 14,4 °C 20,3 °C 14,5 km/h (3 Bft)
08.08.2017 15:30 20,3 °C 20,3 °C 71 % 1010,6 hPa 0,0 mm 11,0 km/h (2 Bft) W 267 ° 0 min 0,000 mm 1,5 UV-I 155 W/m² 14,9 °C 20,3 °C 17,7 km/h (3 Bft)
08.08.2017 15:31 20,3 °C 20,3 °C 71 % 1010,6 hPa 0,0 mm 6,8 km/h (2 Bft) SW 234 ° 0 min 0,000 mm 1,5 UV-I 160 W/m² 14,9 °C 20,3 °C 11,3 km/h (2 Bft)
08.08.2017 15:32 20,3 °C 20,3 °C 71 % 1010,7 hPa 0,0 mm 5,4 km/h (1 Bft) W-SW 248 ° 0 min 0,000 mm 1,7 UV-I 181 W/m² 14,9 °C 20,3 °C 11,3 km/h (2 Bft)
08.08.2017 15:33 20,3 °C 20,3 °C 71 % 1010,7 hPa 0,0 mm 4,1 km/h (1 Bft) W-NW 283 ° 0 min 0,000 mm 1,9 UV-I 211 W/m² 14,9 °C 20,3 °C 11,3 km/h (2 Bft)
08.08.2017 15:34 20,3 °C 20,3 °C 70 % 1010,6 hPa 0,0 mm 8,2 km/h (2 Bft) W 259 ° 0 min 0,000 mm 2,1 UV-I 258 W/m² 14,6 °C 20,3 °C 12,9 km/h (3 Bft)
08.08.2017 15:35 20,3 °C 20,3 °C 71 % 1010,6 hPa 0,0 mm 8,1 km/h (2 Bft) W 270 ° 1 min 0,000 mm 2,6 UV-I 304 W/m² 14,9 °C 20,3 °C 14,5 km/h (3 Bft)
08.08.2017 15:36 20,3 °C 20,3 °C 70 % 1010,6 hPa 0,0 mm 10,5 km/h (2 Bft) W 265 ° 1 min 0,000 mm 2,8 UV-I 346 W/m² 14,6 °C 20,3 °C 14,5 km/h (3 Bft)
08.08.2017 15:37 20,3 °C 20,3 °C 70 % 1010,7 hPa 0,0 mm 11,3 km/h (2 Bft) W 275 ° 1 min 0,000 mm 3,1 UV-I 346 W/m² 14,6 °C 20,3 °C 14,5 km/h (3 Bft)
08.08.2017 15:39 20,4 °C 20,4 °C 69 % 1010,7 hPa 0,0 mm 11,4 km/h (2 Bft) W 273 ° 2 min 0,000 mm 3,6 UV-I 418 W/m² 14,5 °C 20,4 °C 17,7 km/h (3 Bft)
08.08.2017 15:40 20,6 °C 20,6 °C 69 % 1010,7 hPa 0,0 mm 12,4 km/h (3 Bft) W-SW 254 ° 1 min 0,000 mm 3,5 UV-I 494 W/m² 14,7 °C 20,6 °C 16,1 km/h (3 Bft)
08.08.2017 15:41 20,6 °C 20,6 °C 69 % 1010,7 hPa 0,0 mm 9,3 km/h (2 Bft) W 263 ° 1 min 0,000 mm 3,4 UV-I 410 W/m² 14,7 °C 20,6 °C 14,5 km/h (3 Bft)
08.08.2017 15:42 20,7 °C 20,7 °C 70 % 1010,7 hPa 0,0 mm 12,0 km/h (2 Bft) W 263 ° 1 min 0,000 mm 3,2 UV-I 362 W/m² 15,0 °C 20,7 °C 16,1 km/h (3 Bft)
08.08.2017 15:44 20,8 °C 20,8 °C 69 % 1010,8 hPa 0,0 mm 12,3 km/h (3 Bft) W 267 ° 2 min 0,000 mm 3,2 UV-I 385 W/m² 14,9 °C 20,8 °C 20,9 km/h (4 Bft)
08.08.2017 15:45 20,8 °C 20,8 °C 69 % 1010,8 hPa 0,0 mm 9,0 km/h (2 Bft) W-SW 239 ° 1 min 0,000 mm 3,7 UV-I 385 W/m² 14,9 °C 20,8 °C 16,1 km/h (3 Bft)
08.08.2017 15:46 21,0 °C 21,0 °C 69 % 1010,8 hPa 0,0 mm 8,4 km/h (2 Bft) W-NW 288 ° 1 min 0,000 mm 5,5 UV-I 933 W/m² 15,1 °C 21,0 °C 14,5 km/h (3 Bft)
08.08.2017 15:47 21,2 °C 21,2 °C 69 % 1010,7 hPa 0,0 mm 7,4 km/h (2 Bft) SW 232 ° 1 min 0,000 mm 5,4 UV-I 900 W/m² 15,3 °C 21,2 °C 16,1 km/h (3 Bft)
08.08.2017 15:48 21,4 °C 21,4 °C 69 % 1010,7 hPa 0,0 mm 8,5 km/h (2 Bft) W-SW 241 ° 1 min 0,000 mm 4,4 UV-I 900 W/m² 15,5 °C 21,4 °C 12,9 km/h (3 Bft)
08.08.2017 15:49 21,4 °C 21,4 °C 66 % 1010,7 hPa 0,0 mm 10,5 km/h (2 Bft) W-NW 290 ° 1 min 0,000 mm 4,0 UV-I 517 W/m² 14,8 °C 21,4 °C 17,7 km/h (3 Bft)
08.08.2017 15:50 21,4 °C 21,4 °C 65 % 1010,7 hPa 0,0 mm 15,5 km/h (3 Bft) W-NW 284 ° 1 min 0,000 mm 5,2 UV-I 517 W/m² 14,5 °C 21,4 °C 22,5 km/h (4 Bft)
08.08.2017 15:51 21,4 °C 21,4 °C 66 % 1010,8 hPa 0,0 mm 9,3 km/h (2 Bft) W 280 ° 1 min 0,000 mm 5,2 UV-I 932 W/m² 14,8 °C 21,4 °C 17,7 km/h (3 Bft)
08.08.2017 15:52 21,5 °C 21,5 °C 66 % 1010,8 hPa 0,0 mm 8,7 km/h (2 Bft) W 262 ° 1 min 0,000 mm 4,8 UV-I 932 W/m² 14,9 °C 21,5 °C 14,5 km/h (3 Bft)
08.08.2017 15:53 21,6 °C 21,6 °C 66 % 1010,8 hPa 0,0 mm 8,2 km/h (2 Bft) W 273 ° 1 min 0,000 mm 4,5 UV-I 496 W/m² 15,0 °C 21,6 °C 14,5 km/h (3 Bft)
08.08.2017 15:54 21,6 °C 21,6 °C 66 % 1010,8 hPa 0,0 mm 15,5 km/h (3 Bft) W-SW 242 ° 1 min 0,000 mm 4,6 UV-I 496 W/m² 15,0 °C 21,6 °C 19,3 km/h (3 Bft)
08.08.2017 15:55 21,5 °C 21,6 °C 66 % 1010,9 hPa 0,0 mm 16,2 km/h (3 Bft) W-SW 240 ° 1 min 0,000 mm 3,5 UV-I 496 W/m² 14,9 °C 21,5 °C 20,9 km/h (4 Bft)
08.08.2017 15:56 21,4 °C 21,5 °C 67 % 1010,8 hPa 0,0 mm 13,8 km/h (3 Bft) SW 228 ° 1 min 0,000 mm 2,9 UV-I 496 W/m² 15,0 °C 21,4 °C 22,5 km/h (4 Bft)
08.08.2017 15:57 21,4 °C 21,5 °C 66 % 1010,9 hPa 0,0 mm 10,9 km/h (2 Bft) W 272 ° 1 min 0,000 mm 2,8 UV-I 338 W/m² 14,8 °C 21,4 °C 16,1 km/h (3 Bft)
08.08.2017 15:58 21,3 °C 21,4 °C 65 % 1010,9 hPa 0,0 mm 16,2 km/h (3 Bft) SW 221 ° 1 min 0,000 mm 3,9 UV-I 378 W/m² 14,4 °C 21,3 °C 20,9 km/h (4 Bft)
08.08.2017 15:59 21,2 °C 21,3 °C 65 % 1010,8 hPa 0,0 mm 15,7 km/h (3 Bft) W 265 ° 1 min 0,000 mm 3,5 UV-I 585 W/m² 14,4 °C 21,2 °C 27,4 km/h (4 Bft)
08.08.2017 16:00 21,2 °C 21,2 °C 67 % 1010,9 hPa 0,0 mm 13,9 km/h (3 Bft) SW 236 ° 1 min 0,000 mm 3,3 UV-I 587 W/m² 14,8 °C 21,2 °C 22,5 km/h (4 Bft)
08.08.2017 16:01 21,2 °C 21,2 °C 67 % 1010,7 hPa 0,0 mm 10,3 km/h (2 Bft) NW 323 ° 1 min 0,254 mm 3,2 UV-I 587 W/m² 14,8 °C 21,2 °C 14,5 km/h (3 Bft)
08.08.2017 16:02 21,2 °C 21,2 °C 67 % 1010,7 hPa 0,0 mm 11,9 km/h (2 Bft) NW 322 ° 1 min 0,000 mm 2,7 UV-I 427 W/m² 14,8 °C 21,2 °C 17,7 km/h (3 Bft)
08.08.2017 16:03 21,2 °C 21,2 °C 67 % 1010,8 hPa 0,0 mm 13,0 km/h (3 Bft) NW 316 ° 0 min 0,000 mm 2,2 UV-I 248 W/m² 14,8 °C 21,2 °C 20,9 km/h (4 Bft)
08.08.2017 16:04 21,2 °C 21,2 °C 67 % 1010,7 hPa 0,0 mm 10,7 km/h (2 Bft) W 273 ° 0 min 0,000 mm 2,0 UV-I 239 W/m² 14,8 °C 21,2 °C 16,1 km/h (3 Bft)
08.08.2017 16:05 21,1 °C 21,2 °C 67 % 1010,8 hPa 0,0 mm 11,1 km/h (2 Bft) W 265 ° 0 min 0,000 mm 1,9 UV-I 234 W/m² 14,7 °C 21,1 °C 14,5 km/h (3 Bft)
08.08.2017 16:06 21,0 °C 21,1 °C 68 % 1010,8 hPa 0,0 mm 8,3 km/h (2 Bft) NW 310 ° 0 min 0,000 mm 1,9 UV-I 223 W/m² 14,9 °C 21,0 °C 12,9 km/h (3 Bft)
08.08.2017 16:07 20,9 °C 21,0 °C 67 % 1010,8 hPa 0,0 mm 13,7 km/h (3 Bft) W 259 ° 0 min 0,000 mm 1,9 UV-I 221 W/m² 14,5 °C 20,9 °C 20,9 km/h (4 Bft)
08.08.2017 16:08 20,8 °C 20,9 °C 67 % 1010,8 hPa 0,0 mm 15,6 km/h (3 Bft) W-NW 294 ° 0 min 0,000 mm 1,9 UV-I 218 W/m² 14,4 °C 20,8 °C 20,9 km/h (4 Bft)
08.08.2017 16:09 20,8 °C 20,8 °C 65 % 1010,9 hPa 0,0 mm 13,3 km/h (3 Bft) NW 324 ° 0 min 0,000 mm 1,9 UV-I 209 W/m² 14,0 °C 20,8 °C 24,1 km/h (4 Bft)
08.08.2017 16:10 20,7 °C 20,8 °C 66 % 1010,8 hPa 0,0 mm 11,1 km/h (2 Bft) W 281 ° 0 min 0,000 mm 1,9 UV-I 206 W/m² 14,1 °C 20,7 °C 17,7 km/h (3 Bft)
08.08.2017 16:11 20,7 °C 20,7 °C 67 % 1010,9 hPa 0,0 mm 11,3 km/h (2 Bft) W-NW 298 ° 0 min 0,000 mm 2,0 UV-I 207 W/m² 14,3 °C 20,7 °C 16,1 km/h (3 Bft)
08.08.2017 16:12 20,6 °C 20,7 °C 68 % 1010,9 hPa 0,0 mm 8,6 km/h (2 Bft) W-NW 285 ° 0 min 0,000 mm 2,0 UV-I 211 W/m² 14,5 °C 20,6 °C 14,5 km/h (3 Bft)
08.08.2017 16:13 20,6 °C 20,6 °C 67 % 1010,9 hPa 0,0 mm 17,4 km/h (3 Bft) W-NW 300 ° 0 min 0,000 mm 2,0 UV-I 207 W/m² 14,3 °C 20,6 °C 24,1 km/h (4 Bft)
08.08.2017 16:14 20,4 °C 20,6 °C 66 % 1010,9 hPa 0,0 mm 9,5 km/h (2 Bft) W 259 ° 0 min 0,000 mm 1,9 UV-I 200 W/m² 13,8 °C 20,4 °C 14,5 km/h (3 Bft)
08.08.2017 16:15 20,4 °C 20,5 °C 65 % 1010,9 hPa 0,0 mm 15,1 km/h (3 Bft) W 266 ° 0 min 0,000 mm 1,8 UV-I 167 W/m² 13,6 °C 20,4 °C 25,7 km/h (4 Bft)
08.08.2017 16:16 20,4 °C 20,4 °C 65 % 1010,9 hPa 0,0 mm 12,7 km/h (3 Bft) W-SW 258 ° 0 min 0,000 mm 1,4 UV-I 139 W/m² 13,6 °C 20,4 °C 19,3 km/h (3 Bft)
08.08.2017 16:17 20,3 °C 20,4 °C 66 % 1011,0 hPa 0,0 mm 15,2 km/h (3 Bft) W-NW 292 ° 0 min 0,000 mm 1,3 UV-I 121 W/m² 13,7 °C 20,3 °C 24,1 km/h (4 Bft)
08.08.2017 16:18 20,2 °C 20,3 °C 66 % 1010,9 hPa 0,0 mm 14,3 km/h (3 Bft) W-NW 292 ° 0 min 0,000 mm 1,2 UV-I 114 W/m² 13,6 °C 20,2 °C 19,3 km/h (3 Bft)
08.08.2017 16:19 20,2 °C 20,2 °C 66 % 1011,0 hPa 0,0 mm 14,6 km/h (3 Bft) NW 304 ° 0 min 0,000 mm 1,3 UV-I 118 W/m² 13,6 °C 20,2 °C 22,5 km/h (4 Bft)
08.08.2017 16:20 20,1 °C 20,2 °C 67 % 1011,0 hPa 0,0 mm 18,1 km/h (3 Bft) W-NW 290 ° 0 min 0,000 mm 1,3 UV-I 127 W/m² 13,8 °C 20,1 °C 24,1 km/h (4 Bft)
08.08.2017 16:21 20,1 °C 20,1 °C 68 % 1010,9 hPa 0,0 mm 16,2 km/h (3 Bft) W-NW 287 ° 0 min 0,000 mm 1,4 UV-I 146 W/m² 14,0 °C 20,1 °C 22,5 km/h (4 Bft)
08.08.2017 16:22 20,1 °C 20,1 °C 68 % 1010,9 hPa 0,0 mm 15,0 km/h (3 Bft) W-NW 286 ° 0 min 0,000 mm 1,5 UV-I 153 W/m² 14,0 °C 20,1 °C 20,9 km/h (4 Bft)
08.08.2017 16:23 20,0 °C 20,1 °C 68 % 1010,9 hPa 0,0 mm 12,5 km/h (3 Bft) W-NW 287 ° 0 min 0,000 mm 1,5 UV-I 162 W/m² 13,9 °C 20,0 °C 24,1 km/h (4 Bft)
08.08.2017 16:24 20,0 °C 20,0 °C 68 % 1010,9 hPa 0,0 mm 18,7 km/h (3 Bft) W 263 ° 0 min 0,000 mm 1,5 UV-I 167 W/m² 13,9 °C 20,0 °C 27,4 km/h (4 Bft)
08.08.2017 16:25 19,9 °C 20,0 °C 69 % 1010,9 hPa 0,0 mm 10,9 km/h (2 Bft) W-SW 256 ° 0 min 0,000 mm 1,5 UV-I 167 W/m² 14,0 °C 19,9 °C 14,5 km/h (3 Bft)
08.08.2017 16:26 19,9 °C 19,9 °C 68 % 1010,9 hPa 0,0 mm 13,2 km/h (3 Bft) W-NW 288 ° 0 min 0,000 mm 1,5 UV-I 163 W/m² 13,8 °C 19,9 °C 17,7 km/h (3 Bft)
08.08.2017 16:27 19,9 °C 19,9 °C 69 % 1010,9 hPa 0,0 mm 9,2 km/h (2 Bft) W-NW 300 ° 0 min 0,000 mm 1,5 UV-I 158 W/m² 14,0 °C 19,9 °C 14,5 km/h (3 Bft)
08.08.2017 16:28 19,9 °C 19,9 °C 69 % 1011,0 hPa 0,0 mm 9,6 km/h (2 Bft) W-NW 288 ° 0 min 0,000 mm 1,5 UV-I 158 W/m² 14,0 °C 19,9 °C 12,9 km/h (3 Bft)
08.08.2017 16:29 19,9 °C 19,9 °C 69 % 1011,0 hPa 0,0 mm 5,4 km/h (1 Bft) W 278 ° 0 min 0,000 mm 1,5 UV-I 160 W/m² 14,0 °C 19,9 °C 11,3 km/h (2 Bft)
08.08.2017 16:30 19,9 °C 19,9 °C 70 % 1011,0 hPa 0,0 mm 10,6 km/h (2 Bft) W-SW 241 ° 0 min 0,000 mm 1,4 UV-I 156 W/m² 14,3 °C 19,9 °C 19,3 km/h (3 Bft)
08.08.2017 16:31 19,9 °C 19,9 °C 68 % 1011,0 hPa 0,0 mm 12,3 km/h (3 Bft) NW 311 ° 0 min 0,000 mm 1,3 UV-I 148 W/m² 13,8 °C 19,9 °C 19,3 km/h (3 Bft)
08.08.2017 16:32 19,9 °C 19,9 °C 69 % 1011,0 hPa 0,0 mm 12,5 km/h (3 Bft) W 275 ° 0 min 0,000 mm 1,3 UV-I 139 W/m² 14,0 °C 19,9 °C 16,1 km/h (3 Bft)
08.08.2017 16:33 19,8 °C 19,9 °C 69 % 1011,1 hPa 0,0 mm 9,1 km/h (2 Bft) W 267 ° 0 min 0,000 mm 1,2 UV-I 125 W/m² 13,9 °C 19,8 °C 12,9 km/h (3 Bft)
08.08.2017 16:34 19,8 °C 19,9 °C 71 % 1011,0 hPa 0,0 mm 6,1 km/h (2 Bft) W 281 ° 0 min 0,000 mm 1,1 UV-I 118 W/m² 14,4 °C 19,8 °C 11,3 km/h (2 Bft)
08.08.2017 16:35 19,8 °C 19,8 °C 70 % 1011,1 hPa 0,0 mm 14,0 km/h (3 Bft) W 261 ° 0 min 0,000 mm 1,0 UV-I 113 W/m² 14,2 °C 19,8 °C 17,7 km/h (3 Bft)
08.08.2017 16:36 19,8 °C 19,8 °C 69 % 1011,0 hPa 0,0 mm 7,6 km/h (2 Bft) W-NW 290 ° 0 min 0,000 mm 0,9 UV-I 105 W/m² 13,9 °C 19,8 °C 12,9 km/h (3 Bft)
08.08.2017 16:37 19,8 °C 19,8 °C 70 % 1011,1 hPa 0,0 mm 7,7 km/h (2 Bft) SW 235 ° 0 min 0,000 mm 0,9 UV-I 97 W/m² 14,2 °C 19,8 °C 11,3 km/h (2 Bft)
08.08.2017 16:38 19,8 °C 19,8 °C 71 % 1011,1 hPa 0,0 mm 6,4 km/h (2 Bft) W 269 ° 0 min 0,000 mm 0,8 UV-I 88 W/m² 14,4 °C 19,8 °C 9,7 km/h (2 Bft)
08.08.2017 16:39 19,7 °C 19,8 °C 71 % 1011,1 hPa 0,0 mm 5,8 km/h (2 Bft) W-SW 255 ° 0 min 0,000 mm 0,7 UV-I 83 W/m² 14,3 °C 19,7 °C 11,3 km/h (2 Bft)
08.08.2017 16:40 19,7 °C 19,7 °C 71 % 1011,1 hPa 0,0 mm 13,1 km/h (3 Bft) W 262 ° 0 min 0,000 mm 0,7 UV-I 79 W/m² 14,3 °C 19,7 °C 17,7 km/h (3 Bft)
08.08.2017 16:41 19,7 °C 19,7 °C 70 % 1011,1 hPa 0,0 mm 8,4 km/h (2 Bft) W-SW 251 ° 0 min 0,000 mm 0,7 UV-I 79 W/m² 14,1 °C 19,7 °C 16,1 km/h (3 Bft)
08.08.2017 16:42 19,6 °C 19,7 °C 69 % 1011,0 hPa 0,0 mm 8,1 km/h (2 Bft) W 265 ° 0 min 0,000 mm 0,7 UV-I 81 W/m² 13,8 °C 19,6 °C 14,5 km/h (3 Bft)
08.08.2017 16:43 19,6 °C 19,6 °C 69 % 1011,0 hPa 0,0 mm 8,3 km/h (2 Bft) W 270 ° 0 min 0,000 mm 0,7 UV-I 81 W/m² 13,8 °C 19,6 °C 17,7 km/h (3 Bft)
08.08.2017 16:44 19,6 °C 19,6 °C 71 % 1011,0 hPa 0,0 mm 9,6 km/h (2 Bft) W 271 ° 0 min 0,000 mm 0,7 UV-I 76 W/m² 14,2 °C 19,6 °C 16,1 km/h (3 Bft)
08.08.2017 16:45 19,5 °C 19,6 °C 71 % 1011,0 hPa 0,0 mm 7,6 km/h (2 Bft) W-SW 248 ° 0 min 0,000 mm 0,6 UV-I 74 W/m² 14,1 °C 19,5 °C 12,9 km/h (3 Bft)
08.08.2017 16:46 19,5 °C 19,6 °C 72 % 1011,0 hPa 0,0 mm 11,9 km/h (2 Bft) W 259 ° 0 min 0,000 mm 0,6 UV-I 72 W/m² 14,3 °C 19,5 °C 17,7 km/h (3 Bft)
08.08.2017 16:47 19,4 °C 19,5 °C 70 % 1011,0 hPa 0,0 mm 6,6 km/h (2 Bft) W-SW 249 ° 0 min 0,000 mm 0,6 UV-I 70 W/m² 13,8 °C 19,4 °C 12,9 km/h (3 Bft)
08.08.2017 16:48 19,4 °C 19,4 °C 71 % 1011,0 hPa 0,0 mm 6,9 km/h (2 Bft) W-SW 252 ° 0 min 0,000 mm 0,6 UV-I 69 W/m² 14,0 °C 19,4 °C 11,3 km/h (2 Bft)
08.08.2017 16:49 19,4 °C 19,4 °C 70 % 1011,0 hPa 0,0 mm 8,8 km/h (2 Bft) W 267 ° 0 min 0,000 mm 0,6 UV-I 67 W/m² 13,8 °C 19,4 °C 12,9 km/h (3 Bft)
08.08.2017 16:50 19,4 °C 19,4 °C 71 % 1011,0 hPa 0,0 mm 7,6 km/h (2 Bft) W 263 ° 0 min 0,000 mm 0,6 UV-I 65 W/m² 14,0 °C 19,4 °C 14,5 km/h (3 Bft)
08.08.2017 16:51 19,4 °C 19,4 °C 72 % 1011,1 hPa 0,0 mm 6,8 km/h (2 Bft) W-SW 249 ° 0 min 0,000 mm 0,6 UV-I 65 W/m² 14,2 °C 19,4 °C 11,3 km/h (2 Bft)
08.08.2017 16:52 19,3 °C 19,4 °C 71 % 1011,1 hPa 0,0 mm 4,6 km/h (1 Bft) W-SW 247 ° 0 min 0,000 mm 0,6 UV-I 65 W/m² 13,9 °C 19,3 °C 6,4 km/h (2 Bft)
08.08.2017 16:53 19,3 °C 19,3 °C 72 % 1011,1 hPa 0,0 mm 7,2 km/h (2 Bft) W 265 ° 0 min 0,000 mm 0,6 UV-I 69 W/m² 14,1 °C 19,3 °C 12,9 km/h (3 Bft)
08.08.2017 16:54 19,3 °C 19,3 °C 73 % 1011,0 hPa 0,0 mm 6,5 km/h (2 Bft) W 276 ° 0 min 0,000 mm 0,7 UV-I 76 W/m² 14,3 °C 19,3 °C 9,7 km/h (2 Bft)
08.08.2017 16:55 19,3 °C 19,3 °C 73 % 1011,1 hPa 0,0 mm 9,1 km/h (2 Bft) W 269 ° 0 min 0,000 mm 0,7 UV-I 84 W/m² 14,3 °C 19,3 °C 11,3 km/h (2 Bft)
08.08.2017 16:56 19,3 °C 19,3 °C 72 % 1011,0 hPa 0,0 mm 6,3 km/h (2 Bft) W-NW 292 ° 0 min 0,000 mm 0,8 UV-I 93 W/m² 14,1 °C 19,3 °C 11,3 km/h (2 Bft)
08.08.2017 16:57 19,3 °C 19,3 °C 72 % 1011,0 hPa 0,0 mm 4,0 km/h (1 Bft) W-NW 292 ° 0 min 0,000 mm 0,8 UV-I 90 W/m² 14,1 °C 19,3 °C 6,4 km/h (2 Bft)
08.08.2017 16:58 19,3 °C 19,3 °C 72 % 1011,0 hPa 0,0 mm 5,2 km/h (1 Bft) W 266 ° 0 min 0,000 mm 0,8 UV-I 84 W/m² 14,1 °C 19,3 °C 6,4 km/h (2 Bft)
08.08.2017 16:59 19,3 °C 19,3 °C 73 % 1011,2 hPa 0,0 mm 3,0 km/h (1 Bft) W 269 ° 0 min 0,000 mm 0,7 UV-I 81 W/m² 14,3 °C 19,3 °C 4,8 km/h (1 Bft)
08.08.2017 17:00 19,3 °C 19,3 °C 73 % 1011,2 hPa 0,0 mm 4,0 km/h (1 Bft) W-NW 286 ° 0 min 0,000 mm 0,7 UV-I 77 W/m² 14,3 °C 19,3 °C 4,8 km/h (1 Bft)
08.08.2017 17:01 19,3 °C 19,3 °C 73 % 1011,2 hPa 0,0 mm 3,2 km/h (1 Bft) W 262 ° 0 min 0,127 mm 0,7 UV-I 74 W/m² 14,3 °C 19,3 °C 4,8 km/h (1 Bft)
08.08.2017 17:02 19,3 °C 19,3 °C 74 % 1011,3 hPa 0,0 mm 6,1 km/h (2 Bft) W-NW 286 ° 0 min 0,000 mm 0,6 UV-I 65 W/m² 14,5 °C 19,3 °C 9,7 km/h (2 Bft)
08.08.2017 17:03 19,3 °C 19,3 °C 73 % 1011,3 hPa 0,0 mm 5,6 km/h (1 Bft) W 269 ° 0 min 0,000 mm 0,6 UV-I 62 W/m² 14,3 °C 19,3 °C 8,0 km/h (2 Bft)
08.08.2017 17:04 19,3 °C 19,3 °C 74 % 1011,3 hPa 0,0 mm 4,2 km/h (1 Bft) W-NW 282 ° 0 min 0,000 mm 0,6 UV-I 63 W/m² 14,5 °C 19,3 °C 9,7 km/h (2 Bft)
08.08.2017 17:05 19,3 °C 19,3 °C 75 % 1011,4 hPa 0,0 mm 4,6 km/h (1 Bft) W-SW 247 ° 0 min 0,000 mm 0,6 UV-I 69 W/m² 14,8 °C 19,3 °C 9,7 km/h (2 Bft)
08.08.2017 17:06 19,2 °C 19,3 °C 74 % 1011,3 hPa 0,0 mm 7,5 km/h (2 Bft) W-SW 253 ° 0 min 0,000 mm 0,7 UV-I 79 W/m² 14,4 °C 19,2 °C 12,9 km/h (3 Bft)
08.08.2017 17:07 19,2 °C 19,2 °C 75 % 1011,2 hPa 0,0 mm 5,3 km/h (1 Bft) W-NW 295 ° 0 min 0,000 mm 0,8 UV-I 91 W/m² 14,7 °C 19,2 °C 9,7 km/h (2 Bft)
08.08.2017 17:08 19,2 °C 19,2 °C 75 % 1011,2 hPa 0,0 mm 10,1 km/h (2 Bft) W-NW 285 ° 0 min 0,000 mm 0,8 UV-I 84 W/m² 14,7 °C 19,2 °C 12,9 km/h (3 Bft)
08.08.2017 17:09 19,2 °C 19,2 °C 75 % 1011,3 hPa 0,0 mm 4,8 km/h (1 Bft) W 281 ° 0 min 0,000 mm 0,7 UV-I 72 W/m² 14,7 °C 19,2 °C 9,7 km/h (2 Bft)
08.08.2017 17:10 19,2 °C 19,2 °C 77 % 1011,3 hPa 0,0 mm 2,5 km/h (1 Bft) W 281 ° 0 min 0,000 mm 0,5 UV-I 60 W/m² 15,1 °C 19,2 °C 4,8 km/h (1 Bft)
08.08.2017 17:11 19,1 °C 19,2 °C 77 % 1011,3 hPa 0,0 mm 1,7 km/h (1 Bft) W-SW 243 ° 0 min 0,000 mm 0,0 UV-I 51 W/m² 15,0 °C 19,1 °C 4,8 km/h (1 Bft)
08.08.2017 17:12 19,1 °C 19,2 °C 76 % 1011,4 hPa 0,0 mm 7,8 km/h (2 Bft) W 259 ° 0 min 0,000 mm 0,0 UV-I 42 W/m² 14,8 °C 19,1 °C 11,3 km/h (2 Bft)
08.08.2017 17:13 19,1 °C 19,1 °C 77 % 1011,4 hPa 0,0 mm 5,9 km/h (2 Bft) W 269 ° 0 min 0,000 mm 0,0 UV-I 39 W/m² 15,0 °C 19,1 °C 9,7 km/h (2 Bft)
08.08.2017 17:14 18,9 °C 19,1 °C 77 % 1011,4 hPa 0,0 mm 7,8 km/h (2 Bft) W 275 ° 0 min 0,000 mm 0,0 UV-I 32 W/m² 14,8 °C 18,9 °C 11,3 km/h (2 Bft)
08.08.2017 17:15 18,9 °C 18,9 °C 77 % 1011,4 hPa 0,0 mm 6,0 km/h (2 Bft) W-NW 286 ° 0 min 0,000 mm 0,0 UV-I 30 W/m² 14,8 °C 18,9 °C 11,3 km/h (2 Bft)
08.08.2017 17:16 18,8 °C 18,9 °C 78 % 1011,4 hPa 0,0 mm 2,5 km/h (1 Bft) W-NW 284 ° 0 min 0,000 mm 0,0 UV-I 28 W/m² 14,9 °C 18,8 °C 4,8 km/h (1 Bft)
08.08.2017 17:17 18,8 °C 18,8 °C 79 % 1011,4 hPa 0,0 mm 0,9 km/h (0 Bft) W-NW 284 ° 0 min 0,000 mm 0,0 UV-I 26 W/m² 15,1 °C 18,8 °C 3,2 km/h (1 Bft)
08.08.2017 17:18 18,7 °C 18,8 °C 79 % 1011,5 hPa 0,0 mm 3,3 km/h (1 Bft) W 279 ° 0 min 0,000 mm 0,0 UV-I 21 W/m² 15,0 °C 18,7 °C 4,8 km/h (1 Bft)
08.08.2017 17:19 18,6 °C 18,7 °C 80 % 1011,5 hPa 0,0 mm 2,6 km/h (1 Bft) W 259 ° 0 min 0,000 mm 0,0 UV-I 19 W/m² 15,1 °C 18,6 °C 4,8 km/h (1 Bft)
08.08.2017 17:20 18,6 °C 18,6 °C 79 % 1011,5 hPa 0,0 mm 4,8 km/h (1 Bft) W 259 ° 0 min 0,000 mm 0,0 UV-I 18 W/m² 14,9 °C 18,6 °C 9,7 km/h (2 Bft)
08.08.2017 17:21 18,5 °C 18,6 °C 79 % 1011,5 hPa 0,0 mm 1,2 km/h (1 Bft) W 259 ° 0 min 0,000 mm 0,0 UV-I 18 W/m² 14,8 °C 18,5 °C 3,2 km/h (1 Bft)
08.08.2017 17:22 18,5 °C 18,5 °C 79 % 1011,5 hPa 0,0 mm 2,3 km/h (1 Bft) W 263 ° 0 min 0,000 mm 0,0 UV-I 19 W/m² 14,8 °C 18,5 °C 6,4 km/h (2 Bft)
08.08.2017 17:23 18,4 °C 18,5 °C 79 % 1011,5 hPa 0,0 mm 4,8 km/h (1 Bft) W-SW 245 ° 0 min 0,000 mm 0,0 UV-I 21 W/m² 14,7 °C 18,4 °C 8,0 km/h (2 Bft)
08.08.2017 17:24 18,4 °C 18,4 °C 80 % 1011,5 hPa 0,0 mm 5,2 km/h (1 Bft) W 269 ° 0 min 0,000 mm 0,0 UV-I 21 W/m² 14,9 °C 18,4 °C 9,7 km/h (2 Bft)
08.08.2017 17:25 18,3 °C 18,4 °C 80 % 1011,6 hPa 0,0 mm 2,3 km/h (1 Bft) W 267 ° 0 min 0,000 mm 0,0 UV-I 21 W/m² 14,8 °C 18,3 °C 4,8 km/h (1 Bft)
08.08.2017 17:26 18,3 °C 18,3 °C 80 % 1011,7 hPa 0,0 mm 1,0 km/h (0 Bft) W 267 ° 0 min 0,000 mm 0,0 UV-I 19 W/m² 14,8 °C 18,3 °C 1,6 km/h (1 Bft)
08.08.2017 17:27 18,2 °C 18,3 °C 79 % 1011,7 hPa 0,0 mm 0,3 km/h (0 Bft) W 267 ° 0 min 0,000 mm 0,0 UV-I 16 W/m² 14,5 °C 18,2 °C 1,6 km/h (1 Bft)
08.08.2017 17:28 18,1 °C 18,2 °C 81 % 1011,8 hPa 0,0 mm 1,9 km/h (1 Bft) W 262 ° 0 min 0,000 mm 0,0 UV-I 14 W/m² 14,8 °C 18,1 °C 3,2 km/h (1 Bft)
08.08.2017 17:29 18,1 °C 18,1 °C 80 % 1011,9 hPa 0,0 mm 5,0 km/h (1 Bft) W 268 ° 0 min 0,000 mm 0,0 UV-I 12 W/m² 14,6 °C 18,1 °C 11,3 km/h (2 Bft)
08.08.2017 17:30 18,0 °C 18,1 °C 80 % 1011,9 hPa 0,0 mm 5,6 km/h (1 Bft) SW 233 ° 0 min 0,000 mm 0,0 UV-I 11 W/m² 14,5 °C 18,0 °C 12,9 km/h (3 Bft)
08.08.2017 17:31 17,9 °C 18,0 °C 80 % 1012,1 hPa 0,0 mm 4,4 km/h (1 Bft) W-SW 240 ° 0 min 0,000 mm 0,0 UV-I 9 W/m² 14,4 °C 17,9 °C 8,0 km/h (2 Bft)
08.08.2017 17:32 17,9 °C 17,9 °C 81 % 1012,2 hPa 0,0 mm 2,0 km/h (1 Bft) W-SW 240 ° 0 min 0,000 mm 0,0 UV-I 7 W/m² 14,6 °C 17,9 °C 3,2 km/h (1 Bft)
08.08.2017 17:33 17,8 °C 17,9 °C 81 % 1012,2 hPa 0,0 mm 6,4 km/h (2 Bft) W-SW 241 ° 0 min 0,000 mm 0,0 UV-I 7 W/m² 14,5 °C 17,8 °C 9,7 km/h (2 Bft)
08.08.2017 17:34 17,8 °C 17,8 °C 82 % 1012,2 hPa 0,0 mm 8,6 km/h (2 Bft) W 267 ° 0 min 0,000 mm 0,0 UV-I 9 W/m² 14,7 °C 17,8 °C 12,9 km/h (3 Bft)
08.08.2017 17:35 17,7 °C 17,8 °C 82 % 1012,3 hPa 0,2 mm 9,8 km/h (2 Bft) S-SW 204 ° 0 min 0,000 mm 0,0 UV-I 11 W/m² 14,6 °C 17,7 °C 16,1 km/h (3 Bft)
08.08.2017 17:36 17,6 °C 17,7 °C 82 % 1012,5 hPa 0,2 mm 5,1 km/h (1 Bft) S 174 ° 0 min 0,000 mm 0,0 UV-I 14 W/m² 14,5 °C 17,6 °C 8,0 km/h (2 Bft)
08.08.2017 17:37 17,4 °C 17,6 °C 83 % 1012,5 hPa 0,2 mm 5,0 km/h (1 Bft) S-SW 205 ° 0 min 0,000 mm 0,0 UV-I 21 W/m² 14,5 °C 17,4 °C 9,7 km/h (2 Bft)
08.08.2017 17:38 17,3 °C 17,4 °C 83 % 1012,4 hPa 0,2 mm 1,1 km/h (1 Bft) S-SW 207 ° 0 min 0,000 mm 0,0 UV-I 25 W/m² 14,4 °C 17,3 °C 4,8 km/h (1 Bft)
08.08.2017 17:39 17,2 °C 17,3 °C 84 % 1012,2 hPa 0,6 mm 2,0 km/h (1 Bft) NW 326 ° 0 min 0,000 mm 0,0 UV-I 28 W/m² 14,5 °C 17,2 °C 4,8 km/h (1 Bft)
08.08.2017 17:40 17,1 °C 17,2 °C 85 % 1012,0 hPa 1,0 mm 4,5 km/h (1 Bft) NW 314 ° 0 min 0,000 mm 0,0 UV-I 35 W/m² 14,6 °C 17,1 °C 6,4 km/h (2 Bft)
08.08.2017 17:41 17,0 °C 17,1 °C 86 % 1011,8 hPa 0,4 mm 4,9 km/h (1 Bft) W-NW 294 ° 0 min 0,000 mm 0,0 UV-I 42 W/m² 14,6 °C 17,0 °C 9,7 km/h (2 Bft)
08.08.2017 17:42 16,8 °C 17,0 °C 87 % 1011,8 hPa 0,4 mm 3,6 km/h (1 Bft) W-SW 255 ° 0 min 0,000 mm 0,0 UV-I 51 W/m² 14,6 °C 16,8 °C 4,8 km/h (1 Bft)
08.08.2017 17:43 16,7 °C 16,8 °C 88 % 1012,0 hPa 0,2 mm 9,9 km/h (2 Bft) W 279 ° 0 min 0,000 mm 0,0 UV-I 62 W/m² 14,7 °C 16,7 °C 14,5 km/h (3 Bft)
08.08.2017 17:44 16,6 °C 16,7 °C 88 % 1012,1 hPa 0,0 mm 6,4 km/h (2 Bft) S-SW 198 ° 0 min 0,000 mm 0,5 UV-I 65 W/m² 14,6 °C 16,6 °C 9,7 km/h (2 Bft)
08.08.2017 17:45 16,4 °C 16,6 °C 89 % 1012,2 hPa 0,2 mm 5,1 km/h (1 Bft) W-SW 253 ° 0 min 0,000 mm 0,5 UV-I 67 W/m² 14,6 °C 16,4 °C 9,7 km/h (2 Bft)
08.08.2017 17:46 16,3 °C 16,4 °C 89 % 1012,3 hPa 0,0 mm 3,8 km/h (1 Bft) W-SW 239 ° 0 min 0,000 mm 0,5 UV-I 63 W/m² 14,5 °C 16,3 °C 6,4 km/h (2 Bft)
08.08.2017 17:47 16,2 °C 16,3 °C 89 % 1012,3 hPa 0,0 mm 2,9 km/h (1 Bft) W-SW 247 ° 0 min 0,000 mm 0,5 UV-I 62 W/m² 14,4 °C 16,2 °C 4,8 km/h (1 Bft)
08.08.2017 17:48 16,2 °C 16,2 °C 90 % 1012,2 hPa 0,0 mm 1,5 km/h (1 Bft) W-SW 246 ° 0 min 0,000 mm 0,5 UV-I 63 W/m² 14,6 °C 16,2 °C 3,2 km/h (1 Bft)
08.08.2017 17:49 16,1 °C 16,2 °C 90 % 1012,1 hPa 0,0 mm 0,0 km/h (0 Bft) W-SW 246 ° 0 min 0,000 mm 0,5 UV-I 62 W/m² 14,5 °C 16,1 °C 0,0 km/h (0 Bft)
08.08.2017 17:50 16,1 °C 16,1 °C 90 % 1012,0 hPa 0,0 mm 0,0 km/h (0 Bft) W-SW 246 ° 0 min 0,000 mm 0,0 UV-I 58 W/m² 14,5 °C 16,1 °C 0,0 km/h (0 Bft)
08.08.2017 17:51 16,1 °C 16,2 °C 90 % 1012,0 hPa 0,0 mm 2,9 km/h (1 Bft) W 266 ° 0 min 0,000 mm 0,0 UV-I 54 W/m² 14,5 °C 16,1 °C 6,4 km/h (2 Bft)
08.08.2017 17:52 16,2 °C 16,2 °C 90 % 1011,9 hPa 0,0 mm 4,2 km/h (1 Bft) W-SW 245 ° 0 min 0,000 mm 0,0 UV-I 56 W/m² 14,6 °C 16,2 °C 6,4 km/h (2 Bft)
08.08.2017 17:53 16,2 °C 16,2 °C 90 % 1011,9 hPa 0,0 mm 4,3 km/h (1 Bft) W-SW 255 ° 0 min 0,000 mm 0,0 UV-I 60 W/m² 14,6 °C 16,2 °C 9,7 km/h (2 Bft)
08.08.2017 17:54 16,2 °C 16,2 °C 90 % 1011,8 hPa 0,0 mm 3,2 km/h (1 Bft) S-SW 193 ° 0 min 0,000 mm 0,5 UV-I 69 W/m² 14,6 °C 16,2 °C 6,4 km/h (2 Bft)
08.08.2017 17:55 16,2 °C 16,2 °C 90 % 1011,8 hPa 0,0 mm 5,4 km/h (1 Bft) S 188 ° 0 min 0,000 mm 0,5 UV-I 67 W/m² 14,6 °C 16,2 °C 8,0 km/h (2 Bft)
08.08.2017 17:56 16,2 °C 16,2 °C 90 % 1011,8 hPa 0,0 mm 4,8 km/h (1 Bft) S 190 ° 0 min 0,000 mm 0,5 UV-I 63 W/m² 14,6 °C 16,2 °C 11,3 km/h (2 Bft)
08.08.2017 17:57 16,2 °C 16,2 °C 90 % 1011,8 hPa 0,0 mm 3,2 km/h (1 Bft) S 188 ° 0 min 0,000 mm 0,0 UV-I 56 W/m² 14,6 °C 16,2 °C 4,8 km/h (1 Bft)
08.08.2017 17:58 16,2 °C 16,2 °C 91 % 1011,9 hPa 0,0 mm 1,5 km/h (1 Bft) S 188 ° 0 min 0,000 mm 0,0 UV-I 53 W/m² 14,7 °C 16,2 °C 3,2 km/h (1 Bft)
08.08.2017 17:59 16,1 °C 16,2 °C 91 % 1011,9 hPa 0,0 mm 0,3 km/h (0 Bft) S 188 ° 0 min 0,000 mm 0,0 UV-I 51 W/m² 14,6 °C 16,1 °C 1,6 km/h (1 Bft)
08.08.2017 18:00 16,1 °C 16,1 °C 91 % 1011,9 hPa 0,0 mm 2,1 km/h (1 Bft) S 188 ° 0 min 0,000 mm 0,0 UV-I 51 W/m² 14,6 °C 16,1 °C 3,2 km/h (1 Bft)
08.08.2017 18:01 16,1 °C 16,1 °C 91 % 1011,8 hPa 0,0 mm 3,2 km/h (1 Bft) S 188 ° 0 min 0,026 mm 0,0 UV-I 53 W/m² 14,6 °C 16,1 °C 8,0 km/h (2 Bft)
08.08.2017 18:02 16,0 °C 16,1 °C 92 % 1011,8 hPa 0,0 mm 4,2 km/h (1 Bft) S 188 ° 0 min 0,000 mm 0,0 UV-I 56 W/m² 14,7 °C 16,0 °C 6,4 km/h (2 Bft)
08.08.2017 18:03 16,0 °C 16,0 °C 92 % 1011,8 hPa 0,0 mm 1,5 km/h (1 Bft) S 188 ° 0 min 0,000 mm 0,0 UV-I 60 W/m² 14,7 °C 16,0 °C 3,2 km/h (1 Bft)
08.08.2017 18:04 16,0 °C 16,0 °C 92 % 1011,8 hPa 0,0 mm 1,1 km/h (1 Bft) S 188 ° 0 min 0,000 mm 0,0 UV-I 62 W/m² 14,7 °C 16,0 °C 3,2 km/h (1 Bft)
08.08.2017 18:05 15,9 °C 16,0 °C 92 % 1011,8 hPa 0,0 mm 1,6 km/h (1 Bft) S 188 ° 0 min 0,000 mm 0,0 UV-I 65 W/m² 14,6 °C 15,9 °C 3,2 km/h (1 Bft)
08.08.2017 18:06 16,0 °C 16,0 °C 92 % 1011,8 hPa 0,0 mm 0,3 km/h (0 Bft) S 188 ° 0 min 0,000 mm 0,5 UV-I 76 W/m² 14,7 °C 16,0 °C 1,6 km/h (1 Bft)
08.08.2017 18:07 15,9 °C 16,0 °C 92 % 1011,7 hPa 0,0 mm 0,0 km/h (0 Bft) S 188 ° 0 min 0,000 mm 0,5 UV-I 81 W/m² 14,6 °C 15,9 °C 0,0 km/h (0 Bft)
08.08.2017 18:08 16,0 °C 16,0 °C 92 % 1011,8 hPa 0,0 mm 0,0 km/h (0 Bft) S 188 ° 0 min 0,000 mm 0,5 UV-I 81 W/m² 14,7 °C 16,0 °C 0,0 km/h (0 Bft)
08.08.2017 18:09 15,9 °C 16,0 °C 92 % 1011,7 hPa 0,0 mm 0,0 km/h (0 Bft) S 188 ° 0 min 0,000 mm 0,6 UV-I 83 W/m² 14,6 °C 15,9 °C 0,0 km/h (0 Bft)
08.08.2017 18:10 15,9 °C 15,9 °C 92 % 1011,8 hPa 0,0 mm 0,0 km/h (0 Bft) S 188 ° 0 min 0,000 mm 0,6 UV-I 86 W/m² 14,6 °C 15,9 °C 0,0 km/h (0 Bft)
08.08.2017 18:11 16,0 °C 16,0 °C 92 % 1011,8 hPa 0,0 mm 0,0 km/h (0 Bft) S 188 ° 0 min 0,000 mm 0,6 UV-I 86 W/m² 14,7 °C 16,0 °C 0,0 km/h (0 Bft)
08.08.2017 18:12 16,0 °C 16,0 °C 93 % 1011,7 hPa 0,0 mm 0,0 km/h (0 Bft) S 188 ° 0 min 0,000 mm 0,6 UV-I 84 W/m² 14,9 °C 16,0 °C 0,0 km/h (0 Bft)
08.08.2017 18:13 16,1 °C 16,1 °C 93 % 1011,7 hPa 0,0 mm 0,0 km/h (0 Bft) S 188 ° 0 min 0,000 mm 0,6 UV-I 84 W/m² 15,0 °C 16,1 °C 0,0 km/h (0 Bft)
08.08.2017 18:14 16,1 °C 16,1 °C 93 % 1011,7 hPa 0,0 mm 0,0 km/h (0 Bft) S 188 ° 0 min 0,000 mm 0,6 UV-I 84 W/m² 15,0 °C 16,1 °C 0,0 km/h (0 Bft)
08.08.2017 18:15 16,1 °C 16,1 °C 93 % 1011,7 hPa 0,0 mm 0,3 km/h (0 Bft) S 188 ° 0 min 0,000 mm 0,6 UV-I 81 W/m² 15,0 °C 16,1 °C 1,6 km/h (1 Bft)
08.08.2017 18:16 16,1 °C 16,1 °C 93 % 1011,6 hPa 0,0 mm 0,8 km/h (0 Bft) S 188 ° 0 min 0,000 mm 0,5 UV-I 77 W/m² 15,0 °C 16,1 °C 1,6 km/h (1 Bft)
08.08.2017 18:17 16,1 °C 16,1 °C 93 % 1011,6 hPa 0,0 mm 0,5 km/h (0 Bft) S 188 ° 0 min 0,000 mm 0,5 UV-I 77 W/m² 15,0 °C 16,1 °C 1,6 km/h (1 Bft)
08.08.2017 18:18 16,1 °C 16,1 °C 93 % 1011,6 hPa 0,0 mm 0,0 km/h (0 Bft) S 188 ° 0 min 0,000 mm 0,6 UV-I 81 W/m² 15,0 °C 16,1 °C 0,0 km/h (0 Bft)
08.08.2017 18:19 16,1 °C 16,1 °C 93 % 1011,6 hPa 0,0 mm 0,0 km/h (0 Bft) S 188 ° 0 min 0,000 mm 0,6 UV-I 83 W/m² 15,0 °C 16,1 °C 0,0 km/h (0 Bft)
08.08.2017 18:20 16,1 °C 16,1 °C 93 % 1011,5 hPa 0,0 mm 0,9 km/h (0 Bft) S 188 ° 0 min 0,000 mm 0,6 UV-I 83 W/m² 15,0 °C 16,1 °C 3,2 km/h (1 Bft)
08.08.2017 18:21 16,1 °C 16,1 °C 93 % 1011,6 hPa 0,0 mm 0,1 km/h (0 Bft) S 188 ° 0 min 0,000 mm 0,6 UV-I 81 W/m² 15,0 °C 16,1 °C 1,6 km/h (1 Bft)
08.08.2017 18:22 16,1 °C 16,1 °C 93 % 1011,6 hPa 0,0 mm 0,0 km/h (0 Bft) S 188 ° 0 min 0,000 mm 0,6 UV-I 79 W/m² 15,0 °C 16,1 °C 0,0 km/h (0 Bft)
08.08.2017 18:24 16,2 °C 16,2 °C 93 % 1011,5 hPa 0,0 mm 0,6 km/h (0 Bft) S 188 ° 0 min 0,000 mm 0,6 UV-I 90 W/m² 15,1 °C 16,2 °C 3,2 km/h (1 Bft)
08.08.2017 18:25 16,2 °C 16,2 °C 93 % 1011,5 hPa 0,0 mm 0,0 km/h (0 Bft) S 188 ° 0 min 0,000 mm 0,6 UV-I 100 W/m² 15,1 °C 16,2 °C 0,0 km/h (0 Bft)
08.08.2017 18:26 16,2 °C 16,2 °C 93 % 1011,5 hPa 0,0 mm 1,8 km/h (1 Bft) S 188 ° 0 min 0,000 mm 0,6 UV-I 113 W/m² 15,1 °C 16,2 °C 3,2 km/h (1 Bft)
08.08.2017 18:27 16,2 °C 16,2 °C 93 % 1011,5 hPa 0,0 mm 2,5 km/h (1 Bft) S 186 ° 0 min 0,000 mm 0,6 UV-I 111 W/m² 15,1 °C 16,2 °C 6,4 km/h (2 Bft)
08.08.2017 18:28 16,2 °C 16,2 °C 93 % 1011,6 hPa 0,0 mm 1,2 km/h (1 Bft) S 186 ° 0 min 0,000 mm 0,6 UV-I 97 W/m² 15,1 °C 16,2 °C 3,2 km/h (1 Bft)
08.08.2017 18:29 16,2 °C 16,2 °C 93 % 1011,6 hPa 0,0 mm 0,0 km/h (0 Bft) S 186 ° 0 min 0,000 mm 0,5 UV-I 84 W/m² 15,1 °C 16,2 °C 0,0 km/h (0 Bft)
08.08.2017 18:30 16,2 °C 16,2 °C 93 % 1011,6 hPa 0,0 mm 2,0 km/h (1 Bft) S 186 ° 0 min 0,000 mm 0,5 UV-I 63 W/m² 15,1 °C 16,2 °C 3,2 km/h (1 Bft)
08.08.2017 18:31 16,2 °C 16,3 °C 93 % 1011,5 hPa 0,0 mm 0,8 km/h (0 Bft) S 186 ° 0 min 0,000 mm 0,5 UV-I 70 W/m² 15,1 °C 16,2 °C 3,2 km/h (1 Bft)
08.08.2017 18:32 16,3 °C 16,3 °C 93 % 1011,6 hPa 0,0 mm 4,5 km/h (1 Bft) S 190 ° 0 min 0,000 mm 0,5 UV-I 77 W/m² 15,2 °C 16,3 °C 6,4 km/h (2 Bft)
08.08.2017 18:33 16,3 °C 16,3 °C 93 % 1011,6 hPa 0,0 mm 3,4 km/h (1 Bft) S-SW 192 ° 0 min 0,000 mm 0,5 UV-I 76 W/m² 15,2 °C 16,3 °C 4,8 km/h (1 Bft)
08.08.2017 18:34 16,3 °C 16,3 °C 93 % 1011,5 hPa 0,0 mm 2,6 km/h (1 Bft) S-SW 211 ° 0 min 0,000 mm 0,5 UV-I 76 W/m² 15,2 °C 16,3 °C 4,8 km/h (1 Bft)
08.08.2017 18:35 16,3 °C 16,3 °C 93 % 1011,6 hPa 0,0 mm 4,0 km/h (1 Bft) S 188 ° 0 min 0,000 mm 0,5 UV-I 72 W/m² 15,2 °C 16,3 °C 4,8 km/h (1 Bft)
08.08.2017 18:36 16,3 °C 16,3 °C 92 % 1011,6 hPa 0,0 mm 3,3 km/h (1 Bft) S 188 ° 0 min 0,000 mm 0,5 UV-I 69 W/m² 15,0 °C 16,3 °C 4,8 km/h (1 Bft)
08.08.2017 18:37 16,4 °C 16,4 °C 93 % 1011,6 hPa 0,0 mm 0,6 km/h (0 Bft) S 188 ° 0 min 0,000 mm 0,5 UV-I 67 W/m² 15,3 °C 16,4 °C 1,6 km/h (1 Bft)
08.08.2017 18:38 16,4 °C 16,4 °C 93 % 1011,6 hPa 0,0 mm 2,8 km/h (1 Bft) S 186 ° 0 min 0,000 mm 0,5 UV-I 65 W/m² 15,3 °C 16,4 °C 6,4 km/h (2 Bft)
08.08.2017 18:39 16,4 °C 16,4 °C 92 % 1011,6 hPa 0,0 mm 4,2 km/h (1 Bft) S 186 ° 0 min 0,000 mm 0,5 UV-I 60 W/m² 15,1 °C 16,4 °C 6,4 km/h (2 Bft)
08.08.2017 18:40 16,4 °C 16,4 °C 92 % 1011,6 hPa 0,0 mm 1,5 km/h (1 Bft) S 186 ° 0 min 0,000 mm 0,0 UV-I 54 W/m² 15,1 °C 16,4 °C 3,2 km/h (1 Bft)
08.08.2017 18:41 16,4 °C 16,4 °C 92 % 1011,5 hPa 0,0 mm 0,5 km/h (0 Bft) S 186 ° 0 min 0,000 mm 0,0 UV-I 39 W/m² 15,1 °C 16,4 °C 1,6 km/h (1 Bft)
08.08.2017 18:42 16,4 °C 16,4 °C 92 % 1011,5 hPa 0,0 mm 0,0 km/h (0 Bft) S 186 ° 0 min 0,000 mm 0,0 UV-I 35 W/m² 15,1 °C 16,4 °C 0,0 km/h (0 Bft)
08.08.2017 18:44 16,4 °C 16,4 °C 92 % 1011,6 hPa 0,0 mm 0,0 km/h (0 Bft) S 186 ° 0 min 0,000 mm 0,0 UV-I 42 W/m² 15,1 °C 16,4 °C 0,0 km/h (0 Bft)
08.08.2017 18:45 16,4 °C 16,4 °C 92 % 1011,6 hPa 0,0 mm 0,3 km/h (0 Bft) S 186 ° 0 min 0,000 mm 0,0 UV-I 40 W/m² 15,1 °C 16,4 °C 1,6 km/h (1 Bft)
08.08.2017 18:46 16,4 °C 16,4 °C 92 % 1011,6 hPa 0,0 mm 0,0 km/h (0 Bft) S 186 ° 0 min 0,000 mm 0,0 UV-I 37 W/m² 15,1 °C 16,4 °C 0,0 km/h (0 Bft)
08.08.2017 18:47 16,4 °C 16,4 °C 92 % 1011,6 hPa 0,0 mm 0,0 km/h (0 Bft) S 186 ° 0 min 0,000 mm 0,0 UV-I 30 W/m² 15,1 °C 16,4 °C 0,0 km/h (0 Bft)
08.08.2017 18:49 16,5 °C 16,6 °C 92 % 1011,6 hPa 0,0 mm 3,8 km/h (1 Bft) SW 231 ° 0 min 0,000 mm 0,0 UV-I 28 W/m² 15,2 °C 16,5 °C 6,4 km/h (2 Bft)
08.08.2017 18:50 16,5 °C 16,6 °C 92 % 1011,6 hPa 0,0 mm 1,0 km/h (0 Bft) SW 231 ° 0 min 0,000 mm 0,0 UV-I 30 W/m² 15,2 °C 16,5 °C 3,2 km/h (1 Bft)
08.08.2017 18:51 16,6 °C 16,6 °C 92 % 1011,7 hPa 0,0 mm 0,0 km/h (0 Bft) SW 231 ° 0 min 0,000 mm 0,0 UV-I 32 W/m² 15,3 °C 16,6 °C 0,0 km/h (0 Bft)
08.08.2017 18:52 16,5 °C 16,6 °C 92 % 1011,6 hPa 0,0 mm 0,4 km/h (0 Bft) SW 231 ° 0 min 0,000 mm 0,0 UV-I 35 W/m² 15,2 °C 16,5 °C 1,6 km/h (1 Bft)
08.08.2017 18:54 16,4 °C 16,5 °C 92 % 1011,5 hPa 0,0 mm 0,3 km/h (0 Bft) SW 231 ° 0 min 0,000 mm 0,0 UV-I 37 W/m² 15,1 °C 16,4 °C 1,6 km/h (1 Bft)
08.08.2017 18:55 16,4 °C 16,4 °C 92 % 1011,5 hPa 0,0 mm 0,6 km/h (0 Bft) SW 230 ° 0 min 0,000 mm 0,0 UV-I 35 W/m² 15,1 °C 16,4 °C 3,2 km/h (1 Bft)
08.08.2017 18:56 16,4 °C 16,4 °C 92 % 1011,5 hPa 0,0 mm 2,7 km/h (1 Bft) SW 230 ° 0 min 0,000 mm 0,0 UV-I 33 W/m² 15,1 °C 16,4 °C 3,2 km/h (1 Bft)
08.08.2017 18:57 16,4 °C 16,4 °C 92 % 1011,6 hPa 0,0 mm 2,4 km/h (1 Bft) SW 230 ° 0 min 0,000 mm 0,0 UV-I 30 W/m² 15,1 °C 16,4 °C 4,8 km/h (1 Bft)
08.08.2017 18:59 16,4 °C 16,4 °C 92 % 1011,5 hPa 0,0 mm 2,1 km/h (1 Bft) SW 230 ° 0 min 0,000 mm 0,0 UV-I 26 W/m² 15,1 °C 16,4 °C 3,2 km/h (1 Bft)
08.08.2017 19:00 16,3 °C 16,4 °C 92 % 1011,5 hPa 0,0 mm 3,2 km/h (1 Bft) SW 223 ° 0 min 0,000 mm 0,0 UV-I 26 W/m² 15,0 °C 16,3 °C 4,8 km/h (1 Bft)
08.08.2017 19:01 16,3 °C 16,3 °C 92 % 1011,5 hPa 0,0 mm 3,4 km/h (1 Bft) S-SW 205 ° 0 min 0,025 mm 0,0 UV-I 26 W/m² 15,0 °C 16,3 °C 4,8 km/h (1 Bft)
08.08.2017 19:02 16,2 °C 16,3 °C 93 % 1011,5 hPa 0,0 mm 2,3 km/h (1 Bft) S-SW 195 ° 0 min 0,000 mm 0,0 UV-I 26 W/m² 15,1 °C 16,2 °C 4,8 km/h (1 Bft)
08.08.2017 19:04 16,2 °C 16,2 °C 93 % 1011,4 hPa 0,0 mm 1,7 km/h (1 Bft) S-SW 195 ° 0 min 0,000 mm 0,0 UV-I 37 W/m² 15,1 °C 16,2 °C 4,8 km/h (1 Bft)
08.08.2017 19:05 16,2 °C 16,2 °C 93 % 1011,4 hPa 0,0 mm 0,0 km/h (0 Bft) S-SW 195 ° 0 min 0,000 mm 0,0 UV-I 39 W/m² 15,1 °C 16,2 °C 0,0 km/h (0 Bft)
08.08.2017 19:06 16,2 °C 16,2 °C 93 % 1011,4 hPa 0,0 mm 0,0 km/h (0 Bft) S-SW 195 ° 0 min 0,000 mm 0,0 UV-I 40 W/m² 15,1 °C 16,2 °C 0,0 km/h (0 Bft)
08.08.2017 19:07 16,2 °C 16,2 °C 93 % 1011,6 hPa 0,0 mm 2,1 km/h (1 Bft) S-SW 195 ° 0 min 0,000 mm 0,0 UV-I 40 W/m² 15,1 °C 16,2 °C 3,2 km/h (1 Bft)
08.08.2017 19:08 16,2 °C 16,2 °C 94 % 1011,6 hPa 0,0 mm 2,2 km/h (1 Bft) S-SW 195 ° 0 min 0,000 mm 0,0 UV-I 37 W/m² 15,2 °C 16,2 °C 3,2 km/h (1 Bft)
08.08.2017 19:09 16,2 °C 16,2 °C 93 % 1011,7 hPa 0,0 mm 2,8 km/h (1 Bft) S-SW 195 ° 0 min 0,000 mm 0,0 UV-I 33 W/m² 15,1 °C 16,2 °C 4,8 km/h (1 Bft)
08.08.2017 19:10 16,2 °C 16,2 °C 93 % 1011,8 hPa 0,0 mm 2,2 km/h (1 Bft) S-SW 195 ° 0 min 0,000 mm 0,0 UV-I 30 W/m² 15,1 °C 16,2 °C 3,2 km/h (1 Bft)
08.08.2017 19:11 16,2 °C 16,3 °C 93 % 1011,8 hPa 0,0 mm 2,1 km/h (1 Bft) S-SW 195 ° 0 min 0,000 mm 0,0 UV-I 21 W/m² 15,1 °C 16,2 °C 3,2 km/h (1 Bft)
08.08.2017 19:12 16,2 °C 16,3 °C 94 % 1011,8 hPa 0,0 mm 1,0 km/h (0 Bft) S-SW 195 ° 0 min 0,000 mm 0,0 UV-I 19 W/m² 15,2 °C 16,2 °C 3,2 km/h (1 Bft)
08.08.2017 19:13 16,2 °C 16,3 °C 94 % 1011,9 hPa 0,0 mm 0,3 km/h (0 Bft) S-SW 195 ° 0 min 0,000 mm 0,0 UV-I 18 W/m² 15,2 °C 16,2 °C 1,6 km/h (1 Bft)
08.08.2017 19:14 16,3 °C 16,3 °C 93 % 1011,8 hPa 0,0 mm 0,0 km/h (0 Bft) S-SW 195 ° 0 min 0,000 mm 0,0 UV-I 18 W/m² 15,2 °C 16,3 °C 0,0 km/h (0 Bft)
08.08.2017 19:15 16,2 °C 16,3 °C 93 % 1011,8 hPa 0,0 mm 0,0 km/h (0 Bft) S-SW 195 ° 0 min 0,000 mm 0,0 UV-I 16 W/m² 15,1 °C 16,2 °C 0,0 km/h (0 Bft)
08.08.2017 19:16 16,2 °C 16,2 °C 94 % 1011,8 hPa 0,0 mm 0,1 km/h (0 Bft) S-SW 195 ° 0 min 0,000 mm 0,0 UV-I 16 W/m² 15,2 °C 16,2 °C 1,6 km/h (1 Bft)
08.08.2017 19:17 16,2 °C 16,2 °C 93 % 1011,8 hPa 0,0 mm 1,4 km/h (1 Bft) S-SW 195 ° 0 min 0,000 mm 0,0 UV-I 14 W/m² 15,1 °C 16,2 °C 3,2 km/h (1 Bft)
08.08.2017 19:18 16,2 °C 16,2 °C 93 % 1011,9 hPa 0,0 mm 2,5 km/h (1 Bft) S-SW 195 ° 0 min 0,000 mm 0,0 UV-I 14 W/m² 15,1 °C 16,2 °C 4,8 km/h (1 Bft)
08.08.2017 19:19 16,2 °C 16,2 °C 93 % 1011,9 hPa 0,0 mm 1,6 km/h (1 Bft) S-SW 195 ° 0 min 0,000 mm 0,0 UV-I 14 W/m² 15,1 °C 16,2 °C 3,2 km/h (1 Bft)
08.08.2017 19:20 16,2 °C 16,2 °C 93 % 1012,0 hPa 0,0 mm 1,6 km/h (1 Bft) S-SW 195 ° 0 min 0,000 mm 0,0 UV-I 16 W/m² 15,1 °C 16,2 °C 3,2 km/h (1 Bft)
08.08.2017 19:21 16,2 °C 16,2 °C 93 % 1012,1 hPa 0,0 mm 0,8 km/h (0 Bft) S-SW 195 ° 0 min 0,000 mm 0,0 UV-I 16 W/m² 15,1 °C 16,2 °C 3,2 km/h (1 Bft)
08.08.2017 19:22 16,2 °C 16,2 °C 93 % 1012,1 hPa 0,0 mm 0,2 km/h (0 Bft) S-SW 195 ° 0 min 0,000 mm 0,0 UV-I 18 W/m² 15,1 °C 16,2 °C 1,6 km/h (1 Bft)
08.08.2017 19:23 16,2 °C 16,2 °C 93 % 1012,1 hPa 0,0 mm 0,0 km/h (0 Bft) S-SW 195 ° 0 min 0,000 mm 0,0 UV-I 19 W/m² 15,1 °C 16,2 °C 0,0 km/h (0 Bft)
08.08.2017 19:24 16,2 °C 16,2 °C 93 % 1012,1 hPa 0,0 mm 0,1 km/h (0 Bft) S-SW 195 ° 0 min 0,000 mm 0,0 UV-I 19 W/m² 15,1 °C 16,2 °C 1,6 km/h (1 Bft)
08.08.2017 19:25 16,2 °C 16,2 °C 93 % 1012,1 hPa 0,0 mm 0,5 km/h (0 Bft) S-SW 195 ° 0 min 0,000 mm 0,0 UV-I 19 W/m² 15,1 °C 16,2 °C 1,6 km/h (1 Bft)
08.08.2017 19:26 16,2 °C 16,2 °C 93 % 1012,1 hPa 0,0 mm 0,0 km/h (0 Bft) S-SW 195 ° 0 min 0,000 mm 0,0 UV-I 19 W/m² 15,1 °C 16,2 °C 0,0 km/h (0 Bft)
08.08.2017 19:27 16,3 °C 16,3 °C 93 % 1012,1 hPa 0,0 mm 0,0 km/h (0 Bft) S-SW 195 ° 0 min 0,000 mm 0,0 UV-I 19 W/m² 15,2 °C 16,3 °C 0,0 km/h (0 Bft)
08.08.2017 19:28 16,2 °C 16,3 °C 93 % 1012,1 hPa 0,0 mm 0,0 km/h (0 Bft) S-SW 195 ° 0 min 0,000 mm 0,0 UV-I 19 W/m² 15,1 °C 16,2 °C 0,0 km/h (0 Bft)
08.08.2017 19:29 16,2 °C 16,2 °C 93 % 1012,1 hPa 0,0 mm 0,0 km/h (0 Bft) S-SW 195 ° 0 min 0,000 mm 0,0 UV-I 19 W/m² 15,1 °C 16,2 °C 0,0 km/h (0 Bft)
08.08.2017 19:30 16,2 °C 16,2 °C 93 % 1012,1 hPa 0,0 mm 0,0 km/h (0 Bft) S-SW 195 ° 0 min 0,000 mm 0,0 UV-I 18 W/m² 15,1 °C 16,2 °C 0,0 km/h (0 Bft)
08.08.2017 19:31 16,2 °C 16,2 °C 93 % 1012,0 hPa 0,0 mm 0,0 km/h (0 Bft) S-SW 195 ° 0 min 0,000 mm 0,0 UV-I 16 W/m² 15,1 °C 16,2 °C 0,0 km/h (0 Bft)
08.08.2017 19:32 16,2 °C 16,2 °C 93 % 1012,1 hPa 0,0 mm 0,0 km/h (0 Bft) S-SW 195 ° 0 min 0,000 mm 0,0 UV-I 14 W/m² 15,1 °C 16,2 °C 0,0 km/h (0 Bft)
08.08.2017 19:33 16,1 °C 16,2 °C 93 % 1012,1 hPa 0,0 mm 1,9 km/h (1 Bft) S-SW 195 ° 0 min 0,000 mm 0,0 UV-I 12 W/m² 15,0 °C 16,1 °C 4,8 km/h (1 Bft)
08.08.2017 19:34 16,1 °C 16,2 °C 93 % 1012,2 hPa 0,0 mm 1,9 km/h (1 Bft) S-SW 195 ° 0 min 0,000 mm 0,0 UV-I 9 W/m² 15,0 °C 16,1 °C 3,2 km/h (1 Bft)
08.08.2017 19:35 16,1 °C 16,2 °C 93 % 1012,2 hPa 0,0 mm 0,7 km/h (0 Bft) S-SW 195 ° 0 min 0,000 mm 0,0 UV-I 9 W/m² 15,0 °C 16,1 °C 3,2 km/h (1 Bft)
08.08.2017 19:36 16,1 °C 16,1 °C 93 % 1012,2 hPa 0,0 mm 0,0 km/h (0 Bft) S-SW 195 ° 0 min 0,000 mm 0,0 UV-I 9 W/m² 15,0 °C 16,1 °C 0,0 km/h (0 Bft)
08.08.2017 19:37 16,1 °C 16,1 °C 93 % 1012,1 hPa 0,0 mm 0,0 km/h (0 Bft) S-SW 195 ° 0 min 0,000 mm 0,0 UV-I 9 W/m² 15,0 °C 16,1 °C 0,0 km/h (0 Bft)
08.08.2017 19:38 16,1 °C 16,1 °C 93 % 1012,0 hPa 0,0 mm 0,0 km/h (0 Bft) S-SW 195 ° 0 min 0,000 mm 0,0 UV-I 9 W/m² 15,0 °C 16,1 °C 0,0 km/h (0 Bft)
08.08.2017 19:39 16,0 °C 16,1 °C 93 % 1012,1 hPa 0,0 mm 0,0 km/h (0 Bft) S-SW 195 ° 0 min 0,000 mm 0,0 UV-I 9 W/m² 14,9 °C 16,0 °C 0,0 km/h (0 Bft)
08.08.2017 19:40 16,0 °C 16,0 °C 93 % 1012,0 hPa 0,0 mm 0,0 km/h (0 Bft) S-SW 195 ° 0 min 0,000 mm 0,0 UV-I 7 W/m² 14,9 °C 16,0 °C 0,0 km/h (0 Bft)
08.08.2017 19:41 16,0 °C 16,0 °C 93 % 1012,2 hPa 0,0 mm 0,7 km/h (0 Bft) S-SW 195 ° 0 min 0,000 mm 0,0 UV-I 7 W/m² 14,9 °C 16,0 °C 3,2 km/h (1 Bft)
08.08.2017 19:42 15,9 °C 16,0 °C 93 % 1012,2 hPa 0,0 mm 0,6 km/h (0 Bft) S-SW 195 ° 0 min 0,000 mm 0,0 UV-I 7 W/m² 14,8 °C 15,9 °C 3,2 km/h (1 Bft)
08.08.2017 19:43 15,9 °C 16,0 °C 93 % 1012,2 hPa 0,0 mm 1,4 km/h (1 Bft) S-SW 195 ° 0 min 0,000 mm 0,0 UV-I 7 W/m² 14,8 °C 15,9 °C 3,2 km/h (1 Bft)
08.08.2017 19:44 15,9 °C 15,9 °C 93 % 1012,1 hPa 0,0 mm 1,9 km/h (1 Bft) S-SW 195 ° 0 min 0,000 mm 0,0 UV-I 7 W/m² 14,8 °C 15,9 °C 3,2 km/h (1 Bft)
08.08.2017 19:45 15,9 °C 15,9 °C 93 % 1012,0 hPa 0,0 mm 0,0 km/h (0 Bft) S-SW 195 ° 0 min 0,000 mm 0,0 UV-I 7 W/m² 14,8 °C 15,9 °C 0,0 km/h (0 Bft)
08.08.2017 19:46 15,9 °C 15,9 °C 93 % 1012,0 hPa 0,0 mm 0,0 km/h (0 Bft) S-SW 195 ° 0 min 0,000 mm 0,0 UV-I 7 W/m² 14,8 °C 15,9 °C 0,0 km/h (0 Bft)
08.08.2017 19:47 15,8 °C 15,9 °C 93 % 1012,0 hPa 0,0 mm 0,1 km/h (0 Bft) S-SW 195 ° 0 min 0,000 mm 0,0 UV-I 7 W/m² 14,7 °C 15,8 °C 1,6 km/h (1 Bft)
08.08.2017 19:48 15,8 °C 15,8 °C 93 % 1012,0 hPa 0,0 mm 3,4 km/h (1 Bft) S-SW 195 ° 0 min 0,000 mm 0,0 UV-I 5 W/m² 14,7 °C 15,8 °C 4,8 km/h (1 Bft)
08.08.2017 19:49 15,8 °C 15,8 °C 93 % 1012,2 hPa 0,0 mm 2,4 km/h (1 Bft) S-SW 195 ° 0 min 0,000 mm 0,0 UV-I 5 W/m² 14,7 °C 15,8 °C 3,2 km/h (1 Bft)
08.08.2017 19:50 15,8 °C 15,8 °C 93 % 1012,2 hPa 0,0 mm 2,1 km/h (1 Bft) S-SW 195 ° 0 min 0,000 mm 0,0 UV-I 5 W/m² 14,7 °C 15,8 °C 3,2 km/h (1 Bft)
08.08.2017 19:51 15,8 °C 15,8 °C 93 % 1012,3 hPa 0,0 mm 1,3 km/h (1 Bft) S-SW 195 ° 0 min 0,000 mm 0,0 UV-I 5 W/m² 14,7 °C 15,8 °C 3,2 km/h (1 Bft)
08.08.2017 19:52 15,8 °C 15,8 °C 93 % 1012,3 hPa 0,0 mm 1,9 km/h (1 Bft) S-SW 195 ° 0 min 0,000 mm 0,0 UV-I 5 W/m² 14,7 °C 15,8 °C 3,2 km/h (1 Bft)
08.08.2017 19:53 15,7 °C 15,8 °C 93 % 1012,3 hPa 0,0 mm 2,3 km/h (1 Bft) S-SW 195 ° 0 min 0,000 mm 0,0 UV-I 5 W/m² 14,6 °C 15,7 °C 3,2 km/h (1 Bft)
08.08.2017 19:54 15,8 °C 15,8 °C 93 % 1012,3 hPa 0,0 mm 2,3 km/h (1 Bft) S-SW 195 ° 0 min 0,000 mm 0,0 UV-I 5 W/m² 14,7 °C 15,8 °C 3,2 km/h (1 Bft)
08.08.2017 19:55 15,8 °C 15,8 °C 93 % 1012,3 hPa 0,0 mm 3,4 km/h (1 Bft) S-SW 195 ° 0 min 0,000 mm 0,0 UV-I 5 W/m² 14,7 °C 15,8 °C 4,8 km/h (1 Bft)
08.08.2017 19:56 15,8 °C 15,8 °C 93 % 1012,3 hPa 0,0 mm 2,2 km/h (1 Bft) S-SW 195 ° 0 min 0,000 mm 0,0 UV-I 5 W/m² 14,7 °C 15,8 °C 4,8 km/h (1 Bft)
08.08.2017 19:57 15,8 °C 15,8 °C 93 % 1012,3 hPa 0,0 mm 1,9 km/h (1 Bft) S-SW 195 ° 0 min 0,000 mm 0,0 UV-I 5 W/m² 14,7 °C 15,8 °C 4,8 km/h (1 Bft)
08.08.2017 19:58 15,8 °C 15,8 °C 93 % 1012,3 hPa 0,0 mm 2,6 km/h (1 Bft) S-SW 195 ° 0 min 0,000 mm 0,0 UV-I 5 W/m² 14,7 °C 15,8 °C 4,8 km/h (1 Bft)
08.08.2017 19:59 15,8 °C 15,8 °C 93 % 1012,4 hPa 0,0 mm 1,5 km/h (1 Bft) S-SW 195 ° 0 min 0,000 mm 0,0 UV-I 5 W/m² 14,7 °C 15,8 °C 3,2 km/h (1 Bft)
08.08.2017 20:00 15,8 °C 15,8 °C 93 % 1012,5 hPa 0,0 mm 0,2 km/h (0 Bft) S-SW 195 ° 0 min 0,000 mm 0,0 UV-I 5 W/m² 14,7 °C 15,8 °C 1,6 km/h (1 Bft)
08.08.2017 20:01 15,8 °C 15,8 °C 93 % 1012,5 hPa 0,0 mm 0,3 km/h (0 Bft) S-SW 195 ° 0 min 0,000 mm 0,0 UV-I 5 W/m² 14,7 °C 15,8 °C 3,2 km/h (1 Bft)
08.08.2017 20:02 15,8 °C 15,8 °C 93 % 1012,5 hPa 0,0 mm 0,7 km/h (0 Bft) S-SW 195 ° 0 min 0,000 mm 0,0 UV-I 0 W/m² 14,7 °C 15,8 °C 3,2 km/h (1 Bft)
08.08.2017 20:03 15,8 °C 15,8 °C 93 % 1012,5 hPa 0,0 mm 0,0 km/h (0 Bft) S-SW 195 ° 0 min 0,000 mm 0,0 UV-I 0 W/m² 14,7 °C 15,8 °C 0,0 km/h (0 Bft)
08.08.2017 20:04 15,8 °C 15,8 °C 93 % 1012,5 hPa 0,0 mm 0,0 km/h (0 Bft) S-SW 195 ° 0 min 0,000 mm 0,0 UV-I 0 W/m² 14,7 °C 15,8 °C 0,0 km/h (0 Bft)
08.08.2017 20:05 15,8 °C 15,8 °C 93 % 1012,5 hPa 0,0 mm 0,0 km/h (0 Bft) S-SW 195 ° 0 min 0,000 mm 0,0 UV-I 0 W/m² 14,7 °C 15,8 °C 0,0 km/h (0 Bft)
08.08.2017 20:06 15,8 °C 15,8 °C 93 % 1012,5 hPa 0,0 mm 0,2 km/h (0 Bft) S-SW 195 ° 0 min 0,000 mm 0,0 UV-I 0 W/m² 14,7 °C 15,8 °C 1,6 km/h (1 Bft)
08.08.2017 20:07 15,8 °C 15,8 °C 93 % 1012,5 hPa 0,0 mm 1,3 km/h (1 Bft) S-SW 195 ° 0 min 0,000 mm 0,0 UV-I 0 W/m² 14,7 °C 15,8 °C 3,2 km/h (1 Bft)
08.08.2017 20:08 15,8 °C 15,8 °C 93 % 1012,5 hPa 0,0 mm 0,2 km/h (0 Bft) S-SW 195 ° 0 min 0,000 mm 0,0 UV-I 0 W/m² 14,7 °C 15,8 °C 1,6 km/h (1 Bft)
08.08.2017 20:09 15,8 °C 15,8 °C 93 % 1012,5 hPa 0,0 mm 1,7 km/h (1 Bft) S-SW 195 ° 0 min 0,000 mm 0,0 UV-I 0 W/m² 14,7 °C 15,8 °C 3,2 km/h (1 Bft)
08.08.2017 20:10 15,8 °C 15,8 °C 93 % 1012,5 hPa 0,0 mm 0,1 km/h (0 Bft) S-SW 195 ° 0 min 0,000 mm 0,0 UV-I 0 W/m² 14,7 °C 15,8 °C 1,6 km/h (1 Bft)
08.08.2017 20:11 15,8 °C 15,8 °C 93 % 1012,5 hPa 0,0 mm 0,9 km/h (0 Bft) S-SW 195 ° 0 min 0,000 mm 0,0 UV-I 0 W/m² 14,7 °C 15,8 °C 3,2 km/h (1 Bft)
08.08.2017 20:12 15,8 °C 15,8 °C 93 % 1012,5 hPa 0,0 mm 1,3 km/h (1 Bft) S-SW 195 ° 0 min 0,000 mm 0,0 UV-I 0 W/m² 14,7 °C 15,8 °C 1,6 km/h (1 Bft)
08.08.2017 20:13 15,8 °C 15,8 °C 93 % 1012,5 hPa 0,0 mm 1,6 km/h (1 Bft) S-SW 195 ° 0 min 0,000 mm 0,0 UV-I 0 W/m² 14,7 °C 15,8 °C 3,2 km/h (1 Bft)
08.08.2017 20:14 15,8 °C 15,8 °C 93 % 1012,4 hPa 0,0 mm 1,3 km/h (1 Bft) S-SW 195 ° 0 min 0,000 mm 0,0 UV-I 0 W/m² 14,7 °C 15,8 °C 1,6 km/h (1 Bft)
08.08.2017 20:15 15,8 °C 15,8 °C 93 % 1012,4 hPa 0,0 mm 0,5 km/h (0 Bft) S-SW 195 ° 0 min 0,000 mm 0,0 UV-I 0 W/m² 14,7 °C 15,8 °C 1,6 km/h (1 Bft)
08.08.2017 20:16 15,7 °C 15,8 °C 93 % 1012,3 hPa 0,0 mm 1,0 km/h (0 Bft) S-SW 195 ° 0 min 0,000 mm 0,0 UV-I 5 W/m² 14,6 °C 15,7 °C 1,6 km/h (1 Bft)
08.08.2017 20:17 15,7 °C 15,7 °C 93 % 1012,2 hPa 0,0 mm 2,1 km/h (1 Bft) S-SW 195 ° 0 min 0,000 mm 0,0 UV-I 5 W/m² 14,6 °C 15,7 °C 3,2 km/h (1 Bft)
08.08.2017 20:18 15,7 °C 15,7 °C 93 % 1012,2 hPa 0,0 mm 0,7 km/h (0 Bft) S-SW 195 ° 0 min 0,000 mm 0,0 UV-I 5 W/m² 14,6 °C 15,7 °C 1,6 km/h (1 Bft)
08.08.2017 20:19 15,7 °C 15,8 °C 93 % 1012,1 hPa 0,0 mm 0,0 km/h (0 Bft) S-SW 195 ° 0 min 0,000 mm 0,0 UV-I 5 W/m² 14,6 °C 15,7 °C 0,0 km/h (0 Bft)
08.08.2017 20:20 15,7 °C 15,7 °C 93 % 1012,1 hPa 0,0 mm 0,0 km/h (0 Bft) S-SW 195 ° 0 min 0,000 mm 0,0 UV-I 0 W/m² 14,6 °C 15,7 °C 0,0 km/h (0 Bft)
08.08.2017 20:21 15,7 °C 15,7 °C 93 % 1012,1 hPa 0,0 mm 0,0 km/h (0 Bft) S-SW 195 ° 0 min 0,000 mm 0,0 UV-I 0 W/m² 14,6 °C 15,7 °C 0,0 km/h (0 Bft)
08.08.2017 20:22 15,7 °C 15,7 °C 93 % 1012,2 hPa 0,0 mm 0,0 km/h (0 Bft) S-SW 195 ° 0 min 0,000 mm 0,0 UV-I 0 W/m² 14,6 °C 15,7 °C 0,0 km/h (0 Bft)
08.08.2017 20:23 15,7 °C 15,7 °C 93 % 1012,2 hPa 0,0 mm 0,0 km/h (0 Bft) S-SW 195 ° 0 min 0,000 mm 0,0 UV-I 0 W/m² 14,6 °C 15,7 °C 0,0 km/h (0 Bft)
08.08.2017 20:24 15,7 °C 15,7 °C 94 % 1012,3 hPa 0,0 mm 0,0 km/h (0 Bft) S-SW 195 ° 0 min 0,000 mm 0,0 UV-I 0 W/m² 14,7 °C 15,7 °C 0,0 km/h (0 Bft)
08.08.2017 20:25 15,6 °C 15,7 °C 94 % 1012,3 hPa 0,0 mm 0,0 km/h (0 Bft) S-SW 195 ° 0 min 0,000 mm 0,0 UV-I 0 W/m² 14,6 °C 15,6 °C 0,0 km/h (0 Bft)
08.08.2017 20:26 15,6 °C 15,6 °C 94 % 1012,4 hPa 0,0 mm 0,0 km/h (0 Bft) S-SW 195 ° 0 min 0,000 mm 0,0 UV-I 0 W/m² 14,6 °C 15,6 °C 0,0 km/h (0 Bft)
08.08.2017 20:27 15,6 °C 15,6 °C 94 % 1012,4 hPa 0,0 mm 0,0 km/h (0 Bft) S-SW 195 ° 0 min 0,000 mm 0,0 UV-I 0 W/m² 14,6 °C 15,6 °C 0,0 km/h (0 Bft)
08.08.2017 20:28 15,6 °C 15,6 °C 94 % 1012,4 hPa 0,0 mm 0,0 km/h (0 Bft) S-SW 195 ° 0 min 0,000 mm 0,0 UV-I 0 W/m² 14,6 °C 15,6 °C 0,0 km/h (0 Bft)
08.08.2017 20:29 15,6 °C 15,6 °C 94 % 1012,4 hPa 0,0 mm 0,0 km/h (0 Bft) S-SW 195 ° 0 min 0,000 mm 0,0 UV-I 0 W/m² 14,6 °C 15,6 °C 0,0 km/h (0 Bft)
08.08.2017 20:30 15,6 °C 15,6 °C 94 % 1012,4 hPa 0,0 mm 0,0 km/h (0 Bft) S-SW 195 ° 0 min 0,000 mm 0,0 UV-I 0 W/m² 14,6 °C 15,6 °C 0,0 km/h (0 Bft)
08.08.2017 20:31 15,6 °C 15,6 °C 94 % 1012,5 hPa 0,0 mm 0,9 km/h (0 Bft) W 264 ° 0 min 0,000 mm 0,0 UV-I 0 W/m² 14,6 °C 15,6 °C 3,2 km/h (1 Bft)
08.08.2017 20:32 15,6 °C 15,6 °C 94 % 1012,6 hPa 0,0 mm 2,4 km/h (1 Bft) W 264 ° 0 min 0,000 mm 0,0 UV-I 0 W/m² 14,6 °C 15,6 °C 4,8 km/h (1 Bft)
08.08.2017 20:33 15,6 °C 15,6 °C 94 % 1012,7 hPa 0,0 mm 3,1 km/h (1 Bft) W 264 ° 0 min 0,000 mm 0,0 UV-I 0 W/m² 14,6 °C 15,6 °C 4,8 km/h (1 Bft)
08.08.2017 20:34 15,6 °C 15,6 °C 94 % 1012,8 hPa 0,0 mm 2,8 km/h (1 Bft) W 264 ° 0 min 0,000 mm 0,0 UV-I 0 W/m² 14,6 °C 15,6 °C 4,8 km/h (1 Bft)
08.08.2017 20:35 15,6 °C 15,6 °C 94 % 1012,9 hPa 0,0 mm 2,6 km/h (1 Bft) W 263 ° 0 min 0,000 mm 0,0 UV-I 0 W/m² 14,6 °C 15,6 °C 3,2 km/h (1 Bft)
08.08.2017 20:36 15,6 °C 15,6 °C 93 % 1012,9 hPa 0,0 mm 3,2 km/h (1 Bft) S-SW 201 ° 0 min 0,000 mm 0,0 UV-I 0 W/m² 14,5 °C 15,6 °C 4,8 km/h (1 Bft)
08.08.2017 20:37 15,6 °C 15,6 °C 93 % 1012,9 hPa 0,0 mm 1,1 km/h (1 Bft) S-SW 201 ° 0 min 0,000 mm 0,0 UV-I 0 W/m² 14,5 °C 15,6 °C 3,2 km/h (1 Bft)
08.08.2017 20:38 15,6 °C 15,6 °C 93 % 1012,9 hPa 0,0 mm 2,3 km/h (1 Bft) S-SW 201 ° 0 min 0,000 mm 0,0 UV-I 0 W/m² 14,5 °C 15,6 °C 4,8 km/h (1 Bft)
08.08.2017 20:39 15,6 °C 15,6 °C 93 % 1013,0 hPa 0,0 mm 1,5 km/h (1 Bft) S-SW 201 ° 0 min 0,000 mm 0,0 UV-I 0 W/m² 14,5 °C 15,6 °C 3,2 km/h (1 Bft)
08.08.2017 20:40 15,6 °C 15,6 °C 93 % 1013,0 hPa 0,0 mm 0,9 km/h (0 Bft) S-SW 201 ° 0 min 0,000 mm 0,0 UV-I 0 W/m² 14,5 °C 15,6 °C 3,2 km/h (1 Bft)
08.08.2017 20:41 15,6 °C 15,6 °C 93 % 1013,2 hPa 0,0 mm 0,7 km/h (0 Bft) S-SW 201 ° 0 min 0,000 mm 0,0 UV-I 0 W/m² 14,5 °C 15,6 °C 1,6 km/h (1 Bft)
08.08.2017 20:42 15,6 °C 15,6 °C 93 % 1013,3 hPa 0,0 mm 3,4 km/h (1 Bft) W-SW 256 ° 0 min 0,000 mm 0,0 UV-I 0 W/m² 14,5 °C 15,6 °C 9,7 km/h (2 Bft)
08.08.2017 20:43 15,7 °C 15,7 °C 93 % 1013,4 hPa 0,0 mm 4,3 km/h (1 Bft) SW 236 ° 0 min 0,000 mm 0,0 UV-I 0 W/m² 14,6 °C 15,7 °C 6,4 km/h (2 Bft)
08.08.2017 20:44 15,6 °C 15,7 °C 93 % 1013,5 hPa 0,0 mm 6,5 km/h (2 Bft) W-SW 251 ° 0 min 0,000 mm 0,0 UV-I 0 W/m² 14,5 °C 15,6 °C 12,9 km/h (3 Bft)
08.08.2017 20:45 15,7 °C 15,7 °C 93 % 1013,7 hPa 0,0 mm 4,5 km/h (1 Bft) W-SW 245 ° 0 min 0,000 mm 0,0 UV-I 0 W/m² 14,6 °C 15,7 °C 11,3 km/h (2 Bft)
08.08.2017 20:46 15,7 °C 15,7 °C 93 % 1013,9 hPa 0,0 mm 8,4 km/h (2 Bft) W 261 ° 0 min 0,000 mm 0,0 UV-I 0 W/m² 14,6 °C 15,7 °C 11,3 km/h (2 Bft)
08.08.2017 20:47 15,7 °C 15,7 °C 93 % 1014,0 hPa 0,0 mm 7,8 km/h (2 Bft) W 273 ° 0 min 0,000 mm 0,0 UV-I 0 W/m² 14,6 °C 15,7 °C 12,9 km/h (3 Bft)
08.08.2017 20:49 15,7 °C 15,7 °C 93 % 1014,3 hPa 0,0 mm 12,0 km/h (2 Bft) W 260 ° 0 min 0,000 mm 0,0 UV-I 0 W/m² 14,6 °C 15,7 °C 17,7 km/h (3 Bft)
08.08.2017 20:50 15,7 °C 15,7 °C 93 % 1014,3 hPa 0,0 mm 12,5 km/h (3 Bft) W-NW 300 ° 0 min 0,000 mm 0,0 UV-I 0 W/m² 14,6 °C 15,7 °C 17,7 km/h (3 Bft)
08.08.2017 20:51 15,7 °C 15,7 °C 93 % 1014,4 hPa 0,0 mm 14,4 km/h (3 Bft) W-NW 297 ° 0 min 0,000 mm 0,0 UV-I 0 W/m² 14,6 °C 15,7 °C 20,9 km/h (4 Bft)
08.08.2017 20:52 15,7 °C 15,7 °C 93 % 1014,6 hPa 0,0 mm 16,6 km/h (3 Bft) W-SW 238 ° 0 min 0,000 mm 0,0 UV-I 0 W/m² 14,6 °C 15,7 °C 24,1 km/h (4 Bft)
08.08.2017 20:53 15,7 °C 15,7 °C 93 % 1014,8 hPa 0,8 mm 15,8 km/h (3 Bft) W-SW 251 ° 0 min 0,000 mm 0,0 UV-I 0 W/m² 14,6 °C 15,7 °C 20,9 km/h (4 Bft)
08.08.2017 20:54 15,7 °C 15,7 °C 93 % 1014,6 hPa 0,6 mm 7,6 km/h (2 Bft) W-NW 288 ° 0 min 0,000 mm 0,0 UV-I 0 W/m² 14,6 °C 15,7 °C 14,5 km/h (3 Bft)
08.08.2017 20:55 15,6 °C 15,7 °C 93 % 1014,7 hPa 0,2 mm 12,4 km/h (3 Bft) W 263 ° 0 min 0,000 mm 0,0 UV-I 0 W/m² 14,5 °C 15,6 °C 24,1 km/h (4 Bft)
08.08.2017 20:56 15,6 °C 15,6 °C 93 % 1014,8 hPa 0,4 mm 13,3 km/h (3 Bft) W 267 ° 0 min 0,000 mm 0,0 UV-I 0 W/m² 14,5 °C 15,6 °C 22,5 km/h (4 Bft)
08.08.2017 20:57 15,5 °C 15,6 °C 93 % 1014,8 hPa 0,2 mm 12,8 km/h (3 Bft) W-NW 300 ° 0 min 0,000 mm 0,0 UV-I 0 W/m² 14,4 °C 15,5 °C 16,1 km/h (3 Bft)
08.08.2017 20:58 15,5 °C 15,6 °C 93 % 1014,9 hPa 0,2 mm 15,3 km/h (3 Bft) W-SW 255 ° 0 min 0,000 mm 0,0 UV-I 0 W/m² 14,4 °C 15,5 °C 25,7 km/h (4 Bft)
08.08.2017 20:59 15,5 °C 15,5 °C 93 % 1015,0 hPa 0,2 mm 9,5 km/h (2 Bft) W-NW 297 ° 0 min 0,000 mm 0,0 UV-I 0 W/m² 14,4 °C 15,5 °C 14,5 km/h (3 Bft)
08.08.2017 21:00 15,4 °C 15,5 °C 93 % 1014,9 hPa 0,2 mm 5,1 km/h (1 Bft) W-SW 242 ° 0 min 0,000 mm 0,0 UV-I 0 W/m² 14,3 °C 15,4 °C 8,0 km/h (2 Bft)
08.08.2017 21:01 15,3 °C 15,4 °C 93 % 1015,0 hPa 0,2 mm 8,9 km/h (2 Bft) SW 219 ° 0 min 0,000 mm 0,0 UV-I 0 W/m² 14,2 °C 15,3 °C 19,3 km/h (3 Bft)
08.08.2017 21:02 15,3 °C 15,3 °C 93 % 1015,0 hPa 0,2 mm 5,2 km/h (1 Bft) W-SW 248 ° 0 min 0,000 mm 0,0 UV-I 0 W/m² 14,2 °C 15,3 °C 12,9 km/h (3 Bft)
08.08.2017 21:03 15,2 °C 15,3 °C 93 % 1015,0 hPa 0,2 mm 8,7 km/h (2 Bft) W-SW 248 ° 0 min 0,000 mm 0,0 UV-I 0 W/m² 14,1 °C 15,2 °C 12,9 km/h (3 Bft)
08.08.2017 21:04 15,2 °C 15,2 °C 93 % 1014,9 hPa 0,2 mm 4,6 km/h (1 Bft) W 261 ° 0 min 0,000 mm 0,0 UV-I 0 W/m² 14,1 °C 15,2 °C 8,0 km/h (2 Bft)
08.08.2017 21:05 15,2 °C 15,2 °C 93 % 1014,8 hPa 0,2 mm 4,0 km/h (1 Bft) SW 227 ° 0 min 0,000 mm 0,0 UV-I 0 W/m² 14,1 °C 15,2 °C 6,4 km/h (2 Bft)
08.08.2017 21:06 15,2 °C 15,2 °C 93 % 1014,7 hPa 0,2 mm 2,0 km/h (1 Bft) O-SO 109 ° 0 min 0,000 mm 0,0 UV-I 0 W/m² 14,1 °C 15,2 °C 4,8 km/h (1 Bft)
08.08.2017 21:07 15,1 °C 15,2 °C 92 % 1014,6 hPa 0,2 mm 5,2 km/h (1 Bft) S-SW 195 ° 0 min 0,000 mm 0,0 UV-I 0 W/m² 13,8 °C 15,1 °C 11,3 km/h (2 Bft)
08.08.2017 21:08 15,1 °C 15,1 °C 92 % 1014,5 hPa 0,2 mm 7,0 km/h (2 Bft) W-SW 241 ° 0 min 0,000 mm 0,0 UV-I 0 W/m² 13,8 °C 15,1 °C 9,7 km/h (2 Bft)
08.08.2017 21:09 15,0 °C 15,1 °C 92 % 1014,3 hPa 0,0 mm 4,0 km/h (1 Bft) S 186 ° 0 min 0,000 mm 0,0 UV-I 0 W/m² 13,7 °C 15,0 °C 6,4 km/h (2 Bft)
08.08.2017 21:10 15,0 °C 15,1 °C 92 % 1014,2 hPa 0,0 mm 2,5 km/h (1 Bft) S-SW 195 ° 0 min 0,000 mm 0,0 UV-I 0 W/m² 13,7 °C 15,0 °C 4,8 km/h (1 Bft)
08.08.2017 21:11 15,0 °C 15,0 °C 92 % 1014,0 hPa 0,2 mm 3,2 km/h (1 Bft) NO 51 ° 0 min 0,000 mm 0,0 UV-I 0 W/m² 13,7 °C 15,0 °C 4,8 km/h (1 Bft)
08.08.2017 21:12 14,9 °C 15,0 °C 92 % 1013,8 hPa 0,0 mm 1,7 km/h (1 Bft) NO 51 ° 0 min 0,000 mm 0,0 UV-I 0 W/m² 13,6 °C 14,9 °C 3,2 km/h (1 Bft)
08.08.2017 21:13 14,9 °C 14,9 °C 92 % 1013,7 hPa 0,0 mm 0,0 km/h (0 Bft) NO 51 ° 0 min 0,000 mm 0,0 UV-I 0 W/m² 13,6 °C 14,9 °C 0,0 km/h (0 Bft)
08.08.2017 21:14 14,8 °C 14,9 °C 93 % 1013,8 hPa 0,0 mm 0,0 km/h (0 Bft) NO 51 ° 0 min 0,000 mm 0,0 UV-I 0 W/m² 13,7 °C 14,8 °C 0,0 km/h (0 Bft)
08.08.2017 21:15 14,8 °C 14,8 °C 93 % 1013,9 hPa 0,0 mm 0,0 km/h (0 Bft) NO 51 ° 0 min 0,000 mm 0,0 UV-I 0 W/m² 13,7 °C 14,8 °C 0,0 km/h (0 Bft)
08.08.2017 21:16 14,7 °C 14,8 °C 93 % 1013,9 hPa 0,0 mm 0,3 km/h (0 Bft) O 88 ° 0 min 0,000 mm 0,0 UV-I 0 W/m² 13,6 °C 14,7 °C 3,2 km/h (1 Bft)
08.08.2017 21:17 14,7 °C 14,7 °C 93 % 1013,9 hPa 0,0 mm 1,7 km/h (1 Bft) O 88 ° 0 min 0,000 mm 0,0 UV-I 0 W/m² 13,6 °C 14,7 °C 4,8 km/h (1 Bft)
08.08.2017 21:18 14,6 °C 14,7 °C 93 % 1013,9 hPa 0,2 mm 1,0 km/h (0 Bft) O 88 ° 0 min 0,000 mm 0,0 UV-I 0 W/m² 13,5 °C 14,6 °C 3,2 km/h (1 Bft)
08.08.2017 21:19 14,6 °C 14,6 °C 93 % 1013,9 hPa 0,0 mm 0,3 km/h (0 Bft) O 88 ° 0 min 0,000 mm 0,0 UV-I 0 W/m² 13,5 °C 14,6 °C 1,6 km/h (1 Bft)
08.08.2017 21:20 14,5 °C 14,6 °C 93 % 1014,0 hPa 0,0 mm 0,0 km/h (0 Bft) O 88 ° 0 min 0,000 mm 0,0 UV-I 0 W/m² 13,4 °C 14,5 °C 0,0 km/h (0 Bft)
08.08.2017 21:21 14,5 °C 14,5 °C 93 % 1014,1 hPa 0,0 mm 0,0 km/h (0 Bft) O 88 ° 0 min 0,000 mm 0,0 UV-I 0 W/m² 13,4 °C 14,5 °C 0,0 km/h (0 Bft)
08.08.2017 21:22 14,5 °C 14,5 °C 94 % 1014,2 hPa 0,0 mm 0,0 km/h (0 Bft) O 88 ° 0 min 0,000 mm 0,0 UV-I 0 W/m² 13,5 °C 14,5 °C 0,0 km/h (0 Bft)
08.08.2017 21:23 14,4 °C 14,5 °C 94 % 1014,2 hPa 0,0 mm 0,3 km/h (0 Bft) O 88 ° 0 min 0,000 mm 0,0 UV-I 0 W/m² 13,4 °C 14,4 °C 1,6 km/h (1 Bft)
08.08.2017 21:24 14,4 °C 14,4 °C 94 % 1014,2 hPa 0,0 mm 2,3 km/h (1 Bft) NO 49 ° 0 min 0,000 mm 0,0 UV-I 0 W/m² 13,4 °C 14,4 °C 4,8 km/h (1 Bft)
08.08.2017 21:25 14,4 °C 14,5 °C 94 % 1014,2 hPa 0,0 mm 2,4 km/h (1 Bft) N-NO 12 ° 0 min 0,000 mm 0,0 UV-I 0 W/m² 13,4 °C 14,4 °C 4,8 km/h (1 Bft)
08.08.2017 21:26 14,5 °C 14,5 °C 94 % 1014,1 hPa 0,0 mm 2,4 km/h (1 Bft) N-NO 13 ° 0 min 0,000 mm 0,0 UV-I 0 W/m² 13,5 °C 14,5 °C 4,8 km/h (1 Bft)
08.08.2017 21:27 14,4 °C 14,5 °C 94 % 1014,1 hPa 0,2 mm 2,1 km/h (1 Bft) N-NO 12 ° 0 min 0,000 mm 0,0 UV-I 0 W/m² 13,4 °C 14,4 °C 3,2 km/h (1 Bft)
08.08.2017 21:28 14,4 °C 14,5 °C 94 % 1014,2 hPa 0,0 mm 1,2 km/h (1 Bft) N-NO 12 ° 0 min 0,000 mm 0,0 UV-I 0 W/m² 13,4 °C 14,4 °C 3,2 km/h (1 Bft)
08.08.2017 21:29 14,4 °C 14,4 °C 94 % 1014,2 hPa 0,0 mm 2,1 km/h (1 Bft) NW 314 ° 0 min 0,000 mm 0,0 UV-I 0 W/m² 13,4 °C 14,4 °C 4,8 km/h (1 Bft)
08.08.2017 21:30 14,4 °C 14,4 °C 94 % 1014,2 hPa 0,0 mm 0,6 km/h (0 Bft) N-NW 328 ° 0 min 0,000 mm 0,0 UV-I 0 W/m² 13,4 °C 14,4 °C 3,2 km/h (1 Bft)
08.08.2017 21:31 14,4 °C 14,4 °C 94 % 1014,1 hPa 0,2 mm 0,2 km/h (0 Bft) N-NW 328 ° 0 min 0,000 mm 0,0 UV-I 0 W/m² 13,4 °C 14,4 °C 1,6 km/h (1 Bft)
08.08.2017 21:32 14,3 °C 14,4 °C 94 % 1014,1 hPa 0,0 mm 1,3 km/h (1 Bft) N-NW 328 ° 0 min 0,000 mm 0,0 UV-I 0 W/m² 13,3 °C 14,3 °C 3,2 km/h (1 Bft)
08.08.2017 21:33 14,3 °C 14,3 °C 94 % 1014,1 hPa 0,0 mm 0,9 km/h (0 Bft) N-NW 328 ° 0 min 0,000 mm 0,0 UV-I 0 W/m² 13,3 °C 14,3 °C 3,2 km/h (1 Bft)
08.08.2017 21:34 14,2 °C 14,3 °C 94 % 1014,1 hPa 0,0 mm 2,3 km/h (1 Bft) W-SW 242 ° 0 min 0,000 mm 0,0 UV-I 0 W/m² 13,2 °C 14,2 °C 4,8 km/h (1 Bft)
08.08.2017 21:35 14,2 °C 14,3 °C 93 % 1014,1 hPa 0,0 mm 1,9 km/h (1 Bft) W-SW 243 ° 0 min 0,000 mm 0,0 UV-I 0 W/m² 13,1 °C 14,2 °C 4,8 km/h (1 Bft)
08.08.2017 21:36 14,1 °C 14,2 °C 93 % 1014,1 hPa 0,0 mm 0,8 km/h (0 Bft) W-SW 243 ° 0 min 0,000 mm 0,0 UV-I 0 W/m² 13,0 °C 14,1 °C 3,2 km/h (1 Bft)
08.08.2017 21:37 14,1 °C 14,1 °C 94 % 1014,1 hPa 0,0 mm 0,0 km/h (0 Bft) W-SW 243 ° 0 min 0,000 mm 0,0 UV-I 0 W/m² 13,1 °C 14,1 °C 0,0 km/h (0 Bft)
08.08.2017 21:38 14,0 °C 14,1 °C 93 % 1014,1 hPa 0,2 mm 0,0 km/h (0 Bft) W-SW 243 ° 0 min 0,000 mm 0,0 UV-I 0 W/m² 12,9 °C 14,0 °C 0,0 km/h (0 Bft)
08.08.2017 21:39 14,0 °C 14,1 °C 94 % 1013,9 hPa 0,2 mm 0,0 km/h (0 Bft) W-SW 243 ° 0 min 0,000 mm 0,0 UV-I 0 W/m² 13,0 °C 14,0 °C 0,0 km/h (0 Bft)
08.08.2017 21:40 13,9 °C 14,0 °C 93 % 1013,9 hPa 0,0 mm 0,1 km/h (0 Bft) W-SW 243 ° 0 min 0,000 mm 0,0 UV-I 0 W/m² 12,8 °C 13,9 °C 1,6 km/h (1 Bft)
08.08.2017 21:41 13,9 °C 13,9 °C 94 % 1013,7 hPa 0,0 mm 0,0 km/h (0 Bft) W-SW 243 ° 0 min 0,000 mm 0,0 UV-I 0 W/m² 12,9 °C 13,9 °C 0,0 km/h (0 Bft)
08.08.2017 21:42 13,8 °C 13,9 °C 94 % 1013,6 hPa 0,2 mm 0,8 km/h (0 Bft) S 186 ° 0 min 0,000 mm 0,0 UV-I 0 W/m² 12,9 °C 13,8 °C 1,6 km/h (1 Bft)
08.08.2017 21:43 13,8 °C 13,9 °C 94 % 1013,4 hPa 0,0 mm 0,4 km/h (0 Bft) O 96 ° 0 min 0,000 mm 0,0 UV-I 0 W/m² 12,9 °C 13,8 °C 3,2 km/h (1 Bft)
08.08.2017 21:44 13,8 °C 13,8 °C 94 % 1013,2 hPa 0,2 mm 3,2 km/h (1 Bft) O 81 ° 0 min 0,000 mm 0,0 UV-I 0 W/m² 12,9 °C 13,8 °C 4,8 km/h (1 Bft)
08.08.2017 21:45 13,8 °C 13,8 °C 94 % 1013,1 hPa 0,0 mm 2,9 km/h (1 Bft) O 81 ° 0 min 0,000 mm 0,0 UV-I 0 W/m² 12,9 °C 13,8 °C 3,2 km/h (1 Bft)
08.08.2017 21:46 13,7 °C 13,8 °C 94 % 1013,1 hPa 0,0 mm 1,7 km/h (1 Bft) O 81 ° 0 min 0,000 mm 0,0 UV-I 0 W/m² 12,8 °C 13,7 °C 3,2 km/h (1 Bft)
08.08.2017 21:47 13,7 °C 13,8 °C 94 % 1013,1 hPa 0,2 mm 1,4 km/h (1 Bft) O 81 ° 0 min 0,000 mm 0,0 UV-I 0 W/m² 12,8 °C 13,7 °C 3,2 km/h (1 Bft)
08.08.2017 21:48 13,7 °C 13,7 °C 94 % 1013,1 hPa 0,0 mm 1,2 km/h (1 Bft) O 81 ° 0 min 0,000 mm 0,0 UV-I 0 W/m² 12,8 °C 13,7 °C 3,2 km/h (1 Bft)
08.08.2017 21:49 13,7 °C 13,7 °C 94 % 1013,3 hPa 0,2 mm 0,1 km/h (0 Bft) O 81 ° 0 min 0,000 mm 0,0 UV-I 0 W/m² 12,8 °C 13,7 °C 1,6 km/h (1 Bft)
08.08.2017 21:50 13,7 °C 13,7 °C 94 % 1013,3 hPa 0,0 mm 0,6 km/h (0 Bft) O 81 ° 0 min 0,000 mm 0,0 UV-I 0 W/m² 12,8 °C 13,7 °C 1,6 km/h (1 Bft)
08.08.2017 21:51 13,7 °C 13,7 °C 94 % 1013,4 hPa 0,0 mm 0,0 km/h (0 Bft) O 81 ° 0 min 0,000 mm 0,0 UV-I 0 W/m² 12,8 °C 13,7 °C 0,0 km/h (0 Bft)
08.08.2017 21:52 13,6 °C 13,7 °C 94 % 1013,6 hPa 0,2 mm 0,5 km/h (0 Bft) O 81 ° 0 min 0,000 mm 0,0 UV-I 0 W/m² 12,7 °C 13,6 °C 1,6 km/h (1 Bft)
08.08.2017 21:53 13,6 °C 13,6 °C 94 % 1013,6 hPa 0,0 mm 0,8 km/h (0 Bft) O 81 ° 0 min 0,000 mm 0,0 UV-I 0 W/m² 12,7 °C 13,6 °C 3,2 km/h (1 Bft)
08.08.2017 21:54 13,6 °C 13,6 °C 94 % 1013,6 hPa 0,0 mm 2,0 km/h (1 Bft) O-NO 76 ° 0 min 0,000 mm 0,0 UV-I 0 W/m² 12,7 °C 13,6 °C 4,8 km/h (1 Bft)
08.08.2017 21:55 13,6 °C 13,6 °C 94 % 1013,7 hPa 0,2 mm 4,8 km/h (1 Bft) SO 143 ° 0 min 0,000 mm 0,0 UV-I 0 W/m² 12,7 °C 13,6 °C 9,7 km/h (2 Bft)
08.08.2017 21:56 13,5 °C 13,6 °C 94 % 1013,8 hPa 0,0 mm 3,4 km/h (1 Bft) O 101 ° 0 min 0,000 mm 0,0 UV-I 0 W/m² 12,6 °C 13,5 °C 4,8 km/h (1 Bft)
08.08.2017 21:57 13,5 °C 13,5 °C 94 % 1013,9 hPa 0,0 mm 4,8 km/h (1 Bft) O-SO 117 ° 0 min 0,000 mm 0,0 UV-I 0 W/m² 12,6 °C 13,5 °C 11,3 km/h (2 Bft)
08.08.2017 21:58 13,5 °C 13,5 °C 94 % 1013,7 hPa 0,0 mm 2,3 km/h (1 Bft) O 79 ° 0 min 0,000 mm 0,0 UV-I 0 W/m² 12,6 °C 13,5 °C 4,8 km/h (1 Bft)
08.08.2017 21:59 13,5 °C 13,5 °C 94 % 1013,7 hPa 0,0 mm 2,5 km/h (1 Bft) N 360 ° 0 min 0,000 mm 0,0 UV-I 0 W/m² 12,6 °C 13,5 °C 6,4 km/h (2 Bft)
08.08.2017 22:00 13,6 °C 13,6 °C 95 % 1013,7 hPa 0,2 mm 3,9 km/h (1 Bft) O-SO 107 ° 0 min 0,000 mm 0,0 UV-I 0 W/m² 12,8 °C 13,6 °C 8,0 km/h (2 Bft)
08.08.2017 22:01 13,5 °C 13,6 °C 94 % 1013,8 hPa 0,0 mm 3,0 km/h (1 Bft) O 81 ° 0 min 0,000 mm 0,0 UV-I 0 W/m² 12,6 °C 13,5 °C 4,8 km/h (1 Bft)
08.08.2017 22:02 13,5 °C 13,5 °C 94 % 1013,9 hPa 0,0 mm 1,8 km/h (1 Bft) O-NO 74 ° 0 min 0,000 mm 0,0 UV-I 0 W/m² 12,6 °C 13,5 °C 3,2 km/h (1 Bft)
08.08.2017 22:03 13,4 °C 13,5 °C 94 % 1013,8 hPa 0,0 mm 1,0 km/h (0 Bft) O-NO 74 ° 0 min 0,000 mm 0,0 UV-I 0 W/m² 12,5 °C 13,4 °C 3,2 km/h (1 Bft)
08.08.2017 22:04 13,4 °C 13,5 °C 94 % 1013,6 hPa 0,0 mm 5,2 km/h (1 Bft) O 84 ° 0 min 0,000 mm 0,0 UV-I 0 W/m² 12,5 °C 13,4 °C 9,7 km/h (2 Bft)
08.08.2017 22:05 13,5 °C 13,5 °C 94 % 1013,6 hPa 0,2 mm 2,5 km/h (1 Bft) O-NO 72 ° 0 min 0,000 mm 0,0 UV-I 0 W/m² 12,6 °C 13,5 °C 4,8 km/h (1 Bft)
08.08.2017 22:06 13,5 °C 13,5 °C 94 % 1013,6 hPa 0,0 mm 2,6 km/h (1 Bft) O-NO 72 ° 0 min 0,000 mm 0,0 UV-I 0 W/m² 12,6 °C 13,5 °C 3,2 km/h (1 Bft)
08.08.2017 22:07 13,4 °C 13,5 °C 94 % 1013,7 hPa 0,0 mm 0,1 km/h (0 Bft) O-NO 72 ° 0 min 0,000 mm 0,0 UV-I 0 W/m² 12,5 °C 13,4 °C 1,6 km/h (1 Bft)
08.08.2017 22:08 13,5 °C 13,5 °C 94 % 1013,7 hPa 0,0 mm 0,8 km/h (0 Bft) O-NO 72 ° 0 min 0,000 mm 0,0 UV-I 0 W/m² 12,6 °C 13,5 °C 1,6 km/h (1 Bft)
08.08.2017 22:09 13,5 °C 13,5 °C 94 % 1013,6 hPa 0,0 mm 1,3 km/h (1 Bft) O-NO 71 ° 0 min 0,000 mm 0,0 UV-I 0 W/m² 12,6 °C 13,5 °C 3,2 km/h (1 Bft)
08.08.2017 22:10 13,5 °C 13,5 °C 94 % 1013,6 hPa 0,2 mm 0,2 km/h (0 Bft) O-NO 71 ° 0 min 0,000 mm 0,0 UV-I 0 W/m² 12,6 °C 13,5 °C 1,6 km/h (1 Bft)
08.08.2017 22:11 13,5 °C 13,5 °C 94 % 1013,6 hPa 0,0 mm 0,0 km/h (0 Bft) O-NO 72 ° 0 min 0,000 mm 0,0 UV-I 0 W/m² 12,6 °C 13,5 °C 0,0 km/h (0 Bft)
08.08.2017 22:12 13,4 °C 13,5 °C 94 % 1013,5 hPa 0,0 mm 0,0 km/h (0 Bft) O-NO 71 ° 0 min 0,000 mm 0,0 UV-I 0 W/m² 12,5 °C 13,4 °C 0,0 km/h (0 Bft)
08.08.2017 22:13 13,4 °C 13,4 °C 94 % 1013,5 hPa 0,0 mm 0,0 km/h (0 Bft) O-NO 71 ° 0 min 0,000 mm 0,0 UV-I 0 W/m² 12,5 °C 13,4 °C 0,0 km/h (0 Bft)
08.08.2017 22:14 13,4 °C 13,4 °C 94 % 1013,5 hPa 0,2 mm 0,5 km/h (0 Bft) O-NO 71 ° 0 min 0,000 mm 0,0 UV-I 0 W/m² 12,5 °C 13,4 °C 3,2 km/h (1 Bft)
08.08.2017 22:15 13,4 °C 13,4 °C 94 % 1013,6 hPa 0,0 mm 2,7 km/h (1 Bft) W-NW 302 ° 0 min 0,000 mm 0,0 UV-I 0 W/m² 12,5 °C 13,4 °C 6,4 km/h (2 Bft)
08.08.2017 22:16 13,4 °C 13,4 °C 94 % 1013,6 hPa 0,0 mm 2,0 km/h (1 Bft) NW 325 ° 0 min 0,000 mm 0,0 UV-I 0 W/m² 12,5 °C 13,4 °C 4,8 km/h (1 Bft)
08.08.2017 22:17 13,4 °C 13,4 °C 94 % 1013,6 hPa 0,0 mm 0,7 km/h (0 Bft) NW 325 ° 0 min 0,000 mm 0,0 UV-I 0 W/m² 12,5 °C 13,4 °C 3,2 km/h (1 Bft)
08.08.2017 22:18 13,5 °C 13,5 °C 95 % 1013,4 hPa 0,0 mm 1,0 km/h (0 Bft) NW 325 ° 0 min 0,000 mm 0,0 UV-I 0 W/m² 12,7 °C 13,5 °C 3,2 km/h (1 Bft)
08.08.2017 22:19 13,5 °C 13,5 °C 95 % 1013,5 hPa 0,2 mm 0,7 km/h (0 Bft) NW 325 ° 0 min 0,000 mm 0,0 UV-I 0 W/m² 12,7 °C 13,5 °C 3,2 km/h (1 Bft)
08.08.2017 22:20 13,5 °C 13,5 °C 94 % 1013,5 hPa 0,0 mm 0,9 km/h (0 Bft) NW 325 ° 0 min 0,000 mm 0,0 UV-I 0 W/m² 12,6 °C 13,5 °C 1,6 km/h (1 Bft)
08.08.2017 22:21 13,5 °C 13,5 °C 95 % 1013,6 hPa 0,0 mm 0,6 km/h (0 Bft) NW 325 ° 0 min 0,000 mm 0,0 UV-I 0 W/m² 12,7 °C 13,5 °C 3,2 km/h (1 Bft)
08.08.2017 22:22 13,5 °C 13,5 °C 94 % 1013,6 hPa 0,2 mm 1,8 km/h (1 Bft) NW 325 ° 0 min 0,000 mm 0,0 UV-I 0 W/m² 12,6 °C 13,5 °C 4,8 km/h (1 Bft)
08.08.2017 22:23 13,5 °C 13,5 °C 94 % 1013,6 hPa 0,0 mm 0,1 km/h (0 Bft) N-NW 335 ° 0 min 0,000 mm 0,0 UV-I 0 W/m² 12,6 °C 13,5 °C 1,6 km/h (1 Bft)
08.08.2017 22:24 13,5 °C 13,6 °C 94 % 1013,6 hPa 0,0 mm 0,0 km/h (0 Bft) N-NW 335 ° 0 min 0,000 mm 0,0 UV-I 0 W/m² 12,6 °C 13,5 °C 0,0 km/h (0 Bft)
08.08.2017 22:25 13,5 °C 13,5 °C 94 % 1013,6 hPa 0,0 mm 0,0 km/h (0 Bft) N-NW 335 ° 0 min 0,000 mm 0,0 UV-I 0 W/m² 12,6 °C 13,5 °C 0,0 km/h (0 Bft)
08.08.2017 22:26 13,5 °C 13,5 °C 94 % 1013,6 hPa 0,0 mm 2,6 km/h (1 Bft) N-NW 337 ° 0 min 0,000 mm 0,0 UV-I 0 W/m² 12,6 °C 13,5 °C 4,8 km/h (1 Bft)
08.08.2017 22:27 13,5 °C 13,5 °C 94 % 1013,6 hPa 0,2 mm 0,4 km/h (0 Bft) N-NW 337 ° 0 min 0,000 mm 0,0 UV-I 0 W/m² 12,6 °C 13,5 °C 1,6 km/h (1 Bft)
08.08.2017 22:28 13,5 °C 13,5 °C 94 % 1013,7 hPa 0,0 mm 1,3 km/h (1 Bft) N 355 ° 0 min 0,000 mm 0,0 UV-I 0 W/m² 12,6 °C 13,5 °C 4,8 km/h (1 Bft)
08.08.2017 22:29 13,5 °C 13,5 °C 94 % 1013,8 hPa 0,0 mm 0,5 km/h (0 Bft) N 355 ° 0 min 0,000 mm 0,0 UV-I 0 W/m² 12,6 °C 13,5 °C 1,6 km/h (1 Bft)
08.08.2017 22:30 13,5 °C 13,5 °C 94 % 1013,8 hPa 0,2 mm 0,3 km/h (0 Bft) N 355 ° 0 min 0,000 mm 0,0 UV-I 0 W/m² 12,6 °C 13,5 °C 1,6 km/h (1 Bft)
08.08.2017 22:31 13,5 °C 13,5 °C 94 % 1013,7 hPa 0,0 mm 1,7 km/h (1 Bft) O-SO 107 ° 0 min 0,000 mm 0,0 UV-I 0 W/m² 12,6 °C 13,5 °C 4,8 km/h (1 Bft)
08.08.2017 22:32 13,4 °C 13,5 °C 94 % 1013,6 hPa 0,0 mm 3,2 km/h (1 Bft) O-NO 75 ° 0 min 0,000 mm 0,0 UV-I 0 W/m² 12,5 °C 13,4 °C 9,7 km/h (2 Bft)
08.08.2017 22:33 13,4 °C 13,4 °C 94 % 1013,7 hPa 0,0 mm 0,5 km/h (0 Bft) O-NO 75 ° 0 min 0,000 mm 0,0 UV-I 0 W/m² 12,5 °C 13,4 °C 3,2 km/h (1 Bft)
08.08.2017 22:34 13,4 °C 13,4 °C 94 % 1013,7 hPa 0,0 mm 2,3 km/h (1 Bft) O-NO 66 ° 0 min 0,000 mm 0,0 UV-I 0 W/m² 12,5 °C 13,4 °C 4,8 km/h (1 Bft)
08.08.2017 22:35 13,4 °C 13,4 °C 94 % 1013,8 hPa 0,2 mm 0,7 km/h (0 Bft) O-NO 66 ° 0 min 0,000 mm 0,0 UV-I 0 W/m² 12,5 °C 13,4 °C 1,6 km/h (1 Bft)
08.08.2017 22:36 13,4 °C 13,4 °C 94 % 1013,8 hPa 0,0 mm 1,3 km/h (1 Bft) O-NO 61 ° 0 min 0,000 mm 0,0 UV-I 0 W/m² 12,5 °C 13,4 °C 6,4 km/h (2 Bft)
08.08.2017 22:37 13,4 °C 13,4 °C 94 % 1013,8 hPa 0,0 mm 2,7 km/h (1 Bft) NO 47 ° 0 min 0,000 mm 0,0 UV-I 0 W/m² 12,5 °C 13,4 °C 6,4 km/h (2 Bft)
08.08.2017 22:38 13,4 °C 13,4 °C 94 % 1013,9 hPa 0,0 mm 2,5 km/h (1 Bft) NO 47 ° 0 min 0,000 mm 0,0 UV-I 0 W/m² 12,5 °C 13,4 °C 3,2 km/h (1 Bft)
08.08.2017 22:39 13,3 °C 13,4 °C 94 % 1013,9 hPa 0,2 mm 1,8 km/h (1 Bft) NO 47 ° 0 min 0,000 mm 0,0 UV-I 0 W/m² 12,4 °C 13,3 °C 3,2 km/h (1 Bft)
08.08.2017 22:40 13,3 °C 13,4 °C 94 % 1013,9 hPa 0,0 mm 0,7 km/h (0 Bft) NO 48 ° 0 min 0,000 mm 0,0 UV-I 0 W/m² 12,4 °C 13,3 °C 1,6 km/h (1 Bft)
08.08.2017 22:41 13,4 °C 13,4 °C 94 % 1013,8 hPa 0,0 mm 0,3 km/h (0 Bft) O-NO 77 ° 0 min 0,000 mm 0,0 UV-I 0 W/m² 12,5 °C 13,4 °C 3,2 km/h (1 Bft)
08.08.2017 22:42 13,3 °C 13,4 °C 94 % 1013,9 hPa 0,2 mm 2,4 km/h (1 Bft) O 86 ° 0 min 0,000 mm 0,0 UV-I 0 W/m² 12,4 °C 13,3 °C 4,8 km/h (1 Bft)
08.08.2017 22:43 13,3 °C 13,4 °C 94 % 1013,9 hPa 0,0 mm 1,5 km/h (1 Bft) O 86 ° 0 min 0,000 mm 0,0 UV-I 0 W/m² 12,4 °C 13,3 °C 4,8 km/h (1 Bft)
08.08.2017 22:44 13,3 °C 13,4 °C 94 % 1014,0 hPa 0,0 mm 0,0 km/h (0 Bft) O 86 ° 0 min 0,000 mm 0,0 UV-I 0 W/m² 12,4 °C 13,3 °C 0,0 km/h (0 Bft)
08.08.2017 22:45 13,3 °C 13,3 °C 94 % 1013,9 hPa 0,2 mm 0,6 km/h (0 Bft) O 84 ° 0 min 0,000 mm 0,0 UV-I 0 W/m² 12,4 °C 13,3 °C 1,6 km/h (1 Bft)
08.08.2017 22:46 13,3 °C 13,3 °C 94 % 1013,8 hPa 0,0 mm 1,4 km/h (1 Bft) O 90 ° 0 min 0,000 mm 0,0 UV-I 0 W/m² 12,4 °C 13,3 °C 4,8 km/h (1 Bft)
08.08.2017 22:47 13,3 °C 13,3 °C 94 % 1013,7 hPa 0,0 mm 2,9 km/h (1 Bft) NO 53 ° 0 min 0,000 mm 0,0 UV-I 0 W/m² 12,4 °C 13,3 °C 6,4 km/h (2 Bft)
08.08.2017 22:48 13,3 °C 13,4 °C 94 % 1013,8 hPa 0,2 mm 2,9 km/h (1 Bft) NO 53 ° 0 min 0,000 mm 0,0 UV-I 0 W/m² 12,4 °C 13,3 °C 4,8 km/h (1 Bft)
08.08.2017 22:49 13,3 °C 13,3 °C 94 % 1013,8 hPa 0,0 mm 2,1 km/h (1 Bft) NO 53 ° 0 min 0,000 mm 0,0 UV-I 0 W/m² 12,4 °C 13,3 °C 4,8 km/h (1 Bft)
08.08.2017 22:50 13,4 °C 13,4 °C 94 % 1013,8 hPa 0,0 mm 2,1 km/h (1 Bft) NO 42 ° 0 min 0,000 mm 0,0 UV-I 0 W/m² 12,5 °C 13,4 °C 6,4 km/h (2 Bft)
08.08.2017 22:51 13,4 °C 13,4 °C 94 % 1013,9 hPa 0,0 mm 1,3 km/h (1 Bft) NO 42 ° 0 min 0,000 mm 0,0 UV-I 0 W/m² 12,5 °C 13,4 °C 4,8 km/h (1 Bft)
08.08.2017 22:52 13,4 °C 13,4 °C 94 % 1013,9 hPa 0,2 mm 0,1 km/h (0 Bft) NO 42 ° 0 min 0,000 mm 0,0 UV-I 0 W/m² 12,5 °C 13,4 °C 1,6 km/h (1 Bft)
08.08.2017 22:53 13,5 °C 13,5 °C 94 % 1013,9 hPa 0,0 mm 1,1 km/h (1 Bft) NO 41 ° 0 min 0,000 mm 0,0 UV-I 0 W/m² 12,6 °C 13,5 °C 3,2 km/h (1 Bft)
08.08.2017 22:54 13,4 °C 13,5 °C 95 % 1013,9 hPa 0,0 mm 1,4 km/h (1 Bft) N-NO 28 ° 0 min 0,000 mm 0,0 UV-I 0 W/m² 12,6 °C 13,4 °C 1,6 km/h (1 Bft)
08.08.2017 22:55 13,4 °C 13,4 °C 94 % 1013,9 hPa 0,0 mm 0,4 km/h (0 Bft) N-NO 28 ° 0 min 0,000 mm 0,0 UV-I 0 W/m² 12,5 °C 13,4 °C 1,6 km/h (1 Bft)
08.08.2017 22:56 13,4 °C 13,4 °C 94 % 1013,9 hPa 0,0 mm 0,0 km/h (0 Bft) N-NO 28 ° 0 min 0,000 mm 0,0 UV-I 0 W/m² 12,5 °C 13,4 °C 0,0 km/h (0 Bft)
08.08.2017 22:57 13,4 °C 13,4 °C 94 % 1013,9 hPa 0,0 mm 0,3 km/h (0 Bft) N-NO 28 ° 0 min 0,000 mm 0,0 UV-I 0 W/m² 12,5 °C 13,4 °C 3,2 km/h (1 Bft)
08.08.2017 22:58 13,4 °C 13,4 °C 94 % 1013,8 hPa 0,0 mm 0,6 km/h (0 Bft) N-NO 28 ° 0 min 0,000 mm 0,0 UV-I 0 W/m² 12,5 °C 13,4 °C 3,2 km/h (1 Bft)
08.08.2017 22:59 13,4 °C 13,4 °C 94 % 1013,9 hPa 0,0 mm 0,2 km/h (0 Bft) N-NO 28 ° 0 min 0,000 mm 0,0 UV-I 0 W/m² 12,5 °C 13,4 °C 1,6 km/h (1 Bft)
08.08.2017 23:00 13,4 °C 13,4 °C 94 % 1013,9 hPa 0,0 mm 1,3 km/h (1 Bft) N-NO 26 ° 0 min 0,000 mm 0,0 UV-I 0 W/m² 12,5 °C 13,4 °C 3,2 km/h (1 Bft)
08.08.2017 23:01 13,4 °C 13,4 °C 94 % 1013,9 hPa 0,0 mm 0,2 km/h (0 Bft) N-NO 26 ° 0 min 0,000 mm 0,0 UV-I 0 W/m² 12,5 °C 13,4 °C 1,6 km/h (1 Bft)
08.08.2017 23:02 13,4 °C 13,4 °C 95 % 1013,9 hPa 0,0 mm 0,5 km/h (0 Bft) N-NO 26 ° 0 min 0,000 mm 0,0 UV-I 0 W/m² 12,6 °C 13,4 °C 1,6 km/h (1 Bft)
08.08.2017 23:03 13,4 °C 13,4 °C 95 % 1014,0 hPa 0,0 mm 1,9 km/h (1 Bft) N 355 ° 0 min 0,000 mm 0,0 UV-I 0 W/m² 12,6 °C 13,4 °C 3,2 km/h (1 Bft)
08.08.2017 23:04 13,4 °C 13,4 °C 94 % 1014,0 hPa 0,0 mm 1,6 km/h (1 Bft) W-NW 299 ° 0 min 0,000 mm 0,0 UV-I 0 W/m² 12,5 °C 13,4 °C 4,8 km/h (1 Bft)
08.08.2017 23:05 13,4 °C 13,4 °C 94 % 1013,9 hPa 0,0 mm 2,9 km/h (1 Bft) NO 56 ° 0 min 0,000 mm 0,0 UV-I 0 W/m² 12,5 °C 13,4 °C 4,8 km/h (1 Bft)
08.08.2017 23:06 13,4 °C 13,4 °C 94 % 1013,9 hPa 0,0 mm 5,5 km/h (1 Bft) S 169 ° 0 min 0,000 mm 0,0 UV-I 0 W/m² 12,5 °C 13,4 °C 8,0 km/h (2 Bft)
08.08.2017 23:07 13,4 °C 13,4 °C 94 % 1013,8 hPa 0,0 mm 0,1 km/h (0 Bft) S 169 ° 0 min 0,000 mm 0,0 UV-I 0 W/m² 12,5 °C 13,4 °C 1,6 km/h (1 Bft)
08.08.2017 23:08 13,4 °C 13,4 °C 95 % 1013,8 hPa 0,2 mm 1,9 km/h (1 Bft) O-SO 119 ° 0 min 0,000 mm 0,0 UV-I 0 W/m² 12,6 °C 13,4 °C 4,8 km/h (1 Bft)
08.08.2017 23:09 13,4 °C 13,4 °C 95 % 1013,7 hPa 0,0 mm 1,9 km/h (1 Bft) NW 325 ° 0 min 0,000 mm 0,0 UV-I 0 W/m² 12,6 °C 13,4 °C 3,2 km/h (1 Bft)
08.08.2017 23:10 13,4 °C 13,4 °C 95 % 1013,7 hPa 0,0 mm 0,3 km/h (0 Bft) NW 325 ° 0 min 0,000 mm 0,0 UV-I 0 W/m² 12,6 °C 13,4 °C 1,6 km/h (1 Bft)
08.08.2017 23:11 13,4 °C 13,4 °C 95 % 1013,6 hPa 0,0 mm 1,8 km/h (1 Bft) N 11 ° 0 min 0,000 mm 0,0 UV-I 0 W/m² 12,6 °C 13,4 °C 3,2 km/h (1 Bft)
08.08.2017 23:12 13,4 °C 13,4 °C 95 % 1013,6 hPa 0,0 mm 0,9 km/h (0 Bft) N 11 ° 0 min 0,000 mm 0,0 UV-I 0 W/m² 12,6 °C 13,4 °C 3,2 km/h (1 Bft)
08.08.2017 23:13 13,4 °C 13,4 °C 95 % 1013,6 hPa 0,0 mm 0,0 km/h (0 Bft) N 11 ° 0 min 0,000 mm 0,0 UV-I 0 W/m² 12,6 °C 13,4 °C 0,0 km/h (0 Bft)
08.08.2017 23:14 13,4 °C 13,4 °C 95 % 1013,5 hPa 0,0 mm 0,0 km/h (0 Bft) N 11 ° 0 min 0,000 mm 0,0 UV-I 0 W/m² 12,6 °C 13,4 °C 0,0 km/h (0 Bft)
08.08.2017 23:15 13,4 °C 13,5 °C 95 % 1013,7 hPa 0,0 mm 0,3 km/h (0 Bft) N 11 ° 0 min 0,000 mm 0,0 UV-I 0 W/m² 12,6 °C 13,4 °C 1,6 km/h (1 Bft)
08.08.2017 23:16 13,5 °C 13,5 °C 95 % 1013,6 hPa 0,0 mm 0,1 km/h (0 Bft) N 11 ° 0 min 0,000 mm 0,0 UV-I 0 W/m² 12,7 °C 13,5 °C 1,6 km/h (1 Bft)
08.08.2017 23:17 13,4 °C 13,5 °C 95 % 1013,6 hPa 0,0 mm 0,4 km/h (0 Bft) N 11 ° 0 min 0,000 mm 0,0 UV-I 0 W/m² 12,6 °C 13,4 °C 1,6 km/h (1 Bft)
08.08.2017 23:18 13,4 °C 13,5 °C 95 % 1013,6 hPa 0,0 mm 1,4 km/h (1 Bft) N 11 ° 0 min 0,000 mm 0,0 UV-I 0 W/m² 12,6 °C 13,4 °C 3,2 km/h (1 Bft)
08.08.2017 23:19 13,4 °C 13,4 °C 95 % 1013,6 hPa 0,0 mm 0,6 km/h (0 Bft) N 11 ° 0 min 0,000 mm 0,0 UV-I 0 W/m² 12,6 °C 13,4 °C 1,6 km/h (1 Bft)
08.08.2017 23:20 13,4 °C 13,4 °C 95 % 1013,5 hPa 0,0 mm 0,0 km/h (0 Bft) N 11 ° 0 min 0,000 mm 0,0 UV-I 0 W/m² 12,6 °C 13,4 °C 0,0 km/h (0 Bft)
08.08.2017 23:21 13,4 °C 13,4 °C 95 % 1013,6 hPa 0,0 mm 0,0 km/h (0 Bft) N 11 ° 0 min 0,000 mm 0,0 UV-I 0 W/m² 12,6 °C 13,4 °C 0,0 km/h (0 Bft)
08.08.2017 23:22 13,4 °C 13,4 °C 95 % 1013,5 hPa 0,2 mm 0,1 km/h (0 Bft) N 11 ° 0 min 0,000 mm 0,0 UV-I 0 W/m² 12,6 °C 13,4 °C 1,6 km/h (1 Bft)
08.08.2017 23:23 13,4 °C 13,4 °C 95 % 1013,5 hPa 0,0 mm 0,0 km/h (0 Bft) N 11 ° 0 min 0,000 mm 0,0 UV-I 0 W/m² 12,6 °C 13,4 °C 0,0 km/h (0 Bft)
08.08.2017 23:24 13,4 °C 13,4 °C 95 % 1013,5 hPa 0,0 mm 0,6 km/h (0 Bft) N-NO 22 ° 0 min 0,000 mm 0,0 UV-I 0 W/m² 12,6 °C 13,4 °C 1,6 km/h (1 Bft)
08.08.2017 23:25 13,4 °C 13,4 °C 95 % 1013,4 hPa 0,0 mm 0,6 km/h (0 Bft) N-NO 22 ° 0 min 0,000 mm 0,0 UV-I 0 W/m² 12,6 °C 13,4 °C 1,6 km/h (1 Bft)
08.08.2017 23:26 13,4 °C 13,4 °C 95 % 1013,4 hPa 0,0 mm 0,1 km/h (0 Bft) N-NO 22 ° 0 min 0,000 mm 0,0 UV-I 0 W/m² 12,6 °C 13,4 °C 1,6 km/h (1 Bft)
08.08.2017 23:27 13,4 °C 13,4 °C 95 % 1013,3 hPa 0,0 mm 1,7 km/h (1 Bft) N-NO 22 ° 0 min 0,000 mm 0,0 UV-I 0 W/m² 12,6 °C 13,4 °C 3,2 km/h (1 Bft)
08.08.2017 23:28 13,4 °C 13,4 °C 95 % 1013,3 hPa 0,2 mm 3,3 km/h (1 Bft) O 98 ° 0 min 0,000 mm 0,0 UV-I 0 W/m² 12,6 °C 13,4 °C 4,8 km/h (1 Bft)
08.08.2017 23:29 13,4 °C 13,4 °C 95 % 1013,2 hPa 0,0 mm 3,0 km/h (1 Bft) O 98 ° 0 min 0,000 mm 0,0 UV-I 0 W/m² 12,6 °C 13,4 °C 3,2 km/h (1 Bft)
08.08.2017 23:30 13,4 °C 13,4 °C 95 % 1013,2 hPa 0,0 mm 3,0 km/h (1 Bft) O 98 ° 0 min 0,000 mm 0,0 UV-I 0 W/m² 12,6 °C 13,4 °C 4,8 km/h (1 Bft)
08.08.2017 23:31 13,4 °C 13,4 °C 95 % 1013,1 hPa 0,0 mm 3,0 km/h (1 Bft) O 98 ° 0 min 0,000 mm 0,0 UV-I 0 W/m² 12,6 °C 13,4 °C 3,2 km/h (1 Bft)
08.08.2017 23:32 13,4 °C 13,4 °C 95 % 1012,9 hPa 0,2 mm 3,2 km/h (1 Bft) O 98 ° 0 min 0,000 mm 0,0 UV-I 0 W/m² 12,6 °C 13,4 °C 4,8 km/h (1 Bft)
08.08.2017 23:33 13,4 °C 13,4 °C 95 % 1012,9 hPa 0,0 mm 1,9 km/h (1 Bft) O 98 ° 0 min 0,000 mm 0,0 UV-I 0 W/m² 12,6 °C 13,4 °C 3,2 km/h (1 Bft)
08.08.2017 23:34 13,4 °C 13,4 °C 95 % 1012,9 hPa 0,0 mm 2,0 km/h (1 Bft) O 98 ° 0 min 0,000 mm 0,0 UV-I 0 W/m² 12,6 °C 13,4 °C 3,2 km/h (1 Bft)
08.08.2017 23:35 13,4 °C 13,4 °C 95 % 1012,8 hPa 0,0 mm 1,9 km/h (1 Bft) O 98 ° 0 min 0,000 mm 0,0 UV-I 0 W/m² 12,6 °C 13,4 °C 3,2 km/h (1 Bft)
08.08.2017 23:36 13,4 °C 13,4 °C 95 % 1012,8 hPa 0,0 mm 1,5 km/h (1 Bft) O 98 ° 0 min 0,000 mm 0,0 UV-I 0 W/m² 12,6 °C 13,4 °C 3,2 km/h (1 Bft)
08.08.2017 23:37 13,4 °C 13,4 °C 95 % 1012,8 hPa 0,2 mm 0,1 km/h (0 Bft) O 98 ° 0 min 0,000 mm 0,0 UV-I 0 W/m² 12,6 °C 13,4 °C 1,6 km/h (1 Bft)
08.08.2017 23:38 13,4 °C 13,4 °C 95 % 1012,8 hPa 0,0 mm 0,0 km/h (0 Bft) O 98 ° 0 min 0,000 mm 0,0 UV-I 0 W/m² 12,6 °C 13,4 °C 0,0 km/h (0 Bft)
08.08.2017 23:39 13,4 °C 13,4 °C 95 % 1012,8 hPa 0,0 mm 0,0 km/h (0 Bft) O 98 ° 0 min 0,000 mm 0,0 UV-I 0 W/m² 12,6 °C 13,4 °C 0,0 km/h (0 Bft)
08.08.2017 23:40 13,4 °C 13,4 °C 95 % 1012,8 hPa 0,0 mm 0,0 km/h (0 Bft) O 98 ° 0 min 0,000 mm 0,0 UV-I 0 W/m² 12,6 °C 13,4 °C 0,0 km/h (0 Bft)
08.08.2017 23:41 13,4 °C 13,4 °C 95 % 1012,8 hPa 0,0 mm 0,9 km/h (0 Bft) O 98 ° 0 min 0,000 mm 0,0 UV-I 0 W/m² 12,6 °C 13,4 °C 3,2 km/h (1 Bft)
08.08.2017 23:42 13,3 °C 13,4 °C 95 % 1012,8 hPa 0,2 mm 0,6 km/h (0 Bft) O 98 ° 0 min 0,000 mm 0,0 UV-I 0 W/m² 12,5 °C 13,3 °C 3,2 km/h (1 Bft)
08.08.2017 23:43 13,4 °C 13,4 °C 95 % 1012,7 hPa 0,0 mm 1,9 km/h (1 Bft) O 98 ° 0 min 0,000 mm 0,0 UV-I 0 W/m² 12,6 °C 13,4 °C 3,2 km/h (1 Bft)
08.08.2017 23:44 13,4 °C 13,4 °C 95 % 1012,6 hPa 0,0 mm 0,3 km/h (0 Bft) O 98 ° 0 min 0,000 mm 0,0 UV-I 0 W/m² 12,6 °C 13,4 °C 1,6 km/h (1 Bft)
08.08.2017 23:45 13,4 °C 13,4 °C 95 % 1012,3 hPa 0,0 mm 1,1 km/h (1 Bft) O 96 ° 0 min 0,000 mm 0,0 UV-I 0 W/m² 12,6 °C 13,4 °C 3,2 km/h (1 Bft)
08.08.2017 23:46 13,4 °C 13,4 °C 95 % 1012,1 hPa 0,0 mm 3,4 km/h (1 Bft) O 88 ° 0 min 0,000 mm 0,0 UV-I 0 W/m² 12,6 °C 13,4 °C 4,8 km/h (1 Bft)
08.08.2017 23:47 13,4 °C 13,4 °C 95 % 1012,0 hPa 0,0 mm 2,7 km/h (1 Bft) O 88 ° 0 min 0,000 mm 0,0 UV-I 0 W/m² 12,6 °C 13,4 °C 3,2 km/h (1 Bft)
08.08.2017 23:48 13,3 °C 13,4 °C 95 % 1011,9 hPa 0,0 mm 1,5 km/h (1 Bft) O 88 ° 0 min 0,000 mm 0,0 UV-I 0 W/m² 12,5 °C 13,3 °C 3,2 km/h (1 Bft)
08.08.2017 23:49 13,4 °C 13,4 °C 95 % 1011,9 hPa 0,0 mm 0,3 km/h (0 Bft) O 88 ° 0 min 0,000 mm 0,0 UV-I 0 W/m² 12,6 °C 13,4 °C 1,6 km/h (1 Bft)
08.08.2017 23:50 13,3 °C 13,4 °C 95 % 1012,1 hPa 0,0 mm 1,0 km/h (0 Bft) O 88 ° 0 min 0,000 mm 0,0 UV-I 0 W/m² 12,5 °C 13,3 °C 3,2 km/h (1 Bft)
08.08.2017 23:51 13,4 °C 13,4 °C 95 % 1012,4 hPa 0,0 mm 3,3 km/h (1 Bft) W-NW 291 ° 0 min 0,000 mm 0,0 UV-I 0 W/m² 12,6 °C 13,4 °C 4,8 km/h (1 Bft)
08.08.2017 23:52 13,4 °C 13,4 °C 95 % 1012,7 hPa 0,0 mm 4,0 km/h (1 Bft) W-NW 288 ° 0 min 0,000 mm 0,0 UV-I 0 W/m² 12,6 °C 13,4 °C 6,4 km/h (2 Bft)
08.08.2017 23:53 13,4 °C 13,4 °C 95 % 1012,9 hPa 0,0 mm 4,6 km/h (1 Bft) W-SW 242 ° 0 min 0,000 mm 0,0 UV-I 0 W/m² 12,6 °C 13,4 °C 8,0 km/h (2 Bft)
08.08.2017 23:54 13,4 °C 13,4 °C 95 % 1013,2 hPa 0,0 mm 3,5 km/h (1 Bft) W-SW 252 ° 0 min 0,000 mm 0,0 UV-I 0 W/m² 12,6 °C 13,4 °C 4,8 km/h (1 Bft)
08.08.2017 23:55 13,4 °C 13,4 °C 95 % 1013,4 hPa 0,0 mm 2,9 km/h (1 Bft) SW 216 ° 0 min 0,000 mm 0,0 UV-I 0 W/m² 12,6 °C 13,4 °C 4,8 km/h (1 Bft)
08.08.2017 23:56 13,5 °C 13,5 °C 95 % 1013,3 hPa 0,0 mm 4,4 km/h (1 Bft) W-SW 257 ° 0 min 0,000 mm 0,0 UV-I 0 W/m² 12,7 °C 13,5 °C 6,4 km/h (2 Bft)
08.08.2017 23:57 13,5 °C 13,6 °C 95 % 1013,2 hPa 0,0 mm 2,3 km/h (1 Bft) W-SW 249 ° 0 min 0,000 mm 0,0 UV-I 0 W/m² 12,7 °C 13,5 °C 4,8 km/h (1 Bft)
08.08.2017 23:58 13,5 °C 13,5 °C 95 % 1013,1 hPa 0,2 mm 1,2 km/h (1 Bft) W-SW 250 ° 0 min 0,000 mm 0,0 UV-I 0 W/m² 12,7 °C 13,5 °C 3,2 km/h (1 Bft)
08.08.2017 23:59 13,5 °C 13,6 °C 95 % 1012,9 hPa 0,0 mm 0,3 km/h (0 Bft) W-SW 250 ° 0 min 0,000 mm 0,0 UV-I 0 W/m² 12,7 °C 13,5 °C 3,2 km/h (1 Bft)
_ Min-Zeit 06:33 06:32 12:00 11:04 - 23:40 - - - - - - 06:15 06:33 23:40
Minimum _ 11,3 °C 11,3 °C 61 % 1007,4 hPa - 0,0 km/h (0 Bft) - - - - - - 10,3 °C 11,3 °C 0,0 km/h (0 Bft)
_ Max-Zeit 12:39 12:40 04:20 21:03 17:40 13:41 - - 15:44 14:01 13:27 13:25 12:25 12:39 13:40
Maximum _ 25,4 °C 25,4 °C 97 % 1015,0 hPa 1,0 mm 20,1 km/h
W-NW (4 Bft)
- - 2 min 0,457 mm 7,4 UV-I 997 W/m² 19,9 °C 25,4 °C 32,2 km/h
W (5 Bft)
Durchschnitt _ 16,8 °C 16,9 °C 85 % 1010,8 hPa #14,6 mm 3,4 km/h (1 Bft) W - #6:13 h #2,921 mm 3,3 UV-I 187 W/m² 14,1 °C 16,8 °C 5,5 km/h (1 Bft)